<?xml version="1.0" encoding="UTF-8" standalone="no" ?>
<gpx xmlns="http://www.topografix.com/GPX/1/1" xmlns:xsi="http://www.w3.org/2001/XMLSchema-instance" xsi:schemaLocation="http://www.topografix.com/GPX/1/1 http://www.topografix.com/GPX/1/1/gpx.xsd" version="1.1" creator="VisuGPX - https://www.visugpx.com">
  <metadata>
    <name>st co 2017</name>
    <desc><![CDATA[exocet cross 94 l
27.5 6.2 rapid gun sail]]></desc>
  </metadata>
  <trk>
    <name><![CDATA[st co 2017_1]]></name>
    <trkseg>
      <trkpt lat="47.57034" lon="-3.1001">
        <ele>6.1</ele>
        <time>2017-11-12T13:33:53.000Z</time>
      </trkpt>
      <trkpt lat="47.57034" lon="-3.1001">
        <ele>6.1</ele>
        <time>2017-11-12T13:33:54.000Z</time>
      </trkpt>
      <trkpt lat="47.57034" lon="-3.1001">
        <ele>6.1</ele>
        <time>2017-11-12T13:33:55.000Z</time>
      </trkpt>
      <trkpt lat="47.57034" lon="-3.1001">
        <ele>6.1</ele>
        <time>2017-11-12T13:33:56.000Z</time>
      </trkpt>
      <trkpt lat="47.57034" lon="-3.1001">
        <ele>6.1</ele>
        <time>2017-11-12T13:33:57.000Z</time>
      </trkpt>
      <trkpt lat="47.57034" lon="-3.1001">
        <ele>6.1</ele>
        <time>2017-11-12T13:33:58.000Z</time>
      </trkpt>
      <trkpt lat="47.57034" lon="-3.1001">
        <ele>6.1</ele>
        <time>2017-11-12T13:33:59.000Z</time>
      </trkpt>
      <trkpt lat="47.57034" lon="-3.1001">
        <ele>6.1</ele>
        <time>2017-11-12T13:34:00.000Z</time>
      </trkpt>
      <trkpt lat="47.57033" lon="-3.10006">
        <ele>6.2</ele>
        <time>2017-11-12T13:34:01.000Z</time>
      </trkpt>
      <trkpt lat="47.57033" lon="-3.10005">
        <ele>6.1</ele>
        <time>2017-11-12T13:34:02.000Z</time>
      </trkpt>
      <trkpt lat="47.57033" lon="-3.10005">
        <ele>6.1</ele>
        <time>2017-11-12T13:34:03.000Z</time>
      </trkpt>
      <trkpt lat="47.57033" lon="-3.10004">
        <ele>6.1</ele>
        <time>2017-11-12T13:34:04.000Z</time>
      </trkpt>
      <trkpt lat="47.57033" lon="-3.10004">
        <ele>6.1</ele>
        <time>2017-11-12T13:34:05.000Z</time>
      </trkpt>
      <trkpt lat="47.57033" lon="-3.10004">
        <ele>6.1</ele>
        <time>2017-11-12T13:34:06.000Z</time>
      </trkpt>
      <trkpt lat="47.57033" lon="-3.10004">
        <ele>6.1</ele>
        <time>2017-11-12T13:34:07.000Z</time>
      </trkpt>
      <trkpt lat="47.57033" lon="-3.10004">
        <ele>6.1</ele>
        <time>2017-11-12T13:34:08.000Z</time>
      </trkpt>
      <trkpt lat="47.57033" lon="-3.10004">
        <ele>6.1</ele>
        <time>2017-11-12T13:34:09.000Z</time>
      </trkpt>
      <trkpt lat="47.57033" lon="-3.10004">
        <ele>6.1</ele>
        <time>2017-11-12T13:34:10.000Z</time>
      </trkpt>
      <trkpt lat="47.57033" lon="-3.10004">
        <ele>6.1</ele>
        <time>2017-11-12T13:34:11.000Z</time>
      </trkpt>
      <trkpt lat="47.57033" lon="-3.10004">
        <ele>6.1</ele>
        <time>2017-11-12T13:34:12.000Z</time>
      </trkpt>
      <trkpt lat="47.57033" lon="-3.10004">
        <ele>6.1</ele>
        <time>2017-11-12T13:34:13.000Z</time>
      </trkpt>
      <trkpt lat="47.57033" lon="-3.10004">
        <ele>6.1</ele>
        <time>2017-11-12T13:34:14.000Z</time>
      </trkpt>
      <trkpt lat="47.57024" lon="-3.10011">
        <ele>5.7</ele>
        <time>2017-11-12T13:34:15.000Z</time>
      </trkpt>
      <trkpt lat="47.57024" lon="-3.10013">
        <ele>5.6</ele>
        <time>2017-11-12T13:34:16.000Z</time>
      </trkpt>
      <trkpt lat="47.57024" lon="-3.10014">
        <ele>5.6</ele>
        <time>2017-11-12T13:34:17.000Z</time>
      </trkpt>
      <trkpt lat="47.57024" lon="-3.10015">
        <ele>5.6</ele>
        <time>2017-11-12T13:34:18.000Z</time>
      </trkpt>
      <trkpt lat="47.57024" lon="-3.10015">
        <ele>5.6</ele>
        <time>2017-11-12T13:34:19.000Z</time>
      </trkpt>
      <trkpt lat="47.57024" lon="-3.10015">
        <ele>5.6</ele>
        <time>2017-11-12T13:34:20.000Z</time>
      </trkpt>
      <trkpt lat="47.57024" lon="-3.10015">
        <ele>5.6</ele>
        <time>2017-11-12T13:34:21.000Z</time>
      </trkpt>
      <trkpt lat="47.57024" lon="-3.10015">
        <ele>5.6</ele>
        <time>2017-11-12T13:34:22.000Z</time>
      </trkpt>
      <trkpt lat="47.57024" lon="-3.10015">
        <ele>5.6</ele>
        <time>2017-11-12T13:34:23.000Z</time>
      </trkpt>
      <trkpt lat="47.57023" lon="-3.10022">
        <ele>5.5</ele>
        <time>2017-11-12T13:34:24.000Z</time>
      </trkpt>
      <trkpt lat="47.57023" lon="-3.10023">
        <ele>5.5</ele>
        <time>2017-11-12T13:34:25.000Z</time>
      </trkpt>
      <trkpt lat="47.57022" lon="-3.10024">
        <ele>5.4</ele>
        <time>2017-11-12T13:34:26.000Z</time>
      </trkpt>
      <trkpt lat="47.57022" lon="-3.10025">
        <ele>5.4</ele>
        <time>2017-11-12T13:34:27.000Z</time>
      </trkpt>
      <trkpt lat="47.57021" lon="-3.10026">
        <ele>5.3</ele>
        <time>2017-11-12T13:34:28.000Z</time>
      </trkpt>
      <trkpt lat="47.57021" lon="-3.10027">
        <ele>5.2</ele>
        <time>2017-11-12T13:34:29.000Z</time>
      </trkpt>
      <trkpt lat="47.5702" lon="-3.10028">
        <ele>5.2</ele>
        <time>2017-11-12T13:34:30.000Z</time>
      </trkpt>
      <trkpt lat="47.5702" lon="-3.1003">
        <ele>5.2</ele>
        <time>2017-11-12T13:34:31.000Z</time>
      </trkpt>
      <trkpt lat="47.57019" lon="-3.1003">
        <ele>5.2</ele>
        <time>2017-11-12T13:34:32.000Z</time>
      </trkpt>
      <trkpt lat="47.57019" lon="-3.10031">
        <ele>5.2</ele>
        <time>2017-11-12T13:34:33.000Z</time>
      </trkpt>
      <trkpt lat="47.57018" lon="-3.10031">
        <ele>5.1</ele>
        <time>2017-11-12T13:34:34.000Z</time>
      </trkpt>
      <trkpt lat="47.57018" lon="-3.10031">
        <ele>5.1</ele>
        <time>2017-11-12T13:34:35.000Z</time>
      </trkpt>
      <trkpt lat="47.57018" lon="-3.10031">
        <ele>5.1</ele>
        <time>2017-11-12T13:34:36.000Z</time>
      </trkpt>
      <trkpt lat="47.57018" lon="-3.10031">
        <ele>5.1</ele>
        <time>2017-11-12T13:34:37.000Z</time>
      </trkpt>
      <trkpt lat="47.57018" lon="-3.10031">
        <ele>5.1</ele>
        <time>2017-11-12T13:34:38.000Z</time>
      </trkpt>
      <trkpt lat="47.57018" lon="-3.10031">
        <ele>5.1</ele>
        <time>2017-11-12T13:34:39.000Z</time>
      </trkpt>
      <trkpt lat="47.57018" lon="-3.10031">
        <ele>5.1</ele>
        <time>2017-11-12T13:34:40.000Z</time>
      </trkpt>
      <trkpt lat="47.57018" lon="-3.10031">
        <ele>5.1</ele>
        <time>2017-11-12T13:34:41.000Z</time>
      </trkpt>
      <trkpt lat="47.57013" lon="-3.10031">
        <ele>4.5</ele>
        <time>2017-11-12T13:34:42.000Z</time>
      </trkpt>
      <trkpt lat="47.57013" lon="-3.10027">
        <ele>4.4</ele>
        <time>2017-11-12T13:34:43.000Z</time>
      </trkpt>
      <trkpt lat="47.57012" lon="-3.10026">
        <ele>4.4</ele>
        <time>2017-11-12T13:34:44.000Z</time>
      </trkpt>
      <trkpt lat="47.57011" lon="-3.10025">
        <ele>4.2</ele>
        <time>2017-11-12T13:34:45.000Z</time>
      </trkpt>
      <trkpt lat="47.57009" lon="-3.10024">
        <ele>4</ele>
        <time>2017-11-12T13:34:46.000Z</time>
      </trkpt>
      <trkpt lat="47.57007" lon="-3.10024">
        <ele>3.8</ele>
        <time>2017-11-12T13:34:47.000Z</time>
      </trkpt>
      <trkpt lat="47.57005" lon="-3.10024">
        <ele>3.6</ele>
        <time>2017-11-12T13:34:48.000Z</time>
      </trkpt>
      <trkpt lat="47.57003" lon="-3.10023">
        <ele>3.4</ele>
        <time>2017-11-12T13:34:49.000Z</time>
      </trkpt>
      <trkpt lat="47.57001" lon="-3.10022">
        <ele>3.3</ele>
        <time>2017-11-12T13:34:50.000Z</time>
      </trkpt>
      <trkpt lat="47.57" lon="-3.10021">
        <ele>3.3</ele>
        <time>2017-11-12T13:34:51.000Z</time>
      </trkpt>
      <trkpt lat="47.56998" lon="-3.10019">
        <ele>3.1</ele>
        <time>2017-11-12T13:34:52.000Z</time>
      </trkpt>
      <trkpt lat="47.56996" lon="-3.10018">
        <ele>3</ele>
        <time>2017-11-12T13:34:53.000Z</time>
      </trkpt>
      <trkpt lat="47.56995" lon="-3.10017">
        <ele>2.9</ele>
        <time>2017-11-12T13:34:54.000Z</time>
      </trkpt>
      <trkpt lat="47.56994" lon="-3.10017">
        <ele>2.8</ele>
        <time>2017-11-12T13:34:55.000Z</time>
      </trkpt>
      <trkpt lat="47.56993" lon="-3.10017">
        <ele>2.8</ele>
        <time>2017-11-12T13:34:56.000Z</time>
      </trkpt>
      <trkpt lat="47.56992" lon="-3.10017">
        <ele>2.7</ele>
        <time>2017-11-12T13:34:57.000Z</time>
      </trkpt>
      <trkpt lat="47.56991" lon="-3.10017">
        <ele>2.6</ele>
        <time>2017-11-12T13:34:58.000Z</time>
      </trkpt>
      <trkpt lat="47.56991" lon="-3.10017">
        <ele>2.6</ele>
        <time>2017-11-12T13:34:59.000Z</time>
      </trkpt>
      <trkpt lat="47.56991" lon="-3.10017">
        <ele>2.6</ele>
        <time>2017-11-12T13:35:00.000Z</time>
      </trkpt>
      <trkpt lat="47.56991" lon="-3.10017">
        <ele>2.6</ele>
        <time>2017-11-12T13:35:01.000Z</time>
      </trkpt>
      <trkpt lat="47.56991" lon="-3.10017">
        <ele>2.6</ele>
        <time>2017-11-12T13:35:02.000Z</time>
      </trkpt>
      <trkpt lat="47.56991" lon="-3.10017">
        <ele>2.6</ele>
        <time>2017-11-12T13:35:03.000Z</time>
      </trkpt>
      <trkpt lat="47.56991" lon="-3.10017">
        <ele>2.6</ele>
        <time>2017-11-12T13:35:04.000Z</time>
      </trkpt>
      <trkpt lat="47.56991" lon="-3.10017">
        <ele>2.6</ele>
        <time>2017-11-12T13:35:05.000Z</time>
      </trkpt>
      <trkpt lat="47.56991" lon="-3.10017">
        <ele>2.6</ele>
        <time>2017-11-12T13:35:06.000Z</time>
      </trkpt>
      <trkpt lat="47.56991" lon="-3.10017">
        <ele>2.6</ele>
        <time>2017-11-12T13:35:07.000Z</time>
      </trkpt>
      <trkpt lat="47.56991" lon="-3.10017">
        <ele>2.6</ele>
        <time>2017-11-12T13:35:08.000Z</time>
      </trkpt>
      <trkpt lat="47.56991" lon="-3.10017">
        <ele>2.6</ele>
        <time>2017-11-12T13:35:09.000Z</time>
      </trkpt>
      <trkpt lat="47.56991" lon="-3.10017">
        <ele>2.6</ele>
        <time>2017-11-12T13:35:10.000Z</time>
      </trkpt>
      <trkpt lat="47.56991" lon="-3.10017">
        <ele>2.6</ele>
        <time>2017-11-12T13:35:11.000Z</time>
      </trkpt>
      <trkpt lat="47.56991" lon="-3.10017">
        <ele>2.6</ele>
        <time>2017-11-12T13:35:12.000Z</time>
      </trkpt>
      <trkpt lat="47.56991" lon="-3.10017">
        <ele>2.6</ele>
        <time>2017-11-12T13:35:13.000Z</time>
      </trkpt>
      <trkpt lat="47.56991" lon="-3.10017">
        <ele>2.6</ele>
        <time>2017-11-12T13:35:14.000Z</time>
      </trkpt>
      <trkpt lat="47.56991" lon="-3.10017">
        <ele>2.6</ele>
        <time>2017-11-12T13:35:15.000Z</time>
      </trkpt>
      <trkpt lat="47.56991" lon="-3.10017">
        <ele>2.6</ele>
        <time>2017-11-12T13:35:16.000Z</time>
      </trkpt>
      <trkpt lat="47.56991" lon="-3.10017">
        <ele>2.6</ele>
        <time>2017-11-12T13:35:17.000Z</time>
      </trkpt>
      <trkpt lat="47.56991" lon="-3.10017">
        <ele>2.6</ele>
        <time>2017-11-12T13:35:18.000Z</time>
      </trkpt>
      <trkpt lat="47.56991" lon="-3.10017">
        <ele>2.6</ele>
        <time>2017-11-12T13:35:19.000Z</time>
      </trkpt>
      <trkpt lat="47.56991" lon="-3.10017">
        <ele>2.6</ele>
        <time>2017-11-12T13:35:20.000Z</time>
      </trkpt>
      <trkpt lat="47.56991" lon="-3.10017">
        <ele>2.6</ele>
        <time>2017-11-12T13:35:21.000Z</time>
      </trkpt>
      <trkpt lat="47.56987" lon="-3.10021">
        <ele>2.2</ele>
        <time>2017-11-12T13:35:22.000Z</time>
      </trkpt>
      <trkpt lat="47.56987" lon="-3.10021">
        <ele>2.2</ele>
        <time>2017-11-12T13:35:23.000Z</time>
      </trkpt>
      <trkpt lat="47.56987" lon="-3.10021">
        <ele>2.2</ele>
        <time>2017-11-12T13:35:24.000Z</time>
      </trkpt>
      <trkpt lat="47.56987" lon="-3.10022">
        <ele>2.2</ele>
        <time>2017-11-12T13:35:25.000Z</time>
      </trkpt>
      <trkpt lat="47.56987" lon="-3.10022">
        <ele>2.2</ele>
        <time>2017-11-12T13:35:26.000Z</time>
      </trkpt>
      <trkpt lat="47.56987" lon="-3.10022">
        <ele>2.2</ele>
        <time>2017-11-12T13:35:27.000Z</time>
      </trkpt>
      <trkpt lat="47.56987" lon="-3.10022">
        <ele>2.2</ele>
        <time>2017-11-12T13:35:28.000Z</time>
      </trkpt>
      <trkpt lat="47.56987" lon="-3.10022">
        <ele>2.2</ele>
        <time>2017-11-12T13:35:29.000Z</time>
      </trkpt>
      <trkpt lat="47.56987" lon="-3.10022">
        <ele>2.2</ele>
        <time>2017-11-12T13:35:30.000Z</time>
      </trkpt>
      <trkpt lat="47.56987" lon="-3.10022">
        <ele>2.2</ele>
        <time>2017-11-12T13:35:31.000Z</time>
      </trkpt>
      <trkpt lat="47.56987" lon="-3.10022">
        <ele>2.2</ele>
        <time>2017-11-12T13:35:32.000Z</time>
      </trkpt>
      <trkpt lat="47.56987" lon="-3.10022">
        <ele>2.2</ele>
        <time>2017-11-12T13:35:33.000Z</time>
      </trkpt>
      <trkpt lat="47.56987" lon="-3.10022">
        <ele>2.2</ele>
        <time>2017-11-12T13:35:34.000Z</time>
      </trkpt>
      <trkpt lat="47.56987" lon="-3.10022">
        <ele>2.2</ele>
        <time>2017-11-12T13:35:35.000Z</time>
      </trkpt>
      <trkpt lat="47.56987" lon="-3.10022">
        <ele>2.2</ele>
        <time>2017-11-12T13:35:36.000Z</time>
      </trkpt>
      <trkpt lat="47.56987" lon="-3.10022">
        <ele>2.2</ele>
        <time>2017-11-12T13:35:37.000Z</time>
      </trkpt>
      <trkpt lat="47.56987" lon="-3.10022">
        <ele>2.2</ele>
        <time>2017-11-12T13:35:38.000Z</time>
      </trkpt>
      <trkpt lat="47.56987" lon="-3.10022">
        <ele>2.2</ele>
        <time>2017-11-12T13:35:39.000Z</time>
      </trkpt>
      <trkpt lat="47.56987" lon="-3.10022">
        <ele>2.2</ele>
        <time>2017-11-12T13:35:40.000Z</time>
      </trkpt>
      <trkpt lat="47.56987" lon="-3.10022">
        <ele>2.2</ele>
        <time>2017-11-12T13:35:41.000Z</time>
      </trkpt>
      <trkpt lat="47.56987" lon="-3.10022">
        <ele>2.2</ele>
        <time>2017-11-12T13:35:42.000Z</time>
      </trkpt>
      <trkpt lat="47.56987" lon="-3.10022">
        <ele>2.2</ele>
        <time>2017-11-12T13:35:43.000Z</time>
      </trkpt>
      <trkpt lat="47.56987" lon="-3.10022">
        <ele>2.2</ele>
        <time>2017-11-12T13:35:44.000Z</time>
      </trkpt>
      <trkpt lat="47.56987" lon="-3.10022">
        <ele>2.2</ele>
        <time>2017-11-12T13:35:45.000Z</time>
      </trkpt>
      <trkpt lat="47.56987" lon="-3.10022">
        <ele>2.2</ele>
        <time>2017-11-12T13:35:46.000Z</time>
      </trkpt>
      <trkpt lat="47.56987" lon="-3.10022">
        <ele>2.2</ele>
        <time>2017-11-12T13:35:47.000Z</time>
      </trkpt>
      <trkpt lat="47.56987" lon="-3.10022">
        <ele>2.2</ele>
        <time>2017-11-12T13:35:48.000Z</time>
      </trkpt>
      <trkpt lat="47.56987" lon="-3.10022">
        <ele>2.2</ele>
        <time>2017-11-12T13:35:49.000Z</time>
      </trkpt>
      <trkpt lat="47.56987" lon="-3.10022">
        <ele>2.2</ele>
        <time>2017-11-12T13:35:50.000Z</time>
      </trkpt>
      <trkpt lat="47.56987" lon="-3.10022">
        <ele>2.2</ele>
        <time>2017-11-12T13:35:51.000Z</time>
      </trkpt>
      <trkpt lat="47.56987" lon="-3.10022">
        <ele>2.2</ele>
        <time>2017-11-12T13:35:52.000Z</time>
      </trkpt>
      <trkpt lat="47.56987" lon="-3.10022">
        <ele>2.2</ele>
        <time>2017-11-12T13:35:53.000Z</time>
      </trkpt>
      <trkpt lat="47.56987" lon="-3.10022">
        <ele>2.2</ele>
        <time>2017-11-12T13:35:54.000Z</time>
      </trkpt>
      <trkpt lat="47.56987" lon="-3.10022">
        <ele>2.2</ele>
        <time>2017-11-12T13:35:55.000Z</time>
      </trkpt>
      <trkpt lat="47.56987" lon="-3.10022">
        <ele>2.2</ele>
        <time>2017-11-12T13:35:56.000Z</time>
      </trkpt>
      <trkpt lat="47.56987" lon="-3.10022">
        <ele>2.2</ele>
        <time>2017-11-12T13:35:57.000Z</time>
      </trkpt>
      <trkpt lat="47.56987" lon="-3.10022">
        <ele>2.2</ele>
        <time>2017-11-12T13:35:58.000Z</time>
      </trkpt>
      <trkpt lat="47.56987" lon="-3.10022">
        <ele>2.2</ele>
        <time>2017-11-12T13:35:59.000Z</time>
      </trkpt>
      <trkpt lat="47.5698" lon="-3.10023">
        <ele>1.6</ele>
        <time>2017-11-12T13:36:00.000Z</time>
      </trkpt>
      <trkpt lat="47.56978" lon="-3.10024">
        <ele>1.5</ele>
        <time>2017-11-12T13:36:01.000Z</time>
      </trkpt>
      <trkpt lat="47.56977" lon="-3.10025">
        <ele>1.4</ele>
        <time>2017-11-12T13:36:02.000Z</time>
      </trkpt>
      <trkpt lat="47.56976" lon="-3.10026">
        <ele>1.3</ele>
        <time>2017-11-12T13:36:03.000Z</time>
      </trkpt>
      <trkpt lat="47.56975" lon="-3.10026">
        <ele>1.2</ele>
        <time>2017-11-12T13:36:04.000Z</time>
      </trkpt>
      <trkpt lat="47.56974" lon="-3.10027">
        <ele>1.1</ele>
        <time>2017-11-12T13:36:05.000Z</time>
      </trkpt>
      <trkpt lat="47.56973" lon="-3.10028">
        <ele>1</ele>
        <time>2017-11-12T13:36:06.000Z</time>
      </trkpt>
      <trkpt lat="47.56972" lon="-3.10029">
        <ele>1</ele>
        <time>2017-11-12T13:36:07.000Z</time>
      </trkpt>
      <trkpt lat="47.56972" lon="-3.10029">
        <ele>1</ele>
        <time>2017-11-12T13:36:08.000Z</time>
      </trkpt>
      <trkpt lat="47.56971" lon="-3.10029">
        <ele>1</ele>
        <time>2017-11-12T13:36:09.000Z</time>
      </trkpt>
      <trkpt lat="47.56971" lon="-3.10029">
        <ele>1</ele>
        <time>2017-11-12T13:36:10.000Z</time>
      </trkpt>
      <trkpt lat="47.56971" lon="-3.10029">
        <ele>1</ele>
        <time>2017-11-12T13:36:11.000Z</time>
      </trkpt>
      <trkpt lat="47.56971" lon="-3.10029">
        <ele>1</ele>
        <time>2017-11-12T13:36:12.000Z</time>
      </trkpt>
      <trkpt lat="47.56971" lon="-3.10029">
        <ele>1</ele>
        <time>2017-11-12T13:36:13.000Z</time>
      </trkpt>
      <trkpt lat="47.56971" lon="-3.10029">
        <ele>1</ele>
        <time>2017-11-12T13:36:14.000Z</time>
      </trkpt>
      <trkpt lat="47.56971" lon="-3.10029">
        <ele>1</ele>
        <time>2017-11-12T13:36:15.000Z</time>
      </trkpt>
      <trkpt lat="47.56971" lon="-3.10029">
        <ele>1</ele>
        <time>2017-11-12T13:36:16.000Z</time>
      </trkpt>
      <trkpt lat="47.56971" lon="-3.10029">
        <ele>1</ele>
        <time>2017-11-12T13:36:17.000Z</time>
      </trkpt>
      <trkpt lat="47.56971" lon="-3.10029">
        <ele>1</ele>
        <time>2017-11-12T13:36:18.000Z</time>
      </trkpt>
      <trkpt lat="47.56971" lon="-3.10029">
        <ele>1</ele>
        <time>2017-11-12T13:36:19.000Z</time>
      </trkpt>
      <trkpt lat="47.56971" lon="-3.10029">
        <ele>1</ele>
        <time>2017-11-12T13:36:20.000Z</time>
      </trkpt>
      <trkpt lat="47.56971" lon="-3.10029">
        <ele>1</ele>
        <time>2017-11-12T13:36:21.000Z</time>
      </trkpt>
      <trkpt lat="47.56971" lon="-3.10029">
        <ele>1</ele>
        <time>2017-11-12T13:36:22.000Z</time>
      </trkpt>
      <trkpt lat="47.56971" lon="-3.10029">
        <ele>1</ele>
        <time>2017-11-12T13:36:23.000Z</time>
      </trkpt>
      <trkpt lat="47.56971" lon="-3.10029">
        <ele>1</ele>
        <time>2017-11-12T13:36:24.000Z</time>
      </trkpt>
      <trkpt lat="47.56971" lon="-3.10029">
        <ele>1</ele>
        <time>2017-11-12T13:36:25.000Z</time>
      </trkpt>
      <trkpt lat="47.56971" lon="-3.10029">
        <ele>1</ele>
        <time>2017-11-12T13:36:26.000Z</time>
      </trkpt>
      <trkpt lat="47.56971" lon="-3.10029">
        <ele>1</ele>
        <time>2017-11-12T13:36:27.000Z</time>
      </trkpt>
      <trkpt lat="47.56971" lon="-3.10029">
        <ele>1</ele>
        <time>2017-11-12T13:36:28.000Z</time>
      </trkpt>
      <trkpt lat="47.56973" lon="-3.10031">
        <ele>1.3</ele>
        <time>2017-11-12T13:36:29.000Z</time>
      </trkpt>
      <trkpt lat="47.56971" lon="-3.10033">
        <ele>1</ele>
        <time>2017-11-12T13:36:30.000Z</time>
      </trkpt>
      <trkpt lat="47.5697" lon="-3.10036">
        <ele>1</ele>
        <time>2017-11-12T13:36:31.000Z</time>
      </trkpt>
      <trkpt lat="47.56968" lon="-3.10038">
        <ele>1</ele>
        <time>2017-11-12T13:36:32.000Z</time>
      </trkpt>
      <trkpt lat="47.56967" lon="-3.1004">
        <ele>1</ele>
        <time>2017-11-12T13:36:33.000Z</time>
      </trkpt>
      <trkpt lat="47.56966" lon="-3.10042">
        <ele>1</ele>
        <time>2017-11-12T13:36:34.000Z</time>
      </trkpt>
      <trkpt lat="47.56966" lon="-3.10045">
        <ele>1</ele>
        <time>2017-11-12T13:36:35.000Z</time>
      </trkpt>
      <trkpt lat="47.56964" lon="-3.10048">
        <ele>1</ele>
        <time>2017-11-12T13:36:36.000Z</time>
      </trkpt>
      <trkpt lat="47.56964" lon="-3.1005">
        <ele>1</ele>
        <time>2017-11-12T13:36:37.000Z</time>
      </trkpt>
      <trkpt lat="47.56963" lon="-3.10053">
        <ele>1</ele>
        <time>2017-11-12T13:36:38.000Z</time>
      </trkpt>
      <trkpt lat="47.56962" lon="-3.10054">
        <ele>1</ele>
        <time>2017-11-12T13:36:39.000Z</time>
      </trkpt>
      <trkpt lat="47.56961" lon="-3.10056">
        <time>2017-11-12T13:36:40.000Z</time>
      </trkpt>
      <trkpt lat="47.5696" lon="-3.10058">
        <time>2017-11-12T13:36:41.000Z</time>
      </trkpt>
      <trkpt lat="47.56959" lon="-3.10061">
        <time>2017-11-12T13:36:42.000Z</time>
      </trkpt>
      <trkpt lat="47.56957" lon="-3.10062">
        <time>2017-11-12T13:36:43.000Z</time>
      </trkpt>
      <trkpt lat="47.56955" lon="-3.10064">
        <time>2017-11-12T13:36:44.000Z</time>
      </trkpt>
      <trkpt lat="47.56954" lon="-3.10066">
        <time>2017-11-12T13:36:45.000Z</time>
      </trkpt>
      <trkpt lat="47.56952" lon="-3.10069">
        <time>2017-11-12T13:36:46.000Z</time>
      </trkpt>
      <trkpt lat="47.56949" lon="-3.10074">
        <time>2017-11-12T13:36:47.000Z</time>
      </trkpt>
      <trkpt lat="47.56947" lon="-3.1008">
        <time>2017-11-12T13:36:48.000Z</time>
      </trkpt>
      <trkpt lat="47.56945" lon="-3.10085">
        <time>2017-11-12T13:36:49.000Z</time>
      </trkpt>
      <trkpt lat="47.56942" lon="-3.1009">
        <time>2017-11-12T13:36:50.000Z</time>
      </trkpt>
      <trkpt lat="47.56939" lon="-3.10095">
        <time>2017-11-12T13:36:51.000Z</time>
      </trkpt>
      <trkpt lat="47.56936" lon="-3.101">
        <time>2017-11-12T13:36:52.000Z</time>
      </trkpt>
      <trkpt lat="47.56933" lon="-3.10105">
        <time>2017-11-12T13:36:53.000Z</time>
      </trkpt>
      <trkpt lat="47.56931" lon="-3.10109">
        <time>2017-11-12T13:36:54.000Z</time>
      </trkpt>
      <trkpt lat="47.56929" lon="-3.10112">
        <time>2017-11-12T13:36:55.000Z</time>
      </trkpt>
      <trkpt lat="47.56927" lon="-3.10114">
        <time>2017-11-12T13:36:56.000Z</time>
      </trkpt>
      <trkpt lat="47.56926" lon="-3.10117">
        <time>2017-11-12T13:36:57.000Z</time>
      </trkpt>
      <trkpt lat="47.56924" lon="-3.10121">
        <time>2017-11-12T13:36:58.000Z</time>
      </trkpt>
      <trkpt lat="47.56922" lon="-3.10126">
        <time>2017-11-12T13:36:59.000Z</time>
      </trkpt>
      <trkpt lat="47.56919" lon="-3.10131">
        <time>2017-11-12T13:37:00.000Z</time>
      </trkpt>
      <trkpt lat="47.56916" lon="-3.10136">
        <time>2017-11-12T13:37:01.000Z</time>
      </trkpt>
      <trkpt lat="47.56913" lon="-3.10142">
        <time>2017-11-12T13:37:02.000Z</time>
      </trkpt>
      <trkpt lat="47.56906" lon="-3.10149">
        <time>2017-11-12T13:37:03.000Z</time>
      </trkpt>
      <trkpt lat="47.56898" lon="-3.10156">
        <time>2017-11-12T13:37:04.000Z</time>
      </trkpt>
      <trkpt lat="47.56886" lon="-3.1016">
        <time>2017-11-12T13:37:05.000Z</time>
      </trkpt>
      <trkpt lat="47.56881" lon="-3.10171">
        <time>2017-11-12T13:37:06.000Z</time>
      </trkpt>
      <trkpt lat="47.56877" lon="-3.10182">
        <time>2017-11-12T13:37:07.000Z</time>
      </trkpt>
      <trkpt lat="47.56871" lon="-3.10194">
        <time>2017-11-12T13:37:08.000Z</time>
      </trkpt>
      <trkpt lat="47.56864" lon="-3.10206">
        <time>2017-11-12T13:37:09.000Z</time>
      </trkpt>
      <trkpt lat="47.56858" lon="-3.10219">
        <time>2017-11-12T13:37:10.000Z</time>
      </trkpt>
      <trkpt lat="47.56854" lon="-3.1023">
        <time>2017-11-12T13:37:11.000Z</time>
      </trkpt>
      <trkpt lat="47.5685" lon="-3.10243">
        <time>2017-11-12T13:37:12.000Z</time>
      </trkpt>
      <trkpt lat="47.56845" lon="-3.10255">
        <time>2017-11-12T13:37:13.000Z</time>
      </trkpt>
      <trkpt lat="47.56839" lon="-3.10267">
        <time>2017-11-12T13:37:14.000Z</time>
      </trkpt>
      <trkpt lat="47.56834" lon="-3.10279">
        <time>2017-11-12T13:37:15.000Z</time>
      </trkpt>
      <trkpt lat="47.56828" lon="-3.10289">
        <time>2017-11-12T13:37:16.000Z</time>
      </trkpt>
      <trkpt lat="47.56823" lon="-3.10301">
        <time>2017-11-12T13:37:17.000Z</time>
      </trkpt>
      <trkpt lat="47.56817" lon="-3.10312">
        <time>2017-11-12T13:37:18.000Z</time>
      </trkpt>
      <trkpt lat="47.56811" lon="-3.10323">
        <time>2017-11-12T13:37:19.000Z</time>
      </trkpt>
      <trkpt lat="47.56805" lon="-3.10335">
        <time>2017-11-12T13:37:20.000Z</time>
      </trkpt>
      <trkpt lat="47.56799" lon="-3.10345">
        <time>2017-11-12T13:37:21.000Z</time>
      </trkpt>
      <trkpt lat="47.56793" lon="-3.10357">
        <time>2017-11-12T13:37:22.000Z</time>
      </trkpt>
      <trkpt lat="47.56787" lon="-3.10367">
        <time>2017-11-12T13:37:23.000Z</time>
      </trkpt>
      <trkpt lat="47.56781" lon="-3.10378">
        <time>2017-11-12T13:37:24.000Z</time>
      </trkpt>
      <trkpt lat="47.56776" lon="-3.10391">
        <time>2017-11-12T13:37:25.000Z</time>
      </trkpt>
      <trkpt lat="47.5677" lon="-3.10404">
        <time>2017-11-12T13:37:26.000Z</time>
      </trkpt>
      <trkpt lat="47.56766" lon="-3.10416">
        <time>2017-11-12T13:37:27.000Z</time>
      </trkpt>
      <trkpt lat="47.56761" lon="-3.10429">
        <time>2017-11-12T13:37:28.000Z</time>
      </trkpt>
      <trkpt lat="47.56757" lon="-3.10441">
        <time>2017-11-12T13:37:29.000Z</time>
      </trkpt>
      <trkpt lat="47.56753" lon="-3.10454">
        <time>2017-11-12T13:37:30.000Z</time>
      </trkpt>
      <trkpt lat="47.56748" lon="-3.10466">
        <time>2017-11-12T13:37:31.000Z</time>
      </trkpt>
      <trkpt lat="47.56742" lon="-3.10478">
        <time>2017-11-12T13:37:32.000Z</time>
      </trkpt>
      <trkpt lat="47.56737" lon="-3.1049">
        <time>2017-11-12T13:37:33.000Z</time>
      </trkpt>
      <trkpt lat="47.56735" lon="-3.10502">
        <time>2017-11-12T13:37:34.000Z</time>
      </trkpt>
      <trkpt lat="47.56731" lon="-3.10514">
        <time>2017-11-12T13:37:35.000Z</time>
      </trkpt>
      <trkpt lat="47.56727" lon="-3.10527">
        <time>2017-11-12T13:37:36.000Z</time>
      </trkpt>
      <trkpt lat="47.56723" lon="-3.10539">
        <time>2017-11-12T13:37:37.000Z</time>
      </trkpt>
      <trkpt lat="47.5672" lon="-3.10552">
        <time>2017-11-12T13:37:38.000Z</time>
      </trkpt>
      <trkpt lat="47.56716" lon="-3.10564">
        <time>2017-11-12T13:37:39.000Z</time>
      </trkpt>
      <trkpt lat="47.56713" lon="-3.10577">
        <time>2017-11-12T13:37:40.000Z</time>
      </trkpt>
      <trkpt lat="47.5671" lon="-3.10589">
        <time>2017-11-12T13:37:41.000Z</time>
      </trkpt>
      <trkpt lat="47.56706" lon="-3.10602">
        <time>2017-11-12T13:37:42.000Z</time>
      </trkpt>
      <trkpt lat="47.56704" lon="-3.10615">
        <time>2017-11-12T13:37:43.000Z</time>
      </trkpt>
      <trkpt lat="47.56701" lon="-3.10628">
        <time>2017-11-12T13:37:44.000Z</time>
      </trkpt>
      <trkpt lat="47.56698" lon="-3.10641">
        <time>2017-11-12T13:37:45.000Z</time>
      </trkpt>
      <trkpt lat="47.56694" lon="-3.10654">
        <time>2017-11-12T13:37:46.000Z</time>
      </trkpt>
      <trkpt lat="47.56691" lon="-3.10666">
        <time>2017-11-12T13:37:47.000Z</time>
      </trkpt>
      <trkpt lat="47.56687" lon="-3.10679">
        <time>2017-11-12T13:37:48.000Z</time>
      </trkpt>
      <trkpt lat="47.56682" lon="-3.10692">
        <time>2017-11-12T13:37:49.000Z</time>
      </trkpt>
      <trkpt lat="47.56678" lon="-3.10705">
        <time>2017-11-12T13:37:50.000Z</time>
      </trkpt>
      <trkpt lat="47.56676" lon="-3.10718">
        <time>2017-11-12T13:37:51.000Z</time>
      </trkpt>
      <trkpt lat="47.56673" lon="-3.10732">
        <time>2017-11-12T13:37:52.000Z</time>
      </trkpt>
      <trkpt lat="47.56669" lon="-3.10744">
        <time>2017-11-12T13:37:53.000Z</time>
      </trkpt>
      <trkpt lat="47.56665" lon="-3.10757">
        <time>2017-11-12T13:37:54.000Z</time>
      </trkpt>
      <trkpt lat="47.56662" lon="-3.10769">
        <time>2017-11-12T13:37:55.000Z</time>
      </trkpt>
      <trkpt lat="47.56658" lon="-3.1078">
        <time>2017-11-12T13:37:56.000Z</time>
      </trkpt>
      <trkpt lat="47.56654" lon="-3.10794">
        <time>2017-11-12T13:37:57.000Z</time>
      </trkpt>
      <trkpt lat="47.56651" lon="-3.10806">
        <time>2017-11-12T13:37:58.000Z</time>
      </trkpt>
      <trkpt lat="47.56648" lon="-3.10817">
        <time>2017-11-12T13:37:59.000Z</time>
      </trkpt>
      <trkpt lat="47.56644" lon="-3.10828">
        <time>2017-11-12T13:38:00.000Z</time>
      </trkpt>
      <trkpt lat="47.56641" lon="-3.1084">
        <time>2017-11-12T13:38:01.000Z</time>
      </trkpt>
      <trkpt lat="47.56637" lon="-3.10852">
        <time>2017-11-12T13:38:02.000Z</time>
      </trkpt>
      <trkpt lat="47.56633" lon="-3.10864">
        <time>2017-11-12T13:38:03.000Z</time>
      </trkpt>
      <trkpt lat="47.56631" lon="-3.10877">
        <time>2017-11-12T13:38:04.000Z</time>
      </trkpt>
      <trkpt lat="47.56629" lon="-3.10888">
        <time>2017-11-12T13:38:05.000Z</time>
      </trkpt>
      <trkpt lat="47.56626" lon="-3.10902">
        <time>2017-11-12T13:38:06.000Z</time>
      </trkpt>
      <trkpt lat="47.56623" lon="-3.10915">
        <time>2017-11-12T13:38:07.000Z</time>
      </trkpt>
      <trkpt lat="47.56619" lon="-3.10928">
        <time>2017-11-12T13:38:08.000Z</time>
      </trkpt>
      <trkpt lat="47.56615" lon="-3.10941">
        <time>2017-11-12T13:38:09.000Z</time>
      </trkpt>
      <trkpt lat="47.56611" lon="-3.10955">
        <time>2017-11-12T13:38:10.000Z</time>
      </trkpt>
      <trkpt lat="47.56605" lon="-3.10968">
        <time>2017-11-12T13:38:11.000Z</time>
      </trkpt>
      <trkpt lat="47.56599" lon="-3.10981">
        <time>2017-11-12T13:38:12.000Z</time>
      </trkpt>
      <trkpt lat="47.56594" lon="-3.10994">
        <time>2017-11-12T13:38:13.000Z</time>
      </trkpt>
      <trkpt lat="47.56589" lon="-3.11006">
        <time>2017-11-12T13:38:14.000Z</time>
      </trkpt>
      <trkpt lat="47.56583" lon="-3.11019">
        <time>2017-11-12T13:38:15.000Z</time>
      </trkpt>
      <trkpt lat="47.56576" lon="-3.11032">
        <time>2017-11-12T13:38:16.000Z</time>
      </trkpt>
      <trkpt lat="47.56571" lon="-3.11046">
        <time>2017-11-12T13:38:17.000Z</time>
      </trkpt>
      <trkpt lat="47.56567" lon="-3.11055">
        <time>2017-11-12T13:38:18.000Z</time>
      </trkpt>
      <trkpt lat="47.56563" lon="-3.11066">
        <time>2017-11-12T13:38:19.000Z</time>
      </trkpt>
      <trkpt lat="47.56558" lon="-3.11078">
        <time>2017-11-12T13:38:20.000Z</time>
      </trkpt>
      <trkpt lat="47.56553" lon="-3.11089">
        <time>2017-11-12T13:38:21.000Z</time>
      </trkpt>
      <trkpt lat="47.56545" lon="-3.11101">
        <time>2017-11-12T13:38:22.000Z</time>
      </trkpt>
      <trkpt lat="47.56537" lon="-3.1111">
        <time>2017-11-12T13:38:23.000Z</time>
      </trkpt>
      <trkpt lat="47.56529" lon="-3.11114">
        <time>2017-11-12T13:38:24.000Z</time>
      </trkpt>
      <trkpt lat="47.56521" lon="-3.11116">
        <time>2017-11-12T13:38:25.000Z</time>
      </trkpt>
      <trkpt lat="47.56514" lon="-3.11114">
        <time>2017-11-12T13:38:26.000Z</time>
      </trkpt>
      <trkpt lat="47.56508" lon="-3.11114">
        <time>2017-11-12T13:38:27.000Z</time>
      </trkpt>
      <trkpt lat="47.56507" lon="-3.11111">
        <time>2017-11-12T13:38:28.000Z</time>
      </trkpt>
      <trkpt lat="47.56505" lon="-3.11108">
        <time>2017-11-12T13:38:29.000Z</time>
      </trkpt>
      <trkpt lat="47.56506" lon="-3.11106">
        <time>2017-11-12T13:38:30.000Z</time>
      </trkpt>
      <trkpt lat="47.56506" lon="-3.11103">
        <time>2017-11-12T13:38:31.000Z</time>
      </trkpt>
      <trkpt lat="47.56507" lon="-3.111">
        <time>2017-11-12T13:38:32.000Z</time>
      </trkpt>
      <trkpt lat="47.56509" lon="-3.11096">
        <time>2017-11-12T13:38:33.000Z</time>
      </trkpt>
      <trkpt lat="47.56511" lon="-3.11093">
        <time>2017-11-12T13:38:34.000Z</time>
      </trkpt>
      <trkpt lat="47.56513" lon="-3.11089">
        <time>2017-11-12T13:38:35.000Z</time>
      </trkpt>
      <trkpt lat="47.56515" lon="-3.11086">
        <time>2017-11-12T13:38:36.000Z</time>
      </trkpt>
      <trkpt lat="47.56518" lon="-3.11081">
        <time>2017-11-12T13:38:37.000Z</time>
      </trkpt>
      <trkpt lat="47.5652" lon="-3.11077">
        <time>2017-11-12T13:38:38.000Z</time>
      </trkpt>
      <trkpt lat="47.56522" lon="-3.11073">
        <time>2017-11-12T13:38:39.000Z</time>
      </trkpt>
      <trkpt lat="47.56524" lon="-3.11068">
        <time>2017-11-12T13:38:40.000Z</time>
      </trkpt>
      <trkpt lat="47.56526" lon="-3.11063">
        <time>2017-11-12T13:38:41.000Z</time>
      </trkpt>
      <trkpt lat="47.56528" lon="-3.11057">
        <time>2017-11-12T13:38:42.000Z</time>
      </trkpt>
      <trkpt lat="47.5653" lon="-3.11051">
        <time>2017-11-12T13:38:43.000Z</time>
      </trkpt>
      <trkpt lat="47.56531" lon="-3.11044">
        <time>2017-11-12T13:38:44.000Z</time>
      </trkpt>
      <trkpt lat="47.56533" lon="-3.11036">
        <time>2017-11-12T13:38:45.000Z</time>
      </trkpt>
      <trkpt lat="47.56534" lon="-3.11027">
        <time>2017-11-12T13:38:46.000Z</time>
      </trkpt>
      <trkpt lat="47.56536" lon="-3.11019">
        <time>2017-11-12T13:38:47.000Z</time>
      </trkpt>
      <trkpt lat="47.56539" lon="-3.11009">
        <time>2017-11-12T13:38:48.000Z</time>
      </trkpt>
      <trkpt lat="47.56542" lon="-3.10999">
        <time>2017-11-12T13:38:49.000Z</time>
      </trkpt>
      <trkpt lat="47.56546" lon="-3.10989">
        <time>2017-11-12T13:38:50.000Z</time>
      </trkpt>
      <trkpt lat="47.5655" lon="-3.10979">
        <time>2017-11-12T13:38:51.000Z</time>
      </trkpt>
      <trkpt lat="47.56554" lon="-3.10969">
        <time>2017-11-12T13:38:52.000Z</time>
      </trkpt>
      <trkpt lat="47.56559" lon="-3.10959">
        <time>2017-11-12T13:38:53.000Z</time>
      </trkpt>
      <trkpt lat="47.56565" lon="-3.10949">
        <time>2017-11-12T13:38:54.000Z</time>
      </trkpt>
      <trkpt lat="47.5657" lon="-3.1094">
        <time>2017-11-12T13:38:55.000Z</time>
      </trkpt>
      <trkpt lat="47.56574" lon="-3.10931">
        <time>2017-11-12T13:38:56.000Z</time>
      </trkpt>
      <trkpt lat="47.56578" lon="-3.10922">
        <time>2017-11-12T13:38:57.000Z</time>
      </trkpt>
      <trkpt lat="47.56583" lon="-3.10913">
        <time>2017-11-12T13:38:58.000Z</time>
      </trkpt>
      <trkpt lat="47.56588" lon="-3.10904">
        <time>2017-11-12T13:38:59.000Z</time>
      </trkpt>
      <trkpt lat="47.56592" lon="-3.10894">
        <time>2017-11-12T13:39:00.000Z</time>
      </trkpt>
      <trkpt lat="47.56597" lon="-3.10885">
        <time>2017-11-12T13:39:01.000Z</time>
      </trkpt>
      <trkpt lat="47.56601" lon="-3.10876">
        <time>2017-11-12T13:39:02.000Z</time>
      </trkpt>
      <trkpt lat="47.56605" lon="-3.10867">
        <time>2017-11-12T13:39:03.000Z</time>
      </trkpt>
      <trkpt lat="47.56608" lon="-3.10858">
        <time>2017-11-12T13:39:04.000Z</time>
      </trkpt>
      <trkpt lat="47.56611" lon="-3.10847">
        <time>2017-11-12T13:39:05.000Z</time>
      </trkpt>
      <trkpt lat="47.56614" lon="-3.10837">
        <time>2017-11-12T13:39:06.000Z</time>
      </trkpt>
      <trkpt lat="47.56617" lon="-3.10826">
        <time>2017-11-12T13:39:07.000Z</time>
      </trkpt>
      <trkpt lat="47.5662" lon="-3.10816">
        <time>2017-11-12T13:39:08.000Z</time>
      </trkpt>
      <trkpt lat="47.56622" lon="-3.10804">
        <time>2017-11-12T13:39:09.000Z</time>
      </trkpt>
      <trkpt lat="47.56626" lon="-3.10793">
        <time>2017-11-12T13:39:10.000Z</time>
      </trkpt>
      <trkpt lat="47.56629" lon="-3.10782">
        <time>2017-11-12T13:39:11.000Z</time>
      </trkpt>
      <trkpt lat="47.56633" lon="-3.10772">
        <time>2017-11-12T13:39:12.000Z</time>
      </trkpt>
      <trkpt lat="47.56637" lon="-3.1076">
        <time>2017-11-12T13:39:13.000Z</time>
      </trkpt>
      <trkpt lat="47.56642" lon="-3.10749">
        <time>2017-11-12T13:39:14.000Z</time>
      </trkpt>
      <trkpt lat="47.56646" lon="-3.10737">
        <time>2017-11-12T13:39:15.000Z</time>
      </trkpt>
      <trkpt lat="47.56651" lon="-3.10726">
        <time>2017-11-12T13:39:16.000Z</time>
      </trkpt>
      <trkpt lat="47.56655" lon="-3.10716">
        <time>2017-11-12T13:39:17.000Z</time>
      </trkpt>
      <trkpt lat="47.5666" lon="-3.10707">
        <time>2017-11-12T13:39:18.000Z</time>
      </trkpt>
      <trkpt lat="47.56665" lon="-3.10698">
        <time>2017-11-12T13:39:19.000Z</time>
      </trkpt>
      <trkpt lat="47.5667" lon="-3.10689">
        <time>2017-11-12T13:39:20.000Z</time>
      </trkpt>
      <trkpt lat="47.56674" lon="-3.10678">
        <time>2017-11-12T13:39:21.000Z</time>
      </trkpt>
      <trkpt lat="47.56678" lon="-3.10669">
        <time>2017-11-12T13:39:22.000Z</time>
      </trkpt>
      <trkpt lat="47.56682" lon="-3.1066">
        <time>2017-11-12T13:39:23.000Z</time>
      </trkpt>
      <trkpt lat="47.56687" lon="-3.1065">
        <time>2017-11-12T13:39:24.000Z</time>
      </trkpt>
      <trkpt lat="47.56691" lon="-3.10641">
        <time>2017-11-12T13:39:25.000Z</time>
      </trkpt>
      <trkpt lat="47.56696" lon="-3.10633">
        <time>2017-11-12T13:39:26.000Z</time>
      </trkpt>
      <trkpt lat="47.56699" lon="-3.10621">
        <time>2017-11-12T13:39:27.000Z</time>
      </trkpt>
      <trkpt lat="47.56703" lon="-3.10611">
        <time>2017-11-12T13:39:28.000Z</time>
      </trkpt>
      <trkpt lat="47.56706" lon="-3.10599">
        <time>2017-11-12T13:39:29.000Z</time>
      </trkpt>
      <trkpt lat="47.56709" lon="-3.10588">
        <time>2017-11-12T13:39:30.000Z</time>
      </trkpt>
      <trkpt lat="47.56712" lon="-3.10577">
        <time>2017-11-12T13:39:31.000Z</time>
      </trkpt>
      <trkpt lat="47.56716" lon="-3.10565">
        <time>2017-11-12T13:39:32.000Z</time>
      </trkpt>
      <trkpt lat="47.56721" lon="-3.10554">
        <time>2017-11-12T13:39:33.000Z</time>
      </trkpt>
      <trkpt lat="47.56725" lon="-3.10544">
        <time>2017-11-12T13:39:34.000Z</time>
      </trkpt>
      <trkpt lat="47.5673" lon="-3.10534">
        <time>2017-11-12T13:39:35.000Z</time>
      </trkpt>
      <trkpt lat="47.56735" lon="-3.10525">
        <time>2017-11-12T13:39:36.000Z</time>
      </trkpt>
      <trkpt lat="47.5674" lon="-3.10515">
        <time>2017-11-12T13:39:37.000Z</time>
      </trkpt>
      <trkpt lat="47.56745" lon="-3.10506">
        <time>2017-11-12T13:39:38.000Z</time>
      </trkpt>
      <trkpt lat="47.56752" lon="-3.10498">
        <time>2017-11-12T13:39:39.000Z</time>
      </trkpt>
      <trkpt lat="47.56756" lon="-3.10488">
        <time>2017-11-12T13:39:40.000Z</time>
      </trkpt>
      <trkpt lat="47.56761" lon="-3.10479">
        <time>2017-11-12T13:39:41.000Z</time>
      </trkpt>
      <trkpt lat="47.56765" lon="-3.10469">
        <time>2017-11-12T13:39:42.000Z</time>
      </trkpt>
      <trkpt lat="47.56769" lon="-3.10459">
        <time>2017-11-12T13:39:43.000Z</time>
      </trkpt>
      <trkpt lat="47.56774" lon="-3.1045">
        <time>2017-11-12T13:39:44.000Z</time>
      </trkpt>
      <trkpt lat="47.56779" lon="-3.1044">
        <time>2017-11-12T13:39:45.000Z</time>
      </trkpt>
      <trkpt lat="47.56784" lon="-3.10431">
        <time>2017-11-12T13:39:46.000Z</time>
      </trkpt>
      <trkpt lat="47.5679" lon="-3.10421">
        <time>2017-11-12T13:39:47.000Z</time>
      </trkpt>
      <trkpt lat="47.56795" lon="-3.10411">
        <time>2017-11-12T13:39:48.000Z</time>
      </trkpt>
      <trkpt lat="47.56801" lon="-3.104">
        <time>2017-11-12T13:39:49.000Z</time>
      </trkpt>
      <trkpt lat="47.56806" lon="-3.10391">
        <time>2017-11-12T13:39:50.000Z</time>
      </trkpt>
      <trkpt lat="47.56812" lon="-3.10381">
        <time>2017-11-12T13:39:51.000Z</time>
      </trkpt>
      <trkpt lat="47.56816" lon="-3.1037">
        <time>2017-11-12T13:39:52.000Z</time>
      </trkpt>
      <trkpt lat="47.56822" lon="-3.1036">
        <time>2017-11-12T13:39:53.000Z</time>
      </trkpt>
      <trkpt lat="47.56827" lon="-3.1035">
        <time>2017-11-12T13:39:54.000Z</time>
      </trkpt>
      <trkpt lat="47.56832" lon="-3.10339">
        <time>2017-11-12T13:39:55.000Z</time>
      </trkpt>
      <trkpt lat="47.56837" lon="-3.10328">
        <time>2017-11-12T13:39:56.000Z</time>
      </trkpt>
      <trkpt lat="47.56843" lon="-3.10318">
        <time>2017-11-12T13:39:57.000Z</time>
      </trkpt>
      <trkpt lat="47.56848" lon="-3.10308">
        <time>2017-11-12T13:39:58.000Z</time>
      </trkpt>
      <trkpt lat="47.56853" lon="-3.10298">
        <time>2017-11-12T13:39:59.000Z</time>
      </trkpt>
      <trkpt lat="47.56858" lon="-3.10288">
        <time>2017-11-12T13:40:00.000Z</time>
      </trkpt>
      <trkpt lat="47.56862" lon="-3.10277">
        <time>2017-11-12T13:40:01.000Z</time>
      </trkpt>
      <trkpt lat="47.56867" lon="-3.10266">
        <time>2017-11-12T13:40:02.000Z</time>
      </trkpt>
      <trkpt lat="47.56872" lon="-3.10256">
        <time>2017-11-12T13:40:03.000Z</time>
      </trkpt>
      <trkpt lat="47.56877" lon="-3.10245">
        <time>2017-11-12T13:40:04.000Z</time>
      </trkpt>
      <trkpt lat="47.56882" lon="-3.10235">
        <time>2017-11-12T13:40:05.000Z</time>
      </trkpt>
      <trkpt lat="47.56887" lon="-3.10225">
        <time>2017-11-12T13:40:06.000Z</time>
      </trkpt>
      <trkpt lat="47.56891" lon="-3.10214">
        <time>2017-11-12T13:40:07.000Z</time>
      </trkpt>
      <trkpt lat="47.56895" lon="-3.10203">
        <time>2017-11-12T13:40:08.000Z</time>
      </trkpt>
      <trkpt lat="47.569" lon="-3.10192">
        <time>2017-11-12T13:40:09.000Z</time>
      </trkpt>
      <trkpt lat="47.56905" lon="-3.10181">
        <time>2017-11-12T13:40:10.000Z</time>
      </trkpt>
      <trkpt lat="47.56909" lon="-3.1017">
        <time>2017-11-12T13:40:11.000Z</time>
      </trkpt>
      <trkpt lat="47.56913" lon="-3.1016">
        <time>2017-11-12T13:40:12.000Z</time>
      </trkpt>
      <trkpt lat="47.56917" lon="-3.10148">
        <time>2017-11-12T13:40:13.000Z</time>
      </trkpt>
      <trkpt lat="47.56919" lon="-3.10137">
        <time>2017-11-12T13:40:14.000Z</time>
      </trkpt>
      <trkpt lat="47.56919" lon="-3.10127">
        <time>2017-11-12T13:40:15.000Z</time>
      </trkpt>
      <trkpt lat="47.56917" lon="-3.10117">
        <time>2017-11-12T13:40:16.000Z</time>
      </trkpt>
      <trkpt lat="47.56914" lon="-3.1011">
        <time>2017-11-12T13:40:17.000Z</time>
      </trkpt>
      <trkpt lat="47.5691" lon="-3.10105">
        <time>2017-11-12T13:40:18.000Z</time>
      </trkpt>
      <trkpt lat="47.56907" lon="-3.10103">
        <time>2017-11-12T13:40:19.000Z</time>
      </trkpt>
      <trkpt lat="47.56905" lon="-3.10103">
        <time>2017-11-12T13:40:20.000Z</time>
      </trkpt>
      <trkpt lat="47.56905" lon="-3.10105">
        <time>2017-11-12T13:40:21.000Z</time>
      </trkpt>
      <trkpt lat="47.56904" lon="-3.10106">
        <time>2017-11-12T13:40:22.000Z</time>
      </trkpt>
      <trkpt lat="47.56904" lon="-3.10109">
        <time>2017-11-12T13:40:23.000Z</time>
      </trkpt>
      <trkpt lat="47.56903" lon="-3.10113">
        <time>2017-11-12T13:40:24.000Z</time>
      </trkpt>
      <trkpt lat="47.56902" lon="-3.10117">
        <time>2017-11-12T13:40:25.000Z</time>
      </trkpt>
      <trkpt lat="47.56901" lon="-3.10121">
        <time>2017-11-12T13:40:26.000Z</time>
      </trkpt>
      <trkpt lat="47.56901" lon="-3.10128">
        <time>2017-11-12T13:40:27.000Z</time>
      </trkpt>
      <trkpt lat="47.569" lon="-3.10133">
        <time>2017-11-12T13:40:28.000Z</time>
      </trkpt>
      <trkpt lat="47.56899" lon="-3.10138">
        <time>2017-11-12T13:40:29.000Z</time>
      </trkpt>
      <trkpt lat="47.56898" lon="-3.10144">
        <time>2017-11-12T13:40:30.000Z</time>
      </trkpt>
      <trkpt lat="47.56897" lon="-3.1015">
        <time>2017-11-12T13:40:31.000Z</time>
      </trkpt>
      <trkpt lat="47.56894" lon="-3.10156">
        <time>2017-11-12T13:40:32.000Z</time>
      </trkpt>
      <trkpt lat="47.56892" lon="-3.10163">
        <time>2017-11-12T13:40:33.000Z</time>
      </trkpt>
      <trkpt lat="47.56889" lon="-3.10171">
        <time>2017-11-12T13:40:34.000Z</time>
      </trkpt>
      <trkpt lat="47.56887" lon="-3.1018">
        <time>2017-11-12T13:40:35.000Z</time>
      </trkpt>
      <trkpt lat="47.56883" lon="-3.10191">
        <time>2017-11-12T13:40:36.000Z</time>
      </trkpt>
      <trkpt lat="47.5688" lon="-3.10202">
        <time>2017-11-12T13:40:37.000Z</time>
      </trkpt>
      <trkpt lat="47.56876" lon="-3.10213">
        <time>2017-11-12T13:40:38.000Z</time>
      </trkpt>
      <trkpt lat="47.56872" lon="-3.10225">
        <time>2017-11-12T13:40:39.000Z</time>
      </trkpt>
      <trkpt lat="47.56868" lon="-3.10236">
        <time>2017-11-12T13:40:40.000Z</time>
      </trkpt>
      <trkpt lat="47.56864" lon="-3.10248">
        <time>2017-11-12T13:40:41.000Z</time>
      </trkpt>
      <trkpt lat="47.56861" lon="-3.10259">
        <time>2017-11-12T13:40:42.000Z</time>
      </trkpt>
      <trkpt lat="47.56856" lon="-3.10271">
        <time>2017-11-12T13:40:43.000Z</time>
      </trkpt>
      <trkpt lat="47.56852" lon="-3.10283">
        <time>2017-11-12T13:40:44.000Z</time>
      </trkpt>
      <trkpt lat="47.56845" lon="-3.10296">
        <time>2017-11-12T13:40:45.000Z</time>
      </trkpt>
      <trkpt lat="47.5684" lon="-3.10309">
        <time>2017-11-12T13:40:46.000Z</time>
      </trkpt>
      <trkpt lat="47.56834" lon="-3.10321">
        <time>2017-11-12T13:40:47.000Z</time>
      </trkpt>
      <trkpt lat="47.56828" lon="-3.10333">
        <time>2017-11-12T13:40:48.000Z</time>
      </trkpt>
      <trkpt lat="47.56823" lon="-3.10347">
        <time>2017-11-12T13:40:49.000Z</time>
      </trkpt>
      <trkpt lat="47.56818" lon="-3.1036">
        <time>2017-11-12T13:40:50.000Z</time>
      </trkpt>
      <trkpt lat="47.56814" lon="-3.10372">
        <time>2017-11-12T13:40:51.000Z</time>
      </trkpt>
      <trkpt lat="47.5681" lon="-3.10385">
        <time>2017-11-12T13:40:52.000Z</time>
      </trkpt>
      <trkpt lat="47.56806" lon="-3.10396">
        <time>2017-11-12T13:40:53.000Z</time>
      </trkpt>
      <trkpt lat="47.56802" lon="-3.1041">
        <time>2017-11-12T13:40:54.000Z</time>
      </trkpt>
      <trkpt lat="47.56798" lon="-3.10423">
        <time>2017-11-12T13:40:55.000Z</time>
      </trkpt>
      <trkpt lat="47.56795" lon="-3.10436">
        <time>2017-11-12T13:40:56.000Z</time>
      </trkpt>
      <trkpt lat="47.56794" lon="-3.10449">
        <time>2017-11-12T13:40:57.000Z</time>
      </trkpt>
      <trkpt lat="47.56792" lon="-3.10463">
        <time>2017-11-12T13:40:58.000Z</time>
      </trkpt>
      <trkpt lat="47.56789" lon="-3.10475">
        <time>2017-11-12T13:40:59.000Z</time>
      </trkpt>
      <trkpt lat="47.56787" lon="-3.10492">
        <time>2017-11-12T13:41:00.000Z</time>
      </trkpt>
      <trkpt lat="47.56785" lon="-3.10503">
        <time>2017-11-12T13:41:01.000Z</time>
      </trkpt>
      <trkpt lat="47.56783" lon="-3.10521">
        <time>2017-11-12T13:41:02.000Z</time>
      </trkpt>
      <trkpt lat="47.56781" lon="-3.10534">
        <time>2017-11-12T13:41:03.000Z</time>
      </trkpt>
      <trkpt lat="47.56779" lon="-3.10545">
        <time>2017-11-12T13:41:04.000Z</time>
      </trkpt>
      <trkpt lat="47.56775" lon="-3.10561">
        <time>2017-11-12T13:41:05.000Z</time>
      </trkpt>
      <trkpt lat="47.56771" lon="-3.10574">
        <time>2017-11-12T13:41:06.000Z</time>
      </trkpt>
      <trkpt lat="47.56768" lon="-3.10585">
        <time>2017-11-12T13:41:07.000Z</time>
      </trkpt>
      <trkpt lat="47.56766" lon="-3.10599">
        <time>2017-11-12T13:41:08.000Z</time>
      </trkpt>
      <trkpt lat="47.56759" lon="-3.10611">
        <time>2017-11-12T13:41:09.000Z</time>
      </trkpt>
      <trkpt lat="47.56753" lon="-3.10623">
        <time>2017-11-12T13:41:10.000Z</time>
      </trkpt>
      <trkpt lat="47.56748" lon="-3.10636">
        <time>2017-11-12T13:41:11.000Z</time>
      </trkpt>
      <trkpt lat="47.5674" lon="-3.10647">
        <time>2017-11-12T13:41:12.000Z</time>
      </trkpt>
      <trkpt lat="47.56733" lon="-3.10658">
        <time>2017-11-12T13:41:13.000Z</time>
      </trkpt>
      <trkpt lat="47.56725" lon="-3.1067">
        <time>2017-11-12T13:41:14.000Z</time>
      </trkpt>
      <trkpt lat="47.56719" lon="-3.10682">
        <time>2017-11-12T13:41:15.000Z</time>
      </trkpt>
      <trkpt lat="47.56713" lon="-3.10694">
        <time>2017-11-12T13:41:16.000Z</time>
      </trkpt>
      <trkpt lat="47.56706" lon="-3.10705">
        <time>2017-11-12T13:41:17.000Z</time>
      </trkpt>
      <trkpt lat="47.56702" lon="-3.10718">
        <time>2017-11-12T13:41:18.000Z</time>
      </trkpt>
      <trkpt lat="47.56696" lon="-3.10731">
        <time>2017-11-12T13:41:19.000Z</time>
      </trkpt>
      <trkpt lat="47.56691" lon="-3.10743">
        <time>2017-11-12T13:41:20.000Z</time>
      </trkpt>
      <trkpt lat="47.56686" lon="-3.10756">
        <time>2017-11-12T13:41:21.000Z</time>
      </trkpt>
      <trkpt lat="47.56682" lon="-3.10769">
        <time>2017-11-12T13:41:22.000Z</time>
      </trkpt>
      <trkpt lat="47.56678" lon="-3.10782">
        <time>2017-11-12T13:41:23.000Z</time>
      </trkpt>
      <trkpt lat="47.56673" lon="-3.10795">
        <time>2017-11-12T13:41:24.000Z</time>
      </trkpt>
      <trkpt lat="47.5667" lon="-3.1081">
        <time>2017-11-12T13:41:25.000Z</time>
      </trkpt>
      <trkpt lat="47.56668" lon="-3.10823">
        <time>2017-11-12T13:41:26.000Z</time>
      </trkpt>
      <trkpt lat="47.56664" lon="-3.10837">
        <time>2017-11-12T13:41:27.000Z</time>
      </trkpt>
      <trkpt lat="47.56664" lon="-3.10851">
        <time>2017-11-12T13:41:28.000Z</time>
      </trkpt>
      <trkpt lat="47.5666" lon="-3.10864">
        <time>2017-11-12T13:41:29.000Z</time>
      </trkpt>
      <trkpt lat="47.5666" lon="-3.10876">
        <time>2017-11-12T13:41:30.000Z</time>
      </trkpt>
      <trkpt lat="47.56657" lon="-3.10891">
        <time>2017-11-12T13:41:31.000Z</time>
      </trkpt>
      <trkpt lat="47.56653" lon="-3.10906">
        <time>2017-11-12T13:41:32.000Z</time>
      </trkpt>
      <trkpt lat="47.56649" lon="-3.10918">
        <time>2017-11-12T13:41:33.000Z</time>
      </trkpt>
      <trkpt lat="47.56645" lon="-3.10931">
        <time>2017-11-12T13:41:34.000Z</time>
      </trkpt>
      <trkpt lat="47.56642" lon="-3.10942">
        <time>2017-11-12T13:41:35.000Z</time>
      </trkpt>
      <trkpt lat="47.56641" lon="-3.10954">
        <time>2017-11-12T13:41:36.000Z</time>
      </trkpt>
      <trkpt lat="47.56637" lon="-3.10967">
        <time>2017-11-12T13:41:37.000Z</time>
      </trkpt>
      <trkpt lat="47.56632" lon="-3.10978">
        <time>2017-11-12T13:41:38.000Z</time>
      </trkpt>
      <trkpt lat="47.56629" lon="-3.10991">
        <time>2017-11-12T13:41:39.000Z</time>
      </trkpt>
      <trkpt lat="47.56623" lon="-3.11005">
        <time>2017-11-12T13:41:40.000Z</time>
      </trkpt>
      <trkpt lat="47.56619" lon="-3.11018">
        <time>2017-11-12T13:41:41.000Z</time>
      </trkpt>
      <trkpt lat="47.56615" lon="-3.1103">
        <time>2017-11-12T13:41:42.000Z</time>
      </trkpt>
      <trkpt lat="47.56612" lon="-3.11043">
        <time>2017-11-12T13:41:43.000Z</time>
      </trkpt>
      <trkpt lat="47.56607" lon="-3.11055">
        <time>2017-11-12T13:41:44.000Z</time>
      </trkpt>
      <trkpt lat="47.56602" lon="-3.11065">
        <time>2017-11-12T13:41:45.000Z</time>
      </trkpt>
      <trkpt lat="47.56596" lon="-3.11077">
        <time>2017-11-12T13:41:46.000Z</time>
      </trkpt>
      <trkpt lat="47.56591" lon="-3.11088">
        <time>2017-11-12T13:41:47.000Z</time>
      </trkpt>
      <trkpt lat="47.56586" lon="-3.111">
        <time>2017-11-12T13:41:48.000Z</time>
      </trkpt>
      <trkpt lat="47.56582" lon="-3.11114">
        <time>2017-11-12T13:41:49.000Z</time>
      </trkpt>
      <trkpt lat="47.56574" lon="-3.11126">
        <time>2017-11-12T13:41:50.000Z</time>
      </trkpt>
      <trkpt lat="47.56566" lon="-3.11137">
        <time>2017-11-12T13:41:51.000Z</time>
      </trkpt>
      <trkpt lat="47.56559" lon="-3.1115">
        <time>2017-11-12T13:41:52.000Z</time>
      </trkpt>
      <trkpt lat="47.56553" lon="-3.11162">
        <time>2017-11-12T13:41:53.000Z</time>
      </trkpt>
      <trkpt lat="47.56547" lon="-3.11175">
        <time>2017-11-12T13:41:54.000Z</time>
      </trkpt>
      <trkpt lat="47.56542" lon="-3.11188">
        <time>2017-11-12T13:41:55.000Z</time>
      </trkpt>
      <trkpt lat="47.56538" lon="-3.112">
        <time>2017-11-12T13:41:56.000Z</time>
      </trkpt>
      <trkpt lat="47.56535" lon="-3.11213">
        <time>2017-11-12T13:41:57.000Z</time>
      </trkpt>
      <trkpt lat="47.56531" lon="-3.11225">
        <time>2017-11-12T13:41:58.000Z</time>
      </trkpt>
      <trkpt lat="47.56528" lon="-3.11236">
        <time>2017-11-12T13:41:59.000Z</time>
      </trkpt>
      <trkpt lat="47.56525" lon="-3.11247">
        <time>2017-11-12T13:42:00.000Z</time>
      </trkpt>
      <trkpt lat="47.56522" lon="-3.11259">
        <time>2017-11-12T13:42:01.000Z</time>
      </trkpt>
      <trkpt lat="47.56519" lon="-3.1127">
        <time>2017-11-12T13:42:02.000Z</time>
      </trkpt>
      <trkpt lat="47.56517" lon="-3.1128">
        <time>2017-11-12T13:42:03.000Z</time>
      </trkpt>
      <trkpt lat="47.56515" lon="-3.11291">
        <time>2017-11-12T13:42:04.000Z</time>
      </trkpt>
      <trkpt lat="47.56511" lon="-3.11302">
        <time>2017-11-12T13:42:05.000Z</time>
      </trkpt>
      <trkpt lat="47.56508" lon="-3.11313">
        <time>2017-11-12T13:42:06.000Z</time>
      </trkpt>
      <trkpt lat="47.56505" lon="-3.11325">
        <time>2017-11-12T13:42:07.000Z</time>
      </trkpt>
      <trkpt lat="47.56502" lon="-3.11337">
        <time>2017-11-12T13:42:08.000Z</time>
      </trkpt>
      <trkpt lat="47.56498" lon="-3.11349">
        <time>2017-11-12T13:42:09.000Z</time>
      </trkpt>
      <trkpt lat="47.56494" lon="-3.11364">
        <time>2017-11-12T13:42:10.000Z</time>
      </trkpt>
      <trkpt lat="47.5649" lon="-3.11377">
        <time>2017-11-12T13:42:11.000Z</time>
      </trkpt>
      <trkpt lat="47.56485" lon="-3.1139">
        <time>2017-11-12T13:42:12.000Z</time>
      </trkpt>
      <trkpt lat="47.5648" lon="-3.11401">
        <time>2017-11-12T13:42:13.000Z</time>
      </trkpt>
      <trkpt lat="47.56475" lon="-3.11411">
        <time>2017-11-12T13:42:14.000Z</time>
      </trkpt>
      <trkpt lat="47.56471" lon="-3.11423">
        <time>2017-11-12T13:42:15.000Z</time>
      </trkpt>
      <trkpt lat="47.56466" lon="-3.11435">
        <time>2017-11-12T13:42:16.000Z</time>
      </trkpt>
      <trkpt lat="47.56462" lon="-3.11444">
        <time>2017-11-12T13:42:17.000Z</time>
      </trkpt>
      <trkpt lat="47.56455" lon="-3.11451">
        <time>2017-11-12T13:42:18.000Z</time>
      </trkpt>
      <trkpt lat="47.56448" lon="-3.11458">
        <time>2017-11-12T13:42:19.000Z</time>
      </trkpt>
      <trkpt lat="47.5644" lon="-3.11458">
        <time>2017-11-12T13:42:20.000Z</time>
      </trkpt>
      <trkpt lat="47.56432" lon="-3.11457">
        <time>2017-11-12T13:42:21.000Z</time>
      </trkpt>
      <trkpt lat="47.56426" lon="-3.11453">
        <time>2017-11-12T13:42:22.000Z</time>
      </trkpt>
      <trkpt lat="47.56421" lon="-3.11449">
        <time>2017-11-12T13:42:23.000Z</time>
      </trkpt>
      <trkpt lat="47.56417" lon="-3.11443">
        <time>2017-11-12T13:42:24.000Z</time>
      </trkpt>
      <trkpt lat="47.56416" lon="-3.11437">
        <time>2017-11-12T13:42:25.000Z</time>
      </trkpt>
      <trkpt lat="47.56418" lon="-3.11432">
        <time>2017-11-12T13:42:26.000Z</time>
      </trkpt>
      <trkpt lat="47.56418" lon="-3.11427">
        <time>2017-11-12T13:42:27.000Z</time>
      </trkpt>
      <trkpt lat="47.5642" lon="-3.11422">
        <time>2017-11-12T13:42:28.000Z</time>
      </trkpt>
      <trkpt lat="47.56422" lon="-3.11417">
        <time>2017-11-12T13:42:29.000Z</time>
      </trkpt>
      <trkpt lat="47.56423" lon="-3.11411">
        <time>2017-11-12T13:42:30.000Z</time>
      </trkpt>
      <trkpt lat="47.56426" lon="-3.11404">
        <time>2017-11-12T13:42:31.000Z</time>
      </trkpt>
      <trkpt lat="47.56429" lon="-3.11398">
        <time>2017-11-12T13:42:32.000Z</time>
      </trkpt>
      <trkpt lat="47.56435" lon="-3.11393">
        <time>2017-11-12T13:42:33.000Z</time>
      </trkpt>
      <trkpt lat="47.56438" lon="-3.11385">
        <time>2017-11-12T13:42:34.000Z</time>
      </trkpt>
      <trkpt lat="47.56441" lon="-3.11377">
        <time>2017-11-12T13:42:35.000Z</time>
      </trkpt>
      <trkpt lat="47.56445" lon="-3.11369">
        <time>2017-11-12T13:42:36.000Z</time>
      </trkpt>
      <trkpt lat="47.56449" lon="-3.1136">
        <time>2017-11-12T13:42:37.000Z</time>
      </trkpt>
      <trkpt lat="47.56453" lon="-3.11351">
        <time>2017-11-12T13:42:38.000Z</time>
      </trkpt>
      <trkpt lat="47.56458" lon="-3.11342">
        <time>2017-11-12T13:42:39.000Z</time>
      </trkpt>
      <trkpt lat="47.56464" lon="-3.11332">
        <time>2017-11-12T13:42:40.000Z</time>
      </trkpt>
      <trkpt lat="47.56469" lon="-3.11322">
        <time>2017-11-12T13:42:41.000Z</time>
      </trkpt>
      <trkpt lat="47.56474" lon="-3.11312">
        <time>2017-11-12T13:42:42.000Z</time>
      </trkpt>
      <trkpt lat="47.56478" lon="-3.11302">
        <time>2017-11-12T13:42:43.000Z</time>
      </trkpt>
      <trkpt lat="47.56483" lon="-3.11293">
        <time>2017-11-12T13:42:44.000Z</time>
      </trkpt>
      <trkpt lat="47.56487" lon="-3.11282">
        <time>2017-11-12T13:42:45.000Z</time>
      </trkpt>
      <trkpt lat="47.56492" lon="-3.11273">
        <time>2017-11-12T13:42:46.000Z</time>
      </trkpt>
      <trkpt lat="47.56497" lon="-3.11263">
        <time>2017-11-12T13:42:47.000Z</time>
      </trkpt>
      <trkpt lat="47.56501" lon="-3.11253">
        <time>2017-11-12T13:42:48.000Z</time>
      </trkpt>
      <trkpt lat="47.56505" lon="-3.11243">
        <time>2017-11-12T13:42:49.000Z</time>
      </trkpt>
      <trkpt lat="47.56509" lon="-3.11233">
        <time>2017-11-12T13:42:50.000Z</time>
      </trkpt>
      <trkpt lat="47.56513" lon="-3.11223">
        <time>2017-11-12T13:42:51.000Z</time>
      </trkpt>
      <trkpt lat="47.56517" lon="-3.11212">
        <time>2017-11-12T13:42:52.000Z</time>
      </trkpt>
      <trkpt lat="47.56522" lon="-3.11202">
        <time>2017-11-12T13:42:53.000Z</time>
      </trkpt>
      <trkpt lat="47.56528" lon="-3.11191">
        <time>2017-11-12T13:42:54.000Z</time>
      </trkpt>
      <trkpt lat="47.56532" lon="-3.1118">
        <time>2017-11-12T13:42:55.000Z</time>
      </trkpt>
      <trkpt lat="47.56537" lon="-3.11169">
        <time>2017-11-12T13:42:56.000Z</time>
      </trkpt>
      <trkpt lat="47.56541" lon="-3.11159">
        <time>2017-11-12T13:42:57.000Z</time>
      </trkpt>
      <trkpt lat="47.56547" lon="-3.11147">
        <time>2017-11-12T13:42:58.000Z</time>
      </trkpt>
      <trkpt lat="47.56552" lon="-3.11136">
        <time>2017-11-12T13:42:59.000Z</time>
      </trkpt>
      <trkpt lat="47.56557" lon="-3.11126">
        <time>2017-11-12T13:43:00.000Z</time>
      </trkpt>
      <trkpt lat="47.56562" lon="-3.11115">
        <time>2017-11-12T13:43:01.000Z</time>
      </trkpt>
      <trkpt lat="47.56566" lon="-3.11104">
        <time>2017-11-12T13:43:02.000Z</time>
      </trkpt>
      <trkpt lat="47.5657" lon="-3.11093">
        <time>2017-11-12T13:43:03.000Z</time>
      </trkpt>
      <trkpt lat="47.56575" lon="-3.11082">
        <time>2017-11-12T13:43:04.000Z</time>
      </trkpt>
      <trkpt lat="47.56579" lon="-3.1107">
        <time>2017-11-12T13:43:05.000Z</time>
      </trkpt>
      <trkpt lat="47.56583" lon="-3.11059">
        <time>2017-11-12T13:43:06.000Z</time>
      </trkpt>
      <trkpt lat="47.56587" lon="-3.11048">
        <time>2017-11-12T13:43:07.000Z</time>
      </trkpt>
      <trkpt lat="47.56591" lon="-3.11037">
        <time>2017-11-12T13:43:08.000Z</time>
      </trkpt>
      <trkpt lat="47.56595" lon="-3.11025">
        <time>2017-11-12T13:43:09.000Z</time>
      </trkpt>
      <trkpt lat="47.566" lon="-3.11013">
        <time>2017-11-12T13:43:10.000Z</time>
      </trkpt>
      <trkpt lat="47.56605" lon="-3.11001">
        <time>2017-11-12T13:43:11.000Z</time>
      </trkpt>
      <trkpt lat="47.56609" lon="-3.10988">
        <time>2017-11-12T13:43:12.000Z</time>
      </trkpt>
      <trkpt lat="47.56613" lon="-3.10975">
        <time>2017-11-12T13:43:13.000Z</time>
      </trkpt>
      <trkpt lat="47.56617" lon="-3.10962">
        <time>2017-11-12T13:43:14.000Z</time>
      </trkpt>
      <trkpt lat="47.56621" lon="-3.1095">
        <time>2017-11-12T13:43:15.000Z</time>
      </trkpt>
      <trkpt lat="47.56626" lon="-3.10938">
        <time>2017-11-12T13:43:16.000Z</time>
      </trkpt>
      <trkpt lat="47.5663" lon="-3.10926">
        <time>2017-11-12T13:43:17.000Z</time>
      </trkpt>
      <trkpt lat="47.56635" lon="-3.10914">
        <time>2017-11-12T13:43:18.000Z</time>
      </trkpt>
      <trkpt lat="47.5664" lon="-3.10903">
        <time>2017-11-12T13:43:19.000Z</time>
      </trkpt>
      <trkpt lat="47.56645" lon="-3.10892">
        <time>2017-11-12T13:43:20.000Z</time>
      </trkpt>
      <trkpt lat="47.5665" lon="-3.10882">
        <time>2017-11-12T13:43:21.000Z</time>
      </trkpt>
      <trkpt lat="47.56655" lon="-3.10873">
        <time>2017-11-12T13:43:22.000Z</time>
      </trkpt>
      <trkpt lat="47.5666" lon="-3.10862">
        <time>2017-11-12T13:43:23.000Z</time>
      </trkpt>
      <trkpt lat="47.56664" lon="-3.1085">
        <time>2017-11-12T13:43:24.000Z</time>
      </trkpt>
      <trkpt lat="47.56667" lon="-3.10839">
        <time>2017-11-12T13:43:25.000Z</time>
      </trkpt>
      <trkpt lat="47.5667" lon="-3.10827">
        <time>2017-11-12T13:43:26.000Z</time>
      </trkpt>
      <trkpt lat="47.56673" lon="-3.10815">
        <time>2017-11-12T13:43:27.000Z</time>
      </trkpt>
      <trkpt lat="47.56677" lon="-3.10802">
        <time>2017-11-12T13:43:28.000Z</time>
      </trkpt>
      <trkpt lat="47.5668" lon="-3.1079">
        <time>2017-11-12T13:43:29.000Z</time>
      </trkpt>
      <trkpt lat="47.56686" lon="-3.10777">
        <time>2017-11-12T13:43:30.000Z</time>
      </trkpt>
      <trkpt lat="47.5669" lon="-3.10765">
        <time>2017-11-12T13:43:31.000Z</time>
      </trkpt>
      <trkpt lat="47.56694" lon="-3.10753">
        <time>2017-11-12T13:43:32.000Z</time>
      </trkpt>
      <trkpt lat="47.56698" lon="-3.10739">
        <time>2017-11-12T13:43:33.000Z</time>
      </trkpt>
      <trkpt lat="47.56702" lon="-3.10727">
        <time>2017-11-12T13:43:34.000Z</time>
      </trkpt>
      <trkpt lat="47.56706" lon="-3.10716">
        <time>2017-11-12T13:43:35.000Z</time>
      </trkpt>
      <trkpt lat="47.5671" lon="-3.10706">
        <time>2017-11-12T13:43:36.000Z</time>
      </trkpt>
      <trkpt lat="47.56714" lon="-3.10694">
        <time>2017-11-12T13:43:37.000Z</time>
      </trkpt>
      <trkpt lat="47.56718" lon="-3.10683">
        <time>2017-11-12T13:43:38.000Z</time>
      </trkpt>
      <trkpt lat="47.56722" lon="-3.10671">
        <time>2017-11-12T13:43:39.000Z</time>
      </trkpt>
      <trkpt lat="47.56726" lon="-3.1066">
        <time>2017-11-12T13:43:40.000Z</time>
      </trkpt>
      <trkpt lat="47.5673" lon="-3.10649">
        <time>2017-11-12T13:43:41.000Z</time>
      </trkpt>
      <trkpt lat="47.56734" lon="-3.10637">
        <time>2017-11-12T13:43:42.000Z</time>
      </trkpt>
      <trkpt lat="47.56738" lon="-3.10626">
        <time>2017-11-12T13:43:43.000Z</time>
      </trkpt>
      <trkpt lat="47.56742" lon="-3.10614">
        <time>2017-11-12T13:43:44.000Z</time>
      </trkpt>
      <trkpt lat="47.56747" lon="-3.10603">
        <time>2017-11-12T13:43:45.000Z</time>
      </trkpt>
      <trkpt lat="47.56752" lon="-3.10592">
        <time>2017-11-12T13:43:46.000Z</time>
      </trkpt>
      <trkpt lat="47.56756" lon="-3.1058">
        <time>2017-11-12T13:43:47.000Z</time>
      </trkpt>
      <trkpt lat="47.56762" lon="-3.10569">
        <time>2017-11-12T13:43:48.000Z</time>
      </trkpt>
      <trkpt lat="47.56769" lon="-3.1056">
        <time>2017-11-12T13:43:49.000Z</time>
      </trkpt>
      <trkpt lat="47.56774" lon="-3.10548">
        <time>2017-11-12T13:43:50.000Z</time>
      </trkpt>
      <trkpt lat="47.56779" lon="-3.10537">
        <time>2017-11-12T13:43:51.000Z</time>
      </trkpt>
      <trkpt lat="47.56784" lon="-3.10527">
        <time>2017-11-12T13:43:52.000Z</time>
      </trkpt>
      <trkpt lat="47.5679" lon="-3.10517">
        <time>2017-11-12T13:43:53.000Z</time>
      </trkpt>
      <trkpt lat="47.56796" lon="-3.10508">
        <time>2017-11-12T13:43:54.000Z</time>
      </trkpt>
      <trkpt lat="47.56802" lon="-3.10497">
        <time>2017-11-12T13:43:55.000Z</time>
      </trkpt>
      <trkpt lat="47.56807" lon="-3.10486">
        <time>2017-11-12T13:43:56.000Z</time>
      </trkpt>
      <trkpt lat="47.56813" lon="-3.10476">
        <time>2017-11-12T13:43:57.000Z</time>
      </trkpt>
      <trkpt lat="47.56818" lon="-3.10466">
        <time>2017-11-12T13:43:58.000Z</time>
      </trkpt>
      <trkpt lat="47.56823" lon="-3.10456">
        <time>2017-11-12T13:43:59.000Z</time>
      </trkpt>
      <trkpt lat="47.56828" lon="-3.10446">
        <time>2017-11-12T13:44:00.000Z</time>
      </trkpt>
      <trkpt lat="47.56833" lon="-3.10436">
        <time>2017-11-12T13:44:01.000Z</time>
      </trkpt>
      <trkpt lat="47.56837" lon="-3.10424">
        <time>2017-11-12T13:44:02.000Z</time>
      </trkpt>
      <trkpt lat="47.56841" lon="-3.10414">
        <time>2017-11-12T13:44:03.000Z</time>
      </trkpt>
      <trkpt lat="47.56846" lon="-3.10403">
        <time>2017-11-12T13:44:04.000Z</time>
      </trkpt>
      <trkpt lat="47.5685" lon="-3.10392">
        <time>2017-11-12T13:44:05.000Z</time>
      </trkpt>
      <trkpt lat="47.56855" lon="-3.10381">
        <time>2017-11-12T13:44:06.000Z</time>
      </trkpt>
      <trkpt lat="47.56861" lon="-3.10369">
        <time>2017-11-12T13:44:07.000Z</time>
      </trkpt>
      <trkpt lat="47.56868" lon="-3.10359">
        <time>2017-11-12T13:44:08.000Z</time>
      </trkpt>
      <trkpt lat="47.56874" lon="-3.10347">
        <time>2017-11-12T13:44:09.000Z</time>
      </trkpt>
      <trkpt lat="47.56883" lon="-3.10333">
        <time>2017-11-12T13:44:10.000Z</time>
      </trkpt>
      <trkpt lat="47.56889" lon="-3.10322">
        <time>2017-11-12T13:44:11.000Z</time>
      </trkpt>
      <trkpt lat="47.56896" lon="-3.10307">
        <time>2017-11-12T13:44:12.000Z</time>
      </trkpt>
      <trkpt lat="47.56901" lon="-3.10296">
        <time>2017-11-12T13:44:13.000Z</time>
      </trkpt>
      <trkpt lat="47.56905" lon="-3.10286">
        <time>2017-11-12T13:44:14.000Z</time>
      </trkpt>
      <trkpt lat="47.56909" lon="-3.10273">
        <time>2017-11-12T13:44:15.000Z</time>
      </trkpt>
      <trkpt lat="47.56913" lon="-3.10259">
        <time>2017-11-12T13:44:16.000Z</time>
      </trkpt>
      <trkpt lat="47.56916" lon="-3.10246">
        <time>2017-11-12T13:44:17.000Z</time>
      </trkpt>
      <trkpt lat="47.56919" lon="-3.10233">
        <time>2017-11-12T13:44:18.000Z</time>
      </trkpt>
      <trkpt lat="47.56922" lon="-3.1022">
        <time>2017-11-12T13:44:19.000Z</time>
      </trkpt>
      <trkpt lat="47.56925" lon="-3.10206">
        <time>2017-11-12T13:44:20.000Z</time>
      </trkpt>
      <trkpt lat="47.56928" lon="-3.10192">
        <time>2017-11-12T13:44:21.000Z</time>
      </trkpt>
      <trkpt lat="47.56931" lon="-3.1018">
        <time>2017-11-12T13:44:22.000Z</time>
      </trkpt>
      <trkpt lat="47.56934" lon="-3.10166">
        <time>2017-11-12T13:44:23.000Z</time>
      </trkpt>
      <trkpt lat="47.56936" lon="-3.10154">
        <time>2017-11-12T13:44:24.000Z</time>
      </trkpt>
      <trkpt lat="47.56934" lon="-3.10143">
        <time>2017-11-12T13:44:25.000Z</time>
      </trkpt>
      <trkpt lat="47.56931" lon="-3.10133">
        <time>2017-11-12T13:44:26.000Z</time>
      </trkpt>
      <trkpt lat="47.56926" lon="-3.10126">
        <time>2017-11-12T13:44:27.000Z</time>
      </trkpt>
      <trkpt lat="47.56922" lon="-3.10122">
        <time>2017-11-12T13:44:28.000Z</time>
      </trkpt>
      <trkpt lat="47.56918" lon="-3.10119">
        <time>2017-11-12T13:44:29.000Z</time>
      </trkpt>
      <trkpt lat="47.56915" lon="-3.10118">
        <time>2017-11-12T13:44:30.000Z</time>
      </trkpt>
      <trkpt lat="47.56913" lon="-3.10118">
        <time>2017-11-12T13:44:31.000Z</time>
      </trkpt>
      <trkpt lat="47.56911" lon="-3.10119">
        <time>2017-11-12T13:44:32.000Z</time>
      </trkpt>
      <trkpt lat="47.5691" lon="-3.1012">
        <time>2017-11-12T13:44:33.000Z</time>
      </trkpt>
      <trkpt lat="47.56909" lon="-3.10121">
        <time>2017-11-12T13:44:34.000Z</time>
      </trkpt>
      <trkpt lat="47.56907" lon="-3.10122">
        <time>2017-11-12T13:44:35.000Z</time>
      </trkpt>
      <trkpt lat="47.56906" lon="-3.10122">
        <time>2017-11-12T13:44:36.000Z</time>
      </trkpt>
      <trkpt lat="47.56905" lon="-3.10123">
        <time>2017-11-12T13:44:37.000Z</time>
      </trkpt>
      <trkpt lat="47.56904" lon="-3.10124">
        <time>2017-11-12T13:44:38.000Z</time>
      </trkpt>
      <trkpt lat="47.56902" lon="-3.10125">
        <time>2017-11-12T13:44:39.000Z</time>
      </trkpt>
      <trkpt lat="47.56901" lon="-3.10126">
        <time>2017-11-12T13:44:40.000Z</time>
      </trkpt>
      <trkpt lat="47.569" lon="-3.10127">
        <time>2017-11-12T13:44:41.000Z</time>
      </trkpt>
      <trkpt lat="47.56865" lon="-3.10134">
        <time>2017-11-12T13:47:17.000Z</time>
      </trkpt>
      <trkpt lat="47.56872" lon="-3.10127">
        <time>2017-11-12T13:47:18.000Z</time>
      </trkpt>
      <trkpt lat="47.56861" lon="-3.10146">
        <time>2017-11-12T13:47:19.000Z</time>
      </trkpt>
      <trkpt lat="47.56862" lon="-3.10151">
        <time>2017-11-12T13:47:20.000Z</time>
      </trkpt>
      <trkpt lat="47.56859" lon="-3.10157">
        <time>2017-11-12T13:47:21.000Z</time>
      </trkpt>
      <trkpt lat="47.56857" lon="-3.10162">
        <time>2017-11-12T13:47:22.000Z</time>
      </trkpt>
      <trkpt lat="47.56854" lon="-3.1017">
        <time>2017-11-12T13:47:23.000Z</time>
      </trkpt>
      <trkpt lat="47.56851" lon="-3.10178">
        <time>2017-11-12T13:47:24.000Z</time>
      </trkpt>
      <trkpt lat="47.56847" lon="-3.10186">
        <time>2017-11-12T13:47:25.000Z</time>
      </trkpt>
      <trkpt lat="47.56844" lon="-3.10197">
        <time>2017-11-12T13:47:26.000Z</time>
      </trkpt>
      <trkpt lat="47.56839" lon="-3.10208">
        <time>2017-11-12T13:47:27.000Z</time>
      </trkpt>
      <trkpt lat="47.56834" lon="-3.1022">
        <time>2017-11-12T13:47:28.000Z</time>
      </trkpt>
      <trkpt lat="47.56829" lon="-3.10232">
        <time>2017-11-12T13:47:29.000Z</time>
      </trkpt>
      <trkpt lat="47.56824" lon="-3.10243">
        <time>2017-11-12T13:47:30.000Z</time>
      </trkpt>
      <trkpt lat="47.5682" lon="-3.10255">
        <time>2017-11-12T13:47:31.000Z</time>
      </trkpt>
      <trkpt lat="47.56815" lon="-3.10268">
        <time>2017-11-12T13:47:32.000Z</time>
      </trkpt>
      <trkpt lat="47.5681" lon="-3.1028">
        <time>2017-11-12T13:47:33.000Z</time>
      </trkpt>
      <trkpt lat="47.56803" lon="-3.10292">
        <time>2017-11-12T13:47:34.000Z</time>
      </trkpt>
      <trkpt lat="47.56798" lon="-3.10305">
        <time>2017-11-12T13:47:35.000Z</time>
      </trkpt>
      <trkpt lat="47.56792" lon="-3.10317">
        <time>2017-11-12T13:47:36.000Z</time>
      </trkpt>
      <trkpt lat="47.56787" lon="-3.10329">
        <time>2017-11-12T13:47:37.000Z</time>
      </trkpt>
      <trkpt lat="47.56782" lon="-3.10343">
        <time>2017-11-12T13:47:38.000Z</time>
      </trkpt>
      <trkpt lat="47.56777" lon="-3.10356">
        <time>2017-11-12T13:47:39.000Z</time>
      </trkpt>
      <trkpt lat="47.56772" lon="-3.10369">
        <time>2017-11-12T13:47:40.000Z</time>
      </trkpt>
      <trkpt lat="47.56767" lon="-3.10383">
        <time>2017-11-12T13:47:41.000Z</time>
      </trkpt>
      <trkpt lat="47.56762" lon="-3.10396">
        <time>2017-11-12T13:47:42.000Z</time>
      </trkpt>
      <trkpt lat="47.56757" lon="-3.1041">
        <time>2017-11-12T13:47:43.000Z</time>
      </trkpt>
      <trkpt lat="47.56752" lon="-3.10423">
        <time>2017-11-12T13:47:44.000Z</time>
      </trkpt>
      <trkpt lat="47.56747" lon="-3.10435">
        <time>2017-11-12T13:47:45.000Z</time>
      </trkpt>
      <trkpt lat="47.56742" lon="-3.10448">
        <time>2017-11-12T13:47:46.000Z</time>
      </trkpt>
      <trkpt lat="47.56737" lon="-3.10462">
        <time>2017-11-12T13:47:47.000Z</time>
      </trkpt>
      <trkpt lat="47.56731" lon="-3.10475">
        <time>2017-11-12T13:47:48.000Z</time>
      </trkpt>
      <trkpt lat="47.56726" lon="-3.10487">
        <time>2017-11-12T13:47:49.000Z</time>
      </trkpt>
      <trkpt lat="47.56722" lon="-3.10499">
        <time>2017-11-12T13:47:50.000Z</time>
      </trkpt>
      <trkpt lat="47.56717" lon="-3.10512">
        <time>2017-11-12T13:47:51.000Z</time>
      </trkpt>
      <trkpt lat="47.56713" lon="-3.10524">
        <time>2017-11-12T13:47:52.000Z</time>
      </trkpt>
      <trkpt lat="47.56708" lon="-3.10537">
        <time>2017-11-12T13:47:53.000Z</time>
      </trkpt>
      <trkpt lat="47.56703" lon="-3.10549">
        <time>2017-11-12T13:47:54.000Z</time>
      </trkpt>
      <trkpt lat="47.56699" lon="-3.10561">
        <time>2017-11-12T13:47:55.000Z</time>
      </trkpt>
      <trkpt lat="47.56694" lon="-3.10573">
        <time>2017-11-12T13:47:56.000Z</time>
      </trkpt>
      <trkpt lat="47.5669" lon="-3.10587">
        <time>2017-11-12T13:47:57.000Z</time>
      </trkpt>
      <trkpt lat="47.56685" lon="-3.106">
        <time>2017-11-12T13:47:58.000Z</time>
      </trkpt>
      <trkpt lat="47.56681" lon="-3.10611">
        <time>2017-11-12T13:47:59.000Z</time>
      </trkpt>
      <trkpt lat="47.56677" lon="-3.10624">
        <time>2017-11-12T13:48:00.000Z</time>
      </trkpt>
      <trkpt lat="47.56672" lon="-3.10637">
        <time>2017-11-12T13:48:01.000Z</time>
      </trkpt>
      <trkpt lat="47.56666" lon="-3.10648">
        <time>2017-11-12T13:48:02.000Z</time>
      </trkpt>
      <trkpt lat="47.5666" lon="-3.10662">
        <time>2017-11-12T13:48:03.000Z</time>
      </trkpt>
      <trkpt lat="47.56653" lon="-3.10675">
        <time>2017-11-12T13:48:04.000Z</time>
      </trkpt>
      <trkpt lat="47.56649" lon="-3.10688">
        <time>2017-11-12T13:48:05.000Z</time>
      </trkpt>
      <trkpt lat="47.56645" lon="-3.107">
        <time>2017-11-12T13:48:06.000Z</time>
      </trkpt>
      <trkpt lat="47.5664" lon="-3.10712">
        <time>2017-11-12T13:48:07.000Z</time>
      </trkpt>
      <trkpt lat="47.56636" lon="-3.10727">
        <time>2017-11-12T13:48:08.000Z</time>
      </trkpt>
      <trkpt lat="47.56631" lon="-3.10741">
        <time>2017-11-12T13:48:09.000Z</time>
      </trkpt>
      <trkpt lat="47.56628" lon="-3.10754">
        <time>2017-11-12T13:48:10.000Z</time>
      </trkpt>
      <trkpt lat="47.56624" lon="-3.10766">
        <time>2017-11-12T13:48:11.000Z</time>
      </trkpt>
      <trkpt lat="47.5662" lon="-3.1078">
        <time>2017-11-12T13:48:12.000Z</time>
      </trkpt>
      <trkpt lat="47.56616" lon="-3.10794">
        <time>2017-11-12T13:48:13.000Z</time>
      </trkpt>
      <trkpt lat="47.56612" lon="-3.10809">
        <time>2017-11-12T13:48:14.000Z</time>
      </trkpt>
      <trkpt lat="47.56607" lon="-3.10821">
        <time>2017-11-12T13:48:15.000Z</time>
      </trkpt>
      <trkpt lat="47.56603" lon="-3.10836">
        <time>2017-11-12T13:48:16.000Z</time>
      </trkpt>
      <trkpt lat="47.56601" lon="-3.10851">
        <time>2017-11-12T13:48:17.000Z</time>
      </trkpt>
      <trkpt lat="47.56598" lon="-3.10866">
        <time>2017-11-12T13:48:18.000Z</time>
      </trkpt>
      <trkpt lat="47.56594" lon="-3.10883">
        <time>2017-11-12T13:48:19.000Z</time>
      </trkpt>
      <trkpt lat="47.56591" lon="-3.10897">
        <time>2017-11-12T13:48:20.000Z</time>
      </trkpt>
      <trkpt lat="47.56588" lon="-3.1091">
        <time>2017-11-12T13:48:21.000Z</time>
      </trkpt>
      <trkpt lat="47.56587" lon="-3.10926">
        <time>2017-11-12T13:48:22.000Z</time>
      </trkpt>
      <trkpt lat="47.56587" lon="-3.10939">
        <time>2017-11-12T13:48:23.000Z</time>
      </trkpt>
      <trkpt lat="47.56586" lon="-3.10954">
        <time>2017-11-12T13:48:24.000Z</time>
      </trkpt>
      <trkpt lat="47.56585" lon="-3.10968">
        <time>2017-11-12T13:48:25.000Z</time>
      </trkpt>
      <trkpt lat="47.56584" lon="-3.10981">
        <time>2017-11-12T13:48:26.000Z</time>
      </trkpt>
      <trkpt lat="47.56584" lon="-3.10995">
        <time>2017-11-12T13:48:27.000Z</time>
      </trkpt>
      <trkpt lat="47.56584" lon="-3.11008">
        <time>2017-11-12T13:48:28.000Z</time>
      </trkpt>
      <trkpt lat="47.56584" lon="-3.1102">
        <time>2017-11-12T13:48:29.000Z</time>
      </trkpt>
      <trkpt lat="47.56582" lon="-3.11032">
        <time>2017-11-12T13:48:30.000Z</time>
      </trkpt>
      <trkpt lat="47.56582" lon="-3.11044">
        <time>2017-11-12T13:48:31.000Z</time>
      </trkpt>
      <trkpt lat="47.5658" lon="-3.11055">
        <time>2017-11-12T13:48:32.000Z</time>
      </trkpt>
      <trkpt lat="47.56579" lon="-3.11066">
        <time>2017-11-12T13:48:33.000Z</time>
      </trkpt>
      <trkpt lat="47.56577" lon="-3.11077">
        <time>2017-11-12T13:48:34.000Z</time>
      </trkpt>
      <trkpt lat="47.56575" lon="-3.11088">
        <time>2017-11-12T13:48:35.000Z</time>
      </trkpt>
      <trkpt lat="47.56572" lon="-3.111">
        <time>2017-11-12T13:48:36.000Z</time>
      </trkpt>
      <trkpt lat="47.5657" lon="-3.11111">
        <time>2017-11-12T13:48:37.000Z</time>
      </trkpt>
      <trkpt lat="47.56567" lon="-3.11123">
        <time>2017-11-12T13:48:38.000Z</time>
      </trkpt>
      <trkpt lat="47.56564" lon="-3.11134">
        <time>2017-11-12T13:48:39.000Z</time>
      </trkpt>
      <trkpt lat="47.56562" lon="-3.11147">
        <time>2017-11-12T13:48:40.000Z</time>
      </trkpt>
      <trkpt lat="47.56561" lon="-3.11158">
        <time>2017-11-12T13:48:41.000Z</time>
      </trkpt>
      <trkpt lat="47.56559" lon="-3.11171">
        <time>2017-11-12T13:48:42.000Z</time>
      </trkpt>
      <trkpt lat="47.56558" lon="-3.11183">
        <time>2017-11-12T13:48:43.000Z</time>
      </trkpt>
      <trkpt lat="47.56555" lon="-3.11193">
        <time>2017-11-12T13:48:44.000Z</time>
      </trkpt>
      <trkpt lat="47.56552" lon="-3.11204">
        <time>2017-11-12T13:48:45.000Z</time>
      </trkpt>
      <trkpt lat="47.56548" lon="-3.11215">
        <time>2017-11-12T13:48:46.000Z</time>
      </trkpt>
      <trkpt lat="47.56543" lon="-3.11219">
        <time>2017-11-12T13:48:47.000Z</time>
      </trkpt>
      <trkpt lat="47.56536" lon="-3.11223">
        <time>2017-11-12T13:48:48.000Z</time>
      </trkpt>
      <trkpt lat="47.56528" lon="-3.11225">
        <time>2017-11-12T13:48:49.000Z</time>
      </trkpt>
      <trkpt lat="47.56521" lon="-3.11224">
        <time>2017-11-12T13:48:50.000Z</time>
      </trkpt>
      <trkpt lat="47.56517" lon="-3.11221">
        <time>2017-11-12T13:48:51.000Z</time>
      </trkpt>
      <trkpt lat="47.56514" lon="-3.11217">
        <time>2017-11-12T13:48:52.000Z</time>
      </trkpt>
      <trkpt lat="47.56512" lon="-3.11213">
        <time>2017-11-12T13:48:53.000Z</time>
      </trkpt>
      <trkpt lat="47.56512" lon="-3.11211">
        <time>2017-11-12T13:48:54.000Z</time>
      </trkpt>
      <trkpt lat="47.56512" lon="-3.11207">
        <time>2017-11-12T13:48:55.000Z</time>
      </trkpt>
      <trkpt lat="47.56512" lon="-3.11205">
        <time>2017-11-12T13:48:56.000Z</time>
      </trkpt>
      <trkpt lat="47.56512" lon="-3.11203">
        <time>2017-11-12T13:48:57.000Z</time>
      </trkpt>
      <trkpt lat="47.56512" lon="-3.11203">
        <time>2017-11-12T13:48:58.000Z</time>
      </trkpt>
      <trkpt lat="47.56512" lon="-3.11203">
        <time>2017-11-12T13:48:59.000Z</time>
      </trkpt>
      <trkpt lat="47.56512" lon="-3.11203">
        <time>2017-11-12T13:49:00.000Z</time>
      </trkpt>
      <trkpt lat="47.56512" lon="-3.11203">
        <time>2017-11-12T13:49:01.000Z</time>
      </trkpt>
      <trkpt lat="47.56512" lon="-3.11203">
        <time>2017-11-12T13:49:02.000Z</time>
      </trkpt>
      <trkpt lat="47.56512" lon="-3.11203">
        <time>2017-11-12T13:49:03.000Z</time>
      </trkpt>
      <trkpt lat="47.56512" lon="-3.11203">
        <time>2017-11-12T13:49:04.000Z</time>
      </trkpt>
      <trkpt lat="47.56512" lon="-3.11203">
        <time>2017-11-12T13:49:05.000Z</time>
      </trkpt>
      <trkpt lat="47.56512" lon="-3.11203">
        <time>2017-11-12T13:49:06.000Z</time>
      </trkpt>
      <trkpt lat="47.56512" lon="-3.11203">
        <time>2017-11-12T13:49:07.000Z</time>
      </trkpt>
      <trkpt lat="47.56512" lon="-3.11203">
        <time>2017-11-12T13:49:08.000Z</time>
      </trkpt>
      <trkpt lat="47.56512" lon="-3.11203">
        <time>2017-11-12T13:49:09.000Z</time>
      </trkpt>
      <trkpt lat="47.56512" lon="-3.11203">
        <time>2017-11-12T13:49:10.000Z</time>
      </trkpt>
      <trkpt lat="47.56512" lon="-3.11203">
        <time>2017-11-12T13:49:11.000Z</time>
      </trkpt>
      <trkpt lat="47.56512" lon="-3.11203">
        <time>2017-11-12T13:49:12.000Z</time>
      </trkpt>
      <trkpt lat="47.56512" lon="-3.11203">
        <time>2017-11-12T13:49:13.000Z</time>
      </trkpt>
      <trkpt lat="47.56512" lon="-3.11203">
        <time>2017-11-12T13:49:14.000Z</time>
      </trkpt>
      <trkpt lat="47.56512" lon="-3.11203">
        <time>2017-11-12T13:49:15.000Z</time>
      </trkpt>
      <trkpt lat="47.56512" lon="-3.11203">
        <time>2017-11-12T13:49:16.000Z</time>
      </trkpt>
      <trkpt lat="47.56512" lon="-3.11203">
        <time>2017-11-12T13:49:17.000Z</time>
      </trkpt>
      <trkpt lat="47.56512" lon="-3.11203">
        <time>2017-11-12T13:49:18.000Z</time>
      </trkpt>
      <trkpt lat="47.56512" lon="-3.11203">
        <time>2017-11-12T13:49:19.000Z</time>
      </trkpt>
      <trkpt lat="47.56512" lon="-3.11203">
        <time>2017-11-12T13:49:20.000Z</time>
      </trkpt>
      <trkpt lat="47.56512" lon="-3.11203">
        <time>2017-11-12T13:49:21.000Z</time>
      </trkpt>
      <trkpt lat="47.56513" lon="-3.11199">
        <time>2017-11-12T13:49:22.000Z</time>
      </trkpt>
      <trkpt lat="47.56514" lon="-3.11196">
        <time>2017-11-12T13:49:23.000Z</time>
      </trkpt>
      <trkpt lat="47.56516" lon="-3.11193">
        <time>2017-11-12T13:49:24.000Z</time>
      </trkpt>
      <trkpt lat="47.56518" lon="-3.1119">
        <time>2017-11-12T13:49:25.000Z</time>
      </trkpt>
      <trkpt lat="47.5652" lon="-3.11187">
        <time>2017-11-12T13:49:26.000Z</time>
      </trkpt>
      <trkpt lat="47.56522" lon="-3.11184">
        <time>2017-11-12T13:49:27.000Z</time>
      </trkpt>
      <trkpt lat="47.56524" lon="-3.11182">
        <time>2017-11-12T13:49:28.000Z</time>
      </trkpt>
      <trkpt lat="47.56527" lon="-3.11179">
        <time>2017-11-12T13:49:29.000Z</time>
      </trkpt>
      <trkpt lat="47.56529" lon="-3.11176">
        <time>2017-11-12T13:49:30.000Z</time>
      </trkpt>
      <trkpt lat="47.56531" lon="-3.11172">
        <time>2017-11-12T13:49:31.000Z</time>
      </trkpt>
      <trkpt lat="47.56534" lon="-3.11168">
        <time>2017-11-12T13:49:32.000Z</time>
      </trkpt>
      <trkpt lat="47.56536" lon="-3.11162">
        <time>2017-11-12T13:49:33.000Z</time>
      </trkpt>
      <trkpt lat="47.56539" lon="-3.11157">
        <time>2017-11-12T13:49:34.000Z</time>
      </trkpt>
      <trkpt lat="47.56542" lon="-3.11151">
        <time>2017-11-12T13:49:35.000Z</time>
      </trkpt>
      <trkpt lat="47.56544" lon="-3.11144">
        <time>2017-11-12T13:49:36.000Z</time>
      </trkpt>
      <trkpt lat="47.56547" lon="-3.11137">
        <time>2017-11-12T13:49:37.000Z</time>
      </trkpt>
      <trkpt lat="47.5655" lon="-3.1113">
        <time>2017-11-12T13:49:38.000Z</time>
      </trkpt>
      <trkpt lat="47.56554" lon="-3.11123">
        <time>2017-11-12T13:49:39.000Z</time>
      </trkpt>
      <trkpt lat="47.56557" lon="-3.11115">
        <time>2017-11-12T13:49:40.000Z</time>
      </trkpt>
      <trkpt lat="47.56559" lon="-3.11108">
        <time>2017-11-12T13:49:41.000Z</time>
      </trkpt>
      <trkpt lat="47.56562" lon="-3.111">
        <time>2017-11-12T13:49:42.000Z</time>
      </trkpt>
      <trkpt lat="47.56564" lon="-3.11092">
        <time>2017-11-12T13:49:43.000Z</time>
      </trkpt>
      <trkpt lat="47.56567" lon="-3.11083">
        <time>2017-11-12T13:49:44.000Z</time>
      </trkpt>
      <trkpt lat="47.56569" lon="-3.11073">
        <time>2017-11-12T13:49:45.000Z</time>
      </trkpt>
      <trkpt lat="47.56572" lon="-3.11061">
        <time>2017-11-12T13:49:46.000Z</time>
      </trkpt>
      <trkpt lat="47.56575" lon="-3.11049">
        <time>2017-11-12T13:49:47.000Z</time>
      </trkpt>
      <trkpt lat="47.56578" lon="-3.11037">
        <time>2017-11-12T13:49:48.000Z</time>
      </trkpt>
      <trkpt lat="47.56583" lon="-3.11025">
        <time>2017-11-12T13:49:49.000Z</time>
      </trkpt>
      <trkpt lat="47.56588" lon="-3.11013">
        <time>2017-11-12T13:49:50.000Z</time>
      </trkpt>
      <trkpt lat="47.56593" lon="-3.11001">
        <time>2017-11-12T13:49:51.000Z</time>
      </trkpt>
      <trkpt lat="47.56598" lon="-3.1099">
        <time>2017-11-12T13:49:52.000Z</time>
      </trkpt>
      <trkpt lat="47.56602" lon="-3.10979">
        <time>2017-11-12T13:49:53.000Z</time>
      </trkpt>
      <trkpt lat="47.56606" lon="-3.10969">
        <time>2017-11-12T13:49:54.000Z</time>
      </trkpt>
      <trkpt lat="47.56611" lon="-3.10958">
        <time>2017-11-12T13:49:55.000Z</time>
      </trkpt>
      <trkpt lat="47.56616" lon="-3.10949">
        <time>2017-11-12T13:49:56.000Z</time>
      </trkpt>
      <trkpt lat="47.56621" lon="-3.10939">
        <time>2017-11-12T13:49:57.000Z</time>
      </trkpt>
      <trkpt lat="47.56625" lon="-3.1093">
        <time>2017-11-12T13:49:58.000Z</time>
      </trkpt>
      <trkpt lat="47.5663" lon="-3.1092">
        <time>2017-11-12T13:49:59.000Z</time>
      </trkpt>
      <trkpt lat="47.56633" lon="-3.1091">
        <time>2017-11-12T13:50:00.000Z</time>
      </trkpt>
      <trkpt lat="47.56637" lon="-3.109">
        <time>2017-11-12T13:50:01.000Z</time>
      </trkpt>
      <trkpt lat="47.5664" lon="-3.1089">
        <time>2017-11-12T13:50:02.000Z</time>
      </trkpt>
      <trkpt lat="47.56645" lon="-3.1088">
        <time>2017-11-12T13:50:03.000Z</time>
      </trkpt>
      <trkpt lat="47.56649" lon="-3.10869">
        <time>2017-11-12T13:50:04.000Z</time>
      </trkpt>
      <trkpt lat="47.56653" lon="-3.1086">
        <time>2017-11-12T13:50:05.000Z</time>
      </trkpt>
      <trkpt lat="47.56656" lon="-3.1085">
        <time>2017-11-12T13:50:06.000Z</time>
      </trkpt>
      <trkpt lat="47.5666" lon="-3.1084">
        <time>2017-11-12T13:50:07.000Z</time>
      </trkpt>
      <trkpt lat="47.56663" lon="-3.10829">
        <time>2017-11-12T13:50:08.000Z</time>
      </trkpt>
      <trkpt lat="47.56666" lon="-3.10819">
        <time>2017-11-12T13:50:09.000Z</time>
      </trkpt>
      <trkpt lat="47.5667" lon="-3.10809">
        <time>2017-11-12T13:50:10.000Z</time>
      </trkpt>
      <trkpt lat="47.56673" lon="-3.10799">
        <time>2017-11-12T13:50:11.000Z</time>
      </trkpt>
      <trkpt lat="47.56678" lon="-3.10789">
        <time>2017-11-12T13:50:12.000Z</time>
      </trkpt>
      <trkpt lat="47.56682" lon="-3.10779">
        <time>2017-11-12T13:50:13.000Z</time>
      </trkpt>
      <trkpt lat="47.56687" lon="-3.10768">
        <time>2017-11-12T13:50:14.000Z</time>
      </trkpt>
      <trkpt lat="47.56691" lon="-3.10757">
        <time>2017-11-12T13:50:15.000Z</time>
      </trkpt>
      <trkpt lat="47.56695" lon="-3.10746">
        <time>2017-11-12T13:50:16.000Z</time>
      </trkpt>
      <trkpt lat="47.567" lon="-3.10736">
        <time>2017-11-12T13:50:17.000Z</time>
      </trkpt>
      <trkpt lat="47.56704" lon="-3.10726">
        <time>2017-11-12T13:50:18.000Z</time>
      </trkpt>
      <trkpt lat="47.56709" lon="-3.10716">
        <time>2017-11-12T13:50:19.000Z</time>
      </trkpt>
      <trkpt lat="47.56713" lon="-3.10706">
        <time>2017-11-12T13:50:20.000Z</time>
      </trkpt>
      <trkpt lat="47.56718" lon="-3.10696">
        <time>2017-11-12T13:50:21.000Z</time>
      </trkpt>
      <trkpt lat="47.56723" lon="-3.10686">
        <time>2017-11-12T13:50:22.000Z</time>
      </trkpt>
      <trkpt lat="47.56728" lon="-3.10676">
        <time>2017-11-12T13:50:23.000Z</time>
      </trkpt>
      <trkpt lat="47.56732" lon="-3.10666">
        <time>2017-11-12T13:50:24.000Z</time>
      </trkpt>
      <trkpt lat="47.56737" lon="-3.10655">
        <time>2017-11-12T13:50:25.000Z</time>
      </trkpt>
      <trkpt lat="47.56741" lon="-3.10643">
        <time>2017-11-12T13:50:26.000Z</time>
      </trkpt>
      <trkpt lat="47.56746" lon="-3.10632">
        <time>2017-11-12T13:50:27.000Z</time>
      </trkpt>
      <trkpt lat="47.56752" lon="-3.10621">
        <time>2017-11-12T13:50:28.000Z</time>
      </trkpt>
      <trkpt lat="47.56757" lon="-3.1061">
        <time>2017-11-12T13:50:29.000Z</time>
      </trkpt>
      <trkpt lat="47.56763" lon="-3.10597">
        <time>2017-11-12T13:50:30.000Z</time>
      </trkpt>
      <trkpt lat="47.56768" lon="-3.10586">
        <time>2017-11-12T13:50:31.000Z</time>
      </trkpt>
      <trkpt lat="47.56772" lon="-3.10573">
        <time>2017-11-12T13:50:32.000Z</time>
      </trkpt>
      <trkpt lat="47.56778" lon="-3.1056">
        <time>2017-11-12T13:50:33.000Z</time>
      </trkpt>
      <trkpt lat="47.56783" lon="-3.10548">
        <time>2017-11-12T13:50:34.000Z</time>
      </trkpt>
      <trkpt lat="47.56788" lon="-3.10537">
        <time>2017-11-12T13:50:35.000Z</time>
      </trkpt>
      <trkpt lat="47.56792" lon="-3.10525">
        <time>2017-11-12T13:50:36.000Z</time>
      </trkpt>
      <trkpt lat="47.56797" lon="-3.10512">
        <time>2017-11-12T13:50:37.000Z</time>
      </trkpt>
      <trkpt lat="47.56802" lon="-3.10499">
        <time>2017-11-12T13:50:38.000Z</time>
      </trkpt>
      <trkpt lat="47.56807" lon="-3.10487">
        <time>2017-11-12T13:50:39.000Z</time>
      </trkpt>
      <trkpt lat="47.56811" lon="-3.10474">
        <time>2017-11-12T13:50:40.000Z</time>
      </trkpt>
      <trkpt lat="47.56815" lon="-3.10464">
        <time>2017-11-12T13:50:41.000Z</time>
      </trkpt>
      <trkpt lat="47.5682" lon="-3.10453">
        <time>2017-11-12T13:50:42.000Z</time>
      </trkpt>
      <trkpt lat="47.56826" lon="-3.10441">
        <time>2017-11-12T13:50:43.000Z</time>
      </trkpt>
      <trkpt lat="47.56831" lon="-3.10429">
        <time>2017-11-12T13:50:44.000Z</time>
      </trkpt>
      <trkpt lat="47.56837" lon="-3.10418">
        <time>2017-11-12T13:50:45.000Z</time>
      </trkpt>
      <trkpt lat="47.56842" lon="-3.10407">
        <time>2017-11-12T13:50:46.000Z</time>
      </trkpt>
      <trkpt lat="47.56847" lon="-3.10396">
        <time>2017-11-12T13:50:47.000Z</time>
      </trkpt>
      <trkpt lat="47.56852" lon="-3.10386">
        <time>2017-11-12T13:50:48.000Z</time>
      </trkpt>
      <trkpt lat="47.56855" lon="-3.10374">
        <time>2017-11-12T13:50:49.000Z</time>
      </trkpt>
      <trkpt lat="47.5686" lon="-3.10362">
        <time>2017-11-12T13:50:50.000Z</time>
      </trkpt>
      <trkpt lat="47.56865" lon="-3.10348">
        <time>2017-11-12T13:50:51.000Z</time>
      </trkpt>
      <trkpt lat="47.5687" lon="-3.10335">
        <time>2017-11-12T13:50:52.000Z</time>
      </trkpt>
      <trkpt lat="47.56875" lon="-3.10323">
        <time>2017-11-12T13:50:53.000Z</time>
      </trkpt>
      <trkpt lat="47.56879" lon="-3.10311">
        <time>2017-11-12T13:50:54.000Z</time>
      </trkpt>
      <trkpt lat="47.56884" lon="-3.10299">
        <time>2017-11-12T13:50:55.000Z</time>
      </trkpt>
      <trkpt lat="47.56891" lon="-3.10289">
        <time>2017-11-12T13:50:56.000Z</time>
      </trkpt>
      <trkpt lat="47.56897" lon="-3.10279">
        <time>2017-11-12T13:50:57.000Z</time>
      </trkpt>
      <trkpt lat="47.56905" lon="-3.10264">
        <time>2017-11-12T13:50:58.000Z</time>
      </trkpt>
      <trkpt lat="47.56911" lon="-3.10253">
        <time>2017-11-12T13:50:59.000Z</time>
      </trkpt>
      <trkpt lat="47.56917" lon="-3.10238">
        <time>2017-11-12T13:51:00.000Z</time>
      </trkpt>
      <trkpt lat="47.56923" lon="-3.10224">
        <time>2017-11-12T13:51:01.000Z</time>
      </trkpt>
      <trkpt lat="47.56928" lon="-3.10209">
        <time>2017-11-12T13:51:02.000Z</time>
      </trkpt>
      <trkpt lat="47.56933" lon="-3.10194">
        <time>2017-11-12T13:51:03.000Z</time>
      </trkpt>
      <trkpt lat="47.56938" lon="-3.1018">
        <time>2017-11-12T13:51:04.000Z</time>
      </trkpt>
      <trkpt lat="47.56942" lon="-3.10167">
        <time>2017-11-12T13:51:05.000Z</time>
      </trkpt>
      <trkpt lat="47.56947" lon="-3.10156">
        <time>2017-11-12T13:51:06.000Z</time>
      </trkpt>
      <trkpt lat="47.56951" lon="-3.10144">
        <time>2017-11-12T13:51:07.000Z</time>
      </trkpt>
      <trkpt lat="47.56953" lon="-3.10133">
        <time>2017-11-12T13:51:08.000Z</time>
      </trkpt>
      <trkpt lat="47.56955" lon="-3.10123">
        <time>2017-11-12T13:51:09.000Z</time>
      </trkpt>
      <trkpt lat="47.56954" lon="-3.1011">
        <time>2017-11-12T13:51:10.000Z</time>
      </trkpt>
      <trkpt lat="47.56952" lon="-3.10099">
        <time>2017-11-12T13:51:11.000Z</time>
      </trkpt>
      <trkpt lat="47.56949" lon="-3.10091">
        <time>2017-11-12T13:51:12.000Z</time>
      </trkpt>
      <trkpt lat="47.56946" lon="-3.1009">
        <time>2017-11-12T13:51:13.000Z</time>
      </trkpt>
      <trkpt lat="47.56944" lon="-3.1009">
        <time>2017-11-12T13:51:14.000Z</time>
      </trkpt>
      <trkpt lat="47.5694" lon="-3.10089">
        <time>2017-11-12T13:51:15.000Z</time>
      </trkpt>
      <trkpt lat="47.56938" lon="-3.1009">
        <time>2017-11-12T13:51:16.000Z</time>
      </trkpt>
      <trkpt lat="47.56936" lon="-3.10094">
        <time>2017-11-12T13:51:17.000Z</time>
      </trkpt>
      <trkpt lat="47.56934" lon="-3.10098">
        <time>2017-11-12T13:51:18.000Z</time>
      </trkpt>
      <trkpt lat="47.56932" lon="-3.10102">
        <time>2017-11-12T13:51:19.000Z</time>
      </trkpt>
      <trkpt lat="47.56931" lon="-3.10106">
        <time>2017-11-12T13:51:20.000Z</time>
      </trkpt>
      <trkpt lat="47.56928" lon="-3.10111">
        <time>2017-11-12T13:51:21.000Z</time>
      </trkpt>
      <trkpt lat="47.56927" lon="-3.10114">
        <time>2017-11-12T13:51:22.000Z</time>
      </trkpt>
      <trkpt lat="47.56925" lon="-3.10118">
        <time>2017-11-12T13:51:23.000Z</time>
      </trkpt>
      <trkpt lat="47.56923" lon="-3.10122">
        <time>2017-11-12T13:51:24.000Z</time>
      </trkpt>
      <trkpt lat="47.56921" lon="-3.10126">
        <time>2017-11-12T13:51:25.000Z</time>
      </trkpt>
      <trkpt lat="47.56919" lon="-3.10131">
        <time>2017-11-12T13:51:26.000Z</time>
      </trkpt>
      <trkpt lat="47.56916" lon="-3.10136">
        <time>2017-11-12T13:51:27.000Z</time>
      </trkpt>
      <trkpt lat="47.56914" lon="-3.1014">
        <time>2017-11-12T13:51:28.000Z</time>
      </trkpt>
      <trkpt lat="47.56913" lon="-3.10144">
        <time>2017-11-12T13:51:29.000Z</time>
      </trkpt>
      <trkpt lat="47.56909" lon="-3.1015">
        <time>2017-11-12T13:51:30.000Z</time>
      </trkpt>
      <trkpt lat="47.56906" lon="-3.10155">
        <time>2017-11-12T13:51:31.000Z</time>
      </trkpt>
      <trkpt lat="47.56903" lon="-3.10161">
        <time>2017-11-12T13:51:32.000Z</time>
      </trkpt>
      <trkpt lat="47.56901" lon="-3.10168">
        <time>2017-11-12T13:51:33.000Z</time>
      </trkpt>
      <trkpt lat="47.56898" lon="-3.10173">
        <time>2017-11-12T13:51:34.000Z</time>
      </trkpt>
      <trkpt lat="47.56895" lon="-3.1018">
        <time>2017-11-12T13:51:35.000Z</time>
      </trkpt>
      <trkpt lat="47.56892" lon="-3.10187">
        <time>2017-11-12T13:51:36.000Z</time>
      </trkpt>
      <trkpt lat="47.56888" lon="-3.10194">
        <time>2017-11-12T13:51:37.000Z</time>
      </trkpt>
      <trkpt lat="47.56884" lon="-3.10202">
        <time>2017-11-12T13:51:38.000Z</time>
      </trkpt>
      <trkpt lat="47.56881" lon="-3.1021">
        <time>2017-11-12T13:51:39.000Z</time>
      </trkpt>
      <trkpt lat="47.56877" lon="-3.10219">
        <time>2017-11-12T13:51:40.000Z</time>
      </trkpt>
      <trkpt lat="47.56873" lon="-3.10228">
        <time>2017-11-12T13:51:41.000Z</time>
      </trkpt>
      <trkpt lat="47.56869" lon="-3.10238">
        <time>2017-11-12T13:51:42.000Z</time>
      </trkpt>
      <trkpt lat="47.56865" lon="-3.10249">
        <time>2017-11-12T13:51:43.000Z</time>
      </trkpt>
      <trkpt lat="47.56861" lon="-3.10259">
        <time>2017-11-12T13:51:44.000Z</time>
      </trkpt>
      <trkpt lat="47.56857" lon="-3.1027">
        <time>2017-11-12T13:51:45.000Z</time>
      </trkpt>
      <trkpt lat="47.56853" lon="-3.10281">
        <time>2017-11-12T13:51:46.000Z</time>
      </trkpt>
      <trkpt lat="47.56849" lon="-3.10292">
        <time>2017-11-12T13:51:47.000Z</time>
      </trkpt>
      <trkpt lat="47.56845" lon="-3.10304">
        <time>2017-11-12T13:51:48.000Z</time>
      </trkpt>
      <trkpt lat="47.56842" lon="-3.10315">
        <time>2017-11-12T13:51:49.000Z</time>
      </trkpt>
      <trkpt lat="47.56838" lon="-3.10327">
        <time>2017-11-12T13:51:50.000Z</time>
      </trkpt>
      <trkpt lat="47.56835" lon="-3.10339">
        <time>2017-11-12T13:51:51.000Z</time>
      </trkpt>
      <trkpt lat="47.56831" lon="-3.10351">
        <time>2017-11-12T13:51:52.000Z</time>
      </trkpt>
      <trkpt lat="47.56827" lon="-3.10363">
        <time>2017-11-12T13:51:53.000Z</time>
      </trkpt>
      <trkpt lat="47.56823" lon="-3.10375">
        <time>2017-11-12T13:51:54.000Z</time>
      </trkpt>
      <trkpt lat="47.56819" lon="-3.10387">
        <time>2017-11-12T13:51:55.000Z</time>
      </trkpt>
      <trkpt lat="47.56815" lon="-3.10398">
        <time>2017-11-12T13:51:56.000Z</time>
      </trkpt>
      <trkpt lat="47.56811" lon="-3.10411">
        <time>2017-11-12T13:51:57.000Z</time>
      </trkpt>
      <trkpt lat="47.56805" lon="-3.10425">
        <time>2017-11-12T13:51:58.000Z</time>
      </trkpt>
      <trkpt lat="47.568" lon="-3.10436">
        <time>2017-11-12T13:51:59.000Z</time>
      </trkpt>
      <trkpt lat="47.56794" lon="-3.10448">
        <time>2017-11-12T13:52:00.000Z</time>
      </trkpt>
      <trkpt lat="47.56789" lon="-3.10461">
        <time>2017-11-12T13:52:01.000Z</time>
      </trkpt>
      <trkpt lat="47.56784" lon="-3.10473">
        <time>2017-11-12T13:52:02.000Z</time>
      </trkpt>
      <trkpt lat="47.5678" lon="-3.10485">
        <time>2017-11-12T13:52:03.000Z</time>
      </trkpt>
      <trkpt lat="47.56775" lon="-3.10498">
        <time>2017-11-12T13:52:04.000Z</time>
      </trkpt>
      <trkpt lat="47.56771" lon="-3.10509">
        <time>2017-11-12T13:52:05.000Z</time>
      </trkpt>
      <trkpt lat="47.56766" lon="-3.1052">
        <time>2017-11-12T13:52:06.000Z</time>
      </trkpt>
      <trkpt lat="47.56762" lon="-3.10531">
        <time>2017-11-12T13:52:07.000Z</time>
      </trkpt>
      <trkpt lat="47.56758" lon="-3.10542">
        <time>2017-11-12T13:52:08.000Z</time>
      </trkpt>
      <trkpt lat="47.56755" lon="-3.10554">
        <time>2017-11-12T13:52:09.000Z</time>
      </trkpt>
      <trkpt lat="47.56752" lon="-3.10566">
        <time>2017-11-12T13:52:10.000Z</time>
      </trkpt>
      <trkpt lat="47.56749" lon="-3.10578">
        <time>2017-11-12T13:52:11.000Z</time>
      </trkpt>
      <trkpt lat="47.56746" lon="-3.10589">
        <time>2017-11-12T13:52:12.000Z</time>
      </trkpt>
      <trkpt lat="47.56743" lon="-3.10601">
        <time>2017-11-12T13:52:13.000Z</time>
      </trkpt>
      <trkpt lat="47.5674" lon="-3.10613">
        <time>2017-11-12T13:52:14.000Z</time>
      </trkpt>
      <trkpt lat="47.56737" lon="-3.10625">
        <time>2017-11-12T13:52:15.000Z</time>
      </trkpt>
      <trkpt lat="47.56733" lon="-3.10638">
        <time>2017-11-12T13:52:16.000Z</time>
      </trkpt>
      <trkpt lat="47.56729" lon="-3.1065">
        <time>2017-11-12T13:52:17.000Z</time>
      </trkpt>
      <trkpt lat="47.56726" lon="-3.10664">
        <time>2017-11-12T13:52:18.000Z</time>
      </trkpt>
      <trkpt lat="47.56722" lon="-3.10676">
        <time>2017-11-12T13:52:19.000Z</time>
      </trkpt>
      <trkpt lat="47.56718" lon="-3.10689">
        <time>2017-11-12T13:52:20.000Z</time>
      </trkpt>
      <trkpt lat="47.56714" lon="-3.107">
        <time>2017-11-12T13:52:21.000Z</time>
      </trkpt>
      <trkpt lat="47.56711" lon="-3.10713">
        <time>2017-11-12T13:52:22.000Z</time>
      </trkpt>
      <trkpt lat="47.56707" lon="-3.10726">
        <time>2017-11-12T13:52:23.000Z</time>
      </trkpt>
      <trkpt lat="47.56704" lon="-3.10739">
        <time>2017-11-12T13:52:24.000Z</time>
      </trkpt>
      <trkpt lat="47.567" lon="-3.10752">
        <time>2017-11-12T13:52:25.000Z</time>
      </trkpt>
      <trkpt lat="47.56696" lon="-3.10766">
        <time>2017-11-12T13:52:26.000Z</time>
      </trkpt>
      <trkpt lat="47.56692" lon="-3.1078">
        <time>2017-11-12T13:52:27.000Z</time>
      </trkpt>
      <trkpt lat="47.56689" lon="-3.10794">
        <time>2017-11-12T13:52:28.000Z</time>
      </trkpt>
      <trkpt lat="47.56685" lon="-3.10808">
        <time>2017-11-12T13:52:29.000Z</time>
      </trkpt>
      <trkpt lat="47.56682" lon="-3.10821">
        <time>2017-11-12T13:52:30.000Z</time>
      </trkpt>
      <trkpt lat="47.56679" lon="-3.10834">
        <time>2017-11-12T13:52:31.000Z</time>
      </trkpt>
      <trkpt lat="47.56672" lon="-3.10847">
        <time>2017-11-12T13:52:32.000Z</time>
      </trkpt>
      <trkpt lat="47.56667" lon="-3.10859">
        <time>2017-11-12T13:52:33.000Z</time>
      </trkpt>
      <trkpt lat="47.56661" lon="-3.10872">
        <time>2017-11-12T13:52:34.000Z</time>
      </trkpt>
      <trkpt lat="47.56656" lon="-3.10886">
        <time>2017-11-12T13:52:35.000Z</time>
      </trkpt>
      <trkpt lat="47.5665" lon="-3.10899">
        <time>2017-11-12T13:52:36.000Z</time>
      </trkpt>
      <trkpt lat="47.56645" lon="-3.1091">
        <time>2017-11-12T13:52:37.000Z</time>
      </trkpt>
      <trkpt lat="47.5664" lon="-3.10923">
        <time>2017-11-12T13:52:38.000Z</time>
      </trkpt>
      <trkpt lat="47.56636" lon="-3.10936">
        <time>2017-11-12T13:52:39.000Z</time>
      </trkpt>
      <trkpt lat="47.56632" lon="-3.10949">
        <time>2017-11-12T13:52:40.000Z</time>
      </trkpt>
      <trkpt lat="47.56625" lon="-3.10962">
        <time>2017-11-12T13:52:41.000Z</time>
      </trkpt>
      <trkpt lat="47.56619" lon="-3.10973">
        <time>2017-11-12T13:52:42.000Z</time>
      </trkpt>
      <trkpt lat="47.56614" lon="-3.10986">
        <time>2017-11-12T13:52:43.000Z</time>
      </trkpt>
      <trkpt lat="47.56608" lon="-3.11002">
        <time>2017-11-12T13:52:44.000Z</time>
      </trkpt>
      <trkpt lat="47.56603" lon="-3.11015">
        <time>2017-11-12T13:52:45.000Z</time>
      </trkpt>
      <trkpt lat="47.56599" lon="-3.11028">
        <time>2017-11-12T13:52:46.000Z</time>
      </trkpt>
      <trkpt lat="47.56594" lon="-3.1104">
        <time>2017-11-12T13:52:47.000Z</time>
      </trkpt>
      <trkpt lat="47.56591" lon="-3.11053">
        <time>2017-11-12T13:52:48.000Z</time>
      </trkpt>
      <trkpt lat="47.56587" lon="-3.11063">
        <time>2017-11-12T13:52:49.000Z</time>
      </trkpt>
      <trkpt lat="47.56583" lon="-3.11077">
        <time>2017-11-12T13:52:50.000Z</time>
      </trkpt>
      <trkpt lat="47.56579" lon="-3.11089">
        <time>2017-11-12T13:52:51.000Z</time>
      </trkpt>
      <trkpt lat="47.56575" lon="-3.11103">
        <time>2017-11-12T13:52:52.000Z</time>
      </trkpt>
      <trkpt lat="47.56573" lon="-3.11114">
        <time>2017-11-12T13:52:53.000Z</time>
      </trkpt>
      <trkpt lat="47.56569" lon="-3.11127">
        <time>2017-11-12T13:52:54.000Z</time>
      </trkpt>
      <trkpt lat="47.56565" lon="-3.11138">
        <time>2017-11-12T13:52:55.000Z</time>
      </trkpt>
      <trkpt lat="47.56563" lon="-3.1115">
        <time>2017-11-12T13:52:56.000Z</time>
      </trkpt>
      <trkpt lat="47.56563" lon="-3.11163">
        <time>2017-11-12T13:52:57.000Z</time>
      </trkpt>
      <trkpt lat="47.56562" lon="-3.11175">
        <time>2017-11-12T13:52:58.000Z</time>
      </trkpt>
      <trkpt lat="47.56559" lon="-3.11189">
        <time>2017-11-12T13:52:59.000Z</time>
      </trkpt>
      <trkpt lat="47.56557" lon="-3.11201">
        <time>2017-11-12T13:53:00.000Z</time>
      </trkpt>
      <trkpt lat="47.56553" lon="-3.11212">
        <time>2017-11-12T13:53:01.000Z</time>
      </trkpt>
      <trkpt lat="47.56548" lon="-3.11223">
        <time>2017-11-12T13:53:02.000Z</time>
      </trkpt>
      <trkpt lat="47.56543" lon="-3.11231">
        <time>2017-11-12T13:53:03.000Z</time>
      </trkpt>
      <trkpt lat="47.56536" lon="-3.11236">
        <time>2017-11-12T13:53:04.000Z</time>
      </trkpt>
      <trkpt lat="47.56529" lon="-3.11238">
        <time>2017-11-12T13:53:05.000Z</time>
      </trkpt>
      <trkpt lat="47.56523" lon="-3.11237">
        <time>2017-11-12T13:53:06.000Z</time>
      </trkpt>
      <trkpt lat="47.56518" lon="-3.11234">
        <time>2017-11-12T13:53:07.000Z</time>
      </trkpt>
      <trkpt lat="47.56515" lon="-3.11228">
        <time>2017-11-12T13:53:08.000Z</time>
      </trkpt>
      <trkpt lat="47.56514" lon="-3.11221">
        <time>2017-11-12T13:53:09.000Z</time>
      </trkpt>
      <trkpt lat="47.56515" lon="-3.11217">
        <time>2017-11-12T13:53:10.000Z</time>
      </trkpt>
      <trkpt lat="47.56515" lon="-3.11213">
        <time>2017-11-12T13:53:11.000Z</time>
      </trkpt>
      <trkpt lat="47.56516" lon="-3.11209">
        <time>2017-11-12T13:53:12.000Z</time>
      </trkpt>
      <trkpt lat="47.56516" lon="-3.11204">
        <time>2017-11-12T13:53:13.000Z</time>
      </trkpt>
      <trkpt lat="47.56518" lon="-3.112">
        <time>2017-11-12T13:53:14.000Z</time>
      </trkpt>
      <trkpt lat="47.56518" lon="-3.11195">
        <time>2017-11-12T13:53:15.000Z</time>
      </trkpt>
      <trkpt lat="47.56519" lon="-3.1119">
        <time>2017-11-12T13:53:16.000Z</time>
      </trkpt>
      <trkpt lat="47.5652" lon="-3.11186">
        <time>2017-11-12T13:53:17.000Z</time>
      </trkpt>
      <trkpt lat="47.56522" lon="-3.11181">
        <time>2017-11-12T13:53:18.000Z</time>
      </trkpt>
      <trkpt lat="47.56524" lon="-3.11175">
        <time>2017-11-12T13:53:19.000Z</time>
      </trkpt>
      <trkpt lat="47.56526" lon="-3.11168">
        <time>2017-11-12T13:53:20.000Z</time>
      </trkpt>
      <trkpt lat="47.56528" lon="-3.11161">
        <time>2017-11-12T13:53:21.000Z</time>
      </trkpt>
      <trkpt lat="47.5653" lon="-3.11153">
        <time>2017-11-12T13:53:22.000Z</time>
      </trkpt>
      <trkpt lat="47.56533" lon="-3.11145">
        <time>2017-11-12T13:53:23.000Z</time>
      </trkpt>
      <trkpt lat="47.56536" lon="-3.11137">
        <time>2017-11-12T13:53:24.000Z</time>
      </trkpt>
      <trkpt lat="47.56539" lon="-3.11129">
        <time>2017-11-12T13:53:25.000Z</time>
      </trkpt>
      <trkpt lat="47.56542" lon="-3.1112">
        <time>2017-11-12T13:53:26.000Z</time>
      </trkpt>
      <trkpt lat="47.56545" lon="-3.1111">
        <time>2017-11-12T13:53:27.000Z</time>
      </trkpt>
      <trkpt lat="47.56548" lon="-3.11102">
        <time>2017-11-12T13:53:28.000Z</time>
      </trkpt>
      <trkpt lat="47.56552" lon="-3.11093">
        <time>2017-11-12T13:53:29.000Z</time>
      </trkpt>
      <trkpt lat="47.56556" lon="-3.11084">
        <time>2017-11-12T13:53:30.000Z</time>
      </trkpt>
      <trkpt lat="47.56559" lon="-3.11074">
        <time>2017-11-12T13:53:31.000Z</time>
      </trkpt>
      <trkpt lat="47.56562" lon="-3.11065">
        <time>2017-11-12T13:53:32.000Z</time>
      </trkpt>
      <trkpt lat="47.56566" lon="-3.11055">
        <time>2017-11-12T13:53:33.000Z</time>
      </trkpt>
      <trkpt lat="47.56569" lon="-3.11045">
        <time>2017-11-12T13:53:34.000Z</time>
      </trkpt>
      <trkpt lat="47.56572" lon="-3.11034">
        <time>2017-11-12T13:53:35.000Z</time>
      </trkpt>
      <trkpt lat="47.56575" lon="-3.11023">
        <time>2017-11-12T13:53:36.000Z</time>
      </trkpt>
      <trkpt lat="47.56577" lon="-3.11012">
        <time>2017-11-12T13:53:37.000Z</time>
      </trkpt>
      <trkpt lat="47.56581" lon="-3.11001">
        <time>2017-11-12T13:53:38.000Z</time>
      </trkpt>
      <trkpt lat="47.56584" lon="-3.10991">
        <time>2017-11-12T13:53:39.000Z</time>
      </trkpt>
      <trkpt lat="47.56587" lon="-3.10981">
        <time>2017-11-12T13:53:40.000Z</time>
      </trkpt>
      <trkpt lat="47.5659" lon="-3.10972">
        <time>2017-11-12T13:53:41.000Z</time>
      </trkpt>
      <trkpt lat="47.56593" lon="-3.10963">
        <time>2017-11-12T13:53:42.000Z</time>
      </trkpt>
      <trkpt lat="47.56597" lon="-3.10955">
        <time>2017-11-12T13:53:43.000Z</time>
      </trkpt>
      <trkpt lat="47.566" lon="-3.10946">
        <time>2017-11-12T13:53:44.000Z</time>
      </trkpt>
      <trkpt lat="47.56604" lon="-3.10937">
        <time>2017-11-12T13:53:45.000Z</time>
      </trkpt>
      <trkpt lat="47.56608" lon="-3.10928">
        <time>2017-11-12T13:53:46.000Z</time>
      </trkpt>
      <trkpt lat="47.56613" lon="-3.10919">
        <time>2017-11-12T13:53:47.000Z</time>
      </trkpt>
      <trkpt lat="47.56616" lon="-3.1091">
        <time>2017-11-12T13:53:48.000Z</time>
      </trkpt>
      <trkpt lat="47.5662" lon="-3.109">
        <time>2017-11-12T13:53:49.000Z</time>
      </trkpt>
      <trkpt lat="47.56624" lon="-3.10891">
        <time>2017-11-12T13:53:50.000Z</time>
      </trkpt>
      <trkpt lat="47.56628" lon="-3.10882">
        <time>2017-11-12T13:53:51.000Z</time>
      </trkpt>
      <trkpt lat="47.56632" lon="-3.10873">
        <time>2017-11-12T13:53:52.000Z</time>
      </trkpt>
      <trkpt lat="47.56636" lon="-3.10863">
        <time>2017-11-12T13:53:53.000Z</time>
      </trkpt>
      <trkpt lat="47.5664" lon="-3.10854">
        <time>2017-11-12T13:53:54.000Z</time>
      </trkpt>
      <trkpt lat="47.56644" lon="-3.10844">
        <time>2017-11-12T13:53:55.000Z</time>
      </trkpt>
      <trkpt lat="47.56648" lon="-3.10835">
        <time>2017-11-12T13:53:56.000Z</time>
      </trkpt>
      <trkpt lat="47.56652" lon="-3.10824">
        <time>2017-11-12T13:53:57.000Z</time>
      </trkpt>
      <trkpt lat="47.56657" lon="-3.10814">
        <time>2017-11-12T13:53:58.000Z</time>
      </trkpt>
      <trkpt lat="47.56661" lon="-3.10803">
        <time>2017-11-12T13:53:59.000Z</time>
      </trkpt>
      <trkpt lat="47.56666" lon="-3.10792">
        <time>2017-11-12T13:54:00.000Z</time>
      </trkpt>
      <trkpt lat="47.56671" lon="-3.10782">
        <time>2017-11-12T13:54:01.000Z</time>
      </trkpt>
      <trkpt lat="47.56676" lon="-3.10771">
        <time>2017-11-12T13:54:02.000Z</time>
      </trkpt>
      <trkpt lat="47.5668" lon="-3.10761">
        <time>2017-11-12T13:54:03.000Z</time>
      </trkpt>
      <trkpt lat="47.56685" lon="-3.1075">
        <time>2017-11-12T13:54:04.000Z</time>
      </trkpt>
      <trkpt lat="47.56689" lon="-3.1074">
        <time>2017-11-12T13:54:05.000Z</time>
      </trkpt>
      <trkpt lat="47.56692" lon="-3.10729">
        <time>2017-11-12T13:54:06.000Z</time>
      </trkpt>
      <trkpt lat="47.56696" lon="-3.10719">
        <time>2017-11-12T13:54:07.000Z</time>
      </trkpt>
      <trkpt lat="47.567" lon="-3.10709">
        <time>2017-11-12T13:54:08.000Z</time>
      </trkpt>
      <trkpt lat="47.56704" lon="-3.10698">
        <time>2017-11-12T13:54:09.000Z</time>
      </trkpt>
      <trkpt lat="47.56708" lon="-3.10687">
        <time>2017-11-12T13:54:10.000Z</time>
      </trkpt>
      <trkpt lat="47.56712" lon="-3.10676">
        <time>2017-11-12T13:54:11.000Z</time>
      </trkpt>
      <trkpt lat="47.56717" lon="-3.10664">
        <time>2017-11-12T13:54:12.000Z</time>
      </trkpt>
      <trkpt lat="47.56721" lon="-3.10653">
        <time>2017-11-12T13:54:13.000Z</time>
      </trkpt>
      <trkpt lat="47.56726" lon="-3.10641">
        <time>2017-11-12T13:54:14.000Z</time>
      </trkpt>
      <trkpt lat="47.56731" lon="-3.1063">
        <time>2017-11-12T13:54:15.000Z</time>
      </trkpt>
      <trkpt lat="47.56736" lon="-3.10618">
        <time>2017-11-12T13:54:16.000Z</time>
      </trkpt>
      <trkpt lat="47.56741" lon="-3.10607">
        <time>2017-11-12T13:54:17.000Z</time>
      </trkpt>
      <trkpt lat="47.56746" lon="-3.10597">
        <time>2017-11-12T13:54:18.000Z</time>
      </trkpt>
      <trkpt lat="47.56753" lon="-3.10586">
        <time>2017-11-12T13:54:19.000Z</time>
      </trkpt>
      <trkpt lat="47.56759" lon="-3.10574">
        <time>2017-11-12T13:54:20.000Z</time>
      </trkpt>
      <trkpt lat="47.56765" lon="-3.10563">
        <time>2017-11-12T13:54:21.000Z</time>
      </trkpt>
      <trkpt lat="47.56772" lon="-3.10552">
        <time>2017-11-12T13:54:22.000Z</time>
      </trkpt>
      <trkpt lat="47.56779" lon="-3.10541">
        <time>2017-11-12T13:54:23.000Z</time>
      </trkpt>
      <trkpt lat="47.56786" lon="-3.10531">
        <time>2017-11-12T13:54:24.000Z</time>
      </trkpt>
      <trkpt lat="47.56792" lon="-3.1052">
        <time>2017-11-12T13:54:25.000Z</time>
      </trkpt>
      <trkpt lat="47.56798" lon="-3.10508">
        <time>2017-11-12T13:54:26.000Z</time>
      </trkpt>
      <trkpt lat="47.56804" lon="-3.10497">
        <time>2017-11-12T13:54:27.000Z</time>
      </trkpt>
      <trkpt lat="47.5681" lon="-3.10483">
        <time>2017-11-12T13:54:28.000Z</time>
      </trkpt>
      <trkpt lat="47.56816" lon="-3.10472">
        <time>2017-11-12T13:54:29.000Z</time>
      </trkpt>
      <trkpt lat="47.56821" lon="-3.10463">
        <time>2017-11-12T13:54:30.000Z</time>
      </trkpt>
      <trkpt lat="47.56826" lon="-3.10454">
        <time>2017-11-12T13:54:31.000Z</time>
      </trkpt>
      <trkpt lat="47.56831" lon="-3.10442">
        <time>2017-11-12T13:54:32.000Z</time>
      </trkpt>
      <trkpt lat="47.56836" lon="-3.1043">
        <time>2017-11-12T13:54:33.000Z</time>
      </trkpt>
      <trkpt lat="47.56841" lon="-3.10418">
        <time>2017-11-12T13:54:34.000Z</time>
      </trkpt>
      <trkpt lat="47.56846" lon="-3.10406">
        <time>2017-11-12T13:54:35.000Z</time>
      </trkpt>
      <trkpt lat="47.56851" lon="-3.10394">
        <time>2017-11-12T13:54:36.000Z</time>
      </trkpt>
      <trkpt lat="47.56855" lon="-3.10382">
        <time>2017-11-12T13:54:37.000Z</time>
      </trkpt>
      <trkpt lat="47.5686" lon="-3.10371">
        <time>2017-11-12T13:54:38.000Z</time>
      </trkpt>
      <trkpt lat="47.56863" lon="-3.10363">
        <time>2017-11-12T13:54:39.000Z</time>
      </trkpt>
      <trkpt lat="47.56868" lon="-3.10352">
        <time>2017-11-12T13:54:40.000Z</time>
      </trkpt>
      <trkpt lat="47.56872" lon="-3.10342">
        <time>2017-11-12T13:54:41.000Z</time>
      </trkpt>
      <trkpt lat="47.56876" lon="-3.10331">
        <time>2017-11-12T13:54:42.000Z</time>
      </trkpt>
      <trkpt lat="47.5688" lon="-3.10319">
        <time>2017-11-12T13:54:43.000Z</time>
      </trkpt>
      <trkpt lat="47.56885" lon="-3.1031">
        <time>2017-11-12T13:54:44.000Z</time>
      </trkpt>
      <trkpt lat="47.5689" lon="-3.10299">
        <time>2017-11-12T13:54:45.000Z</time>
      </trkpt>
      <trkpt lat="47.56895" lon="-3.10287">
        <time>2017-11-12T13:54:46.000Z</time>
      </trkpt>
      <trkpt lat="47.56899" lon="-3.10277">
        <time>2017-11-12T13:54:47.000Z</time>
      </trkpt>
      <trkpt lat="47.56904" lon="-3.10266">
        <time>2017-11-12T13:54:48.000Z</time>
      </trkpt>
      <trkpt lat="47.56909" lon="-3.10255">
        <time>2017-11-12T13:54:49.000Z</time>
      </trkpt>
      <trkpt lat="47.56913" lon="-3.10245">
        <time>2017-11-12T13:54:50.000Z</time>
      </trkpt>
      <trkpt lat="47.56915" lon="-3.10234">
        <time>2017-11-12T13:54:51.000Z</time>
      </trkpt>
      <trkpt lat="47.56917" lon="-3.10223">
        <time>2017-11-12T13:54:52.000Z</time>
      </trkpt>
      <trkpt lat="47.56917" lon="-3.10212">
        <time>2017-11-12T13:54:53.000Z</time>
      </trkpt>
      <trkpt lat="47.56915" lon="-3.10204">
        <time>2017-11-12T13:54:54.000Z</time>
      </trkpt>
      <trkpt lat="47.56911" lon="-3.10199">
        <time>2017-11-12T13:54:55.000Z</time>
      </trkpt>
      <trkpt lat="47.56906" lon="-3.10197">
        <time>2017-11-12T13:54:56.000Z</time>
      </trkpt>
      <trkpt lat="47.56902" lon="-3.10198">
        <time>2017-11-12T13:54:57.000Z</time>
      </trkpt>
      <trkpt lat="47.569" lon="-3.102">
        <time>2017-11-12T13:54:58.000Z</time>
      </trkpt>
      <trkpt lat="47.56898" lon="-3.10201">
        <time>2017-11-12T13:54:59.000Z</time>
      </trkpt>
      <trkpt lat="47.56896" lon="-3.10204">
        <time>2017-11-12T13:55:00.000Z</time>
      </trkpt>
      <trkpt lat="47.56894" lon="-3.10208">
        <time>2017-11-12T13:55:01.000Z</time>
      </trkpt>
      <trkpt lat="47.56892" lon="-3.10213">
        <time>2017-11-12T13:55:02.000Z</time>
      </trkpt>
      <trkpt lat="47.56889" lon="-3.10217">
        <time>2017-11-12T13:55:03.000Z</time>
      </trkpt>
      <trkpt lat="47.56887" lon="-3.10222">
        <time>2017-11-12T13:55:04.000Z</time>
      </trkpt>
      <trkpt lat="47.56885" lon="-3.10227">
        <time>2017-11-12T13:55:05.000Z</time>
      </trkpt>
      <trkpt lat="47.56882" lon="-3.10232">
        <time>2017-11-12T13:55:06.000Z</time>
      </trkpt>
      <trkpt lat="47.5688" lon="-3.10236">
        <time>2017-11-12T13:55:07.000Z</time>
      </trkpt>
      <trkpt lat="47.56878" lon="-3.10239">
        <time>2017-11-12T13:55:08.000Z</time>
      </trkpt>
      <trkpt lat="47.56876" lon="-3.10242">
        <time>2017-11-12T13:55:09.000Z</time>
      </trkpt>
      <trkpt lat="47.56874" lon="-3.10246">
        <time>2017-11-12T13:55:10.000Z</time>
      </trkpt>
      <trkpt lat="47.56872" lon="-3.1025">
        <time>2017-11-12T13:55:11.000Z</time>
      </trkpt>
      <trkpt lat="47.5687" lon="-3.10254">
        <time>2017-11-12T13:55:12.000Z</time>
      </trkpt>
      <trkpt lat="47.56869" lon="-3.10258">
        <time>2017-11-12T13:55:13.000Z</time>
      </trkpt>
      <trkpt lat="47.56867" lon="-3.10263">
        <time>2017-11-12T13:55:14.000Z</time>
      </trkpt>
      <trkpt lat="47.56865" lon="-3.10268">
        <time>2017-11-12T13:55:15.000Z</time>
      </trkpt>
      <trkpt lat="47.56862" lon="-3.10275">
        <time>2017-11-12T13:55:16.000Z</time>
      </trkpt>
      <trkpt lat="47.56859" lon="-3.10283">
        <time>2017-11-12T13:55:17.000Z</time>
      </trkpt>
      <trkpt lat="47.56855" lon="-3.10291">
        <time>2017-11-12T13:55:18.000Z</time>
      </trkpt>
      <trkpt lat="47.56852" lon="-3.103">
        <time>2017-11-12T13:55:19.000Z</time>
      </trkpt>
      <trkpt lat="47.56848" lon="-3.10309">
        <time>2017-11-12T13:55:20.000Z</time>
      </trkpt>
      <trkpt lat="47.56844" lon="-3.10318">
        <time>2017-11-12T13:55:21.000Z</time>
      </trkpt>
      <trkpt lat="47.5684" lon="-3.10329">
        <time>2017-11-12T13:55:22.000Z</time>
      </trkpt>
      <trkpt lat="47.56836" lon="-3.1034">
        <time>2017-11-12T13:55:23.000Z</time>
      </trkpt>
      <trkpt lat="47.56832" lon="-3.10351">
        <time>2017-11-12T13:55:24.000Z</time>
      </trkpt>
      <trkpt lat="47.56828" lon="-3.10363">
        <time>2017-11-12T13:55:25.000Z</time>
      </trkpt>
      <trkpt lat="47.56824" lon="-3.10374">
        <time>2017-11-12T13:55:26.000Z</time>
      </trkpt>
      <trkpt lat="47.5682" lon="-3.10385">
        <time>2017-11-12T13:55:27.000Z</time>
      </trkpt>
      <trkpt lat="47.56816" lon="-3.10396">
        <time>2017-11-12T13:55:28.000Z</time>
      </trkpt>
      <trkpt lat="47.56813" lon="-3.10407">
        <time>2017-11-12T13:55:29.000Z</time>
      </trkpt>
      <trkpt lat="47.5681" lon="-3.10418">
        <time>2017-11-12T13:55:30.000Z</time>
      </trkpt>
      <trkpt lat="47.56806" lon="-3.10429">
        <time>2017-11-12T13:55:31.000Z</time>
      </trkpt>
      <trkpt lat="47.56803" lon="-3.10442">
        <time>2017-11-12T13:55:32.000Z</time>
      </trkpt>
      <trkpt lat="47.56799" lon="-3.10453">
        <time>2017-11-12T13:55:33.000Z</time>
      </trkpt>
      <trkpt lat="47.56796" lon="-3.10465">
        <time>2017-11-12T13:55:34.000Z</time>
      </trkpt>
      <trkpt lat="47.56792" lon="-3.10477">
        <time>2017-11-12T13:55:35.000Z</time>
      </trkpt>
      <trkpt lat="47.56789" lon="-3.10489">
        <time>2017-11-12T13:55:36.000Z</time>
      </trkpt>
      <trkpt lat="47.56786" lon="-3.10503">
        <time>2017-11-12T13:55:37.000Z</time>
      </trkpt>
      <trkpt lat="47.56784" lon="-3.10517">
        <time>2017-11-12T13:55:38.000Z</time>
      </trkpt>
      <trkpt lat="47.56781" lon="-3.1053">
        <time>2017-11-12T13:55:39.000Z</time>
      </trkpt>
      <trkpt lat="47.56777" lon="-3.10543">
        <time>2017-11-12T13:55:40.000Z</time>
      </trkpt>
      <trkpt lat="47.56774" lon="-3.10556">
        <time>2017-11-12T13:55:41.000Z</time>
      </trkpt>
      <trkpt lat="47.5677" lon="-3.10569">
        <time>2017-11-12T13:55:42.000Z</time>
      </trkpt>
      <trkpt lat="47.56767" lon="-3.10582">
        <time>2017-11-12T13:55:43.000Z</time>
      </trkpt>
      <trkpt lat="47.56764" lon="-3.10595">
        <time>2017-11-12T13:55:44.000Z</time>
      </trkpt>
      <trkpt lat="47.5676" lon="-3.10609">
        <time>2017-11-12T13:55:45.000Z</time>
      </trkpt>
      <trkpt lat="47.56756" lon="-3.10622">
        <time>2017-11-12T13:55:46.000Z</time>
      </trkpt>
      <trkpt lat="47.56752" lon="-3.10635">
        <time>2017-11-12T13:55:47.000Z</time>
      </trkpt>
      <trkpt lat="47.56748" lon="-3.10648">
        <time>2017-11-12T13:55:48.000Z</time>
      </trkpt>
      <trkpt lat="47.56745" lon="-3.10662">
        <time>2017-11-12T13:55:49.000Z</time>
      </trkpt>
      <trkpt lat="47.56741" lon="-3.10675">
        <time>2017-11-12T13:55:50.000Z</time>
      </trkpt>
      <trkpt lat="47.56737" lon="-3.10687">
        <time>2017-11-12T13:55:51.000Z</time>
      </trkpt>
      <trkpt lat="47.56734" lon="-3.10699">
        <time>2017-11-12T13:55:52.000Z</time>
      </trkpt>
      <trkpt lat="47.5673" lon="-3.10711">
        <time>2017-11-12T13:55:53.000Z</time>
      </trkpt>
      <trkpt lat="47.56725" lon="-3.10725">
        <time>2017-11-12T13:55:54.000Z</time>
      </trkpt>
      <trkpt lat="47.56718" lon="-3.10739">
        <time>2017-11-12T13:55:55.000Z</time>
      </trkpt>
      <trkpt lat="47.56713" lon="-3.10752">
        <time>2017-11-12T13:55:56.000Z</time>
      </trkpt>
      <trkpt lat="47.56707" lon="-3.10768">
        <time>2017-11-12T13:55:57.000Z</time>
      </trkpt>
      <trkpt lat="47.56702" lon="-3.10782">
        <time>2017-11-12T13:55:58.000Z</time>
      </trkpt>
      <trkpt lat="47.56696" lon="-3.10797">
        <time>2017-11-12T13:55:59.000Z</time>
      </trkpt>
      <trkpt lat="47.5669" lon="-3.10811">
        <time>2017-11-12T13:56:00.000Z</time>
      </trkpt>
      <trkpt lat="47.56685" lon="-3.10825">
        <time>2017-11-12T13:56:01.000Z</time>
      </trkpt>
      <trkpt lat="47.56681" lon="-3.10839">
        <time>2017-11-12T13:56:02.000Z</time>
      </trkpt>
      <trkpt lat="47.56675" lon="-3.10852">
        <time>2017-11-12T13:56:03.000Z</time>
      </trkpt>
      <trkpt lat="47.5667" lon="-3.10863">
        <time>2017-11-12T13:56:04.000Z</time>
      </trkpt>
      <trkpt lat="47.56665" lon="-3.10875">
        <time>2017-11-12T13:56:05.000Z</time>
      </trkpt>
      <trkpt lat="47.56659" lon="-3.10887">
        <time>2017-11-12T13:56:06.000Z</time>
      </trkpt>
      <trkpt lat="47.56655" lon="-3.10898">
        <time>2017-11-12T13:56:07.000Z</time>
      </trkpt>
      <trkpt lat="47.5665" lon="-3.1091">
        <time>2017-11-12T13:56:08.000Z</time>
      </trkpt>
      <trkpt lat="47.56645" lon="-3.10921">
        <time>2017-11-12T13:56:09.000Z</time>
      </trkpt>
      <trkpt lat="47.56641" lon="-3.10933">
        <time>2017-11-12T13:56:10.000Z</time>
      </trkpt>
      <trkpt lat="47.56636" lon="-3.10945">
        <time>2017-11-12T13:56:11.000Z</time>
      </trkpt>
      <trkpt lat="47.56631" lon="-3.10957">
        <time>2017-11-12T13:56:12.000Z</time>
      </trkpt>
      <trkpt lat="47.56628" lon="-3.10972">
        <time>2017-11-12T13:56:13.000Z</time>
      </trkpt>
      <trkpt lat="47.56625" lon="-3.10985">
        <time>2017-11-12T13:56:14.000Z</time>
      </trkpt>
      <trkpt lat="47.56623" lon="-3.10999">
        <time>2017-11-12T13:56:15.000Z</time>
      </trkpt>
      <trkpt lat="47.5662" lon="-3.11011">
        <time>2017-11-12T13:56:16.000Z</time>
      </trkpt>
      <trkpt lat="47.56618" lon="-3.11024">
        <time>2017-11-12T13:56:17.000Z</time>
      </trkpt>
      <trkpt lat="47.56616" lon="-3.11038">
        <time>2017-11-12T13:56:18.000Z</time>
      </trkpt>
      <trkpt lat="47.56614" lon="-3.11051">
        <time>2017-11-12T13:56:19.000Z</time>
      </trkpt>
      <trkpt lat="47.56611" lon="-3.11065">
        <time>2017-11-12T13:56:20.000Z</time>
      </trkpt>
      <trkpt lat="47.56608" lon="-3.11077">
        <time>2017-11-12T13:56:21.000Z</time>
      </trkpt>
      <trkpt lat="47.56605" lon="-3.1109">
        <time>2017-11-12T13:56:22.000Z</time>
      </trkpt>
      <trkpt lat="47.56602" lon="-3.11104">
        <time>2017-11-12T13:56:23.000Z</time>
      </trkpt>
      <trkpt lat="47.566" lon="-3.11116">
        <time>2017-11-12T13:56:24.000Z</time>
      </trkpt>
      <trkpt lat="47.56597" lon="-3.11129">
        <time>2017-11-12T13:56:25.000Z</time>
      </trkpt>
      <trkpt lat="47.56595" lon="-3.11142">
        <time>2017-11-12T13:56:26.000Z</time>
      </trkpt>
      <trkpt lat="47.56592" lon="-3.11154">
        <time>2017-11-12T13:56:27.000Z</time>
      </trkpt>
      <trkpt lat="47.56589" lon="-3.11167">
        <time>2017-11-12T13:56:28.000Z</time>
      </trkpt>
      <trkpt lat="47.56586" lon="-3.11179">
        <time>2017-11-12T13:56:29.000Z</time>
      </trkpt>
      <trkpt lat="47.56582" lon="-3.11192">
        <time>2017-11-12T13:56:30.000Z</time>
      </trkpt>
      <trkpt lat="47.56579" lon="-3.11203">
        <time>2017-11-12T13:56:31.000Z</time>
      </trkpt>
      <trkpt lat="47.56575" lon="-3.11216">
        <time>2017-11-12T13:56:32.000Z</time>
      </trkpt>
      <trkpt lat="47.56572" lon="-3.11228">
        <time>2017-11-12T13:56:33.000Z</time>
      </trkpt>
      <trkpt lat="47.56569" lon="-3.1124">
        <time>2017-11-12T13:56:34.000Z</time>
      </trkpt>
      <trkpt lat="47.56566" lon="-3.11252">
        <time>2017-11-12T13:56:35.000Z</time>
      </trkpt>
      <trkpt lat="47.56563" lon="-3.11265">
        <time>2017-11-12T13:56:36.000Z</time>
      </trkpt>
      <trkpt lat="47.5656" lon="-3.11278">
        <time>2017-11-12T13:56:37.000Z</time>
      </trkpt>
      <trkpt lat="47.56556" lon="-3.11291">
        <time>2017-11-12T13:56:38.000Z</time>
      </trkpt>
      <trkpt lat="47.56552" lon="-3.11304">
        <time>2017-11-12T13:56:39.000Z</time>
      </trkpt>
      <trkpt lat="47.56548" lon="-3.11317">
        <time>2017-11-12T13:56:40.000Z</time>
      </trkpt>
      <trkpt lat="47.56544" lon="-3.1133">
        <time>2017-11-12T13:56:41.000Z</time>
      </trkpt>
      <trkpt lat="47.56541" lon="-3.11343">
        <time>2017-11-12T13:56:42.000Z</time>
      </trkpt>
      <trkpt lat="47.56538" lon="-3.11356">
        <time>2017-11-12T13:56:43.000Z</time>
      </trkpt>
      <trkpt lat="47.56535" lon="-3.11369">
        <time>2017-11-12T13:56:44.000Z</time>
      </trkpt>
      <trkpt lat="47.56532" lon="-3.11382">
        <time>2017-11-12T13:56:45.000Z</time>
      </trkpt>
      <trkpt lat="47.56527" lon="-3.11396">
        <time>2017-11-12T13:56:46.000Z</time>
      </trkpt>
      <trkpt lat="47.56519" lon="-3.11405">
        <time>2017-11-12T13:56:47.000Z</time>
      </trkpt>
      <trkpt lat="47.56512" lon="-3.1141">
        <time>2017-11-12T13:56:48.000Z</time>
      </trkpt>
      <trkpt lat="47.56506" lon="-3.11412">
        <time>2017-11-12T13:56:49.000Z</time>
      </trkpt>
      <trkpt lat="47.56503" lon="-3.11412">
        <time>2017-11-12T13:56:50.000Z</time>
      </trkpt>
      <trkpt lat="47.565" lon="-3.11406">
        <time>2017-11-12T13:56:51.000Z</time>
      </trkpt>
      <trkpt lat="47.565" lon="-3.11405">
        <time>2017-11-12T13:56:52.000Z</time>
      </trkpt>
      <trkpt lat="47.565" lon="-3.11403">
        <time>2017-11-12T13:56:53.000Z</time>
      </trkpt>
      <trkpt lat="47.56501" lon="-3.11401">
        <time>2017-11-12T13:56:54.000Z</time>
      </trkpt>
      <trkpt lat="47.56502" lon="-3.11399">
        <time>2017-11-12T13:56:55.000Z</time>
      </trkpt>
      <trkpt lat="47.56504" lon="-3.11399">
        <time>2017-11-12T13:56:56.000Z</time>
      </trkpt>
      <trkpt lat="47.56507" lon="-3.11396">
        <time>2017-11-12T13:56:57.000Z</time>
      </trkpt>
      <trkpt lat="47.56509" lon="-3.11393">
        <time>2017-11-12T13:56:58.000Z</time>
      </trkpt>
      <trkpt lat="47.56512" lon="-3.11389">
        <time>2017-11-12T13:56:59.000Z</time>
      </trkpt>
      <trkpt lat="47.56513" lon="-3.11385">
        <time>2017-11-12T13:57:00.000Z</time>
      </trkpt>
      <trkpt lat="47.56516" lon="-3.11379">
        <time>2017-11-12T13:57:01.000Z</time>
      </trkpt>
      <trkpt lat="47.56518" lon="-3.11375">
        <time>2017-11-12T13:57:02.000Z</time>
      </trkpt>
      <trkpt lat="47.56521" lon="-3.11369">
        <time>2017-11-12T13:57:03.000Z</time>
      </trkpt>
      <trkpt lat="47.56523" lon="-3.11362">
        <time>2017-11-12T13:57:04.000Z</time>
      </trkpt>
      <trkpt lat="47.56525" lon="-3.11356">
        <time>2017-11-12T13:57:05.000Z</time>
      </trkpt>
      <trkpt lat="47.56527" lon="-3.11349">
        <time>2017-11-12T13:57:06.000Z</time>
      </trkpt>
      <trkpt lat="47.56529" lon="-3.1134">
        <time>2017-11-12T13:57:07.000Z</time>
      </trkpt>
      <trkpt lat="47.5653" lon="-3.11332">
        <time>2017-11-12T13:57:08.000Z</time>
      </trkpt>
      <trkpt lat="47.56532" lon="-3.11322">
        <time>2017-11-12T13:57:09.000Z</time>
      </trkpt>
      <trkpt lat="47.56534" lon="-3.11313">
        <time>2017-11-12T13:57:10.000Z</time>
      </trkpt>
      <trkpt lat="47.56536" lon="-3.11305">
        <time>2017-11-12T13:57:11.000Z</time>
      </trkpt>
      <trkpt lat="47.5654" lon="-3.11297">
        <time>2017-11-12T13:57:12.000Z</time>
      </trkpt>
      <trkpt lat="47.56542" lon="-3.11288">
        <time>2017-11-12T13:57:13.000Z</time>
      </trkpt>
      <trkpt lat="47.56545" lon="-3.11279">
        <time>2017-11-12T13:57:14.000Z</time>
      </trkpt>
      <trkpt lat="47.56548" lon="-3.11269">
        <time>2017-11-12T13:57:15.000Z</time>
      </trkpt>
      <trkpt lat="47.56551" lon="-3.11259">
        <time>2017-11-12T13:57:16.000Z</time>
      </trkpt>
      <trkpt lat="47.56554" lon="-3.1125">
        <time>2017-11-12T13:57:17.000Z</time>
      </trkpt>
      <trkpt lat="47.56557" lon="-3.11239">
        <time>2017-11-12T13:57:18.000Z</time>
      </trkpt>
      <trkpt lat="47.5656" lon="-3.11229">
        <time>2017-11-12T13:57:19.000Z</time>
      </trkpt>
      <trkpt lat="47.56564" lon="-3.11218">
        <time>2017-11-12T13:57:20.000Z</time>
      </trkpt>
      <trkpt lat="47.56568" lon="-3.11207">
        <time>2017-11-12T13:57:21.000Z</time>
      </trkpt>
      <trkpt lat="47.56572" lon="-3.11197">
        <time>2017-11-12T13:57:22.000Z</time>
      </trkpt>
      <trkpt lat="47.56574" lon="-3.11186">
        <time>2017-11-12T13:57:23.000Z</time>
      </trkpt>
      <trkpt lat="47.56577" lon="-3.11176">
        <time>2017-11-12T13:57:24.000Z</time>
      </trkpt>
      <trkpt lat="47.56578" lon="-3.11165">
        <time>2017-11-12T13:57:25.000Z</time>
      </trkpt>
      <trkpt lat="47.5658" lon="-3.11153">
        <time>2017-11-12T13:57:26.000Z</time>
      </trkpt>
      <trkpt lat="47.56582" lon="-3.11143">
        <time>2017-11-12T13:57:27.000Z</time>
      </trkpt>
      <trkpt lat="47.56584" lon="-3.11132">
        <time>2017-11-12T13:57:28.000Z</time>
      </trkpt>
      <trkpt lat="47.56587" lon="-3.11121">
        <time>2017-11-12T13:57:29.000Z</time>
      </trkpt>
      <trkpt lat="47.5659" lon="-3.11109">
        <time>2017-11-12T13:57:30.000Z</time>
      </trkpt>
      <trkpt lat="47.56593" lon="-3.11098">
        <time>2017-11-12T13:57:31.000Z</time>
      </trkpt>
      <trkpt lat="47.56597" lon="-3.11088">
        <time>2017-11-12T13:57:32.000Z</time>
      </trkpt>
      <trkpt lat="47.56601" lon="-3.11077">
        <time>2017-11-12T13:57:33.000Z</time>
      </trkpt>
      <trkpt lat="47.56605" lon="-3.11067">
        <time>2017-11-12T13:57:34.000Z</time>
      </trkpt>
      <trkpt lat="47.56608" lon="-3.11057">
        <time>2017-11-12T13:57:35.000Z</time>
      </trkpt>
      <trkpt lat="47.56611" lon="-3.11047">
        <time>2017-11-12T13:57:36.000Z</time>
      </trkpt>
      <trkpt lat="47.56614" lon="-3.11036">
        <time>2017-11-12T13:57:37.000Z</time>
      </trkpt>
      <trkpt lat="47.56617" lon="-3.11024">
        <time>2017-11-12T13:57:38.000Z</time>
      </trkpt>
      <trkpt lat="47.5662" lon="-3.11013">
        <time>2017-11-12T13:57:39.000Z</time>
      </trkpt>
      <trkpt lat="47.56623" lon="-3.11002">
        <time>2017-11-12T13:57:40.000Z</time>
      </trkpt>
      <trkpt lat="47.56627" lon="-3.1099">
        <time>2017-11-12T13:57:41.000Z</time>
      </trkpt>
      <trkpt lat="47.5663" lon="-3.10979">
        <time>2017-11-12T13:57:42.000Z</time>
      </trkpt>
      <trkpt lat="47.56634" lon="-3.10968">
        <time>2017-11-12T13:57:43.000Z</time>
      </trkpt>
      <trkpt lat="47.56638" lon="-3.10956">
        <time>2017-11-12T13:57:44.000Z</time>
      </trkpt>
      <trkpt lat="47.56642" lon="-3.10946">
        <time>2017-11-12T13:57:45.000Z</time>
      </trkpt>
      <trkpt lat="47.56645" lon="-3.10934">
        <time>2017-11-12T13:57:46.000Z</time>
      </trkpt>
      <trkpt lat="47.56649" lon="-3.10923">
        <time>2017-11-12T13:57:47.000Z</time>
      </trkpt>
      <trkpt lat="47.56652" lon="-3.10912">
        <time>2017-11-12T13:57:48.000Z</time>
      </trkpt>
      <trkpt lat="47.56656" lon="-3.10901">
        <time>2017-11-12T13:57:49.000Z</time>
      </trkpt>
      <trkpt lat="47.56659" lon="-3.1089">
        <time>2017-11-12T13:57:50.000Z</time>
      </trkpt>
      <trkpt lat="47.56663" lon="-3.10878">
        <time>2017-11-12T13:57:51.000Z</time>
      </trkpt>
      <trkpt lat="47.56666" lon="-3.10868">
        <time>2017-11-12T13:57:52.000Z</time>
      </trkpt>
      <trkpt lat="47.5667" lon="-3.10857">
        <time>2017-11-12T13:57:53.000Z</time>
      </trkpt>
      <trkpt lat="47.56674" lon="-3.10848">
        <time>2017-11-12T13:57:54.000Z</time>
      </trkpt>
      <trkpt lat="47.56678" lon="-3.10838">
        <time>2017-11-12T13:57:55.000Z</time>
      </trkpt>
      <trkpt lat="47.5668" lon="-3.10829">
        <time>2017-11-12T13:57:56.000Z</time>
      </trkpt>
      <trkpt lat="47.56683" lon="-3.10819">
        <time>2017-11-12T13:57:57.000Z</time>
      </trkpt>
      <trkpt lat="47.56686" lon="-3.1081">
        <time>2017-11-12T13:57:58.000Z</time>
      </trkpt>
      <trkpt lat="47.56689" lon="-3.10801">
        <time>2017-11-12T13:57:59.000Z</time>
      </trkpt>
      <trkpt lat="47.56693" lon="-3.10792">
        <time>2017-11-12T13:58:00.000Z</time>
      </trkpt>
      <trkpt lat="47.56697" lon="-3.10783">
        <time>2017-11-12T13:58:01.000Z</time>
      </trkpt>
      <trkpt lat="47.567" lon="-3.10773">
        <time>2017-11-12T13:58:02.000Z</time>
      </trkpt>
      <trkpt lat="47.56702" lon="-3.10763">
        <time>2017-11-12T13:58:03.000Z</time>
      </trkpt>
      <trkpt lat="47.56705" lon="-3.10752">
        <time>2017-11-12T13:58:04.000Z</time>
      </trkpt>
      <trkpt lat="47.56708" lon="-3.10741">
        <time>2017-11-12T13:58:05.000Z</time>
      </trkpt>
      <trkpt lat="47.56712" lon="-3.10732">
        <time>2017-11-12T13:58:06.000Z</time>
      </trkpt>
      <trkpt lat="47.56717" lon="-3.10722">
        <time>2017-11-12T13:58:07.000Z</time>
      </trkpt>
      <trkpt lat="47.56721" lon="-3.10713">
        <time>2017-11-12T13:58:08.000Z</time>
      </trkpt>
      <trkpt lat="47.56725" lon="-3.10702">
        <time>2017-11-12T13:58:09.000Z</time>
      </trkpt>
      <trkpt lat="47.56728" lon="-3.1069">
        <time>2017-11-12T13:58:10.000Z</time>
      </trkpt>
      <trkpt lat="47.56731" lon="-3.10678">
        <time>2017-11-12T13:58:11.000Z</time>
      </trkpt>
      <trkpt lat="47.56734" lon="-3.10665">
        <time>2017-11-12T13:58:12.000Z</time>
      </trkpt>
      <trkpt lat="47.56737" lon="-3.10653">
        <time>2017-11-12T13:58:13.000Z</time>
      </trkpt>
      <trkpt lat="47.56741" lon="-3.1064">
        <time>2017-11-12T13:58:14.000Z</time>
      </trkpt>
      <trkpt lat="47.56746" lon="-3.10629">
        <time>2017-11-12T13:58:15.000Z</time>
      </trkpt>
      <trkpt lat="47.56751" lon="-3.10617">
        <time>2017-11-12T13:58:16.000Z</time>
      </trkpt>
      <trkpt lat="47.56754" lon="-3.10605">
        <time>2017-11-12T13:58:17.000Z</time>
      </trkpt>
      <trkpt lat="47.56758" lon="-3.10595">
        <time>2017-11-12T13:58:18.000Z</time>
      </trkpt>
      <trkpt lat="47.56761" lon="-3.10585">
        <time>2017-11-12T13:58:19.000Z</time>
      </trkpt>
      <trkpt lat="47.56764" lon="-3.10575">
        <time>2017-11-12T13:58:20.000Z</time>
      </trkpt>
      <trkpt lat="47.56767" lon="-3.10564">
        <time>2017-11-12T13:58:21.000Z</time>
      </trkpt>
      <trkpt lat="47.5677" lon="-3.10554">
        <time>2017-11-12T13:58:22.000Z</time>
      </trkpt>
      <trkpt lat="47.56773" lon="-3.10544">
        <time>2017-11-12T13:58:23.000Z</time>
      </trkpt>
      <trkpt lat="47.56775" lon="-3.10534">
        <time>2017-11-12T13:58:24.000Z</time>
      </trkpt>
      <trkpt lat="47.56779" lon="-3.10524">
        <time>2017-11-12T13:58:25.000Z</time>
      </trkpt>
      <trkpt lat="47.56783" lon="-3.10516">
        <time>2017-11-12T13:58:26.000Z</time>
      </trkpt>
      <trkpt lat="47.56787" lon="-3.10506">
        <time>2017-11-12T13:58:27.000Z</time>
      </trkpt>
      <trkpt lat="47.5679" lon="-3.10497">
        <time>2017-11-12T13:58:28.000Z</time>
      </trkpt>
      <trkpt lat="47.56794" lon="-3.10486">
        <time>2017-11-12T13:58:29.000Z</time>
      </trkpt>
      <trkpt lat="47.56798" lon="-3.10476">
        <time>2017-11-12T13:58:30.000Z</time>
      </trkpt>
      <trkpt lat="47.56803" lon="-3.10466">
        <time>2017-11-12T13:58:31.000Z</time>
      </trkpt>
      <trkpt lat="47.56807" lon="-3.10455">
        <time>2017-11-12T13:58:32.000Z</time>
      </trkpt>
      <trkpt lat="47.56811" lon="-3.10446">
        <time>2017-11-12T13:58:33.000Z</time>
      </trkpt>
      <trkpt lat="47.56815" lon="-3.10435">
        <time>2017-11-12T13:58:34.000Z</time>
      </trkpt>
      <trkpt lat="47.5682" lon="-3.10424">
        <time>2017-11-12T13:58:35.000Z</time>
      </trkpt>
      <trkpt lat="47.56824" lon="-3.10415">
        <time>2017-11-12T13:58:36.000Z</time>
      </trkpt>
      <trkpt lat="47.56829" lon="-3.10404">
        <time>2017-11-12T13:58:37.000Z</time>
      </trkpt>
      <trkpt lat="47.56834" lon="-3.10395">
        <time>2017-11-12T13:58:38.000Z</time>
      </trkpt>
      <trkpt lat="47.56839" lon="-3.10385">
        <time>2017-11-12T13:58:39.000Z</time>
      </trkpt>
      <trkpt lat="47.56844" lon="-3.10374">
        <time>2017-11-12T13:58:40.000Z</time>
      </trkpt>
      <trkpt lat="47.56849" lon="-3.10363">
        <time>2017-11-12T13:58:41.000Z</time>
      </trkpt>
      <trkpt lat="47.56853" lon="-3.10353">
        <time>2017-11-12T13:58:42.000Z</time>
      </trkpt>
      <trkpt lat="47.56857" lon="-3.10342">
        <time>2017-11-12T13:58:43.000Z</time>
      </trkpt>
      <trkpt lat="47.56861" lon="-3.10333">
        <time>2017-11-12T13:58:44.000Z</time>
      </trkpt>
      <trkpt lat="47.56864" lon="-3.10323">
        <time>2017-11-12T13:58:45.000Z</time>
      </trkpt>
      <trkpt lat="47.56867" lon="-3.10314">
        <time>2017-11-12T13:58:46.000Z</time>
      </trkpt>
      <trkpt lat="47.56868" lon="-3.10305">
        <time>2017-11-12T13:58:47.000Z</time>
      </trkpt>
      <trkpt lat="47.5687" lon="-3.10297">
        <time>2017-11-12T13:58:48.000Z</time>
      </trkpt>
      <trkpt lat="47.56872" lon="-3.10288">
        <time>2017-11-12T13:58:49.000Z</time>
      </trkpt>
      <trkpt lat="47.56874" lon="-3.10279">
        <time>2017-11-12T13:58:50.000Z</time>
      </trkpt>
      <trkpt lat="47.56876" lon="-3.10269">
        <time>2017-11-12T13:58:51.000Z</time>
      </trkpt>
      <trkpt lat="47.56878" lon="-3.1026">
        <time>2017-11-12T13:58:52.000Z</time>
      </trkpt>
      <trkpt lat="47.56879" lon="-3.1025">
        <time>2017-11-12T13:58:53.000Z</time>
      </trkpt>
      <trkpt lat="47.56879" lon="-3.10242">
        <time>2017-11-12T13:58:54.000Z</time>
      </trkpt>
      <trkpt lat="47.56878" lon="-3.10234">
        <time>2017-11-12T13:58:55.000Z</time>
      </trkpt>
      <trkpt lat="47.56875" lon="-3.10228">
        <time>2017-11-12T13:58:56.000Z</time>
      </trkpt>
      <trkpt lat="47.56871" lon="-3.10227">
        <time>2017-11-12T13:58:57.000Z</time>
      </trkpt>
      <trkpt lat="47.56869" lon="-3.10228">
        <time>2017-11-12T13:58:58.000Z</time>
      </trkpt>
      <trkpt lat="47.56868" lon="-3.10228">
        <time>2017-11-12T13:58:59.000Z</time>
      </trkpt>
      <trkpt lat="47.56867" lon="-3.10228">
        <time>2017-11-12T13:59:00.000Z</time>
      </trkpt>
      <trkpt lat="47.56867" lon="-3.10227">
        <time>2017-11-12T13:59:01.000Z</time>
      </trkpt>
      <trkpt lat="47.56867" lon="-3.10227">
        <time>2017-11-12T13:59:02.000Z</time>
      </trkpt>
      <trkpt lat="47.56865" lon="-3.10228">
        <time>2017-11-12T13:59:03.000Z</time>
      </trkpt>
      <trkpt lat="47.56863" lon="-3.10229">
        <time>2017-11-12T13:59:04.000Z</time>
      </trkpt>
      <trkpt lat="47.56862" lon="-3.10231">
        <time>2017-11-12T13:59:05.000Z</time>
      </trkpt>
      <trkpt lat="47.5686" lon="-3.10234">
        <time>2017-11-12T13:59:06.000Z</time>
      </trkpt>
      <trkpt lat="47.56858" lon="-3.10237">
        <time>2017-11-12T13:59:07.000Z</time>
      </trkpt>
      <trkpt lat="47.56857" lon="-3.10241">
        <time>2017-11-12T13:59:08.000Z</time>
      </trkpt>
      <trkpt lat="47.56856" lon="-3.10246">
        <time>2017-11-12T13:59:09.000Z</time>
      </trkpt>
      <trkpt lat="47.56854" lon="-3.10251">
        <time>2017-11-12T13:59:10.000Z</time>
      </trkpt>
      <trkpt lat="47.56851" lon="-3.10258">
        <time>2017-11-12T13:59:11.000Z</time>
      </trkpt>
      <trkpt lat="47.56849" lon="-3.10264">
        <time>2017-11-12T13:59:12.000Z</time>
      </trkpt>
      <trkpt lat="47.56848" lon="-3.1027">
        <time>2017-11-12T13:59:13.000Z</time>
      </trkpt>
      <trkpt lat="47.56845" lon="-3.10278">
        <time>2017-11-12T13:59:14.000Z</time>
      </trkpt>
      <trkpt lat="47.56843" lon="-3.10286">
        <time>2017-11-12T13:59:15.000Z</time>
      </trkpt>
      <trkpt lat="47.5684" lon="-3.10294">
        <time>2017-11-12T13:59:16.000Z</time>
      </trkpt>
      <trkpt lat="47.56838" lon="-3.10304">
        <time>2017-11-12T13:59:17.000Z</time>
      </trkpt>
      <trkpt lat="47.56835" lon="-3.10315">
        <time>2017-11-12T13:59:18.000Z</time>
      </trkpt>
      <trkpt lat="47.56832" lon="-3.10325">
        <time>2017-11-12T13:59:19.000Z</time>
      </trkpt>
      <trkpt lat="47.56829" lon="-3.10337">
        <time>2017-11-12T13:59:20.000Z</time>
      </trkpt>
      <trkpt lat="47.56825" lon="-3.10349">
        <time>2017-11-12T13:59:21.000Z</time>
      </trkpt>
      <trkpt lat="47.56822" lon="-3.1036">
        <time>2017-11-12T13:59:22.000Z</time>
      </trkpt>
      <trkpt lat="47.56818" lon="-3.10372">
        <time>2017-11-12T13:59:23.000Z</time>
      </trkpt>
      <trkpt lat="47.56814" lon="-3.10384">
        <time>2017-11-12T13:59:24.000Z</time>
      </trkpt>
      <trkpt lat="47.5681" lon="-3.10395">
        <time>2017-11-12T13:59:25.000Z</time>
      </trkpt>
      <trkpt lat="47.56807" lon="-3.10407">
        <time>2017-11-12T13:59:26.000Z</time>
      </trkpt>
      <trkpt lat="47.56804" lon="-3.10419">
        <time>2017-11-12T13:59:27.000Z</time>
      </trkpt>
      <trkpt lat="47.568" lon="-3.10431">
        <time>2017-11-12T13:59:28.000Z</time>
      </trkpt>
      <trkpt lat="47.56796" lon="-3.10444">
        <time>2017-11-12T13:59:29.000Z</time>
      </trkpt>
      <trkpt lat="47.56792" lon="-3.10455">
        <time>2017-11-12T13:59:30.000Z</time>
      </trkpt>
      <trkpt lat="47.56788" lon="-3.10468">
        <time>2017-11-12T13:59:31.000Z</time>
      </trkpt>
      <trkpt lat="47.56784" lon="-3.1048">
        <time>2017-11-12T13:59:32.000Z</time>
      </trkpt>
      <trkpt lat="47.5678" lon="-3.10493">
        <time>2017-11-12T13:59:33.000Z</time>
      </trkpt>
      <trkpt lat="47.56776" lon="-3.10506">
        <time>2017-11-12T13:59:34.000Z</time>
      </trkpt>
      <trkpt lat="47.56773" lon="-3.10519">
        <time>2017-11-12T13:59:35.000Z</time>
      </trkpt>
      <trkpt lat="47.5677" lon="-3.10533">
        <time>2017-11-12T13:59:36.000Z</time>
      </trkpt>
      <trkpt lat="47.56766" lon="-3.10546">
        <time>2017-11-12T13:59:37.000Z</time>
      </trkpt>
      <trkpt lat="47.56762" lon="-3.1056">
        <time>2017-11-12T13:59:38.000Z</time>
      </trkpt>
      <trkpt lat="47.56758" lon="-3.10574">
        <time>2017-11-12T13:59:39.000Z</time>
      </trkpt>
      <trkpt lat="47.56755" lon="-3.10587">
        <time>2017-11-12T13:59:40.000Z</time>
      </trkpt>
      <trkpt lat="47.5675" lon="-3.10601">
        <time>2017-11-12T13:59:41.000Z</time>
      </trkpt>
      <trkpt lat="47.56743" lon="-3.10614">
        <time>2017-11-12T13:59:42.000Z</time>
      </trkpt>
      <trkpt lat="47.56737" lon="-3.10628">
        <time>2017-11-12T13:59:43.000Z</time>
      </trkpt>
      <trkpt lat="47.56733" lon="-3.1064">
        <time>2017-11-12T13:59:44.000Z</time>
      </trkpt>
      <trkpt lat="47.56726" lon="-3.10656">
        <time>2017-11-12T13:59:45.000Z</time>
      </trkpt>
      <trkpt lat="47.56722" lon="-3.10669">
        <time>2017-11-12T13:59:46.000Z</time>
      </trkpt>
      <trkpt lat="47.56717" lon="-3.10682">
        <time>2017-11-12T13:59:47.000Z</time>
      </trkpt>
      <trkpt lat="47.5671" lon="-3.10697">
        <time>2017-11-12T13:59:48.000Z</time>
      </trkpt>
      <trkpt lat="47.56706" lon="-3.1071">
        <time>2017-11-12T13:59:49.000Z</time>
      </trkpt>
      <trkpt lat="47.56703" lon="-3.10725">
        <time>2017-11-12T13:59:50.000Z</time>
      </trkpt>
      <trkpt lat="47.56699" lon="-3.10739">
        <time>2017-11-12T13:59:51.000Z</time>
      </trkpt>
      <trkpt lat="47.56695" lon="-3.10752">
        <time>2017-11-12T13:59:52.000Z</time>
      </trkpt>
      <trkpt lat="47.56692" lon="-3.10765">
        <time>2017-11-12T13:59:53.000Z</time>
      </trkpt>
      <trkpt lat="47.56687" lon="-3.10779">
        <time>2017-11-12T13:59:54.000Z</time>
      </trkpt>
      <trkpt lat="47.56683" lon="-3.10791">
        <time>2017-11-12T13:59:55.000Z</time>
      </trkpt>
      <trkpt lat="47.56679" lon="-3.10805">
        <time>2017-11-12T13:59:56.000Z</time>
      </trkpt>
      <trkpt lat="47.56676" lon="-3.10817">
        <time>2017-11-12T13:59:57.000Z</time>
      </trkpt>
      <trkpt lat="47.56673" lon="-3.10831">
        <time>2017-11-12T13:59:58.000Z</time>
      </trkpt>
      <trkpt lat="47.56671" lon="-3.10845">
        <time>2017-11-12T13:59:59.000Z</time>
      </trkpt>
      <trkpt lat="47.56668" lon="-3.10858">
        <time>2017-11-12T14:00:00.000Z</time>
      </trkpt>
      <trkpt lat="47.56665" lon="-3.1087">
        <time>2017-11-12T14:00:01.000Z</time>
      </trkpt>
      <trkpt lat="47.56661" lon="-3.10883">
        <time>2017-11-12T14:00:02.000Z</time>
      </trkpt>
      <trkpt lat="47.56659" lon="-3.10894">
        <time>2017-11-12T14:00:03.000Z</time>
      </trkpt>
      <trkpt lat="47.56656" lon="-3.10906">
        <time>2017-11-12T14:00:04.000Z</time>
      </trkpt>
      <trkpt lat="47.56653" lon="-3.1092">
        <time>2017-11-12T14:00:05.000Z</time>
      </trkpt>
      <trkpt lat="47.56649" lon="-3.10934">
        <time>2017-11-12T14:00:06.000Z</time>
      </trkpt>
      <trkpt lat="47.56646" lon="-3.10947">
        <time>2017-11-12T14:00:07.000Z</time>
      </trkpt>
      <trkpt lat="47.56643" lon="-3.10961">
        <time>2017-11-12T14:00:08.000Z</time>
      </trkpt>
      <trkpt lat="47.56639" lon="-3.10975">
        <time>2017-11-12T14:00:09.000Z</time>
      </trkpt>
      <trkpt lat="47.56636" lon="-3.10988">
        <time>2017-11-12T14:00:10.000Z</time>
      </trkpt>
      <trkpt lat="47.56633" lon="-3.11001">
        <time>2017-11-12T14:00:11.000Z</time>
      </trkpt>
      <trkpt lat="47.56629" lon="-3.11015">
        <time>2017-11-12T14:00:12.000Z</time>
      </trkpt>
      <trkpt lat="47.56626" lon="-3.11029">
        <time>2017-11-12T14:00:13.000Z</time>
      </trkpt>
      <trkpt lat="47.56623" lon="-3.11042">
        <time>2017-11-12T14:00:14.000Z</time>
      </trkpt>
      <trkpt lat="47.5662" lon="-3.11055">
        <time>2017-11-12T14:00:15.000Z</time>
      </trkpt>
      <trkpt lat="47.56616" lon="-3.11067">
        <time>2017-11-12T14:00:16.000Z</time>
      </trkpt>
      <trkpt lat="47.56612" lon="-3.11081">
        <time>2017-11-12T14:00:17.000Z</time>
      </trkpt>
      <trkpt lat="47.56607" lon="-3.11093">
        <time>2017-11-12T14:00:18.000Z</time>
      </trkpt>
      <trkpt lat="47.56603" lon="-3.11105">
        <time>2017-11-12T14:00:19.000Z</time>
      </trkpt>
      <trkpt lat="47.56599" lon="-3.11117">
        <time>2017-11-12T14:00:20.000Z</time>
      </trkpt>
      <trkpt lat="47.56595" lon="-3.11128">
        <time>2017-11-12T14:00:21.000Z</time>
      </trkpt>
      <trkpt lat="47.56591" lon="-3.1114">
        <time>2017-11-12T14:00:22.000Z</time>
      </trkpt>
      <trkpt lat="47.56589" lon="-3.11152">
        <time>2017-11-12T14:00:23.000Z</time>
      </trkpt>
      <trkpt lat="47.56587" lon="-3.11164">
        <time>2017-11-12T14:00:24.000Z</time>
      </trkpt>
      <trkpt lat="47.56585" lon="-3.11176">
        <time>2017-11-12T14:00:25.000Z</time>
      </trkpt>
      <trkpt lat="47.56585" lon="-3.11188">
        <time>2017-11-12T14:00:26.000Z</time>
      </trkpt>
      <trkpt lat="47.56583" lon="-3.112">
        <time>2017-11-12T14:00:27.000Z</time>
      </trkpt>
      <trkpt lat="47.56583" lon="-3.11213">
        <time>2017-11-12T14:00:28.000Z</time>
      </trkpt>
      <trkpt lat="47.56583" lon="-3.11225">
        <time>2017-11-12T14:00:29.000Z</time>
      </trkpt>
      <trkpt lat="47.56581" lon="-3.11237">
        <time>2017-11-12T14:00:30.000Z</time>
      </trkpt>
      <trkpt lat="47.5658" lon="-3.11249">
        <time>2017-11-12T14:00:31.000Z</time>
      </trkpt>
      <trkpt lat="47.56578" lon="-3.11261">
        <time>2017-11-12T14:00:32.000Z</time>
      </trkpt>
      <trkpt lat="47.56577" lon="-3.11274">
        <time>2017-11-12T14:00:33.000Z</time>
      </trkpt>
      <trkpt lat="47.56576" lon="-3.11286">
        <time>2017-11-12T14:00:34.000Z</time>
      </trkpt>
      <trkpt lat="47.56574" lon="-3.11299">
        <time>2017-11-12T14:00:35.000Z</time>
      </trkpt>
      <trkpt lat="47.56572" lon="-3.11312">
        <time>2017-11-12T14:00:36.000Z</time>
      </trkpt>
      <trkpt lat="47.5657" lon="-3.11326">
        <time>2017-11-12T14:00:37.000Z</time>
      </trkpt>
      <trkpt lat="47.56567" lon="-3.1134">
        <time>2017-11-12T14:00:38.000Z</time>
      </trkpt>
      <trkpt lat="47.5656" lon="-3.11354">
        <time>2017-11-12T14:00:39.000Z</time>
      </trkpt>
      <trkpt lat="47.56555" lon="-3.11366">
        <time>2017-11-12T14:00:40.000Z</time>
      </trkpt>
      <trkpt lat="47.56551" lon="-3.11378">
        <time>2017-11-12T14:00:41.000Z</time>
      </trkpt>
      <trkpt lat="47.56548" lon="-3.1139">
        <time>2017-11-12T14:00:42.000Z</time>
      </trkpt>
      <trkpt lat="47.56545" lon="-3.11402">
        <time>2017-11-12T14:00:43.000Z</time>
      </trkpt>
      <trkpt lat="47.56541" lon="-3.11414">
        <time>2017-11-12T14:00:44.000Z</time>
      </trkpt>
      <trkpt lat="47.56535" lon="-3.11424">
        <time>2017-11-12T14:00:45.000Z</time>
      </trkpt>
      <trkpt lat="47.5653" lon="-3.11433">
        <time>2017-11-12T14:00:46.000Z</time>
      </trkpt>
      <trkpt lat="47.56523" lon="-3.1144">
        <time>2017-11-12T14:00:47.000Z</time>
      </trkpt>
      <trkpt lat="47.56516" lon="-3.11445">
        <time>2017-11-12T14:00:48.000Z</time>
      </trkpt>
      <trkpt lat="47.56509" lon="-3.11446">
        <time>2017-11-12T14:00:49.000Z</time>
      </trkpt>
      <trkpt lat="47.56503" lon="-3.11446">
        <time>2017-11-12T14:00:50.000Z</time>
      </trkpt>
      <trkpt lat="47.56497" lon="-3.11445">
        <time>2017-11-12T14:00:51.000Z</time>
      </trkpt>
      <trkpt lat="47.56493" lon="-3.11441">
        <time>2017-11-12T14:00:52.000Z</time>
      </trkpt>
      <trkpt lat="47.56491" lon="-3.11436">
        <time>2017-11-12T14:00:53.000Z</time>
      </trkpt>
      <trkpt lat="47.56491" lon="-3.11432">
        <time>2017-11-12T14:00:54.000Z</time>
      </trkpt>
      <trkpt lat="47.56491" lon="-3.11428">
        <time>2017-11-12T14:00:55.000Z</time>
      </trkpt>
      <trkpt lat="47.56491" lon="-3.11424">
        <time>2017-11-12T14:00:56.000Z</time>
      </trkpt>
      <trkpt lat="47.56493" lon="-3.1142">
        <time>2017-11-12T14:00:57.000Z</time>
      </trkpt>
      <trkpt lat="47.56494" lon="-3.11415">
        <time>2017-11-12T14:00:58.000Z</time>
      </trkpt>
      <trkpt lat="47.56496" lon="-3.11412">
        <time>2017-11-12T14:00:59.000Z</time>
      </trkpt>
      <trkpt lat="47.56498" lon="-3.11408">
        <time>2017-11-12T14:01:00.000Z</time>
      </trkpt>
      <trkpt lat="47.565" lon="-3.11404">
        <time>2017-11-12T14:01:01.000Z</time>
      </trkpt>
      <trkpt lat="47.56502" lon="-3.114">
        <time>2017-11-12T14:01:02.000Z</time>
      </trkpt>
      <trkpt lat="47.56504" lon="-3.11396">
        <time>2017-11-12T14:01:03.000Z</time>
      </trkpt>
      <trkpt lat="47.56505" lon="-3.11392">
        <time>2017-11-12T14:01:04.000Z</time>
      </trkpt>
      <trkpt lat="47.56507" lon="-3.11387">
        <time>2017-11-12T14:01:05.000Z</time>
      </trkpt>
      <trkpt lat="47.5651" lon="-3.11382">
        <time>2017-11-12T14:01:06.000Z</time>
      </trkpt>
      <trkpt lat="47.56512" lon="-3.11377">
        <time>2017-11-12T14:01:07.000Z</time>
      </trkpt>
      <trkpt lat="47.56514" lon="-3.11372">
        <time>2017-11-12T14:01:08.000Z</time>
      </trkpt>
      <trkpt lat="47.56517" lon="-3.11365">
        <time>2017-11-12T14:01:09.000Z</time>
      </trkpt>
      <trkpt lat="47.56519" lon="-3.11358">
        <time>2017-11-12T14:01:10.000Z</time>
      </trkpt>
      <trkpt lat="47.56521" lon="-3.11349">
        <time>2017-11-12T14:01:11.000Z</time>
      </trkpt>
      <trkpt lat="47.56524" lon="-3.1134">
        <time>2017-11-12T14:01:12.000Z</time>
      </trkpt>
      <trkpt lat="47.56527" lon="-3.1133">
        <time>2017-11-12T14:01:13.000Z</time>
      </trkpt>
      <trkpt lat="47.5653" lon="-3.11321">
        <time>2017-11-12T14:01:14.000Z</time>
      </trkpt>
      <trkpt lat="47.56533" lon="-3.11312">
        <time>2017-11-12T14:01:15.000Z</time>
      </trkpt>
      <trkpt lat="47.56537" lon="-3.11302">
        <time>2017-11-12T14:01:16.000Z</time>
      </trkpt>
      <trkpt lat="47.5654" lon="-3.11292">
        <time>2017-11-12T14:01:17.000Z</time>
      </trkpt>
      <trkpt lat="47.56543" lon="-3.1128">
        <time>2017-11-12T14:01:18.000Z</time>
      </trkpt>
      <trkpt lat="47.56547" lon="-3.11269">
        <time>2017-11-12T14:01:19.000Z</time>
      </trkpt>
      <trkpt lat="47.56551" lon="-3.11258">
        <time>2017-11-12T14:01:20.000Z</time>
      </trkpt>
      <trkpt lat="47.56555" lon="-3.11247">
        <time>2017-11-12T14:01:21.000Z</time>
      </trkpt>
      <trkpt lat="47.56559" lon="-3.11235">
        <time>2017-11-12T14:01:22.000Z</time>
      </trkpt>
      <trkpt lat="47.56563" lon="-3.11224">
        <time>2017-11-12T14:01:23.000Z</time>
      </trkpt>
      <trkpt lat="47.56568" lon="-3.11213">
        <time>2017-11-12T14:01:24.000Z</time>
      </trkpt>
      <trkpt lat="47.56572" lon="-3.11202">
        <time>2017-11-12T14:01:25.000Z</time>
      </trkpt>
      <trkpt lat="47.56576" lon="-3.11192">
        <time>2017-11-12T14:01:26.000Z</time>
      </trkpt>
      <trkpt lat="47.5658" lon="-3.11182">
        <time>2017-11-12T14:01:27.000Z</time>
      </trkpt>
      <trkpt lat="47.56585" lon="-3.11173">
        <time>2017-11-12T14:01:28.000Z</time>
      </trkpt>
      <trkpt lat="47.56589" lon="-3.11163">
        <time>2017-11-12T14:01:29.000Z</time>
      </trkpt>
      <trkpt lat="47.56593" lon="-3.11153">
        <time>2017-11-12T14:01:30.000Z</time>
      </trkpt>
      <trkpt lat="47.56596" lon="-3.11143">
        <time>2017-11-12T14:01:31.000Z</time>
      </trkpt>
      <trkpt lat="47.566" lon="-3.11133">
        <time>2017-11-12T14:01:32.000Z</time>
      </trkpt>
      <trkpt lat="47.56604" lon="-3.11123">
        <time>2017-11-12T14:01:33.000Z</time>
      </trkpt>
      <trkpt lat="47.56607" lon="-3.11112">
        <time>2017-11-12T14:01:34.000Z</time>
      </trkpt>
      <trkpt lat="47.5661" lon="-3.111">
        <time>2017-11-12T14:01:35.000Z</time>
      </trkpt>
      <trkpt lat="47.56613" lon="-3.1109">
        <time>2017-11-12T14:01:36.000Z</time>
      </trkpt>
      <trkpt lat="47.56617" lon="-3.11079">
        <time>2017-11-12T14:01:37.000Z</time>
      </trkpt>
      <trkpt lat="47.56621" lon="-3.11069">
        <time>2017-11-12T14:01:38.000Z</time>
      </trkpt>
      <trkpt lat="47.56625" lon="-3.11058">
        <time>2017-11-12T14:01:39.000Z</time>
      </trkpt>
      <trkpt lat="47.56629" lon="-3.11049">
        <time>2017-11-12T14:01:40.000Z</time>
      </trkpt>
      <trkpt lat="47.56634" lon="-3.11041">
        <time>2017-11-12T14:01:41.000Z</time>
      </trkpt>
      <trkpt lat="47.56637" lon="-3.11031">
        <time>2017-11-12T14:01:42.000Z</time>
      </trkpt>
      <trkpt lat="47.5664" lon="-3.11023">
        <time>2017-11-12T14:01:43.000Z</time>
      </trkpt>
      <trkpt lat="47.56644" lon="-3.11014">
        <time>2017-11-12T14:01:44.000Z</time>
      </trkpt>
      <trkpt lat="47.56648" lon="-3.11005">
        <time>2017-11-12T14:01:45.000Z</time>
      </trkpt>
      <trkpt lat="47.56652" lon="-3.10995">
        <time>2017-11-12T14:01:46.000Z</time>
      </trkpt>
      <trkpt lat="47.56657" lon="-3.10986">
        <time>2017-11-12T14:01:47.000Z</time>
      </trkpt>
      <trkpt lat="47.56659" lon="-3.10976">
        <time>2017-11-12T14:01:48.000Z</time>
      </trkpt>
      <trkpt lat="47.56663" lon="-3.10964">
        <time>2017-11-12T14:01:49.000Z</time>
      </trkpt>
      <trkpt lat="47.56666" lon="-3.10953">
        <time>2017-11-12T14:01:50.000Z</time>
      </trkpt>
      <trkpt lat="47.5667" lon="-3.10942">
        <time>2017-11-12T14:01:51.000Z</time>
      </trkpt>
      <trkpt lat="47.56674" lon="-3.10932">
        <time>2017-11-12T14:01:52.000Z</time>
      </trkpt>
      <trkpt lat="47.56678" lon="-3.10922">
        <time>2017-11-12T14:01:53.000Z</time>
      </trkpt>
      <trkpt lat="47.56681" lon="-3.10911">
        <time>2017-11-12T14:01:54.000Z</time>
      </trkpt>
      <trkpt lat="47.56684" lon="-3.109">
        <time>2017-11-12T14:01:55.000Z</time>
      </trkpt>
      <trkpt lat="47.56687" lon="-3.10889">
        <time>2017-11-12T14:01:56.000Z</time>
      </trkpt>
      <trkpt lat="47.5669" lon="-3.10877">
        <time>2017-11-12T14:01:57.000Z</time>
      </trkpt>
      <trkpt lat="47.56693" lon="-3.10865">
        <time>2017-11-12T14:01:58.000Z</time>
      </trkpt>
      <trkpt lat="47.56696" lon="-3.10853">
        <time>2017-11-12T14:01:59.000Z</time>
      </trkpt>
      <trkpt lat="47.56699" lon="-3.10841">
        <time>2017-11-12T14:02:00.000Z</time>
      </trkpt>
      <trkpt lat="47.56701" lon="-3.10829">
        <time>2017-11-12T14:02:01.000Z</time>
      </trkpt>
      <trkpt lat="47.56704" lon="-3.10816">
        <time>2017-11-12T14:02:02.000Z</time>
      </trkpt>
      <trkpt lat="47.56707" lon="-3.10804">
        <time>2017-11-12T14:02:03.000Z</time>
      </trkpt>
      <trkpt lat="47.56711" lon="-3.10791">
        <time>2017-11-12T14:02:04.000Z</time>
      </trkpt>
      <trkpt lat="47.56715" lon="-3.10777">
        <time>2017-11-12T14:02:05.000Z</time>
      </trkpt>
      <trkpt lat="47.56719" lon="-3.10764">
        <time>2017-11-12T14:02:06.000Z</time>
      </trkpt>
      <trkpt lat="47.56725" lon="-3.10752">
        <time>2017-11-12T14:02:07.000Z</time>
      </trkpt>
      <trkpt lat="47.56729" lon="-3.10739">
        <time>2017-11-12T14:02:08.000Z</time>
      </trkpt>
      <trkpt lat="47.56733" lon="-3.10725">
        <time>2017-11-12T14:02:09.000Z</time>
      </trkpt>
      <trkpt lat="47.56735" lon="-3.10713">
        <time>2017-11-12T14:02:10.000Z</time>
      </trkpt>
      <trkpt lat="47.5674" lon="-3.10702">
        <time>2017-11-12T14:02:11.000Z</time>
      </trkpt>
      <trkpt lat="47.56743" lon="-3.1069">
        <time>2017-11-12T14:02:12.000Z</time>
      </trkpt>
      <trkpt lat="47.56747" lon="-3.10677">
        <time>2017-11-12T14:02:13.000Z</time>
      </trkpt>
      <trkpt lat="47.5675" lon="-3.10665">
        <time>2017-11-12T14:02:14.000Z</time>
      </trkpt>
      <trkpt lat="47.56754" lon="-3.10654">
        <time>2017-11-12T14:02:15.000Z</time>
      </trkpt>
      <trkpt lat="47.56759" lon="-3.10643">
        <time>2017-11-12T14:02:16.000Z</time>
      </trkpt>
      <trkpt lat="47.56763" lon="-3.10632">
        <time>2017-11-12T14:02:17.000Z</time>
      </trkpt>
      <trkpt lat="47.56768" lon="-3.10619">
        <time>2017-11-12T14:02:18.000Z</time>
      </trkpt>
      <trkpt lat="47.56772" lon="-3.10607">
        <time>2017-11-12T14:02:19.000Z</time>
      </trkpt>
      <trkpt lat="47.56777" lon="-3.10595">
        <time>2017-11-12T14:02:20.000Z</time>
      </trkpt>
      <trkpt lat="47.56781" lon="-3.10581">
        <time>2017-11-12T14:02:21.000Z</time>
      </trkpt>
      <trkpt lat="47.56784" lon="-3.10567">
        <time>2017-11-12T14:02:22.000Z</time>
      </trkpt>
      <trkpt lat="47.56788" lon="-3.10553">
        <time>2017-11-12T14:02:23.000Z</time>
      </trkpt>
      <trkpt lat="47.5679" lon="-3.1054">
        <time>2017-11-12T14:02:24.000Z</time>
      </trkpt>
      <trkpt lat="47.56794" lon="-3.10528">
        <time>2017-11-12T14:02:25.000Z</time>
      </trkpt>
      <trkpt lat="47.56798" lon="-3.10515">
        <time>2017-11-12T14:02:26.000Z</time>
      </trkpt>
      <trkpt lat="47.56803" lon="-3.10502">
        <time>2017-11-12T14:02:27.000Z</time>
      </trkpt>
      <trkpt lat="47.56808" lon="-3.1049">
        <time>2017-11-12T14:02:28.000Z</time>
      </trkpt>
      <trkpt lat="47.56813" lon="-3.10477">
        <time>2017-11-12T14:02:29.000Z</time>
      </trkpt>
      <trkpt lat="47.56817" lon="-3.10464">
        <time>2017-11-12T14:02:30.000Z</time>
      </trkpt>
      <trkpt lat="47.56821" lon="-3.10451">
        <time>2017-11-12T14:02:31.000Z</time>
      </trkpt>
      <trkpt lat="47.56824" lon="-3.10437">
        <time>2017-11-12T14:02:32.000Z</time>
      </trkpt>
      <trkpt lat="47.56828" lon="-3.10423">
        <time>2017-11-12T14:02:33.000Z</time>
      </trkpt>
      <trkpt lat="47.56832" lon="-3.10409">
        <time>2017-11-12T14:02:34.000Z</time>
      </trkpt>
      <trkpt lat="47.56837" lon="-3.10396">
        <time>2017-11-12T14:02:35.000Z</time>
      </trkpt>
      <trkpt lat="47.56841" lon="-3.10383">
        <time>2017-11-12T14:02:36.000Z</time>
      </trkpt>
      <trkpt lat="47.56847" lon="-3.10371">
        <time>2017-11-12T14:02:37.000Z</time>
      </trkpt>
      <trkpt lat="47.56852" lon="-3.10359">
        <time>2017-11-12T14:02:38.000Z</time>
      </trkpt>
      <trkpt lat="47.56857" lon="-3.10346">
        <time>2017-11-12T14:02:39.000Z</time>
      </trkpt>
      <trkpt lat="47.56862" lon="-3.10334">
        <time>2017-11-12T14:02:40.000Z</time>
      </trkpt>
      <trkpt lat="47.56867" lon="-3.10322">
        <time>2017-11-12T14:02:41.000Z</time>
      </trkpt>
      <trkpt lat="47.56872" lon="-3.1031">
        <time>2017-11-12T14:02:42.000Z</time>
      </trkpt>
      <trkpt lat="47.56876" lon="-3.10297">
        <time>2017-11-12T14:02:43.000Z</time>
      </trkpt>
      <trkpt lat="47.56881" lon="-3.10285">
        <time>2017-11-12T14:02:44.000Z</time>
      </trkpt>
      <trkpt lat="47.56888" lon="-3.10273">
        <time>2017-11-12T14:02:45.000Z</time>
      </trkpt>
      <trkpt lat="47.56896" lon="-3.1026">
        <time>2017-11-12T14:02:46.000Z</time>
      </trkpt>
      <trkpt lat="47.56903" lon="-3.10246">
        <time>2017-11-12T14:02:47.000Z</time>
      </trkpt>
      <trkpt lat="47.5691" lon="-3.10236">
        <time>2017-11-12T14:02:48.000Z</time>
      </trkpt>
      <trkpt lat="47.56916" lon="-3.10226">
        <time>2017-11-12T14:02:49.000Z</time>
      </trkpt>
      <trkpt lat="47.56921" lon="-3.10214">
        <time>2017-11-12T14:02:50.000Z</time>
      </trkpt>
      <trkpt lat="47.56926" lon="-3.102">
        <time>2017-11-12T14:02:51.000Z</time>
      </trkpt>
      <trkpt lat="47.5693" lon="-3.10186">
        <time>2017-11-12T14:02:52.000Z</time>
      </trkpt>
      <trkpt lat="47.56934" lon="-3.10175">
        <time>2017-11-12T14:02:53.000Z</time>
      </trkpt>
      <trkpt lat="47.56937" lon="-3.10163">
        <time>2017-11-12T14:02:54.000Z</time>
      </trkpt>
      <trkpt lat="47.56939" lon="-3.10152">
        <time>2017-11-12T14:02:55.000Z</time>
      </trkpt>
      <trkpt lat="47.56941" lon="-3.10141">
        <time>2017-11-12T14:02:56.000Z</time>
      </trkpt>
      <trkpt lat="47.56944" lon="-3.10133">
        <time>2017-11-12T14:02:57.000Z</time>
      </trkpt>
      <trkpt lat="47.56946" lon="-3.10121">
        <time>2017-11-12T14:02:58.000Z</time>
      </trkpt>
      <trkpt lat="47.56948" lon="-3.10109">
        <time>2017-11-12T14:02:59.000Z</time>
      </trkpt>
      <trkpt lat="47.56951" lon="-3.10097">
        <time>2017-11-12T14:03:00.000Z</time>
      </trkpt>
      <trkpt lat="47.56952" lon="-3.10089">
        <time>2017-11-12T14:03:01.000Z</time>
      </trkpt>
      <trkpt lat="47.56953" lon="-3.10079">
        <time>2017-11-12T14:03:02.000Z</time>
      </trkpt>
      <trkpt lat="47.56956" lon="-3.10073">
        <time>2017-11-12T14:03:03.000Z</time>
      </trkpt>
      <trkpt lat="47.56958" lon="-3.10065">
        <time>2017-11-12T14:03:04.000Z</time>
      </trkpt>
      <trkpt lat="47.56959" lon="-3.10061">
        <time>2017-11-12T14:03:05.000Z</time>
      </trkpt>
      <trkpt lat="47.5696" lon="-3.10057">
        <time>2017-11-12T14:03:06.000Z</time>
      </trkpt>
      <trkpt lat="47.56961" lon="-3.10053">
        <ele>1</ele>
        <time>2017-11-12T14:03:07.000Z</time>
      </trkpt>
      <trkpt lat="47.56961" lon="-3.10049">
        <ele>1</ele>
        <time>2017-11-12T14:03:08.000Z</time>
      </trkpt>
      <trkpt lat="47.56962" lon="-3.10047">
        <ele>1</ele>
        <time>2017-11-12T14:03:09.000Z</time>
      </trkpt>
      <trkpt lat="47.56964" lon="-3.10044">
        <ele>1</ele>
        <time>2017-11-12T14:03:10.000Z</time>
      </trkpt>
      <trkpt lat="47.56965" lon="-3.10041">
        <ele>1</ele>
        <time>2017-11-12T14:03:11.000Z</time>
      </trkpt>
      <trkpt lat="47.56965" lon="-3.10038">
        <ele>1</ele>
        <time>2017-11-12T14:03:12.000Z</time>
      </trkpt>
      <trkpt lat="47.56966" lon="-3.10036">
        <ele>1</ele>
        <time>2017-11-12T14:03:13.000Z</time>
      </trkpt>
      <trkpt lat="47.56967" lon="-3.10033">
        <ele>1</ele>
        <time>2017-11-12T14:03:14.000Z</time>
      </trkpt>
      <trkpt lat="47.56967" lon="-3.10031">
        <ele>1</ele>
        <time>2017-11-12T14:03:15.000Z</time>
      </trkpt>
      <trkpt lat="47.56968" lon="-3.10029">
        <ele>1</ele>
        <time>2017-11-12T14:03:16.000Z</time>
      </trkpt>
      <trkpt lat="47.5697" lon="-3.10028">
        <ele>1</ele>
        <time>2017-11-12T14:03:17.000Z</time>
      </trkpt>
      <trkpt lat="47.56971" lon="-3.10028">
        <ele>1</ele>
        <time>2017-11-12T14:03:18.000Z</time>
      </trkpt>
      <trkpt lat="47.56973" lon="-3.10029">
        <ele>1.1</ele>
        <time>2017-11-12T14:03:19.000Z</time>
      </trkpt>
      <trkpt lat="47.56973" lon="-3.10029">
        <ele>1.1</ele>
        <time>2017-11-12T14:03:20.000Z</time>
      </trkpt>
      <trkpt lat="47.56973" lon="-3.10029">
        <ele>1.2</ele>
        <time>2017-11-12T14:03:21.000Z</time>
      </trkpt>
      <trkpt lat="47.56973" lon="-3.10029">
        <ele>1.2</ele>
        <time>2017-11-12T14:03:22.000Z</time>
      </trkpt>
      <trkpt lat="47.56973" lon="-3.10029">
        <ele>1.2</ele>
        <time>2017-11-12T14:03:23.000Z</time>
      </trkpt>
      <trkpt lat="47.56973" lon="-3.10029">
        <ele>1.2</ele>
        <time>2017-11-12T14:03:24.000Z</time>
      </trkpt>
      <trkpt lat="47.56973" lon="-3.10029">
        <ele>1.2</ele>
        <time>2017-11-12T14:03:25.000Z</time>
      </trkpt>
      <trkpt lat="47.56973" lon="-3.10029">
        <ele>1.2</ele>
        <time>2017-11-12T14:03:26.000Z</time>
      </trkpt>
      <trkpt lat="47.56973" lon="-3.10029">
        <ele>1.2</ele>
        <time>2017-11-12T14:03:27.000Z</time>
      </trkpt>
      <trkpt lat="47.56973" lon="-3.10029">
        <ele>1.2</ele>
        <time>2017-11-12T14:03:28.000Z</time>
      </trkpt>
      <trkpt lat="47.56973" lon="-3.10029">
        <ele>1.2</ele>
        <time>2017-11-12T14:03:29.000Z</time>
      </trkpt>
      <trkpt lat="47.56973" lon="-3.10029">
        <ele>1.2</ele>
        <time>2017-11-12T14:03:30.000Z</time>
      </trkpt>
      <trkpt lat="47.56973" lon="-3.10029">
        <ele>1.2</ele>
        <time>2017-11-12T14:03:31.000Z</time>
      </trkpt>
      <trkpt lat="47.56973" lon="-3.10029">
        <ele>1.2</ele>
        <time>2017-11-12T14:03:32.000Z</time>
      </trkpt>
      <trkpt lat="47.56973" lon="-3.10029">
        <ele>1.2</ele>
        <time>2017-11-12T14:03:33.000Z</time>
      </trkpt>
      <trkpt lat="47.56973" lon="-3.10029">
        <ele>1.2</ele>
        <time>2017-11-12T14:03:34.000Z</time>
      </trkpt>
      <trkpt lat="47.56973" lon="-3.10029">
        <ele>1.2</ele>
        <time>2017-11-12T14:03:35.000Z</time>
      </trkpt>
      <trkpt lat="47.56973" lon="-3.10029">
        <ele>1.2</ele>
        <time>2017-11-12T14:03:36.000Z</time>
      </trkpt>
      <trkpt lat="47.56973" lon="-3.10029">
        <ele>1.2</ele>
        <time>2017-11-12T14:03:37.000Z</time>
      </trkpt>
      <trkpt lat="47.56973" lon="-3.10029">
        <ele>1.2</ele>
        <time>2017-11-12T14:03:38.000Z</time>
      </trkpt>
      <trkpt lat="47.56973" lon="-3.10029">
        <ele>1.2</ele>
        <time>2017-11-12T14:03:39.000Z</time>
      </trkpt>
      <trkpt lat="47.56973" lon="-3.10029">
        <ele>1.2</ele>
        <time>2017-11-12T14:03:40.000Z</time>
      </trkpt>
      <trkpt lat="47.56973" lon="-3.10029">
        <ele>1.2</ele>
        <time>2017-11-12T14:03:41.000Z</time>
      </trkpt>
      <trkpt lat="47.56973" lon="-3.10029">
        <ele>1.2</ele>
        <time>2017-11-12T14:03:42.000Z</time>
      </trkpt>
      <trkpt lat="47.56973" lon="-3.10029">
        <ele>1.2</ele>
        <time>2017-11-12T14:03:43.000Z</time>
      </trkpt>
      <trkpt lat="47.56973" lon="-3.10029">
        <ele>1.2</ele>
        <time>2017-11-12T14:03:44.000Z</time>
      </trkpt>
      <trkpt lat="47.56973" lon="-3.10029">
        <ele>1.2</ele>
        <time>2017-11-12T14:03:45.000Z</time>
      </trkpt>
      <trkpt lat="47.56973" lon="-3.10029">
        <ele>1.2</ele>
        <time>2017-11-12T14:03:46.000Z</time>
      </trkpt>
      <trkpt lat="47.56979" lon="-3.10027">
        <ele>1.5</ele>
        <time>2017-11-12T14:03:47.000Z</time>
      </trkpt>
      <trkpt lat="47.5698" lon="-3.10027">
        <ele>1.5</ele>
        <time>2017-11-12T14:03:48.000Z</time>
      </trkpt>
      <trkpt lat="47.5698" lon="-3.10027">
        <ele>1.6</ele>
        <time>2017-11-12T14:03:49.000Z</time>
      </trkpt>
      <trkpt lat="47.5698" lon="-3.10027">
        <ele>1.6</ele>
        <time>2017-11-12T14:03:50.000Z</time>
      </trkpt>
      <trkpt lat="47.5698" lon="-3.10027">
        <ele>1.6</ele>
        <time>2017-11-12T14:03:51.000Z</time>
      </trkpt>
      <trkpt lat="47.5698" lon="-3.10027">
        <ele>1.6</ele>
        <time>2017-11-12T14:03:52.000Z</time>
      </trkpt>
      <trkpt lat="47.5698" lon="-3.10027">
        <ele>1.6</ele>
        <time>2017-11-12T14:03:53.000Z</time>
      </trkpt>
      <trkpt lat="47.5698" lon="-3.10027">
        <ele>1.6</ele>
        <time>2017-11-12T14:03:54.000Z</time>
      </trkpt>
      <trkpt lat="47.5698" lon="-3.10027">
        <ele>1.6</ele>
        <time>2017-11-12T14:03:55.000Z</time>
      </trkpt>
      <trkpt lat="47.5698" lon="-3.10027">
        <ele>1.6</ele>
        <time>2017-11-12T14:03:56.000Z</time>
      </trkpt>
      <trkpt lat="47.5698" lon="-3.10027">
        <ele>1.6</ele>
        <time>2017-11-12T14:03:57.000Z</time>
      </trkpt>
      <trkpt lat="47.5698" lon="-3.10027">
        <ele>1.6</ele>
        <time>2017-11-12T14:03:58.000Z</time>
      </trkpt>
      <trkpt lat="47.5698" lon="-3.10027">
        <ele>1.6</ele>
        <time>2017-11-12T14:03:59.000Z</time>
      </trkpt>
      <trkpt lat="47.5698" lon="-3.10027">
        <ele>1.6</ele>
        <time>2017-11-12T14:04:00.000Z</time>
      </trkpt>
      <trkpt lat="47.5698" lon="-3.10027">
        <ele>1.6</ele>
        <time>2017-11-12T14:04:01.000Z</time>
      </trkpt>
      <trkpt lat="47.5698" lon="-3.10027">
        <ele>1.6</ele>
        <time>2017-11-12T14:04:02.000Z</time>
      </trkpt>
      <trkpt lat="47.5698" lon="-3.10027">
        <ele>1.6</ele>
        <time>2017-11-12T14:04:03.000Z</time>
      </trkpt>
      <trkpt lat="47.5698" lon="-3.10027">
        <ele>1.6</ele>
        <time>2017-11-12T14:04:04.000Z</time>
      </trkpt>
      <trkpt lat="47.5698" lon="-3.10027">
        <ele>1.6</ele>
        <time>2017-11-12T14:04:05.000Z</time>
      </trkpt>
      <trkpt lat="47.5698" lon="-3.10027">
        <ele>1.6</ele>
        <time>2017-11-12T14:04:06.000Z</time>
      </trkpt>
      <trkpt lat="47.5698" lon="-3.10027">
        <ele>1.6</ele>
        <time>2017-11-12T14:04:07.000Z</time>
      </trkpt>
      <trkpt lat="47.5698" lon="-3.10027">
        <ele>1.6</ele>
        <time>2017-11-12T14:04:08.000Z</time>
      </trkpt>
      <trkpt lat="47.5699" lon="-3.10024">
        <ele>2.3</ele>
        <time>2017-11-12T14:04:09.000Z</time>
      </trkpt>
      <trkpt lat="47.56991" lon="-3.10025">
        <ele>2.4</ele>
        <time>2017-11-12T14:04:10.000Z</time>
      </trkpt>
      <trkpt lat="47.56992" lon="-3.10026">
        <ele>2.4</ele>
        <time>2017-11-12T14:04:11.000Z</time>
      </trkpt>
      <trkpt lat="47.56992" lon="-3.10025">
        <ele>2.5</ele>
        <time>2017-11-12T14:04:12.000Z</time>
      </trkpt>
      <trkpt lat="47.56993" lon="-3.10026">
        <ele>2.5</ele>
        <time>2017-11-12T14:04:13.000Z</time>
      </trkpt>
      <trkpt lat="47.56993" lon="-3.10026">
        <ele>2.6</ele>
        <time>2017-11-12T14:04:14.000Z</time>
      </trkpt>
      <trkpt lat="47.56994" lon="-3.10026">
        <ele>2.6</ele>
        <time>2017-11-12T14:04:15.000Z</time>
      </trkpt>
      <trkpt lat="47.56994" lon="-3.10026">
        <ele>2.6</ele>
        <time>2017-11-12T14:04:16.000Z</time>
      </trkpt>
      <trkpt lat="47.56994" lon="-3.10026">
        <ele>2.6</ele>
        <time>2017-11-12T14:04:17.000Z</time>
      </trkpt>
      <trkpt lat="47.56994" lon="-3.10026">
        <ele>2.6</ele>
        <time>2017-11-12T14:04:18.000Z</time>
      </trkpt>
      <trkpt lat="47.56994" lon="-3.10026">
        <ele>2.6</ele>
        <time>2017-11-12T14:04:19.000Z</time>
      </trkpt>
      <trkpt lat="47.56994" lon="-3.10026">
        <ele>2.6</ele>
        <time>2017-11-12T14:04:20.000Z</time>
      </trkpt>
      <trkpt lat="47.56994" lon="-3.10026">
        <ele>2.6</ele>
        <time>2017-11-12T14:04:21.000Z</time>
      </trkpt>
      <trkpt lat="47.56994" lon="-3.10026">
        <ele>2.6</ele>
        <time>2017-11-12T14:04:22.000Z</time>
      </trkpt>
      <trkpt lat="47.56994" lon="-3.10026">
        <ele>2.6</ele>
        <time>2017-11-12T14:04:23.000Z</time>
      </trkpt>
      <trkpt lat="47.56994" lon="-3.10026">
        <ele>2.6</ele>
        <time>2017-11-12T14:04:24.000Z</time>
      </trkpt>
      <trkpt lat="47.56994" lon="-3.10026">
        <ele>2.6</ele>
        <time>2017-11-12T14:04:25.000Z</time>
      </trkpt>
      <trkpt lat="47.57001" lon="-3.10036">
        <ele>3.2</ele>
        <time>2017-11-12T14:04:26.000Z</time>
      </trkpt>
      <trkpt lat="47.57002" lon="-3.10036">
        <ele>3.3</ele>
        <time>2017-11-12T14:04:27.000Z</time>
      </trkpt>
      <trkpt lat="47.57003" lon="-3.10037">
        <ele>3.4</ele>
        <time>2017-11-12T14:04:28.000Z</time>
      </trkpt>
      <trkpt lat="47.57004" lon="-3.10037">
        <ele>3.5</ele>
        <time>2017-11-12T14:04:29.000Z</time>
      </trkpt>
      <trkpt lat="47.57004" lon="-3.10037">
        <ele>3.5</ele>
        <time>2017-11-12T14:04:30.000Z</time>
      </trkpt>
      <trkpt lat="47.57004" lon="-3.10037">
        <ele>3.5</ele>
        <time>2017-11-12T14:04:31.000Z</time>
      </trkpt>
      <trkpt lat="47.57004" lon="-3.10037">
        <ele>3.5</ele>
        <time>2017-11-12T14:04:32.000Z</time>
      </trkpt>
      <trkpt lat="47.57004" lon="-3.10037">
        <ele>3.5</ele>
        <time>2017-11-12T14:04:33.000Z</time>
      </trkpt>
      <trkpt lat="47.57004" lon="-3.10037">
        <ele>3.5</ele>
        <time>2017-11-12T14:04:34.000Z</time>
      </trkpt>
      <trkpt lat="47.57004" lon="-3.10037">
        <ele>3.5</ele>
        <time>2017-11-12T14:04:35.000Z</time>
      </trkpt>
      <trkpt lat="47.57004" lon="-3.10037">
        <ele>3.5</ele>
        <time>2017-11-12T14:04:36.000Z</time>
      </trkpt>
      <trkpt lat="47.57004" lon="-3.10037">
        <ele>3.5</ele>
        <time>2017-11-12T14:04:37.000Z</time>
      </trkpt>
      <trkpt lat="47.57004" lon="-3.10037">
        <ele>3.5</ele>
        <time>2017-11-12T14:04:38.000Z</time>
      </trkpt>
      <trkpt lat="47.57004" lon="-3.10037">
        <ele>3.5</ele>
        <time>2017-11-12T14:04:39.000Z</time>
      </trkpt>
      <trkpt lat="47.57004" lon="-3.10037">
        <ele>3.5</ele>
        <time>2017-11-12T14:04:40.000Z</time>
      </trkpt>
      <trkpt lat="47.57004" lon="-3.10037">
        <ele>3.5</ele>
        <time>2017-11-12T14:04:41.000Z</time>
      </trkpt>
      <trkpt lat="47.57004" lon="-3.10037">
        <ele>3.5</ele>
        <time>2017-11-12T14:04:42.000Z</time>
      </trkpt>
      <trkpt lat="47.57004" lon="-3.10037">
        <ele>3.5</ele>
        <time>2017-11-12T14:04:43.000Z</time>
      </trkpt>
      <trkpt lat="47.57004" lon="-3.10037">
        <ele>3.5</ele>
        <time>2017-11-12T14:04:44.000Z</time>
      </trkpt>
      <trkpt lat="47.57004" lon="-3.10037">
        <ele>3.5</ele>
        <time>2017-11-12T14:04:45.000Z</time>
      </trkpt>
      <trkpt lat="47.57004" lon="-3.10037">
        <ele>3.5</ele>
        <time>2017-11-12T14:04:46.000Z</time>
      </trkpt>
      <trkpt lat="47.57004" lon="-3.10037">
        <ele>3.5</ele>
        <time>2017-11-12T14:04:47.000Z</time>
      </trkpt>
      <trkpt lat="47.57004" lon="-3.10037">
        <ele>3.5</ele>
        <time>2017-11-12T14:04:48.000Z</time>
      </trkpt>
      <trkpt lat="47.57004" lon="-3.10037">
        <ele>3.5</ele>
        <time>2017-11-12T14:04:49.000Z</time>
      </trkpt>
      <trkpt lat="47.57004" lon="-3.10037">
        <ele>3.5</ele>
        <time>2017-11-12T14:04:50.000Z</time>
      </trkpt>
      <trkpt lat="47.57004" lon="-3.10037">
        <ele>3.5</ele>
        <time>2017-11-12T14:04:51.000Z</time>
      </trkpt>
      <trkpt lat="47.57004" lon="-3.10037">
        <ele>3.5</ele>
        <time>2017-11-12T14:04:52.000Z</time>
      </trkpt>
      <trkpt lat="47.57011" lon="-3.10044">
        <ele>4.7</ele>
        <time>2017-11-12T14:04:53.000Z</time>
      </trkpt>
      <trkpt lat="47.57012" lon="-3.10044">
        <ele>4.8</ele>
        <time>2017-11-12T14:04:54.000Z</time>
      </trkpt>
      <trkpt lat="47.57013" lon="-3.10043">
        <ele>4.9</ele>
        <time>2017-11-12T14:04:55.000Z</time>
      </trkpt>
      <trkpt lat="47.57014" lon="-3.10042">
        <ele>4.9</ele>
        <time>2017-11-12T14:04:56.000Z</time>
      </trkpt>
      <trkpt lat="47.57014" lon="-3.10042">
        <ele>4.9</ele>
        <time>2017-11-12T14:04:57.000Z</time>
      </trkpt>
      <trkpt lat="47.57014" lon="-3.10042">
        <ele>4.9</ele>
        <time>2017-11-12T14:04:58.000Z</time>
      </trkpt>
      <trkpt lat="47.57014" lon="-3.10042">
        <ele>4.9</ele>
        <time>2017-11-12T14:04:59.000Z</time>
      </trkpt>
      <trkpt lat="47.57014" lon="-3.10042">
        <ele>4.9</ele>
        <time>2017-11-12T14:05:00.000Z</time>
      </trkpt>
      <trkpt lat="47.57014" lon="-3.10042">
        <ele>4.9</ele>
        <time>2017-11-12T14:05:01.000Z</time>
      </trkpt>
      <trkpt lat="47.57014" lon="-3.10042">
        <ele>4.9</ele>
        <time>2017-11-12T14:05:02.000Z</time>
      </trkpt>
      <trkpt lat="47.57014" lon="-3.10042">
        <ele>4.9</ele>
        <time>2017-11-12T14:05:03.000Z</time>
      </trkpt>
      <trkpt lat="47.57014" lon="-3.10042">
        <ele>4.9</ele>
        <time>2017-11-12T14:05:04.000Z</time>
      </trkpt>
      <trkpt lat="47.57014" lon="-3.10042">
        <ele>4.9</ele>
        <time>2017-11-12T14:05:05.000Z</time>
      </trkpt>
      <trkpt lat="47.57014" lon="-3.10042">
        <ele>4.9</ele>
        <time>2017-11-12T14:05:06.000Z</time>
      </trkpt>
      <trkpt lat="47.57016" lon="-3.10028">
        <ele>4.7</ele>
        <time>2017-11-12T14:05:07.000Z</time>
      </trkpt>
      <trkpt lat="47.57016" lon="-3.10027">
        <ele>4.7</ele>
        <time>2017-11-12T14:05:08.000Z</time>
      </trkpt>
      <trkpt lat="47.57016" lon="-3.10025">
        <ele>4.7</ele>
        <time>2017-11-12T14:05:09.000Z</time>
      </trkpt>
      <trkpt lat="47.57016" lon="-3.10025">
        <ele>4.7</ele>
        <time>2017-11-12T14:05:10.000Z</time>
      </trkpt>
      <trkpt lat="47.57016" lon="-3.10025">
        <ele>4.7</ele>
        <time>2017-11-12T14:05:11.000Z</time>
      </trkpt>
      <trkpt lat="47.57016" lon="-3.10025">
        <ele>4.7</ele>
        <time>2017-11-12T14:05:12.000Z</time>
      </trkpt>
      <trkpt lat="47.57016" lon="-3.10025">
        <ele>4.7</ele>
        <time>2017-11-12T14:05:13.000Z</time>
      </trkpt>
      <trkpt lat="47.57016" lon="-3.10025">
        <ele>4.7</ele>
        <time>2017-11-12T14:05:14.000Z</time>
      </trkpt>
      <trkpt lat="47.57016" lon="-3.10025">
        <ele>4.7</ele>
        <time>2017-11-12T14:05:15.000Z</time>
      </trkpt>
      <trkpt lat="47.57016" lon="-3.10025">
        <ele>4.7</ele>
        <time>2017-11-12T14:05:16.000Z</time>
      </trkpt>
      <trkpt lat="47.57016" lon="-3.10025">
        <ele>4.7</ele>
        <time>2017-11-12T14:05:17.000Z</time>
      </trkpt>
      <trkpt lat="47.57016" lon="-3.10025">
        <ele>4.7</ele>
        <time>2017-11-12T14:05:18.000Z</time>
      </trkpt>
      <trkpt lat="47.57016" lon="-3.10025">
        <ele>4.7</ele>
        <time>2017-11-12T14:05:19.000Z</time>
      </trkpt>
      <trkpt lat="47.57016" lon="-3.10025">
        <ele>4.7</ele>
        <time>2017-11-12T14:05:20.000Z</time>
      </trkpt>
      <trkpt lat="47.57016" lon="-3.10025">
        <ele>4.7</ele>
        <time>2017-11-12T14:05:21.000Z</time>
      </trkpt>
      <trkpt lat="47.57016" lon="-3.10025">
        <ele>4.7</ele>
        <time>2017-11-12T14:05:22.000Z</time>
      </trkpt>
      <trkpt lat="47.57016" lon="-3.10025">
        <ele>4.7</ele>
        <time>2017-11-12T14:05:23.000Z</time>
      </trkpt>
      <trkpt lat="47.57016" lon="-3.10025">
        <ele>4.7</ele>
        <time>2017-11-12T14:05:24.000Z</time>
      </trkpt>
      <trkpt lat="47.57016" lon="-3.10025">
        <ele>4.7</ele>
        <time>2017-11-12T14:05:25.000Z</time>
      </trkpt>
      <trkpt lat="47.57016" lon="-3.10025">
        <ele>4.7</ele>
        <time>2017-11-12T14:05:26.000Z</time>
      </trkpt>
      <trkpt lat="47.57016" lon="-3.10025">
        <ele>4.7</ele>
        <time>2017-11-12T14:05:27.000Z</time>
      </trkpt>
      <trkpt lat="47.57016" lon="-3.10025">
        <ele>4.7</ele>
        <time>2017-11-12T14:05:28.000Z</time>
      </trkpt>
      <trkpt lat="47.57016" lon="-3.10025">
        <ele>4.7</ele>
        <time>2017-11-12T14:05:29.000Z</time>
      </trkpt>
      <trkpt lat="47.57016" lon="-3.10025">
        <ele>4.7</ele>
        <time>2017-11-12T14:05:30.000Z</time>
      </trkpt>
      <trkpt lat="47.57016" lon="-3.10025">
        <ele>4.7</ele>
        <time>2017-11-12T14:05:31.000Z</time>
      </trkpt>
      <trkpt lat="47.57016" lon="-3.10025">
        <ele>4.7</ele>
        <time>2017-11-12T14:05:32.000Z</time>
      </trkpt>
      <trkpt lat="47.57017" lon="-3.1002">
        <ele>4.9</ele>
        <time>2017-11-12T14:05:33.000Z</time>
      </trkpt>
      <trkpt lat="47.5702" lon="-3.1002">
        <ele>5.2</ele>
        <time>2017-11-12T14:05:34.000Z</time>
      </trkpt>
      <trkpt lat="47.5702" lon="-3.1002">
        <ele>5.2</ele>
        <time>2017-11-12T14:05:35.000Z</time>
      </trkpt>
      <trkpt lat="47.5702" lon="-3.1002">
        <ele>5.2</ele>
        <time>2017-11-12T14:05:36.000Z</time>
      </trkpt>
      <trkpt lat="47.5702" lon="-3.1002">
        <ele>5.2</ele>
        <time>2017-11-12T14:05:37.000Z</time>
      </trkpt>
      <trkpt lat="47.5702" lon="-3.1002">
        <ele>5.2</ele>
        <time>2017-11-12T14:05:38.000Z</time>
      </trkpt>
      <trkpt lat="47.5702" lon="-3.1002">
        <ele>5.2</ele>
        <time>2017-11-12T14:05:39.000Z</time>
      </trkpt>
      <trkpt lat="47.5702" lon="-3.1002">
        <ele>5.2</ele>
        <time>2017-11-12T14:05:40.000Z</time>
      </trkpt>
      <trkpt lat="47.5702" lon="-3.1002">
        <ele>5.2</ele>
        <time>2017-11-12T14:05:41.000Z</time>
      </trkpt>
      <trkpt lat="47.5702" lon="-3.1002">
        <ele>5.2</ele>
        <time>2017-11-12T14:05:42.000Z</time>
      </trkpt>
      <trkpt lat="47.5702" lon="-3.1002">
        <ele>5.2</ele>
        <time>2017-11-12T14:05:43.000Z</time>
      </trkpt>
      <trkpt lat="47.5702" lon="-3.1002">
        <ele>5.2</ele>
        <time>2017-11-12T14:05:44.000Z</time>
      </trkpt>
      <trkpt lat="47.5702" lon="-3.1002">
        <ele>5.2</ele>
        <time>2017-11-12T14:05:45.000Z</time>
      </trkpt>
      <trkpt lat="47.5702" lon="-3.1002">
        <ele>5.2</ele>
        <time>2017-11-12T14:05:46.000Z</time>
      </trkpt>
      <trkpt lat="47.5702" lon="-3.1002">
        <ele>5.2</ele>
        <time>2017-11-12T14:05:47.000Z</time>
      </trkpt>
      <trkpt lat="47.5702" lon="-3.1002">
        <ele>5.2</ele>
        <time>2017-11-12T14:05:48.000Z</time>
      </trkpt>
      <trkpt lat="47.5702" lon="-3.1002">
        <ele>5.2</ele>
        <time>2017-11-12T14:05:49.000Z</time>
      </trkpt>
      <trkpt lat="47.5702" lon="-3.1002">
        <ele>5.2</ele>
        <time>2017-11-12T14:05:50.000Z</time>
      </trkpt>
      <trkpt lat="47.5702" lon="-3.1002">
        <ele>5.2</ele>
        <time>2017-11-12T14:05:51.000Z</time>
      </trkpt>
      <trkpt lat="47.5702" lon="-3.1002">
        <ele>5.2</ele>
        <time>2017-11-12T14:05:52.000Z</time>
      </trkpt>
      <trkpt lat="47.5702" lon="-3.1002">
        <ele>5.2</ele>
        <time>2017-11-12T14:05:53.000Z</time>
      </trkpt>
      <trkpt lat="47.5702" lon="-3.1002">
        <ele>5.2</ele>
        <time>2017-11-12T14:05:54.000Z</time>
      </trkpt>
      <trkpt lat="47.5702" lon="-3.1002">
        <ele>5.2</ele>
        <time>2017-11-12T14:05:55.000Z</time>
      </trkpt>
      <trkpt lat="47.5702" lon="-3.1002">
        <ele>5.2</ele>
        <time>2017-11-12T14:05:56.000Z</time>
      </trkpt>
      <trkpt lat="47.5702" lon="-3.1002">
        <ele>5.2</ele>
        <time>2017-11-12T14:05:57.000Z</time>
      </trkpt>
      <trkpt lat="47.5702" lon="-3.1002">
        <ele>5.2</ele>
        <time>2017-11-12T14:05:58.000Z</time>
      </trkpt>
      <trkpt lat="47.5702" lon="-3.1002">
        <ele>5.2</ele>
        <time>2017-11-12T14:05:59.000Z</time>
      </trkpt>
      <trkpt lat="47.5702" lon="-3.1002">
        <ele>5.2</ele>
        <time>2017-11-12T14:06:00.000Z</time>
      </trkpt>
      <trkpt lat="47.5702" lon="-3.1002">
        <ele>5.2</ele>
        <time>2017-11-12T14:06:01.000Z</time>
      </trkpt>
      <trkpt lat="47.5702" lon="-3.1002">
        <ele>5.2</ele>
        <time>2017-11-12T14:06:02.000Z</time>
      </trkpt>
      <trkpt lat="47.5702" lon="-3.1002">
        <ele>5.2</ele>
        <time>2017-11-12T14:06:03.000Z</time>
      </trkpt>
      <trkpt lat="47.5702" lon="-3.1002">
        <ele>5.2</ele>
        <time>2017-11-12T14:06:04.000Z</time>
      </trkpt>
      <trkpt lat="47.5702" lon="-3.1002">
        <ele>5.2</ele>
        <time>2017-11-12T14:06:05.000Z</time>
      </trkpt>
      <trkpt lat="47.5702" lon="-3.1002">
        <ele>5.2</ele>
        <time>2017-11-12T14:06:06.000Z</time>
      </trkpt>
      <trkpt lat="47.5702" lon="-3.1002">
        <ele>5.2</ele>
        <time>2017-11-12T14:06:07.000Z</time>
      </trkpt>
      <trkpt lat="47.5702" lon="-3.1002">
        <ele>5.2</ele>
        <time>2017-11-12T14:06:08.000Z</time>
      </trkpt>
      <trkpt lat="47.5702" lon="-3.1002">
        <ele>5.2</ele>
        <time>2017-11-12T14:06:09.000Z</time>
      </trkpt>
      <trkpt lat="47.5702" lon="-3.1002">
        <ele>5.2</ele>
        <time>2017-11-12T14:06:10.000Z</time>
      </trkpt>
      <trkpt lat="47.5702" lon="-3.1002">
        <ele>5.2</ele>
        <time>2017-11-12T14:06:11.000Z</time>
      </trkpt>
      <trkpt lat="47.5702" lon="-3.1002">
        <ele>5.2</ele>
        <time>2017-11-12T14:06:12.000Z</time>
      </trkpt>
      <trkpt lat="47.5702" lon="-3.1002">
        <ele>5.2</ele>
        <time>2017-11-12T14:06:13.000Z</time>
      </trkpt>
      <trkpt lat="47.5702" lon="-3.1002">
        <ele>5.2</ele>
        <time>2017-11-12T14:06:14.000Z</time>
      </trkpt>
      <trkpt lat="47.5702" lon="-3.1002">
        <ele>5.2</ele>
        <time>2017-11-12T14:06:15.000Z</time>
      </trkpt>
      <trkpt lat="47.5702" lon="-3.1002">
        <ele>5.2</ele>
        <time>2017-11-12T14:06:16.000Z</time>
      </trkpt>
      <trkpt lat="47.5702" lon="-3.1002">
        <ele>5.2</ele>
        <time>2017-11-12T14:06:17.000Z</time>
      </trkpt>
      <trkpt lat="47.5702" lon="-3.1002">
        <ele>5.2</ele>
        <time>2017-11-12T14:06:18.000Z</time>
      </trkpt>
      <trkpt lat="47.5702" lon="-3.1002">
        <ele>5.2</ele>
        <time>2017-11-12T14:06:19.000Z</time>
      </trkpt>
      <trkpt lat="47.5702" lon="-3.1002">
        <ele>5.2</ele>
        <time>2017-11-12T14:06:20.000Z</time>
      </trkpt>
      <trkpt lat="47.5702" lon="-3.1002">
        <ele>5.2</ele>
        <time>2017-11-12T14:06:21.000Z</time>
      </trkpt>
      <trkpt lat="47.5702" lon="-3.1002">
        <ele>5.2</ele>
        <time>2017-11-12T14:06:22.000Z</time>
      </trkpt>
      <trkpt lat="47.5702" lon="-3.1002">
        <ele>5.2</ele>
        <time>2017-11-12T14:06:23.000Z</time>
      </trkpt>
      <trkpt lat="47.5702" lon="-3.1002">
        <ele>5.2</ele>
        <time>2017-11-12T14:06:24.000Z</time>
      </trkpt>
      <trkpt lat="47.5702" lon="-3.1002">
        <ele>5.2</ele>
        <time>2017-11-12T14:06:25.000Z</time>
      </trkpt>
      <trkpt lat="47.5702" lon="-3.1002">
        <ele>5.2</ele>
        <time>2017-11-12T14:06:26.000Z</time>
      </trkpt>
      <trkpt lat="47.5702" lon="-3.1002">
        <ele>5.2</ele>
        <time>2017-11-12T14:06:27.000Z</time>
      </trkpt>
      <trkpt lat="47.5702" lon="-3.1002">
        <ele>5.2</ele>
        <time>2017-11-12T14:06:28.000Z</time>
      </trkpt>
      <trkpt lat="47.5702" lon="-3.1002">
        <ele>5.2</ele>
        <time>2017-11-12T14:06:29.000Z</time>
      </trkpt>
      <trkpt lat="47.5702" lon="-3.1002">
        <ele>5.2</ele>
        <time>2017-11-12T14:06:30.000Z</time>
      </trkpt>
      <trkpt lat="47.5702" lon="-3.1002">
        <ele>5.2</ele>
        <time>2017-11-12T14:06:31.000Z</time>
      </trkpt>
      <trkpt lat="47.5702" lon="-3.1002">
        <ele>5.2</ele>
        <time>2017-11-12T14:06:32.000Z</time>
      </trkpt>
      <trkpt lat="47.5702" lon="-3.1002">
        <ele>5.2</ele>
        <time>2017-11-12T14:06:33.000Z</time>
      </trkpt>
      <trkpt lat="47.5702" lon="-3.1002">
        <ele>5.2</ele>
        <time>2017-11-12T14:06:34.000Z</time>
      </trkpt>
      <trkpt lat="47.5702" lon="-3.1002">
        <ele>5.2</ele>
        <time>2017-11-12T14:06:35.000Z</time>
      </trkpt>
      <trkpt lat="47.5702" lon="-3.1002">
        <ele>5.2</ele>
        <time>2017-11-12T14:06:36.000Z</time>
      </trkpt>
      <trkpt lat="47.5702" lon="-3.1002">
        <ele>5.2</ele>
        <time>2017-11-12T14:06:37.000Z</time>
      </trkpt>
      <trkpt lat="47.5702" lon="-3.1002">
        <ele>5.2</ele>
        <time>2017-11-12T14:06:38.000Z</time>
      </trkpt>
      <trkpt lat="47.5702" lon="-3.1002">
        <ele>5.2</ele>
        <time>2017-11-12T14:06:39.000Z</time>
      </trkpt>
      <trkpt lat="47.5702" lon="-3.1002">
        <ele>5.2</ele>
        <time>2017-11-12T14:06:40.000Z</time>
      </trkpt>
      <trkpt lat="47.5702" lon="-3.1002">
        <ele>5.2</ele>
        <time>2017-11-12T14:06:41.000Z</time>
      </trkpt>
      <trkpt lat="47.5702" lon="-3.1002">
        <ele>5.2</ele>
        <time>2017-11-12T14:06:42.000Z</time>
      </trkpt>
      <trkpt lat="47.5702" lon="-3.1002">
        <ele>5.2</ele>
        <time>2017-11-12T14:06:43.000Z</time>
      </trkpt>
      <trkpt lat="47.5702" lon="-3.1002">
        <ele>5.2</ele>
        <time>2017-11-12T14:06:44.000Z</time>
      </trkpt>
      <trkpt lat="47.5702" lon="-3.1002">
        <ele>5.2</ele>
        <time>2017-11-12T14:06:45.000Z</time>
      </trkpt>
      <trkpt lat="47.5702" lon="-3.1002">
        <ele>5.2</ele>
        <time>2017-11-12T14:06:46.000Z</time>
      </trkpt>
      <trkpt lat="47.5702" lon="-3.1002">
        <ele>5.2</ele>
        <time>2017-11-12T14:06:47.000Z</time>
      </trkpt>
      <trkpt lat="47.5702" lon="-3.1002">
        <ele>5.2</ele>
        <time>2017-11-12T14:06:48.000Z</time>
      </trkpt>
      <trkpt lat="47.5702" lon="-3.1002">
        <ele>5.2</ele>
        <time>2017-11-12T14:06:49.000Z</time>
      </trkpt>
      <trkpt lat="47.5702" lon="-3.1002">
        <ele>5.2</ele>
        <time>2017-11-12T14:06:50.000Z</time>
      </trkpt>
      <trkpt lat="47.5702" lon="-3.1002">
        <ele>5.2</ele>
        <time>2017-11-12T14:06:51.000Z</time>
      </trkpt>
      <trkpt lat="47.57021" lon="-3.10023">
        <ele>5.3</ele>
        <time>2017-11-12T14:06:52.000Z</time>
      </trkpt>
      <trkpt lat="47.5702" lon="-3.10023">
        <ele>5.2</ele>
        <time>2017-11-12T14:06:53.000Z</time>
      </trkpt>
      <trkpt lat="47.5702" lon="-3.10022">
        <ele>5.2</ele>
        <time>2017-11-12T14:06:54.000Z</time>
      </trkpt>
      <trkpt lat="47.57021" lon="-3.10022">
        <ele>5.3</ele>
        <time>2017-11-12T14:06:55.000Z</time>
      </trkpt>
      <trkpt lat="47.57021" lon="-3.10022">
        <ele>5.3</ele>
        <time>2017-11-12T14:06:56.000Z</time>
      </trkpt>
      <trkpt lat="47.57021" lon="-3.10022">
        <ele>5.3</ele>
        <time>2017-11-12T14:06:57.000Z</time>
      </trkpt>
      <trkpt lat="47.57021" lon="-3.10022">
        <ele>5.3</ele>
        <time>2017-11-12T14:06:58.000Z</time>
      </trkpt>
      <trkpt lat="47.57021" lon="-3.10022">
        <ele>5.3</ele>
        <time>2017-11-12T14:06:59.000Z</time>
      </trkpt>
      <trkpt lat="47.57021" lon="-3.10022">
        <ele>5.3</ele>
        <time>2017-11-12T14:07:00.000Z</time>
      </trkpt>
      <trkpt lat="47.57021" lon="-3.10022">
        <ele>5.3</ele>
        <time>2017-11-12T14:07:01.000Z</time>
      </trkpt>
      <trkpt lat="47.57021" lon="-3.10022">
        <ele>5.3</ele>
        <time>2017-11-12T14:07:02.000Z</time>
      </trkpt>
      <trkpt lat="47.57021" lon="-3.10022">
        <ele>5.3</ele>
        <time>2017-11-12T14:07:03.000Z</time>
      </trkpt>
      <trkpt lat="47.57021" lon="-3.10022">
        <ele>5.3</ele>
        <time>2017-11-12T14:07:04.000Z</time>
      </trkpt>
      <trkpt lat="47.57021" lon="-3.10022">
        <ele>5.3</ele>
        <time>2017-11-12T14:07:05.000Z</time>
      </trkpt>
      <trkpt lat="47.57021" lon="-3.10022">
        <ele>5.3</ele>
        <time>2017-11-12T14:07:06.000Z</time>
      </trkpt>
      <trkpt lat="47.57021" lon="-3.10022">
        <ele>5.3</ele>
        <time>2017-11-12T14:07:07.000Z</time>
      </trkpt>
      <trkpt lat="47.57021" lon="-3.10022">
        <ele>5.3</ele>
        <time>2017-11-12T14:07:08.000Z</time>
      </trkpt>
      <trkpt lat="47.57021" lon="-3.10022">
        <ele>5.3</ele>
        <time>2017-11-12T14:07:09.000Z</time>
      </trkpt>
      <trkpt lat="47.57021" lon="-3.10022">
        <ele>5.3</ele>
        <time>2017-11-12T14:07:10.000Z</time>
      </trkpt>
      <trkpt lat="47.57021" lon="-3.10022">
        <ele>5.3</ele>
        <time>2017-11-12T14:07:11.000Z</time>
      </trkpt>
      <trkpt lat="47.57021" lon="-3.10022">
        <ele>5.3</ele>
        <time>2017-11-12T14:07:12.000Z</time>
      </trkpt>
      <trkpt lat="47.57021" lon="-3.10022">
        <ele>5.3</ele>
        <time>2017-11-12T14:07:13.000Z</time>
      </trkpt>
      <trkpt lat="47.5702" lon="-3.10022">
        <ele>5.3</ele>
        <time>2017-11-12T14:07:14.000Z</time>
      </trkpt>
      <trkpt lat="47.5702" lon="-3.10024">
        <ele>5.2</ele>
        <time>2017-11-12T14:07:15.000Z</time>
      </trkpt>
      <trkpt lat="47.5702" lon="-3.10024">
        <ele>5.1</ele>
        <time>2017-11-12T14:07:16.000Z</time>
      </trkpt>
      <trkpt lat="47.5702" lon="-3.10024">
        <ele>5.1</ele>
        <time>2017-11-12T14:07:17.000Z</time>
      </trkpt>
      <trkpt lat="47.5702" lon="-3.10024">
        <ele>5.1</ele>
        <time>2017-11-12T14:07:18.000Z</time>
      </trkpt>
      <trkpt lat="47.5702" lon="-3.10024">
        <ele>5.1</ele>
        <time>2017-11-12T14:07:19.000Z</time>
      </trkpt>
      <trkpt lat="47.5702" lon="-3.10024">
        <ele>5.1</ele>
        <time>2017-11-12T14:07:20.000Z</time>
      </trkpt>
      <trkpt lat="47.5702" lon="-3.10024">
        <ele>5.1</ele>
        <time>2017-11-12T14:07:21.000Z</time>
      </trkpt>
      <trkpt lat="47.5702" lon="-3.10024">
        <ele>5.1</ele>
        <time>2017-11-12T14:07:22.000Z</time>
      </trkpt>
      <trkpt lat="47.5702" lon="-3.10024">
        <ele>5.1</ele>
        <time>2017-11-12T14:07:23.000Z</time>
      </trkpt>
      <trkpt lat="47.5702" lon="-3.10024">
        <ele>5.1</ele>
        <time>2017-11-12T14:07:24.000Z</time>
      </trkpt>
      <trkpt lat="47.5702" lon="-3.10024">
        <ele>5.1</ele>
        <time>2017-11-12T14:07:25.000Z</time>
      </trkpt>
      <trkpt lat="47.5702" lon="-3.10024">
        <ele>5.1</ele>
        <time>2017-11-12T14:07:26.000Z</time>
      </trkpt>
      <trkpt lat="47.5702" lon="-3.10024">
        <ele>5.1</ele>
        <time>2017-11-12T14:07:27.000Z</time>
      </trkpt>
      <trkpt lat="47.5702" lon="-3.10024">
        <ele>5.1</ele>
        <time>2017-11-12T14:07:28.000Z</time>
      </trkpt>
      <trkpt lat="47.5702" lon="-3.10024">
        <ele>5.1</ele>
        <time>2017-11-12T14:07:29.000Z</time>
      </trkpt>
      <trkpt lat="47.5702" lon="-3.10024">
        <ele>5.1</ele>
        <time>2017-11-12T14:07:30.000Z</time>
      </trkpt>
      <trkpt lat="47.5702" lon="-3.10024">
        <ele>5.1</ele>
        <time>2017-11-12T14:07:31.000Z</time>
      </trkpt>
      <trkpt lat="47.5702" lon="-3.10024">
        <ele>5.1</ele>
        <time>2017-11-12T14:07:32.000Z</time>
      </trkpt>
      <trkpt lat="47.5702" lon="-3.10024">
        <ele>5.1</ele>
        <time>2017-11-12T14:07:33.000Z</time>
      </trkpt>
      <trkpt lat="47.5702" lon="-3.10024">
        <ele>5.1</ele>
        <time>2017-11-12T14:07:34.000Z</time>
      </trkpt>
      <trkpt lat="47.5702" lon="-3.10024">
        <ele>5.1</ele>
        <time>2017-11-12T14:07:35.000Z</time>
      </trkpt>
      <trkpt lat="47.5702" lon="-3.10024">
        <ele>5.1</ele>
        <time>2017-11-12T14:07:36.000Z</time>
      </trkpt>
      <trkpt lat="47.5702" lon="-3.10024">
        <ele>5.1</ele>
        <time>2017-11-12T14:07:37.000Z</time>
      </trkpt>
      <trkpt lat="47.5702" lon="-3.10024">
        <ele>5.1</ele>
        <time>2017-11-12T14:07:38.000Z</time>
      </trkpt>
      <trkpt lat="47.5702" lon="-3.10024">
        <ele>5.1</ele>
        <time>2017-11-12T14:07:39.000Z</time>
      </trkpt>
      <trkpt lat="47.5702" lon="-3.10024">
        <ele>5.1</ele>
        <time>2017-11-12T14:07:40.000Z</time>
      </trkpt>
      <trkpt lat="47.5702" lon="-3.10024">
        <ele>5.1</ele>
        <time>2017-11-12T14:07:41.000Z</time>
      </trkpt>
      <trkpt lat="47.5702" lon="-3.10024">
        <ele>5.1</ele>
        <time>2017-11-12T14:07:42.000Z</time>
      </trkpt>
      <trkpt lat="47.5702" lon="-3.10024">
        <ele>5.1</ele>
        <time>2017-11-12T14:07:43.000Z</time>
      </trkpt>
      <trkpt lat="47.5702" lon="-3.10024">
        <ele>5.1</ele>
        <time>2017-11-12T14:07:44.000Z</time>
      </trkpt>
      <trkpt lat="47.5702" lon="-3.10024">
        <ele>5.1</ele>
        <time>2017-11-12T14:07:45.000Z</time>
      </trkpt>
      <trkpt lat="47.5702" lon="-3.10024">
        <ele>5.1</ele>
        <time>2017-11-12T14:07:46.000Z</time>
      </trkpt>
      <trkpt lat="47.5702" lon="-3.10024">
        <ele>5.1</ele>
        <time>2017-11-12T14:07:47.000Z</time>
      </trkpt>
      <trkpt lat="47.5702" lon="-3.10024">
        <ele>5.1</ele>
        <time>2017-11-12T14:07:48.000Z</time>
      </trkpt>
      <trkpt lat="47.5702" lon="-3.10024">
        <ele>5.1</ele>
        <time>2017-11-12T14:07:49.000Z</time>
      </trkpt>
      <trkpt lat="47.5702" lon="-3.10024">
        <ele>5.1</ele>
        <time>2017-11-12T14:07:50.000Z</time>
      </trkpt>
      <trkpt lat="47.5702" lon="-3.10024">
        <ele>5.1</ele>
        <time>2017-11-12T14:07:51.000Z</time>
      </trkpt>
      <trkpt lat="47.5702" lon="-3.10024">
        <ele>5.1</ele>
        <time>2017-11-12T14:07:52.000Z</time>
      </trkpt>
      <trkpt lat="47.5702" lon="-3.10024">
        <ele>5.1</ele>
        <time>2017-11-12T14:07:53.000Z</time>
      </trkpt>
      <trkpt lat="47.5702" lon="-3.10024">
        <ele>5.1</ele>
        <time>2017-11-12T14:07:54.000Z</time>
      </trkpt>
      <trkpt lat="47.5702" lon="-3.10024">
        <ele>5.1</ele>
        <time>2017-11-12T14:07:55.000Z</time>
      </trkpt>
      <trkpt lat="47.5702" lon="-3.10024">
        <ele>5.1</ele>
        <time>2017-11-12T14:07:56.000Z</time>
      </trkpt>
      <trkpt lat="47.5702" lon="-3.10024">
        <ele>5.1</ele>
        <time>2017-11-12T14:07:57.000Z</time>
      </trkpt>
      <trkpt lat="47.5702" lon="-3.10024">
        <ele>5.1</ele>
        <time>2017-11-12T14:07:58.000Z</time>
      </trkpt>
      <trkpt lat="47.5702" lon="-3.10024">
        <ele>5.1</ele>
        <time>2017-11-12T14:07:59.000Z</time>
      </trkpt>
      <trkpt lat="47.5702" lon="-3.10024">
        <ele>5.1</ele>
        <time>2017-11-12T14:08:00.000Z</time>
      </trkpt>
      <trkpt lat="47.5702" lon="-3.10024">
        <ele>5.1</ele>
        <time>2017-11-12T14:08:01.000Z</time>
      </trkpt>
      <trkpt lat="47.5702" lon="-3.10024">
        <ele>5.1</ele>
        <time>2017-11-12T14:08:02.000Z</time>
      </trkpt>
      <trkpt lat="47.5702" lon="-3.10024">
        <ele>5.1</ele>
        <time>2017-11-12T14:08:03.000Z</time>
      </trkpt>
      <trkpt lat="47.5702" lon="-3.10024">
        <ele>5.1</ele>
        <time>2017-11-12T14:08:04.000Z</time>
      </trkpt>
      <trkpt lat="47.5702" lon="-3.10024">
        <ele>5.1</ele>
        <time>2017-11-12T14:08:05.000Z</time>
      </trkpt>
      <trkpt lat="47.5702" lon="-3.10024">
        <ele>5.1</ele>
        <time>2017-11-12T14:08:06.000Z</time>
      </trkpt>
      <trkpt lat="47.5702" lon="-3.10024">
        <ele>5.1</ele>
        <time>2017-11-12T14:08:07.000Z</time>
      </trkpt>
      <trkpt lat="47.5702" lon="-3.10024">
        <ele>5.1</ele>
        <time>2017-11-12T14:08:08.000Z</time>
      </trkpt>
      <trkpt lat="47.5702" lon="-3.10024">
        <ele>5.1</ele>
        <time>2017-11-12T14:08:09.000Z</time>
      </trkpt>
      <trkpt lat="47.5702" lon="-3.10024">
        <ele>5.1</ele>
        <time>2017-11-12T14:08:10.000Z</time>
      </trkpt>
      <trkpt lat="47.5702" lon="-3.10024">
        <ele>5.1</ele>
        <time>2017-11-12T14:08:11.000Z</time>
      </trkpt>
      <trkpt lat="47.5702" lon="-3.10024">
        <ele>5.1</ele>
        <time>2017-11-12T14:08:12.000Z</time>
      </trkpt>
      <trkpt lat="47.5702" lon="-3.10024">
        <ele>5.1</ele>
        <time>2017-11-12T14:08:13.000Z</time>
      </trkpt>
      <trkpt lat="47.5702" lon="-3.10024">
        <ele>5.1</ele>
        <time>2017-11-12T14:08:14.000Z</time>
      </trkpt>
      <trkpt lat="47.5702" lon="-3.10024">
        <ele>5.1</ele>
        <time>2017-11-12T14:08:15.000Z</time>
      </trkpt>
      <trkpt lat="47.5702" lon="-3.10024">
        <ele>5.1</ele>
        <time>2017-11-12T14:08:16.000Z</time>
      </trkpt>
      <trkpt lat="47.5702" lon="-3.10024">
        <ele>5.1</ele>
        <time>2017-11-12T14:08:17.000Z</time>
      </trkpt>
      <trkpt lat="47.5702" lon="-3.10024">
        <ele>5.1</ele>
        <time>2017-11-12T14:08:18.000Z</time>
      </trkpt>
      <trkpt lat="47.5702" lon="-3.10024">
        <ele>5.1</ele>
        <time>2017-11-12T14:08:19.000Z</time>
      </trkpt>
      <trkpt lat="47.5702" lon="-3.10024">
        <ele>5.1</ele>
        <time>2017-11-12T14:08:20.000Z</time>
      </trkpt>
      <trkpt lat="47.5702" lon="-3.10024">
        <ele>5.1</ele>
        <time>2017-11-12T14:08:21.000Z</time>
      </trkpt>
      <trkpt lat="47.5702" lon="-3.10024">
        <ele>5.1</ele>
        <time>2017-11-12T14:08:22.000Z</time>
      </trkpt>
      <trkpt lat="47.5702" lon="-3.10024">
        <ele>5.1</ele>
        <time>2017-11-12T14:08:23.000Z</time>
      </trkpt>
      <trkpt lat="47.5702" lon="-3.10024">
        <ele>5.1</ele>
        <time>2017-11-12T14:08:24.000Z</time>
      </trkpt>
      <trkpt lat="47.5702" lon="-3.10024">
        <ele>5.1</ele>
        <time>2017-11-12T14:08:25.000Z</time>
      </trkpt>
      <trkpt lat="47.5702" lon="-3.10024">
        <ele>5.1</ele>
        <time>2017-11-12T14:08:26.000Z</time>
      </trkpt>
      <trkpt lat="47.5702" lon="-3.10024">
        <ele>5.1</ele>
        <time>2017-11-12T14:08:27.000Z</time>
      </trkpt>
      <trkpt lat="47.5702" lon="-3.10024">
        <ele>5.1</ele>
        <time>2017-11-12T14:08:28.000Z</time>
      </trkpt>
      <trkpt lat="47.5702" lon="-3.10024">
        <ele>5.1</ele>
        <time>2017-11-12T14:08:29.000Z</time>
      </trkpt>
      <trkpt lat="47.5702" lon="-3.10024">
        <ele>5.1</ele>
        <time>2017-11-12T14:08:30.000Z</time>
      </trkpt>
      <trkpt lat="47.5702" lon="-3.10024">
        <ele>5.1</ele>
        <time>2017-11-12T14:08:31.000Z</time>
      </trkpt>
      <trkpt lat="47.5702" lon="-3.10024">
        <ele>5.1</ele>
        <time>2017-11-12T14:08:32.000Z</time>
      </trkpt>
      <trkpt lat="47.5702" lon="-3.10024">
        <ele>5.1</ele>
        <time>2017-11-12T14:08:33.000Z</time>
      </trkpt>
      <trkpt lat="47.5702" lon="-3.10024">
        <ele>5.1</ele>
        <time>2017-11-12T14:08:34.000Z</time>
      </trkpt>
      <trkpt lat="47.5702" lon="-3.10024">
        <ele>5.1</ele>
        <time>2017-11-12T14:08:35.000Z</time>
      </trkpt>
      <trkpt lat="47.5702" lon="-3.10024">
        <ele>5.1</ele>
        <time>2017-11-12T14:08:36.000Z</time>
      </trkpt>
      <trkpt lat="47.5702" lon="-3.10024">
        <ele>5.1</ele>
        <time>2017-11-12T14:08:37.000Z</time>
      </trkpt>
      <trkpt lat="47.5702" lon="-3.10024">
        <ele>5.1</ele>
        <time>2017-11-12T14:08:38.000Z</time>
      </trkpt>
      <trkpt lat="47.5702" lon="-3.10024">
        <ele>5.1</ele>
        <time>2017-11-12T14:08:39.000Z</time>
      </trkpt>
      <trkpt lat="47.5702" lon="-3.10024">
        <ele>5.1</ele>
        <time>2017-11-12T14:08:40.000Z</time>
      </trkpt>
      <trkpt lat="47.5702" lon="-3.10024">
        <ele>5.1</ele>
        <time>2017-11-12T14:08:41.000Z</time>
      </trkpt>
      <trkpt lat="47.5702" lon="-3.10024">
        <ele>5.1</ele>
        <time>2017-11-12T14:08:42.000Z</time>
      </trkpt>
      <trkpt lat="47.5702" lon="-3.10024">
        <ele>5.1</ele>
        <time>2017-11-12T14:08:43.000Z</time>
      </trkpt>
      <trkpt lat="47.5702" lon="-3.10024">
        <ele>5.1</ele>
        <time>2017-11-12T14:08:44.000Z</time>
      </trkpt>
      <trkpt lat="47.5702" lon="-3.10024">
        <ele>5.1</ele>
        <time>2017-11-12T14:08:45.000Z</time>
      </trkpt>
      <trkpt lat="47.5702" lon="-3.10024">
        <ele>5.1</ele>
        <time>2017-11-12T14:08:46.000Z</time>
      </trkpt>
      <trkpt lat="47.5702" lon="-3.10024">
        <ele>5.1</ele>
        <time>2017-11-12T14:08:47.000Z</time>
      </trkpt>
      <trkpt lat="47.5702" lon="-3.10024">
        <ele>5.1</ele>
        <time>2017-11-12T14:08:48.000Z</time>
      </trkpt>
      <trkpt lat="47.5702" lon="-3.10024">
        <ele>5.1</ele>
        <time>2017-11-12T14:08:49.000Z</time>
      </trkpt>
      <trkpt lat="47.5702" lon="-3.10024">
        <ele>5.1</ele>
        <time>2017-11-12T14:08:50.000Z</time>
      </trkpt>
      <trkpt lat="47.5702" lon="-3.10024">
        <ele>5.1</ele>
        <time>2017-11-12T14:08:51.000Z</time>
      </trkpt>
      <trkpt lat="47.5702" lon="-3.10024">
        <ele>5.1</ele>
        <time>2017-11-12T14:08:52.000Z</time>
      </trkpt>
      <trkpt lat="47.5702" lon="-3.10024">
        <ele>5.1</ele>
        <time>2017-11-12T14:08:53.000Z</time>
      </trkpt>
      <trkpt lat="47.5702" lon="-3.10024">
        <ele>5.1</ele>
        <time>2017-11-12T14:08:54.000Z</time>
      </trkpt>
      <trkpt lat="47.5702" lon="-3.10024">
        <ele>5.1</ele>
        <time>2017-11-12T14:08:55.000Z</time>
      </trkpt>
      <trkpt lat="47.57021" lon="-3.10023">
        <ele>5.3</ele>
        <time>2017-11-12T14:08:56.000Z</time>
      </trkpt>
      <trkpt lat="47.5702" lon="-3.10022">
        <ele>5.2</ele>
        <time>2017-11-12T14:08:57.000Z</time>
      </trkpt>
      <trkpt lat="47.57019" lon="-3.10021">
        <ele>5.2</ele>
        <time>2017-11-12T14:08:58.000Z</time>
      </trkpt>
      <trkpt lat="47.57019" lon="-3.10021">
        <ele>5.1</ele>
        <time>2017-11-12T14:08:59.000Z</time>
      </trkpt>
      <trkpt lat="47.57019" lon="-3.10021">
        <ele>5.1</ele>
        <time>2017-11-12T14:09:00.000Z</time>
      </trkpt>
      <trkpt lat="47.57019" lon="-3.10021">
        <ele>5.1</ele>
        <time>2017-11-12T14:09:01.000Z</time>
      </trkpt>
      <trkpt lat="47.57019" lon="-3.10021">
        <ele>5.1</ele>
        <time>2017-11-12T14:09:02.000Z</time>
      </trkpt>
      <trkpt lat="47.57019" lon="-3.10021">
        <ele>5.1</ele>
        <time>2017-11-12T14:09:03.000Z</time>
      </trkpt>
      <trkpt lat="47.57019" lon="-3.10021">
        <ele>5.1</ele>
        <time>2017-11-12T14:09:04.000Z</time>
      </trkpt>
      <trkpt lat="47.57019" lon="-3.10021">
        <ele>5.1</ele>
        <time>2017-11-12T14:09:05.000Z</time>
      </trkpt>
      <trkpt lat="47.57019" lon="-3.10021">
        <ele>5.1</ele>
        <time>2017-11-12T14:09:06.000Z</time>
      </trkpt>
      <trkpt lat="47.57019" lon="-3.10021">
        <ele>5.1</ele>
        <time>2017-11-12T14:09:07.000Z</time>
      </trkpt>
      <trkpt lat="47.57019" lon="-3.10021">
        <ele>5.1</ele>
        <time>2017-11-12T14:09:08.000Z</time>
      </trkpt>
      <trkpt lat="47.57019" lon="-3.10021">
        <ele>5.1</ele>
        <time>2017-11-12T14:09:09.000Z</time>
      </trkpt>
      <trkpt lat="47.57019" lon="-3.10021">
        <ele>5.1</ele>
        <time>2017-11-12T14:09:10.000Z</time>
      </trkpt>
      <trkpt lat="47.57019" lon="-3.10021">
        <ele>5.1</ele>
        <time>2017-11-12T14:09:11.000Z</time>
      </trkpt>
      <trkpt lat="47.57019" lon="-3.10021">
        <ele>5.1</ele>
        <time>2017-11-12T14:09:12.000Z</time>
      </trkpt>
      <trkpt lat="47.57019" lon="-3.10021">
        <ele>5.1</ele>
        <time>2017-11-12T14:09:13.000Z</time>
      </trkpt>
      <trkpt lat="47.57019" lon="-3.10021">
        <ele>5.1</ele>
        <time>2017-11-12T14:09:14.000Z</time>
      </trkpt>
      <trkpt lat="47.57019" lon="-3.10021">
        <ele>5.1</ele>
        <time>2017-11-12T14:09:15.000Z</time>
      </trkpt>
      <trkpt lat="47.57019" lon="-3.10021">
        <ele>5.1</ele>
        <time>2017-11-12T14:09:16.000Z</time>
      </trkpt>
      <trkpt lat="47.57019" lon="-3.10021">
        <ele>5.1</ele>
        <time>2017-11-12T14:09:17.000Z</time>
      </trkpt>
      <trkpt lat="47.57019" lon="-3.10021">
        <ele>5.1</ele>
        <time>2017-11-12T14:09:18.000Z</time>
      </trkpt>
      <trkpt lat="47.57019" lon="-3.10021">
        <ele>5.1</ele>
        <time>2017-11-12T14:09:19.000Z</time>
      </trkpt>
      <trkpt lat="47.57019" lon="-3.10021">
        <ele>5.1</ele>
        <time>2017-11-12T14:09:20.000Z</time>
      </trkpt>
      <trkpt lat="47.57019" lon="-3.10021">
        <ele>5.1</ele>
        <time>2017-11-12T14:09:21.000Z</time>
      </trkpt>
      <trkpt lat="47.57019" lon="-3.10021">
        <ele>5.1</ele>
        <time>2017-11-12T14:09:22.000Z</time>
      </trkpt>
      <trkpt lat="47.57019" lon="-3.10021">
        <ele>5.1</ele>
        <time>2017-11-12T14:09:23.000Z</time>
      </trkpt>
      <trkpt lat="47.57019" lon="-3.10021">
        <ele>5.1</ele>
        <time>2017-11-12T14:09:24.000Z</time>
      </trkpt>
      <trkpt lat="47.57019" lon="-3.10021">
        <ele>5.1</ele>
        <time>2017-11-12T14:09:25.000Z</time>
      </trkpt>
      <trkpt lat="47.57019" lon="-3.10021">
        <ele>5.1</ele>
        <time>2017-11-12T14:09:26.000Z</time>
      </trkpt>
      <trkpt lat="47.57019" lon="-3.10021">
        <ele>5.1</ele>
        <time>2017-11-12T14:09:27.000Z</time>
      </trkpt>
      <trkpt lat="47.57019" lon="-3.10021">
        <ele>5.1</ele>
        <time>2017-11-12T14:09:28.000Z</time>
      </trkpt>
      <trkpt lat="47.57019" lon="-3.10021">
        <ele>5.1</ele>
        <time>2017-11-12T14:09:29.000Z</time>
      </trkpt>
      <trkpt lat="47.57019" lon="-3.10021">
        <ele>5.1</ele>
        <time>2017-11-12T14:09:30.000Z</time>
      </trkpt>
      <trkpt lat="47.57019" lon="-3.10021">
        <ele>5.1</ele>
        <time>2017-11-12T14:09:31.000Z</time>
      </trkpt>
      <trkpt lat="47.57019" lon="-3.10021">
        <ele>5.1</ele>
        <time>2017-11-12T14:09:32.000Z</time>
      </trkpt>
      <trkpt lat="47.57019" lon="-3.10021">
        <ele>5.1</ele>
        <time>2017-11-12T14:09:33.000Z</time>
      </trkpt>
      <trkpt lat="47.57019" lon="-3.10021">
        <ele>5.1</ele>
        <time>2017-11-12T14:09:34.000Z</time>
      </trkpt>
      <trkpt lat="47.57019" lon="-3.10021">
        <ele>5.1</ele>
        <time>2017-11-12T14:09:35.000Z</time>
      </trkpt>
      <trkpt lat="47.57019" lon="-3.10021">
        <ele>5.1</ele>
        <time>2017-11-12T14:09:36.000Z</time>
      </trkpt>
      <trkpt lat="47.57019" lon="-3.10021">
        <ele>5.1</ele>
        <time>2017-11-12T14:09:37.000Z</time>
      </trkpt>
      <trkpt lat="47.57022" lon="-3.1002">
        <ele>5.5</ele>
        <time>2017-11-12T14:09:38.000Z</time>
      </trkpt>
      <trkpt lat="47.57021" lon="-3.10019">
        <ele>5.4</ele>
        <time>2017-11-12T14:09:39.000Z</time>
      </trkpt>
      <trkpt lat="47.57021" lon="-3.10019">
        <ele>5.3</ele>
        <time>2017-11-12T14:09:40.000Z</time>
      </trkpt>
      <trkpt lat="47.57021" lon="-3.1002">
        <ele>5.3</ele>
        <time>2017-11-12T14:09:41.000Z</time>
      </trkpt>
      <trkpt lat="47.57021" lon="-3.1002">
        <ele>5.3</ele>
        <time>2017-11-12T14:09:42.000Z</time>
      </trkpt>
      <trkpt lat="47.57021" lon="-3.1002">
        <ele>5.3</ele>
        <time>2017-11-12T14:09:43.000Z</time>
      </trkpt>
      <trkpt lat="47.57021" lon="-3.1002">
        <ele>5.3</ele>
        <time>2017-11-12T14:09:44.000Z</time>
      </trkpt>
      <trkpt lat="47.57021" lon="-3.1002">
        <ele>5.3</ele>
        <time>2017-11-12T14:09:45.000Z</time>
      </trkpt>
      <trkpt lat="47.57021" lon="-3.1002">
        <ele>5.3</ele>
        <time>2017-11-12T14:09:46.000Z</time>
      </trkpt>
      <trkpt lat="47.57021" lon="-3.1002">
        <ele>5.3</ele>
        <time>2017-11-12T14:09:47.000Z</time>
      </trkpt>
      <trkpt lat="47.57021" lon="-3.1002">
        <ele>5.3</ele>
        <time>2017-11-12T14:09:48.000Z</time>
      </trkpt>
      <trkpt lat="47.57021" lon="-3.1002">
        <ele>5.3</ele>
        <time>2017-11-12T14:09:49.000Z</time>
      </trkpt>
      <trkpt lat="47.57021" lon="-3.1002">
        <ele>5.3</ele>
        <time>2017-11-12T14:09:50.000Z</time>
      </trkpt>
      <trkpt lat="47.57021" lon="-3.1002">
        <ele>5.3</ele>
        <time>2017-11-12T14:09:51.000Z</time>
      </trkpt>
      <trkpt lat="47.57022" lon="-3.10021">
        <ele>5.4</ele>
        <time>2017-11-12T14:09:52.000Z</time>
      </trkpt>
      <trkpt lat="47.57022" lon="-3.10021">
        <ele>5.4</ele>
        <time>2017-11-12T14:09:53.000Z</time>
      </trkpt>
      <trkpt lat="47.57021" lon="-3.10021">
        <ele>5.4</ele>
        <time>2017-11-12T14:09:54.000Z</time>
      </trkpt>
      <trkpt lat="47.57021" lon="-3.10021">
        <ele>5.4</ele>
        <time>2017-11-12T14:09:55.000Z</time>
      </trkpt>
      <trkpt lat="47.57021" lon="-3.10021">
        <ele>5.4</ele>
        <time>2017-11-12T14:09:56.000Z</time>
      </trkpt>
      <trkpt lat="47.57021" lon="-3.10021">
        <ele>5.4</ele>
        <time>2017-11-12T14:09:57.000Z</time>
      </trkpt>
      <trkpt lat="47.57021" lon="-3.10021">
        <ele>5.4</ele>
        <time>2017-11-12T14:09:58.000Z</time>
      </trkpt>
      <trkpt lat="47.57021" lon="-3.10021">
        <ele>5.4</ele>
        <time>2017-11-12T14:09:59.000Z</time>
      </trkpt>
      <trkpt lat="47.57021" lon="-3.10021">
        <ele>5.4</ele>
        <time>2017-11-12T14:10:00.000Z</time>
      </trkpt>
      <trkpt lat="47.57021" lon="-3.10021">
        <ele>5.4</ele>
        <time>2017-11-12T14:10:01.000Z</time>
      </trkpt>
      <trkpt lat="47.57021" lon="-3.10021">
        <ele>5.4</ele>
        <time>2017-11-12T14:10:02.000Z</time>
      </trkpt>
      <trkpt lat="47.57021" lon="-3.10021">
        <ele>5.4</ele>
        <time>2017-11-12T14:10:03.000Z</time>
      </trkpt>
      <trkpt lat="47.57021" lon="-3.10021">
        <ele>5.4</ele>
        <time>2017-11-12T14:10:04.000Z</time>
      </trkpt>
      <trkpt lat="47.57021" lon="-3.10021">
        <ele>5.4</ele>
        <time>2017-11-12T14:10:05.000Z</time>
      </trkpt>
      <trkpt lat="47.57021" lon="-3.10021">
        <ele>5.4</ele>
        <time>2017-11-12T14:10:06.000Z</time>
      </trkpt>
      <trkpt lat="47.57021" lon="-3.10021">
        <ele>5.4</ele>
        <time>2017-11-12T14:10:07.000Z</time>
      </trkpt>
      <trkpt lat="47.57021" lon="-3.10021">
        <ele>5.4</ele>
        <time>2017-11-12T14:10:08.000Z</time>
      </trkpt>
      <trkpt lat="47.57021" lon="-3.10021">
        <ele>5.4</ele>
        <time>2017-11-12T14:10:09.000Z</time>
      </trkpt>
      <trkpt lat="47.57021" lon="-3.10021">
        <ele>5.4</ele>
        <time>2017-11-12T14:10:10.000Z</time>
      </trkpt>
      <trkpt lat="47.57021" lon="-3.10021">
        <ele>5.4</ele>
        <time>2017-11-12T14:10:11.000Z</time>
      </trkpt>
      <trkpt lat="47.57021" lon="-3.10021">
        <ele>5.4</ele>
        <time>2017-11-12T14:10:12.000Z</time>
      </trkpt>
      <trkpt lat="47.57021" lon="-3.10021">
        <ele>5.4</ele>
        <time>2017-11-12T14:10:13.000Z</time>
      </trkpt>
      <trkpt lat="47.57021" lon="-3.10021">
        <ele>5.4</ele>
        <time>2017-11-12T14:10:14.000Z</time>
      </trkpt>
      <trkpt lat="47.57021" lon="-3.10021">
        <ele>5.4</ele>
        <time>2017-11-12T14:10:15.000Z</time>
      </trkpt>
      <trkpt lat="47.57021" lon="-3.10021">
        <ele>5.4</ele>
        <time>2017-11-12T14:10:16.000Z</time>
      </trkpt>
      <trkpt lat="47.57021" lon="-3.10021">
        <ele>5.4</ele>
        <time>2017-11-12T14:10:17.000Z</time>
      </trkpt>
      <trkpt lat="47.57021" lon="-3.10021">
        <ele>5.4</ele>
        <time>2017-11-12T14:10:18.000Z</time>
      </trkpt>
      <trkpt lat="47.57021" lon="-3.10021">
        <ele>5.4</ele>
        <time>2017-11-12T14:10:19.000Z</time>
      </trkpt>
      <trkpt lat="47.57021" lon="-3.10021">
        <ele>5.4</ele>
        <time>2017-11-12T14:10:20.000Z</time>
      </trkpt>
      <trkpt lat="47.57021" lon="-3.10021">
        <ele>5.4</ele>
        <time>2017-11-12T14:10:21.000Z</time>
      </trkpt>
      <trkpt lat="47.57021" lon="-3.10021">
        <ele>5.4</ele>
        <time>2017-11-12T14:10:22.000Z</time>
      </trkpt>
      <trkpt lat="47.57021" lon="-3.10021">
        <ele>5.4</ele>
        <time>2017-11-12T14:10:23.000Z</time>
      </trkpt>
      <trkpt lat="47.57021" lon="-3.10021">
        <ele>5.4</ele>
        <time>2017-11-12T14:10:24.000Z</time>
      </trkpt>
      <trkpt lat="47.57021" lon="-3.10021">
        <ele>5.4</ele>
        <time>2017-11-12T14:10:25.000Z</time>
      </trkpt>
      <trkpt lat="47.57021" lon="-3.10021">
        <ele>5.4</ele>
        <time>2017-11-12T14:10:26.000Z</time>
      </trkpt>
      <trkpt lat="47.57021" lon="-3.10021">
        <ele>5.4</ele>
        <time>2017-11-12T14:10:27.000Z</time>
      </trkpt>
      <trkpt lat="47.57021" lon="-3.10021">
        <ele>5.4</ele>
        <time>2017-11-12T14:10:28.000Z</time>
      </trkpt>
      <trkpt lat="47.57021" lon="-3.10021">
        <ele>5.4</ele>
        <time>2017-11-12T14:10:29.000Z</time>
      </trkpt>
      <trkpt lat="47.57021" lon="-3.10021">
        <ele>5.4</ele>
        <time>2017-11-12T14:10:30.000Z</time>
      </trkpt>
      <trkpt lat="47.57021" lon="-3.10021">
        <ele>5.4</ele>
        <time>2017-11-12T14:10:31.000Z</time>
      </trkpt>
      <trkpt lat="47.57029" lon="-3.10013">
        <ele>6</ele>
        <time>2017-11-12T14:10:32.000Z</time>
      </trkpt>
      <trkpt lat="47.57031" lon="-3.10011">
        <ele>6.1</ele>
        <time>2017-11-12T14:10:33.000Z</time>
      </trkpt>
      <trkpt lat="47.57031" lon="-3.10008">
        <ele>6.1</ele>
        <time>2017-11-12T14:10:34.000Z</time>
      </trkpt>
      <trkpt lat="47.57033" lon="-3.10006">
        <ele>6.1</ele>
        <time>2017-11-12T14:10:35.000Z</time>
      </trkpt>
      <trkpt lat="47.57033" lon="-3.10007">
        <ele>6.1</ele>
        <time>2017-11-12T14:10:36.000Z</time>
      </trkpt>
      <trkpt lat="47.57033" lon="-3.10007">
        <ele>6.1</ele>
        <time>2017-11-12T14:10:37.000Z</time>
      </trkpt>
      <trkpt lat="47.57033" lon="-3.10007">
        <ele>6.1</ele>
        <time>2017-11-12T14:10:38.000Z</time>
      </trkpt>
      <trkpt lat="47.57033" lon="-3.10007">
        <ele>6.1</ele>
        <time>2017-11-12T14:10:39.000Z</time>
      </trkpt>
      <trkpt lat="47.57033" lon="-3.10007">
        <ele>6.1</ele>
        <time>2017-11-12T14:10:40.000Z</time>
      </trkpt>
      <trkpt lat="47.57033" lon="-3.10007">
        <ele>6.1</ele>
        <time>2017-11-12T14:10:41.000Z</time>
      </trkpt>
      <trkpt lat="47.57033" lon="-3.10007">
        <ele>6.1</ele>
        <time>2017-11-12T14:10:42.000Z</time>
      </trkpt>
      <trkpt lat="47.57033" lon="-3.10007">
        <ele>6.1</ele>
        <time>2017-11-12T14:10:43.000Z</time>
      </trkpt>
      <trkpt lat="47.57033" lon="-3.10007">
        <ele>6.1</ele>
        <time>2017-11-12T14:10:44.000Z</time>
      </trkpt>
      <trkpt lat="47.57033" lon="-3.10007">
        <ele>6.1</ele>
        <time>2017-11-12T14:10:45.000Z</time>
      </trkpt>
      <trkpt lat="47.57033" lon="-3.10007">
        <ele>6.1</ele>
        <time>2017-11-12T14:10:46.000Z</time>
      </trkpt>
      <trkpt lat="47.57033" lon="-3.10007">
        <ele>6.1</ele>
        <time>2017-11-12T14:10:47.000Z</time>
      </trkpt>
      <trkpt lat="47.57033" lon="-3.10007">
        <ele>6.1</ele>
        <time>2017-11-12T14:10:48.000Z</time>
      </trkpt>
      <trkpt lat="47.57033" lon="-3.10007">
        <ele>6.1</ele>
        <time>2017-11-12T14:10:49.000Z</time>
      </trkpt>
      <trkpt lat="47.57033" lon="-3.10007">
        <ele>6.1</ele>
        <time>2017-11-12T14:10:50.000Z</time>
      </trkpt>
      <trkpt lat="47.57033" lon="-3.10007">
        <ele>6.1</ele>
        <time>2017-11-12T14:10:51.000Z</time>
      </trkpt>
      <trkpt lat="47.57033" lon="-3.10007">
        <ele>6.1</ele>
        <time>2017-11-12T14:10:52.000Z</time>
      </trkpt>
      <trkpt lat="47.57033" lon="-3.10007">
        <ele>6.1</ele>
        <time>2017-11-12T14:10:53.000Z</time>
      </trkpt>
      <trkpt lat="47.57033" lon="-3.10007">
        <ele>6.1</ele>
        <time>2017-11-12T14:10:54.000Z</time>
      </trkpt>
      <trkpt lat="47.57033" lon="-3.10007">
        <ele>6.1</ele>
        <time>2017-11-12T14:10:55.000Z</time>
      </trkpt>
      <trkpt lat="47.57033" lon="-3.10007">
        <ele>6.1</ele>
        <time>2017-11-12T14:10:56.000Z</time>
      </trkpt>
      <trkpt lat="47.57033" lon="-3.10007">
        <ele>6.1</ele>
        <time>2017-11-12T14:10:57.000Z</time>
      </trkpt>
      <trkpt lat="47.57033" lon="-3.10007">
        <ele>6.1</ele>
        <time>2017-11-12T14:10:58.000Z</time>
      </trkpt>
      <trkpt lat="47.57033" lon="-3.10007">
        <ele>6.1</ele>
        <time>2017-11-12T14:10:59.000Z</time>
      </trkpt>
      <trkpt lat="47.57033" lon="-3.10007">
        <ele>6.1</ele>
        <time>2017-11-12T14:11:00.000Z</time>
      </trkpt>
      <trkpt lat="47.57033" lon="-3.10007">
        <ele>6.1</ele>
        <time>2017-11-12T14:11:01.000Z</time>
      </trkpt>
      <trkpt lat="47.57033" lon="-3.10007">
        <ele>6.1</ele>
        <time>2017-11-12T14:11:02.000Z</time>
      </trkpt>
      <trkpt lat="47.57033" lon="-3.10007">
        <ele>6.1</ele>
        <time>2017-11-12T14:11:03.000Z</time>
      </trkpt>
      <trkpt lat="47.57033" lon="-3.10007">
        <ele>6.1</ele>
        <time>2017-11-12T14:11:04.000Z</time>
      </trkpt>
      <trkpt lat="47.57033" lon="-3.10007">
        <ele>6.1</ele>
        <time>2017-11-12T14:11:05.000Z</time>
      </trkpt>
      <trkpt lat="47.57033" lon="-3.10007">
        <ele>6.1</ele>
        <time>2017-11-12T14:11:06.000Z</time>
      </trkpt>
      <trkpt lat="47.57033" lon="-3.10007">
        <ele>6.1</ele>
        <time>2017-11-12T14:11:07.000Z</time>
      </trkpt>
      <trkpt lat="47.57033" lon="-3.10007">
        <ele>6.1</ele>
        <time>2017-11-12T14:11:08.000Z</time>
      </trkpt>
      <trkpt lat="47.57033" lon="-3.10007">
        <ele>6.1</ele>
        <time>2017-11-12T14:11:09.000Z</time>
      </trkpt>
      <trkpt lat="47.57033" lon="-3.10007">
        <ele>6.1</ele>
        <time>2017-11-12T14:11:10.000Z</time>
      </trkpt>
      <trkpt lat="47.57033" lon="-3.10007">
        <ele>6.1</ele>
        <time>2017-11-12T14:11:11.000Z</time>
      </trkpt>
      <trkpt lat="47.57033" lon="-3.10007">
        <ele>6.1</ele>
        <time>2017-11-12T14:11:12.000Z</time>
      </trkpt>
      <trkpt lat="47.57033" lon="-3.10007">
        <ele>6.1</ele>
        <time>2017-11-12T14:11:13.000Z</time>
      </trkpt>
      <trkpt lat="47.57033" lon="-3.10007">
        <ele>6.1</ele>
        <time>2017-11-12T14:11:14.000Z</time>
      </trkpt>
      <trkpt lat="47.57033" lon="-3.10007">
        <ele>6.1</ele>
        <time>2017-11-12T14:11:15.000Z</time>
      </trkpt>
      <trkpt lat="47.57033" lon="-3.10007">
        <ele>6.1</ele>
        <time>2017-11-12T14:11:16.000Z</time>
      </trkpt>
      <trkpt lat="47.57033" lon="-3.10007">
        <ele>6.1</ele>
        <time>2017-11-12T14:11:17.000Z</time>
      </trkpt>
      <trkpt lat="47.57033" lon="-3.10007">
        <ele>6.1</ele>
        <time>2017-11-12T14:11:18.000Z</time>
      </trkpt>
      <trkpt lat="47.57033" lon="-3.10007">
        <ele>6.1</ele>
        <time>2017-11-12T14:11:19.000Z</time>
      </trkpt>
      <trkpt lat="47.57033" lon="-3.10007">
        <ele>6.1</ele>
        <time>2017-11-12T14:11:20.000Z</time>
      </trkpt>
      <trkpt lat="47.57033" lon="-3.10007">
        <ele>6.1</ele>
        <time>2017-11-12T14:11:21.000Z</time>
      </trkpt>
      <trkpt lat="47.57033" lon="-3.10007">
        <ele>6.1</ele>
        <time>2017-11-12T14:11:22.000Z</time>
      </trkpt>
      <trkpt lat="47.57033" lon="-3.10007">
        <ele>6.1</ele>
        <time>2017-11-12T14:11:23.000Z</time>
      </trkpt>
      <trkpt lat="47.57033" lon="-3.10007">
        <ele>6.1</ele>
        <time>2017-11-12T14:11:24.000Z</time>
      </trkpt>
      <trkpt lat="47.57033" lon="-3.10007">
        <ele>6.1</ele>
        <time>2017-11-12T14:11:25.000Z</time>
      </trkpt>
      <trkpt lat="47.57033" lon="-3.10007">
        <ele>6.1</ele>
        <time>2017-11-12T14:11:26.000Z</time>
      </trkpt>
      <trkpt lat="47.57033" lon="-3.10007">
        <ele>6.1</ele>
        <time>2017-11-12T14:11:27.000Z</time>
      </trkpt>
      <trkpt lat="47.57033" lon="-3.10007">
        <ele>6.1</ele>
        <time>2017-11-12T14:11:28.000Z</time>
      </trkpt>
      <trkpt lat="47.57033" lon="-3.10007">
        <ele>6.1</ele>
        <time>2017-11-12T14:11:29.000Z</time>
      </trkpt>
      <trkpt lat="47.57033" lon="-3.10007">
        <ele>6.1</ele>
        <time>2017-11-12T14:11:30.000Z</time>
      </trkpt>
      <trkpt lat="47.57033" lon="-3.10007">
        <ele>6.1</ele>
        <time>2017-11-12T14:11:31.000Z</time>
      </trkpt>
      <trkpt lat="47.57033" lon="-3.10007">
        <ele>6.1</ele>
        <time>2017-11-12T14:11:32.000Z</time>
      </trkpt>
      <trkpt lat="47.57033" lon="-3.10007">
        <ele>6.1</ele>
        <time>2017-11-12T14:11:33.000Z</time>
      </trkpt>
      <trkpt lat="47.57033" lon="-3.10007">
        <ele>6.1</ele>
        <time>2017-11-12T14:11:34.000Z</time>
      </trkpt>
      <trkpt lat="47.57033" lon="-3.10007">
        <ele>6.1</ele>
        <time>2017-11-12T14:11:35.000Z</time>
      </trkpt>
      <trkpt lat="47.57033" lon="-3.10007">
        <ele>6.1</ele>
        <time>2017-11-12T14:11:36.000Z</time>
      </trkpt>
      <trkpt lat="47.57033" lon="-3.10007">
        <ele>6.1</ele>
        <time>2017-11-12T14:11:37.000Z</time>
      </trkpt>
      <trkpt lat="47.57032" lon="-3.10003">
        <ele>6.1</ele>
        <time>2017-11-12T14:11:38.000Z</time>
      </trkpt>
      <trkpt lat="47.5703" lon="-3.10005">
        <ele>6.1</ele>
        <time>2017-11-12T14:11:39.000Z</time>
      </trkpt>
      <trkpt lat="47.5703" lon="-3.10006">
        <ele>6</ele>
        <time>2017-11-12T14:11:40.000Z</time>
      </trkpt>
      <trkpt lat="47.57029" lon="-3.10006">
        <ele>6</ele>
        <time>2017-11-12T14:11:41.000Z</time>
      </trkpt>
      <trkpt lat="47.57029" lon="-3.10006">
        <ele>6</ele>
        <time>2017-11-12T14:11:42.000Z</time>
      </trkpt>
      <trkpt lat="47.57029" lon="-3.10006">
        <ele>6</ele>
        <time>2017-11-12T14:11:43.000Z</time>
      </trkpt>
      <trkpt lat="47.57029" lon="-3.10006">
        <ele>6</ele>
        <time>2017-11-12T14:11:44.000Z</time>
      </trkpt>
      <trkpt lat="47.57029" lon="-3.10006">
        <ele>6</ele>
        <time>2017-11-12T14:11:45.000Z</time>
      </trkpt>
      <trkpt lat="47.57029" lon="-3.10006">
        <ele>6</ele>
        <time>2017-11-12T14:11:46.000Z</time>
      </trkpt>
      <trkpt lat="47.57029" lon="-3.10006">
        <ele>6</ele>
        <time>2017-11-12T14:11:47.000Z</time>
      </trkpt>
      <trkpt lat="47.57029" lon="-3.10006">
        <ele>6</ele>
        <time>2017-11-12T14:11:48.000Z</time>
      </trkpt>
      <trkpt lat="47.57029" lon="-3.10006">
        <ele>6</ele>
        <time>2017-11-12T14:11:49.000Z</time>
      </trkpt>
      <trkpt lat="47.57029" lon="-3.10006">
        <ele>6</ele>
        <time>2017-11-12T14:11:50.000Z</time>
      </trkpt>
      <trkpt lat="47.57029" lon="-3.10006">
        <ele>6</ele>
        <time>2017-11-12T14:11:51.000Z</time>
      </trkpt>
      <trkpt lat="47.57029" lon="-3.10006">
        <ele>6</ele>
        <time>2017-11-12T14:11:52.000Z</time>
      </trkpt>
      <trkpt lat="47.57029" lon="-3.10006">
        <ele>6</ele>
        <time>2017-11-12T14:11:53.000Z</time>
      </trkpt>
      <trkpt lat="47.57029" lon="-3.10006">
        <ele>6</ele>
        <time>2017-11-12T14:11:54.000Z</time>
      </trkpt>
      <trkpt lat="47.57029" lon="-3.10006">
        <ele>6</ele>
        <time>2017-11-12T14:11:55.000Z</time>
      </trkpt>
      <trkpt lat="47.57029" lon="-3.10006">
        <ele>6</ele>
        <time>2017-11-12T14:11:56.000Z</time>
      </trkpt>
      <trkpt lat="47.57029" lon="-3.10006">
        <ele>6</ele>
        <time>2017-11-12T14:11:57.000Z</time>
      </trkpt>
      <trkpt lat="47.57029" lon="-3.10006">
        <ele>6</ele>
        <time>2017-11-12T14:11:58.000Z</time>
      </trkpt>
      <trkpt lat="47.57029" lon="-3.10006">
        <ele>6</ele>
        <time>2017-11-12T14:11:59.000Z</time>
      </trkpt>
      <trkpt lat="47.57029" lon="-3.10006">
        <ele>6</ele>
        <time>2017-11-12T14:12:00.000Z</time>
      </trkpt>
      <trkpt lat="47.57029" lon="-3.10006">
        <ele>6</ele>
        <time>2017-11-12T14:12:01.000Z</time>
      </trkpt>
      <trkpt lat="47.57029" lon="-3.10006">
        <ele>6</ele>
        <time>2017-11-12T14:12:02.000Z</time>
      </trkpt>
      <trkpt lat="47.57029" lon="-3.10006">
        <ele>6</ele>
        <time>2017-11-12T14:12:03.000Z</time>
      </trkpt>
      <trkpt lat="47.57029" lon="-3.10006">
        <ele>6</ele>
        <time>2017-11-12T14:12:04.000Z</time>
      </trkpt>
      <trkpt lat="47.57029" lon="-3.10006">
        <ele>6</ele>
        <time>2017-11-12T14:12:05.000Z</time>
      </trkpt>
      <trkpt lat="47.57029" lon="-3.10006">
        <ele>6</ele>
        <time>2017-11-12T14:12:06.000Z</time>
      </trkpt>
      <trkpt lat="47.57029" lon="-3.10006">
        <ele>6</ele>
        <time>2017-11-12T14:12:07.000Z</time>
      </trkpt>
      <trkpt lat="47.57029" lon="-3.10006">
        <ele>6</ele>
        <time>2017-11-12T14:12:08.000Z</time>
      </trkpt>
      <trkpt lat="47.57029" lon="-3.10006">
        <ele>6</ele>
        <time>2017-11-12T14:12:09.000Z</time>
      </trkpt>
      <trkpt lat="47.57029" lon="-3.10006">
        <ele>6</ele>
        <time>2017-11-12T14:12:10.000Z</time>
      </trkpt>
      <trkpt lat="47.57029" lon="-3.10006">
        <ele>6</ele>
        <time>2017-11-12T14:12:11.000Z</time>
      </trkpt>
      <trkpt lat="47.57029" lon="-3.10006">
        <ele>6</ele>
        <time>2017-11-12T14:12:12.000Z</time>
      </trkpt>
      <trkpt lat="47.57029" lon="-3.10006">
        <ele>6</ele>
        <time>2017-11-12T14:12:13.000Z</time>
      </trkpt>
      <trkpt lat="47.57028" lon="-3.10003">
        <ele>6</ele>
        <time>2017-11-12T14:12:14.000Z</time>
      </trkpt>
      <trkpt lat="47.57027" lon="-3.10002">
        <ele>6</ele>
        <time>2017-11-12T14:12:15.000Z</time>
      </trkpt>
      <trkpt lat="47.57027" lon="-3.10003">
        <ele>6</ele>
        <time>2017-11-12T14:12:16.000Z</time>
      </trkpt>
      <trkpt lat="47.57027" lon="-3.10002">
        <ele>6</ele>
        <time>2017-11-12T14:12:17.000Z</time>
      </trkpt>
      <trkpt lat="47.57027" lon="-3.10002">
        <ele>6</ele>
        <time>2017-11-12T14:12:18.000Z</time>
      </trkpt>
      <trkpt lat="47.57027" lon="-3.10002">
        <ele>6</ele>
        <time>2017-11-12T14:12:19.000Z</time>
      </trkpt>
      <trkpt lat="47.57027" lon="-3.10002">
        <ele>6</ele>
        <time>2017-11-12T14:12:20.000Z</time>
      </trkpt>
      <trkpt lat="47.57027" lon="-3.10002">
        <ele>6</ele>
        <time>2017-11-12T14:12:21.000Z</time>
      </trkpt>
      <trkpt lat="47.57027" lon="-3.10002">
        <ele>6</ele>
        <time>2017-11-12T14:12:22.000Z</time>
      </trkpt>
      <trkpt lat="47.57027" lon="-3.10002">
        <ele>6</ele>
        <time>2017-11-12T14:12:23.000Z</time>
      </trkpt>
      <trkpt lat="47.57027" lon="-3.10002">
        <ele>6</ele>
        <time>2017-11-12T14:12:24.000Z</time>
      </trkpt>
      <trkpt lat="47.57027" lon="-3.10002">
        <ele>6</ele>
        <time>2017-11-12T14:12:25.000Z</time>
      </trkpt>
      <trkpt lat="47.57027" lon="-3.10002">
        <ele>6</ele>
        <time>2017-11-12T14:12:26.000Z</time>
      </trkpt>
      <trkpt lat="47.57027" lon="-3.10002">
        <ele>6</ele>
        <time>2017-11-12T14:12:27.000Z</time>
      </trkpt>
      <trkpt lat="47.57027" lon="-3.10002">
        <ele>6</ele>
        <time>2017-11-12T14:12:28.000Z</time>
      </trkpt>
      <trkpt lat="47.57027" lon="-3.10002">
        <ele>6</ele>
        <time>2017-11-12T14:12:29.000Z</time>
      </trkpt>
      <trkpt lat="47.57027" lon="-3.10002">
        <ele>6</ele>
        <time>2017-11-12T14:12:30.000Z</time>
      </trkpt>
      <trkpt lat="47.57027" lon="-3.10002">
        <ele>6</ele>
        <time>2017-11-12T14:12:31.000Z</time>
      </trkpt>
      <trkpt lat="47.57027" lon="-3.10002">
        <ele>6</ele>
        <time>2017-11-12T14:12:32.000Z</time>
      </trkpt>
      <trkpt lat="47.57027" lon="-3.10002">
        <ele>6</ele>
        <time>2017-11-12T14:12:33.000Z</time>
      </trkpt>
      <trkpt lat="47.57027" lon="-3.10002">
        <ele>6</ele>
        <time>2017-11-12T14:12:34.000Z</time>
      </trkpt>
      <trkpt lat="47.57027" lon="-3.10002">
        <ele>6</ele>
        <time>2017-11-12T14:12:35.000Z</time>
      </trkpt>
      <trkpt lat="47.57027" lon="-3.10002">
        <ele>6</ele>
        <time>2017-11-12T14:12:36.000Z</time>
      </trkpt>
      <trkpt lat="47.57027" lon="-3.10002">
        <ele>6</ele>
        <time>2017-11-12T14:12:37.000Z</time>
      </trkpt>
      <trkpt lat="47.57027" lon="-3.10002">
        <ele>6</ele>
        <time>2017-11-12T14:12:38.000Z</time>
      </trkpt>
      <trkpt lat="47.57027" lon="-3.10002">
        <ele>6</ele>
        <time>2017-11-12T14:12:39.000Z</time>
      </trkpt>
      <trkpt lat="47.57027" lon="-3.10002">
        <ele>6</ele>
        <time>2017-11-12T14:12:40.000Z</time>
      </trkpt>
      <trkpt lat="47.57027" lon="-3.10002">
        <ele>6</ele>
        <time>2017-11-12T14:12:41.000Z</time>
      </trkpt>
      <trkpt lat="47.57027" lon="-3.10002">
        <ele>6</ele>
        <time>2017-11-12T14:12:42.000Z</time>
      </trkpt>
      <trkpt lat="47.57027" lon="-3.10002">
        <ele>6</ele>
        <time>2017-11-12T14:12:43.000Z</time>
      </trkpt>
      <trkpt lat="47.57027" lon="-3.10002">
        <ele>6</ele>
        <time>2017-11-12T14:12:44.000Z</time>
      </trkpt>
      <trkpt lat="47.57027" lon="-3.10002">
        <ele>6</ele>
        <time>2017-11-12T14:12:45.000Z</time>
      </trkpt>
      <trkpt lat="47.57027" lon="-3.10002">
        <ele>6</ele>
        <time>2017-11-12T14:12:46.000Z</time>
      </trkpt>
      <trkpt lat="47.57027" lon="-3.10002">
        <ele>6</ele>
        <time>2017-11-12T14:12:47.000Z</time>
      </trkpt>
      <trkpt lat="47.57027" lon="-3.10002">
        <ele>6</ele>
        <time>2017-11-12T14:12:48.000Z</time>
      </trkpt>
      <trkpt lat="47.57027" lon="-3.10002">
        <ele>6</ele>
        <time>2017-11-12T14:12:49.000Z</time>
      </trkpt>
      <trkpt lat="47.57027" lon="-3.10002">
        <ele>6</ele>
        <time>2017-11-12T14:12:50.000Z</time>
      </trkpt>
      <trkpt lat="47.57027" lon="-3.10002">
        <ele>6</ele>
        <time>2017-11-12T14:12:51.000Z</time>
      </trkpt>
      <trkpt lat="47.57027" lon="-3.10002">
        <ele>6</ele>
        <time>2017-11-12T14:12:52.000Z</time>
      </trkpt>
      <trkpt lat="47.57027" lon="-3.10002">
        <ele>6</ele>
        <time>2017-11-12T14:12:53.000Z</time>
      </trkpt>
      <trkpt lat="47.57027" lon="-3.10002">
        <ele>6</ele>
        <time>2017-11-12T14:12:54.000Z</time>
      </trkpt>
      <trkpt lat="47.57027" lon="-3.10002">
        <ele>6</ele>
        <time>2017-11-12T14:12:55.000Z</time>
      </trkpt>
      <trkpt lat="47.57027" lon="-3.10002">
        <ele>6</ele>
        <time>2017-11-12T14:12:56.000Z</time>
      </trkpt>
      <trkpt lat="47.57027" lon="-3.10002">
        <ele>6</ele>
        <time>2017-11-12T14:12:57.000Z</time>
      </trkpt>
      <trkpt lat="47.57027" lon="-3.10002">
        <ele>6</ele>
        <time>2017-11-12T14:12:58.000Z</time>
      </trkpt>
      <trkpt lat="47.57027" lon="-3.10002">
        <ele>6</ele>
        <time>2017-11-12T14:12:59.000Z</time>
      </trkpt>
      <trkpt lat="47.57027" lon="-3.10002">
        <ele>6</ele>
        <time>2017-11-12T14:13:00.000Z</time>
      </trkpt>
      <trkpt lat="47.57027" lon="-3.10002">
        <ele>6</ele>
        <time>2017-11-12T14:13:01.000Z</time>
      </trkpt>
      <trkpt lat="47.57027" lon="-3.10002">
        <ele>6</ele>
        <time>2017-11-12T14:13:02.000Z</time>
      </trkpt>
      <trkpt lat="47.57027" lon="-3.10002">
        <ele>6</ele>
        <time>2017-11-12T14:13:03.000Z</time>
      </trkpt>
      <trkpt lat="47.57027" lon="-3.10002">
        <ele>6</ele>
        <time>2017-11-12T14:13:04.000Z</time>
      </trkpt>
      <trkpt lat="47.57027" lon="-3.10002">
        <ele>6</ele>
        <time>2017-11-12T14:13:05.000Z</time>
      </trkpt>
      <trkpt lat="47.57027" lon="-3.10002">
        <ele>6</ele>
        <time>2017-11-12T14:13:06.000Z</time>
      </trkpt>
      <trkpt lat="47.57028" lon="-3.10002">
        <ele>6</ele>
        <time>2017-11-12T14:13:07.000Z</time>
      </trkpt>
      <trkpt lat="47.57027" lon="-3.10003">
        <ele>5.9</ele>
        <time>2017-11-12T14:13:08.000Z</time>
      </trkpt>
      <trkpt lat="47.57026" lon="-3.10004">
        <ele>5.9</ele>
        <time>2017-11-12T14:13:09.000Z</time>
      </trkpt>
      <trkpt lat="47.57026" lon="-3.10005">
        <ele>5.8</ele>
        <time>2017-11-12T14:13:10.000Z</time>
      </trkpt>
      <trkpt lat="47.57025" lon="-3.10007">
        <ele>5.8</ele>
        <time>2017-11-12T14:13:11.000Z</time>
      </trkpt>
      <trkpt lat="47.57025" lon="-3.10007">
        <ele>5.7</ele>
        <time>2017-11-12T14:13:12.000Z</time>
      </trkpt>
      <trkpt lat="47.57024" lon="-3.10007">
        <ele>5.7</ele>
        <time>2017-11-12T14:13:13.000Z</time>
      </trkpt>
      <trkpt lat="47.57024" lon="-3.10007">
        <ele>5.7</ele>
        <time>2017-11-12T14:13:14.000Z</time>
      </trkpt>
      <trkpt lat="47.57024" lon="-3.10007">
        <ele>5.7</ele>
        <time>2017-11-12T14:13:15.000Z</time>
      </trkpt>
      <trkpt lat="47.57024" lon="-3.10007">
        <ele>5.7</ele>
        <time>2017-11-12T14:13:16.000Z</time>
      </trkpt>
      <trkpt lat="47.57024" lon="-3.10007">
        <ele>5.7</ele>
        <time>2017-11-12T14:13:17.000Z</time>
      </trkpt>
      <trkpt lat="47.57024" lon="-3.10007">
        <ele>5.7</ele>
        <time>2017-11-12T14:13:18.000Z</time>
      </trkpt>
      <trkpt lat="47.57024" lon="-3.10007">
        <ele>5.7</ele>
        <time>2017-11-12T14:13:19.000Z</time>
      </trkpt>
      <trkpt lat="47.57024" lon="-3.10007">
        <ele>5.7</ele>
        <time>2017-11-12T14:13:20.000Z</time>
      </trkpt>
      <trkpt lat="47.57024" lon="-3.10007">
        <ele>5.7</ele>
        <time>2017-11-12T14:13:21.000Z</time>
      </trkpt>
      <trkpt lat="47.57024" lon="-3.10007">
        <ele>5.7</ele>
        <time>2017-11-12T14:13:22.000Z</time>
      </trkpt>
      <trkpt lat="47.57024" lon="-3.10007">
        <ele>5.7</ele>
        <time>2017-11-12T14:13:23.000Z</time>
      </trkpt>
      <trkpt lat="47.57018" lon="-3.10006">
        <ele>5.2</ele>
        <time>2017-11-12T14:13:24.000Z</time>
      </trkpt>
      <trkpt lat="47.57018" lon="-3.10006">
        <ele>5.2</ele>
        <time>2017-11-12T14:13:25.000Z</time>
      </trkpt>
      <trkpt lat="47.57018" lon="-3.10006">
        <ele>5.2</ele>
        <time>2017-11-12T14:13:26.000Z</time>
      </trkpt>
      <trkpt lat="47.57018" lon="-3.10007">
        <ele>5.2</ele>
        <time>2017-11-12T14:13:27.000Z</time>
      </trkpt>
      <trkpt lat="47.57018" lon="-3.10007">
        <ele>5.2</ele>
        <time>2017-11-12T14:13:28.000Z</time>
      </trkpt>
      <trkpt lat="47.57018" lon="-3.10007">
        <ele>5.2</ele>
        <time>2017-11-12T14:13:29.000Z</time>
      </trkpt>
      <trkpt lat="47.57018" lon="-3.10007">
        <ele>5.2</ele>
        <time>2017-11-12T14:13:30.000Z</time>
      </trkpt>
      <trkpt lat="47.57018" lon="-3.10007">
        <ele>5.2</ele>
        <time>2017-11-12T14:13:31.000Z</time>
      </trkpt>
      <trkpt lat="47.57018" lon="-3.10007">
        <ele>5.2</ele>
        <time>2017-11-12T14:13:32.000Z</time>
      </trkpt>
      <trkpt lat="47.57018" lon="-3.10007">
        <ele>5.2</ele>
        <time>2017-11-12T14:13:33.000Z</time>
      </trkpt>
      <trkpt lat="47.57018" lon="-3.10007">
        <ele>5.2</ele>
        <time>2017-11-12T14:13:34.000Z</time>
      </trkpt>
      <trkpt lat="47.57018" lon="-3.10007">
        <ele>5.2</ele>
        <time>2017-11-12T14:13:35.000Z</time>
      </trkpt>
      <trkpt lat="47.57018" lon="-3.10007">
        <ele>5.2</ele>
        <time>2017-11-12T14:13:36.000Z</time>
      </trkpt>
      <trkpt lat="47.57018" lon="-3.10007">
        <ele>5.2</ele>
        <time>2017-11-12T14:13:37.000Z</time>
      </trkpt>
      <trkpt lat="47.57018" lon="-3.10007">
        <ele>5.2</ele>
        <time>2017-11-12T14:13:38.000Z</time>
      </trkpt>
      <trkpt lat="47.57018" lon="-3.10007">
        <ele>5.2</ele>
        <time>2017-11-12T14:13:39.000Z</time>
      </trkpt>
      <trkpt lat="47.57018" lon="-3.10021">
        <ele>5</ele>
        <time>2017-11-12T14:13:40.000Z</time>
      </trkpt>
      <trkpt lat="47.57017" lon="-3.10024">
        <ele>4.9</ele>
        <time>2017-11-12T14:13:41.000Z</time>
      </trkpt>
      <trkpt lat="47.57017" lon="-3.10026">
        <ele>4.8</ele>
        <time>2017-11-12T14:13:42.000Z</time>
      </trkpt>
      <trkpt lat="47.57016" lon="-3.10028">
        <ele>4.7</ele>
        <time>2017-11-12T14:13:43.000Z</time>
      </trkpt>
      <trkpt lat="47.57015" lon="-3.1003">
        <ele>4.7</ele>
        <time>2017-11-12T14:13:44.000Z</time>
      </trkpt>
      <trkpt lat="47.57013" lon="-3.10031">
        <ele>4.5</ele>
        <time>2017-11-12T14:13:45.000Z</time>
      </trkpt>
      <trkpt lat="47.57012" lon="-3.10032">
        <ele>4.4</ele>
        <time>2017-11-12T14:13:46.000Z</time>
      </trkpt>
      <trkpt lat="47.57011" lon="-3.10031">
        <ele>4.2</ele>
        <time>2017-11-12T14:13:47.000Z</time>
      </trkpt>
      <trkpt lat="47.57009" lon="-3.1003">
        <ele>4.1</ele>
        <time>2017-11-12T14:13:48.000Z</time>
      </trkpt>
      <trkpt lat="47.57008" lon="-3.10029">
        <ele>3.9</ele>
        <time>2017-11-12T14:13:49.000Z</time>
      </trkpt>
      <trkpt lat="47.57006" lon="-3.10028">
        <ele>3.7</ele>
        <time>2017-11-12T14:13:50.000Z</time>
      </trkpt>
      <trkpt lat="47.57004" lon="-3.10026">
        <ele>3.5</ele>
        <time>2017-11-12T14:13:51.000Z</time>
      </trkpt>
      <trkpt lat="47.57002" lon="-3.10026">
        <ele>3.3</ele>
        <time>2017-11-12T14:13:52.000Z</time>
      </trkpt>
      <trkpt lat="47.57" lon="-3.10025">
        <ele>3.1</ele>
        <time>2017-11-12T14:13:53.000Z</time>
      </trkpt>
      <trkpt lat="47.56999" lon="-3.10024">
        <ele>3</ele>
        <time>2017-11-12T14:13:54.000Z</time>
      </trkpt>
      <trkpt lat="47.56997" lon="-3.10024">
        <ele>2.9</ele>
        <time>2017-11-12T14:13:55.000Z</time>
      </trkpt>
      <trkpt lat="47.56996" lon="-3.10023">
        <ele>2.8</ele>
        <time>2017-11-12T14:13:56.000Z</time>
      </trkpt>
      <trkpt lat="47.56994" lon="-3.10022">
        <ele>2.7</ele>
        <time>2017-11-12T14:13:57.000Z</time>
      </trkpt>
      <trkpt lat="47.56993" lon="-3.10022">
        <ele>2.7</ele>
        <time>2017-11-12T14:13:58.000Z</time>
      </trkpt>
      <trkpt lat="47.56992" lon="-3.10021">
        <ele>2.6</ele>
        <time>2017-11-12T14:13:59.000Z</time>
      </trkpt>
      <trkpt lat="47.5699" lon="-3.1002">
        <ele>2.5</ele>
        <time>2017-11-12T14:14:00.000Z</time>
      </trkpt>
      <trkpt lat="47.56989" lon="-3.10019">
        <ele>2.4</ele>
        <time>2017-11-12T14:14:01.000Z</time>
      </trkpt>
      <trkpt lat="47.56987" lon="-3.10018">
        <ele>2.3</ele>
        <time>2017-11-12T14:14:02.000Z</time>
      </trkpt>
      <trkpt lat="47.56986" lon="-3.10017">
        <ele>2.2</ele>
        <time>2017-11-12T14:14:03.000Z</time>
      </trkpt>
      <trkpt lat="47.56985" lon="-3.10017">
        <ele>2.1</ele>
        <time>2017-11-12T14:14:04.000Z</time>
      </trkpt>
      <trkpt lat="47.56983" lon="-3.10016">
        <ele>2</ele>
        <time>2017-11-12T14:14:05.000Z</time>
      </trkpt>
      <trkpt lat="47.56982" lon="-3.10016">
        <ele>1.8</ele>
        <time>2017-11-12T14:14:06.000Z</time>
      </trkpt>
      <trkpt lat="47.56981" lon="-3.10017">
        <ele>1.7</ele>
        <time>2017-11-12T14:14:07.000Z</time>
      </trkpt>
      <trkpt lat="47.56979" lon="-3.10017">
        <ele>1.6</ele>
        <time>2017-11-12T14:14:08.000Z</time>
      </trkpt>
      <trkpt lat="47.56978" lon="-3.10018">
        <ele>1.5</ele>
        <time>2017-11-12T14:14:09.000Z</time>
      </trkpt>
      <trkpt lat="47.56977" lon="-3.10018">
        <ele>1.4</ele>
        <time>2017-11-12T14:14:10.000Z</time>
      </trkpt>
      <trkpt lat="47.56977" lon="-3.10018">
        <ele>1.4</ele>
        <time>2017-11-12T14:14:11.000Z</time>
      </trkpt>
      <trkpt lat="47.56977" lon="-3.10018">
        <ele>1.4</ele>
        <time>2017-11-12T14:14:12.000Z</time>
      </trkpt>
      <trkpt lat="47.56977" lon="-3.10018">
        <ele>1.4</ele>
        <time>2017-11-12T14:14:13.000Z</time>
      </trkpt>
      <trkpt lat="47.56977" lon="-3.10018">
        <ele>1.4</ele>
        <time>2017-11-12T14:14:14.000Z</time>
      </trkpt>
      <trkpt lat="47.56977" lon="-3.10018">
        <ele>1.4</ele>
        <time>2017-11-12T14:14:15.000Z</time>
      </trkpt>
      <trkpt lat="47.56973" lon="-3.10022">
        <ele>1</ele>
        <time>2017-11-12T14:14:16.000Z</time>
      </trkpt>
      <trkpt lat="47.56972" lon="-3.10022">
        <ele>1</ele>
        <time>2017-11-12T14:14:17.000Z</time>
      </trkpt>
      <trkpt lat="47.56971" lon="-3.10023">
        <ele>1</ele>
        <time>2017-11-12T14:14:18.000Z</time>
      </trkpt>
      <trkpt lat="47.5697" lon="-3.10024">
        <ele>1</ele>
        <time>2017-11-12T14:14:19.000Z</time>
      </trkpt>
      <trkpt lat="47.56969" lon="-3.10025">
        <ele>1</ele>
        <time>2017-11-12T14:14:20.000Z</time>
      </trkpt>
      <trkpt lat="47.56968" lon="-3.10026">
        <ele>1</ele>
        <time>2017-11-12T14:14:21.000Z</time>
      </trkpt>
      <trkpt lat="47.56967" lon="-3.10027">
        <ele>1</ele>
        <time>2017-11-12T14:14:22.000Z</time>
      </trkpt>
      <trkpt lat="47.56966" lon="-3.10028">
        <ele>1</ele>
        <time>2017-11-12T14:14:23.000Z</time>
      </trkpt>
      <trkpt lat="47.56965" lon="-3.10028">
        <ele>1</ele>
        <time>2017-11-12T14:14:24.000Z</time>
      </trkpt>
      <trkpt lat="47.56964" lon="-3.10029">
        <ele>1</ele>
        <time>2017-11-12T14:14:25.000Z</time>
      </trkpt>
      <trkpt lat="47.56964" lon="-3.10029">
        <ele>1</ele>
        <time>2017-11-12T14:14:26.000Z</time>
      </trkpt>
      <trkpt lat="47.56964" lon="-3.10029">
        <ele>1</ele>
        <time>2017-11-12T14:14:27.000Z</time>
      </trkpt>
      <trkpt lat="47.56964" lon="-3.10029">
        <ele>1</ele>
        <time>2017-11-12T14:14:28.000Z</time>
      </trkpt>
      <trkpt lat="47.56964" lon="-3.10029">
        <ele>1</ele>
        <time>2017-11-12T14:14:29.000Z</time>
      </trkpt>
      <trkpt lat="47.56964" lon="-3.10029">
        <ele>1</ele>
        <time>2017-11-12T14:14:30.000Z</time>
      </trkpt>
      <trkpt lat="47.56964" lon="-3.10029">
        <ele>1</ele>
        <time>2017-11-12T14:14:31.000Z</time>
      </trkpt>
      <trkpt lat="47.56964" lon="-3.10029">
        <ele>1</ele>
        <time>2017-11-12T14:14:32.000Z</time>
      </trkpt>
      <trkpt lat="47.56964" lon="-3.10029">
        <ele>1</ele>
        <time>2017-11-12T14:14:33.000Z</time>
      </trkpt>
      <trkpt lat="47.56964" lon="-3.10029">
        <ele>1</ele>
        <time>2017-11-12T14:14:34.000Z</time>
      </trkpt>
      <trkpt lat="47.56964" lon="-3.10029">
        <ele>1</ele>
        <time>2017-11-12T14:14:35.000Z</time>
      </trkpt>
      <trkpt lat="47.56964" lon="-3.10029">
        <ele>1</ele>
        <time>2017-11-12T14:14:36.000Z</time>
      </trkpt>
      <trkpt lat="47.56964" lon="-3.10029">
        <ele>1</ele>
        <time>2017-11-12T14:14:37.000Z</time>
      </trkpt>
      <trkpt lat="47.56964" lon="-3.10029">
        <ele>1</ele>
        <time>2017-11-12T14:14:38.000Z</time>
      </trkpt>
      <trkpt lat="47.56964" lon="-3.10029">
        <ele>1</ele>
        <time>2017-11-12T14:14:39.000Z</time>
      </trkpt>
      <trkpt lat="47.56964" lon="-3.10029">
        <ele>1</ele>
        <time>2017-11-12T14:14:40.000Z</time>
      </trkpt>
      <trkpt lat="47.56964" lon="-3.10029">
        <ele>1</ele>
        <time>2017-11-12T14:14:41.000Z</time>
      </trkpt>
      <trkpt lat="47.56964" lon="-3.10029">
        <ele>1</ele>
        <time>2017-11-12T14:14:42.000Z</time>
      </trkpt>
      <trkpt lat="47.56964" lon="-3.10029">
        <ele>1</ele>
        <time>2017-11-12T14:14:43.000Z</time>
      </trkpt>
      <trkpt lat="47.56964" lon="-3.10029">
        <ele>1</ele>
        <time>2017-11-12T14:14:44.000Z</time>
      </trkpt>
      <trkpt lat="47.56964" lon="-3.10029">
        <ele>1</ele>
        <time>2017-11-12T14:14:45.000Z</time>
      </trkpt>
      <trkpt lat="47.56964" lon="-3.10029">
        <ele>1</ele>
        <time>2017-11-12T14:14:46.000Z</time>
      </trkpt>
      <trkpt lat="47.56964" lon="-3.10029">
        <ele>1</ele>
        <time>2017-11-12T14:14:47.000Z</time>
      </trkpt>
      <trkpt lat="47.56964" lon="-3.10029">
        <ele>1</ele>
        <time>2017-11-12T14:14:48.000Z</time>
      </trkpt>
      <trkpt lat="47.56964" lon="-3.10029">
        <ele>1</ele>
        <time>2017-11-12T14:14:49.000Z</time>
      </trkpt>
      <trkpt lat="47.56964" lon="-3.10029">
        <ele>1</ele>
        <time>2017-11-12T14:14:50.000Z</time>
      </trkpt>
      <trkpt lat="47.56964" lon="-3.10029">
        <ele>1</ele>
        <time>2017-11-12T14:14:51.000Z</time>
      </trkpt>
      <trkpt lat="47.56964" lon="-3.10029">
        <ele>1</ele>
        <time>2017-11-12T14:14:52.000Z</time>
      </trkpt>
      <trkpt lat="47.56964" lon="-3.10029">
        <ele>1</ele>
        <time>2017-11-12T14:14:53.000Z</time>
      </trkpt>
      <trkpt lat="47.56964" lon="-3.10029">
        <ele>1</ele>
        <time>2017-11-12T14:14:54.000Z</time>
      </trkpt>
      <trkpt lat="47.56964" lon="-3.10029">
        <ele>1</ele>
        <time>2017-11-12T14:14:55.000Z</time>
      </trkpt>
      <trkpt lat="47.56964" lon="-3.10029">
        <ele>1</ele>
        <time>2017-11-12T14:14:56.000Z</time>
      </trkpt>
      <trkpt lat="47.56964" lon="-3.10029">
        <ele>1</ele>
        <time>2017-11-12T14:14:57.000Z</time>
      </trkpt>
      <trkpt lat="47.56964" lon="-3.10029">
        <ele>1</ele>
        <time>2017-11-12T14:14:58.000Z</time>
      </trkpt>
      <trkpt lat="47.56964" lon="-3.10029">
        <ele>1</ele>
        <time>2017-11-12T14:14:59.000Z</time>
      </trkpt>
      <trkpt lat="47.56964" lon="-3.10029">
        <ele>1</ele>
        <time>2017-11-12T14:15:00.000Z</time>
      </trkpt>
      <trkpt lat="47.56964" lon="-3.10029">
        <ele>1</ele>
        <time>2017-11-12T14:15:01.000Z</time>
      </trkpt>
      <trkpt lat="47.56964" lon="-3.10029">
        <ele>1</ele>
        <time>2017-11-12T14:15:02.000Z</time>
      </trkpt>
      <trkpt lat="47.56964" lon="-3.10029">
        <ele>1</ele>
        <time>2017-11-12T14:15:03.000Z</time>
      </trkpt>
      <trkpt lat="47.56964" lon="-3.10029">
        <ele>1</ele>
        <time>2017-11-12T14:15:04.000Z</time>
      </trkpt>
      <trkpt lat="47.56964" lon="-3.10029">
        <ele>1</ele>
        <time>2017-11-12T14:15:05.000Z</time>
      </trkpt>
      <trkpt lat="47.56964" lon="-3.10029">
        <ele>1</ele>
        <time>2017-11-12T14:15:06.000Z</time>
      </trkpt>
      <trkpt lat="47.56964" lon="-3.10029">
        <ele>1</ele>
        <time>2017-11-12T14:15:07.000Z</time>
      </trkpt>
      <trkpt lat="47.56964" lon="-3.10029">
        <ele>1</ele>
        <time>2017-11-12T14:15:08.000Z</time>
      </trkpt>
      <trkpt lat="47.56964" lon="-3.10029">
        <ele>1</ele>
        <time>2017-11-12T14:15:09.000Z</time>
      </trkpt>
      <trkpt lat="47.56964" lon="-3.10029">
        <ele>1</ele>
        <time>2017-11-12T14:15:10.000Z</time>
      </trkpt>
      <trkpt lat="47.56964" lon="-3.10029">
        <ele>1</ele>
        <time>2017-11-12T14:15:11.000Z</time>
      </trkpt>
      <trkpt lat="47.56964" lon="-3.10029">
        <ele>1</ele>
        <time>2017-11-12T14:15:12.000Z</time>
      </trkpt>
      <trkpt lat="47.56964" lon="-3.10029">
        <ele>1</ele>
        <time>2017-11-12T14:15:13.000Z</time>
      </trkpt>
      <trkpt lat="47.56964" lon="-3.10029">
        <ele>1</ele>
        <time>2017-11-12T14:15:14.000Z</time>
      </trkpt>
      <trkpt lat="47.56964" lon="-3.10029">
        <ele>1</ele>
        <time>2017-11-12T14:15:15.000Z</time>
      </trkpt>
      <trkpt lat="47.56964" lon="-3.10029">
        <ele>1</ele>
        <time>2017-11-12T14:15:16.000Z</time>
      </trkpt>
      <trkpt lat="47.56964" lon="-3.10029">
        <ele>1</ele>
        <time>2017-11-12T14:15:17.000Z</time>
      </trkpt>
      <trkpt lat="47.56964" lon="-3.10029">
        <ele>1</ele>
        <time>2017-11-12T14:15:18.000Z</time>
      </trkpt>
      <trkpt lat="47.56964" lon="-3.10029">
        <ele>1</ele>
        <time>2017-11-12T14:15:19.000Z</time>
      </trkpt>
      <trkpt lat="47.56964" lon="-3.10029">
        <ele>1</ele>
        <time>2017-11-12T14:15:20.000Z</time>
      </trkpt>
      <trkpt lat="47.56959" lon="-3.10038">
        <ele>1</ele>
        <time>2017-11-12T14:15:21.000Z</time>
      </trkpt>
      <trkpt lat="47.56958" lon="-3.10039">
        <ele>1</ele>
        <time>2017-11-12T14:15:22.000Z</time>
      </trkpt>
      <trkpt lat="47.56957" lon="-3.10041">
        <ele>1</ele>
        <time>2017-11-12T14:15:23.000Z</time>
      </trkpt>
      <trkpt lat="47.56956" lon="-3.10043">
        <ele>1</ele>
        <time>2017-11-12T14:15:24.000Z</time>
      </trkpt>
      <trkpt lat="47.56955" lon="-3.10044">
        <ele>1</ele>
        <time>2017-11-12T14:15:25.000Z</time>
      </trkpt>
      <trkpt lat="47.56953" lon="-3.10046">
        <ele>1</ele>
        <time>2017-11-12T14:15:26.000Z</time>
      </trkpt>
      <trkpt lat="47.56952" lon="-3.10048">
        <ele>1</ele>
        <time>2017-11-12T14:15:27.000Z</time>
      </trkpt>
      <trkpt lat="47.5695" lon="-3.10051">
        <ele>1</ele>
        <time>2017-11-12T14:15:28.000Z</time>
      </trkpt>
      <trkpt lat="47.56948" lon="-3.10053">
        <ele>1</ele>
        <time>2017-11-12T14:15:29.000Z</time>
      </trkpt>
      <trkpt lat="47.56946" lon="-3.10056">
        <time>2017-11-12T14:15:30.000Z</time>
      </trkpt>
      <trkpt lat="47.56944" lon="-3.10059">
        <time>2017-11-12T14:15:31.000Z</time>
      </trkpt>
      <trkpt lat="47.56943" lon="-3.10062">
        <time>2017-11-12T14:15:32.000Z</time>
      </trkpt>
      <trkpt lat="47.56941" lon="-3.10065">
        <time>2017-11-12T14:15:33.000Z</time>
      </trkpt>
      <trkpt lat="47.56939" lon="-3.10068">
        <time>2017-11-12T14:15:34.000Z</time>
      </trkpt>
      <trkpt lat="47.56938" lon="-3.10071">
        <time>2017-11-12T14:15:35.000Z</time>
      </trkpt>
      <trkpt lat="47.56936" lon="-3.10075">
        <time>2017-11-12T14:15:36.000Z</time>
      </trkpt>
      <trkpt lat="47.56934" lon="-3.10078">
        <time>2017-11-12T14:15:37.000Z</time>
      </trkpt>
      <trkpt lat="47.56933" lon="-3.10082">
        <time>2017-11-12T14:15:38.000Z</time>
      </trkpt>
      <trkpt lat="47.56931" lon="-3.10085">
        <time>2017-11-12T14:15:39.000Z</time>
      </trkpt>
      <trkpt lat="47.56929" lon="-3.10089">
        <time>2017-11-12T14:15:40.000Z</time>
      </trkpt>
      <trkpt lat="47.56928" lon="-3.10093">
        <time>2017-11-12T14:15:41.000Z</time>
      </trkpt>
      <trkpt lat="47.56926" lon="-3.10097">
        <time>2017-11-12T14:15:42.000Z</time>
      </trkpt>
      <trkpt lat="47.56924" lon="-3.10101">
        <time>2017-11-12T14:15:43.000Z</time>
      </trkpt>
      <trkpt lat="47.56922" lon="-3.10105">
        <time>2017-11-12T14:15:44.000Z</time>
      </trkpt>
      <trkpt lat="47.5692" lon="-3.10109">
        <time>2017-11-12T14:15:45.000Z</time>
      </trkpt>
      <trkpt lat="47.56918" lon="-3.10113">
        <time>2017-11-12T14:15:46.000Z</time>
      </trkpt>
      <trkpt lat="47.56916" lon="-3.10118">
        <time>2017-11-12T14:15:47.000Z</time>
      </trkpt>
      <trkpt lat="47.56913" lon="-3.10123">
        <time>2017-11-12T14:15:48.000Z</time>
      </trkpt>
      <trkpt lat="47.56911" lon="-3.10129">
        <time>2017-11-12T14:15:49.000Z</time>
      </trkpt>
      <trkpt lat="47.5691" lon="-3.10135">
        <time>2017-11-12T14:15:50.000Z</time>
      </trkpt>
      <trkpt lat="47.56908" lon="-3.10141">
        <time>2017-11-12T14:15:51.000Z</time>
      </trkpt>
      <trkpt lat="47.56905" lon="-3.10147">
        <time>2017-11-12T14:15:52.000Z</time>
      </trkpt>
      <trkpt lat="47.56902" lon="-3.10154">
        <time>2017-11-12T14:15:53.000Z</time>
      </trkpt>
      <trkpt lat="47.56899" lon="-3.1016">
        <time>2017-11-12T14:15:54.000Z</time>
      </trkpt>
      <trkpt lat="47.56896" lon="-3.10167">
        <time>2017-11-12T14:15:55.000Z</time>
      </trkpt>
      <trkpt lat="47.56894" lon="-3.10173">
        <time>2017-11-12T14:15:56.000Z</time>
      </trkpt>
      <trkpt lat="47.5689" lon="-3.10179">
        <time>2017-11-12T14:15:57.000Z</time>
      </trkpt>
      <trkpt lat="47.56886" lon="-3.10186">
        <time>2017-11-12T14:15:58.000Z</time>
      </trkpt>
      <trkpt lat="47.56883" lon="-3.10193">
        <time>2017-11-12T14:15:59.000Z</time>
      </trkpt>
      <trkpt lat="47.56879" lon="-3.10201">
        <time>2017-11-12T14:16:00.000Z</time>
      </trkpt>
      <trkpt lat="47.56877" lon="-3.10209">
        <time>2017-11-12T14:16:01.000Z</time>
      </trkpt>
      <trkpt lat="47.56872" lon="-3.10216">
        <time>2017-11-12T14:16:02.000Z</time>
      </trkpt>
      <trkpt lat="47.56867" lon="-3.10225">
        <time>2017-11-12T14:16:03.000Z</time>
      </trkpt>
      <trkpt lat="47.56863" lon="-3.10234">
        <time>2017-11-12T14:16:04.000Z</time>
      </trkpt>
      <trkpt lat="47.56859" lon="-3.10241">
        <time>2017-11-12T14:16:05.000Z</time>
      </trkpt>
      <trkpt lat="47.56854" lon="-3.10249">
        <time>2017-11-12T14:16:06.000Z</time>
      </trkpt>
      <trkpt lat="47.5685" lon="-3.10258">
        <time>2017-11-12T14:16:07.000Z</time>
      </trkpt>
      <trkpt lat="47.56845" lon="-3.10267">
        <time>2017-11-12T14:16:08.000Z</time>
      </trkpt>
      <trkpt lat="47.5684" lon="-3.10275">
        <time>2017-11-12T14:16:09.000Z</time>
      </trkpt>
      <trkpt lat="47.56835" lon="-3.10284">
        <time>2017-11-12T14:16:10.000Z</time>
      </trkpt>
      <trkpt lat="47.56829" lon="-3.10293">
        <time>2017-11-12T14:16:11.000Z</time>
      </trkpt>
      <trkpt lat="47.56826" lon="-3.10303">
        <time>2017-11-12T14:16:12.000Z</time>
      </trkpt>
      <trkpt lat="47.56821" lon="-3.10314">
        <time>2017-11-12T14:16:13.000Z</time>
      </trkpt>
      <trkpt lat="47.56816" lon="-3.10324">
        <time>2017-11-12T14:16:14.000Z</time>
      </trkpt>
      <trkpt lat="47.56811" lon="-3.10336">
        <time>2017-11-12T14:16:15.000Z</time>
      </trkpt>
      <trkpt lat="47.56806" lon="-3.10346">
        <time>2017-11-12T14:16:16.000Z</time>
      </trkpt>
      <trkpt lat="47.56801" lon="-3.10357">
        <time>2017-11-12T14:16:17.000Z</time>
      </trkpt>
      <trkpt lat="47.56797" lon="-3.10368">
        <time>2017-11-12T14:16:18.000Z</time>
      </trkpt>
      <trkpt lat="47.56792" lon="-3.10379">
        <time>2017-11-12T14:16:19.000Z</time>
      </trkpt>
      <trkpt lat="47.56787" lon="-3.10388">
        <time>2017-11-12T14:16:20.000Z</time>
      </trkpt>
      <trkpt lat="47.56781" lon="-3.10399">
        <time>2017-11-12T14:16:21.000Z</time>
      </trkpt>
      <trkpt lat="47.56776" lon="-3.10409">
        <time>2017-11-12T14:16:22.000Z</time>
      </trkpt>
      <trkpt lat="47.56771" lon="-3.10419">
        <time>2017-11-12T14:16:23.000Z</time>
      </trkpt>
      <trkpt lat="47.56766" lon="-3.10429">
        <time>2017-11-12T14:16:24.000Z</time>
      </trkpt>
      <trkpt lat="47.56759" lon="-3.10441">
        <time>2017-11-12T14:16:25.000Z</time>
      </trkpt>
      <trkpt lat="47.56754" lon="-3.10453">
        <time>2017-11-12T14:16:26.000Z</time>
      </trkpt>
      <trkpt lat="47.56749" lon="-3.10466">
        <time>2017-11-12T14:16:27.000Z</time>
      </trkpt>
      <trkpt lat="47.56744" lon="-3.10477">
        <time>2017-11-12T14:16:28.000Z</time>
      </trkpt>
      <trkpt lat="47.56739" lon="-3.10487">
        <time>2017-11-12T14:16:29.000Z</time>
      </trkpt>
      <trkpt lat="47.56733" lon="-3.10497">
        <time>2017-11-12T14:16:30.000Z</time>
      </trkpt>
      <trkpt lat="47.56727" lon="-3.10506">
        <time>2017-11-12T14:16:31.000Z</time>
      </trkpt>
      <trkpt lat="47.56722" lon="-3.10516">
        <time>2017-11-12T14:16:32.000Z</time>
      </trkpt>
      <trkpt lat="47.56716" lon="-3.10526">
        <time>2017-11-12T14:16:33.000Z</time>
      </trkpt>
      <trkpt lat="47.56711" lon="-3.10535">
        <time>2017-11-12T14:16:34.000Z</time>
      </trkpt>
      <trkpt lat="47.56706" lon="-3.10545">
        <time>2017-11-12T14:16:35.000Z</time>
      </trkpt>
      <trkpt lat="47.567" lon="-3.10555">
        <time>2017-11-12T14:16:36.000Z</time>
      </trkpt>
      <trkpt lat="47.56695" lon="-3.10565">
        <time>2017-11-12T14:16:37.000Z</time>
      </trkpt>
      <trkpt lat="47.56691" lon="-3.10576">
        <time>2017-11-12T14:16:38.000Z</time>
      </trkpt>
      <trkpt lat="47.56687" lon="-3.10587">
        <time>2017-11-12T14:16:39.000Z</time>
      </trkpt>
      <trkpt lat="47.56682" lon="-3.10597">
        <time>2017-11-12T14:16:40.000Z</time>
      </trkpt>
      <trkpt lat="47.56677" lon="-3.10607">
        <time>2017-11-12T14:16:41.000Z</time>
      </trkpt>
      <trkpt lat="47.56673" lon="-3.10616">
        <time>2017-11-12T14:16:42.000Z</time>
      </trkpt>
      <trkpt lat="47.56668" lon="-3.10626">
        <time>2017-11-12T14:16:43.000Z</time>
      </trkpt>
      <trkpt lat="47.56663" lon="-3.10636">
        <time>2017-11-12T14:16:44.000Z</time>
      </trkpt>
      <trkpt lat="47.56658" lon="-3.10645">
        <time>2017-11-12T14:16:45.000Z</time>
      </trkpt>
      <trkpt lat="47.56653" lon="-3.10655">
        <time>2017-11-12T14:16:46.000Z</time>
      </trkpt>
      <trkpt lat="47.56648" lon="-3.10665">
        <time>2017-11-12T14:16:47.000Z</time>
      </trkpt>
      <trkpt lat="47.56643" lon="-3.10675">
        <time>2017-11-12T14:16:48.000Z</time>
      </trkpt>
      <trkpt lat="47.56639" lon="-3.10685">
        <time>2017-11-12T14:16:49.000Z</time>
      </trkpt>
      <trkpt lat="47.56635" lon="-3.10695">
        <time>2017-11-12T14:16:50.000Z</time>
      </trkpt>
      <trkpt lat="47.5663" lon="-3.10705">
        <time>2017-11-12T14:16:51.000Z</time>
      </trkpt>
      <trkpt lat="47.56625" lon="-3.10715">
        <time>2017-11-12T14:16:52.000Z</time>
      </trkpt>
      <trkpt lat="47.56621" lon="-3.10726">
        <time>2017-11-12T14:16:53.000Z</time>
      </trkpt>
      <trkpt lat="47.56617" lon="-3.10737">
        <time>2017-11-12T14:16:54.000Z</time>
      </trkpt>
      <trkpt lat="47.56612" lon="-3.10747">
        <time>2017-11-12T14:16:55.000Z</time>
      </trkpt>
      <trkpt lat="47.56607" lon="-3.10758">
        <time>2017-11-12T14:16:56.000Z</time>
      </trkpt>
      <trkpt lat="47.56602" lon="-3.10768">
        <time>2017-11-12T14:16:57.000Z</time>
      </trkpt>
      <trkpt lat="47.56597" lon="-3.10779">
        <time>2017-11-12T14:16:58.000Z</time>
      </trkpt>
      <trkpt lat="47.56592" lon="-3.1079">
        <time>2017-11-12T14:16:59.000Z</time>
      </trkpt>
      <trkpt lat="47.56587" lon="-3.108">
        <time>2017-11-12T14:17:00.000Z</time>
      </trkpt>
      <trkpt lat="47.56583" lon="-3.10811">
        <time>2017-11-12T14:17:01.000Z</time>
      </trkpt>
      <trkpt lat="47.56579" lon="-3.10822">
        <time>2017-11-12T14:17:02.000Z</time>
      </trkpt>
      <trkpt lat="47.56575" lon="-3.10833">
        <time>2017-11-12T14:17:03.000Z</time>
      </trkpt>
      <trkpt lat="47.5657" lon="-3.10843">
        <time>2017-11-12T14:17:04.000Z</time>
      </trkpt>
      <trkpt lat="47.56565" lon="-3.10853">
        <time>2017-11-12T14:17:05.000Z</time>
      </trkpt>
      <trkpt lat="47.5656" lon="-3.10864">
        <time>2017-11-12T14:17:06.000Z</time>
      </trkpt>
      <trkpt lat="47.56554" lon="-3.10874">
        <time>2017-11-12T14:17:07.000Z</time>
      </trkpt>
      <trkpt lat="47.56549" lon="-3.10884">
        <time>2017-11-12T14:17:08.000Z</time>
      </trkpt>
      <trkpt lat="47.56544" lon="-3.10894">
        <time>2017-11-12T14:17:09.000Z</time>
      </trkpt>
      <trkpt lat="47.5654" lon="-3.10904">
        <time>2017-11-12T14:17:10.000Z</time>
      </trkpt>
      <trkpt lat="47.56535" lon="-3.10915">
        <time>2017-11-12T14:17:11.000Z</time>
      </trkpt>
      <trkpt lat="47.56531" lon="-3.10926">
        <time>2017-11-12T14:17:12.000Z</time>
      </trkpt>
      <trkpt lat="47.56526" lon="-3.10936">
        <time>2017-11-12T14:17:13.000Z</time>
      </trkpt>
      <trkpt lat="47.5652" lon="-3.10947">
        <time>2017-11-12T14:17:14.000Z</time>
      </trkpt>
      <trkpt lat="47.56516" lon="-3.10958">
        <time>2017-11-12T14:17:15.000Z</time>
      </trkpt>
      <trkpt lat="47.56511" lon="-3.10967">
        <time>2017-11-12T14:17:16.000Z</time>
      </trkpt>
      <trkpt lat="47.56505" lon="-3.10978">
        <time>2017-11-12T14:17:17.000Z</time>
      </trkpt>
      <trkpt lat="47.565" lon="-3.10989">
        <time>2017-11-12T14:17:18.000Z</time>
      </trkpt>
      <trkpt lat="47.56496" lon="-3.10999">
        <time>2017-11-12T14:17:19.000Z</time>
      </trkpt>
      <trkpt lat="47.56491" lon="-3.1101">
        <time>2017-11-12T14:17:20.000Z</time>
      </trkpt>
      <trkpt lat="47.56487" lon="-3.11021">
        <time>2017-11-12T14:17:21.000Z</time>
      </trkpt>
      <trkpt lat="47.56482" lon="-3.11031">
        <time>2017-11-12T14:17:22.000Z</time>
      </trkpt>
      <trkpt lat="47.56477" lon="-3.11041">
        <time>2017-11-12T14:17:23.000Z</time>
      </trkpt>
      <trkpt lat="47.56472" lon="-3.1105">
        <time>2017-11-12T14:17:24.000Z</time>
      </trkpt>
      <trkpt lat="47.56467" lon="-3.11059">
        <time>2017-11-12T14:17:25.000Z</time>
      </trkpt>
      <trkpt lat="47.56462" lon="-3.11069">
        <time>2017-11-12T14:17:26.000Z</time>
      </trkpt>
      <trkpt lat="47.56458" lon="-3.11079">
        <time>2017-11-12T14:17:27.000Z</time>
      </trkpt>
      <trkpt lat="47.56454" lon="-3.11088">
        <time>2017-11-12T14:17:28.000Z</time>
      </trkpt>
      <trkpt lat="47.56449" lon="-3.11097">
        <time>2017-11-12T14:17:29.000Z</time>
      </trkpt>
      <trkpt lat="47.56444" lon="-3.11106">
        <time>2017-11-12T14:17:30.000Z</time>
      </trkpt>
      <trkpt lat="47.5644" lon="-3.11116">
        <time>2017-11-12T14:17:31.000Z</time>
      </trkpt>
      <trkpt lat="47.56435" lon="-3.11126">
        <time>2017-11-12T14:17:32.000Z</time>
      </trkpt>
      <trkpt lat="47.56431" lon="-3.11136">
        <time>2017-11-12T14:17:33.000Z</time>
      </trkpt>
      <trkpt lat="47.56426" lon="-3.11145">
        <time>2017-11-12T14:17:34.000Z</time>
      </trkpt>
      <trkpt lat="47.56421" lon="-3.11156">
        <time>2017-11-12T14:17:35.000Z</time>
      </trkpt>
      <trkpt lat="47.56415" lon="-3.11166">
        <time>2017-11-12T14:17:36.000Z</time>
      </trkpt>
      <trkpt lat="47.56412" lon="-3.11177">
        <time>2017-11-12T14:17:37.000Z</time>
      </trkpt>
      <trkpt lat="47.56407" lon="-3.11189">
        <time>2017-11-12T14:17:38.000Z</time>
      </trkpt>
      <trkpt lat="47.56403" lon="-3.112">
        <time>2017-11-12T14:17:39.000Z</time>
      </trkpt>
      <trkpt lat="47.56399" lon="-3.11211">
        <time>2017-11-12T14:17:40.000Z</time>
      </trkpt>
      <trkpt lat="47.56395" lon="-3.11223">
        <time>2017-11-12T14:17:41.000Z</time>
      </trkpt>
      <trkpt lat="47.56391" lon="-3.11234">
        <time>2017-11-12T14:17:42.000Z</time>
      </trkpt>
      <trkpt lat="47.56388" lon="-3.11246">
        <time>2017-11-12T14:17:43.000Z</time>
      </trkpt>
      <trkpt lat="47.56384" lon="-3.11257">
        <time>2017-11-12T14:17:44.000Z</time>
      </trkpt>
      <trkpt lat="47.5638" lon="-3.11268">
        <time>2017-11-12T14:17:45.000Z</time>
      </trkpt>
      <trkpt lat="47.56376" lon="-3.11279">
        <time>2017-11-12T14:17:46.000Z</time>
      </trkpt>
      <trkpt lat="47.56371" lon="-3.1129">
        <time>2017-11-12T14:17:47.000Z</time>
      </trkpt>
      <trkpt lat="47.56368" lon="-3.11301">
        <time>2017-11-12T14:17:48.000Z</time>
      </trkpt>
      <trkpt lat="47.56363" lon="-3.11313">
        <time>2017-11-12T14:17:49.000Z</time>
      </trkpt>
      <trkpt lat="47.5636" lon="-3.11321">
        <time>2017-11-12T14:17:50.000Z</time>
      </trkpt>
      <trkpt lat="47.56356" lon="-3.1133">
        <time>2017-11-12T14:17:51.000Z</time>
      </trkpt>
      <trkpt lat="47.56351" lon="-3.1134">
        <time>2017-11-12T14:17:52.000Z</time>
      </trkpt>
      <trkpt lat="47.56347" lon="-3.11349">
        <time>2017-11-12T14:17:53.000Z</time>
      </trkpt>
      <trkpt lat="47.56343" lon="-3.1136">
        <time>2017-11-12T14:17:54.000Z</time>
      </trkpt>
      <trkpt lat="47.56339" lon="-3.1137">
        <time>2017-11-12T14:17:55.000Z</time>
      </trkpt>
      <trkpt lat="47.56335" lon="-3.1138">
        <time>2017-11-12T14:17:56.000Z</time>
      </trkpt>
      <trkpt lat="47.56331" lon="-3.1139">
        <time>2017-11-12T14:17:57.000Z</time>
      </trkpt>
      <trkpt lat="47.56328" lon="-3.114">
        <time>2017-11-12T14:17:58.000Z</time>
      </trkpt>
      <trkpt lat="47.56324" lon="-3.1141">
        <time>2017-11-12T14:17:59.000Z</time>
      </trkpt>
      <trkpt lat="47.5632" lon="-3.1142">
        <time>2017-11-12T14:18:00.000Z</time>
      </trkpt>
      <trkpt lat="47.56315" lon="-3.1143">
        <time>2017-11-12T14:18:01.000Z</time>
      </trkpt>
      <trkpt lat="47.56311" lon="-3.11439">
        <time>2017-11-12T14:18:02.000Z</time>
      </trkpt>
      <trkpt lat="47.56306" lon="-3.1145">
        <time>2017-11-12T14:18:03.000Z</time>
      </trkpt>
      <trkpt lat="47.56302" lon="-3.1146">
        <time>2017-11-12T14:18:04.000Z</time>
      </trkpt>
      <trkpt lat="47.56298" lon="-3.11471">
        <time>2017-11-12T14:18:05.000Z</time>
      </trkpt>
      <trkpt lat="47.56294" lon="-3.11482">
        <time>2017-11-12T14:18:06.000Z</time>
      </trkpt>
      <trkpt lat="47.56291" lon="-3.11493">
        <time>2017-11-12T14:18:07.000Z</time>
      </trkpt>
      <trkpt lat="47.56288" lon="-3.11505">
        <time>2017-11-12T14:18:08.000Z</time>
      </trkpt>
      <trkpt lat="47.56285" lon="-3.11515">
        <time>2017-11-12T14:18:09.000Z</time>
      </trkpt>
      <trkpt lat="47.56283" lon="-3.11526">
        <time>2017-11-12T14:18:10.000Z</time>
      </trkpt>
      <trkpt lat="47.56279" lon="-3.11535">
        <time>2017-11-12T14:18:11.000Z</time>
      </trkpt>
      <trkpt lat="47.56277" lon="-3.11544">
        <time>2017-11-12T14:18:12.000Z</time>
      </trkpt>
      <trkpt lat="47.56274" lon="-3.11553">
        <time>2017-11-12T14:18:13.000Z</time>
      </trkpt>
      <trkpt lat="47.56271" lon="-3.11563">
        <time>2017-11-12T14:18:14.000Z</time>
      </trkpt>
      <trkpt lat="47.56267" lon="-3.11572">
        <time>2017-11-12T14:18:15.000Z</time>
      </trkpt>
      <trkpt lat="47.56264" lon="-3.11582">
        <time>2017-11-12T14:18:16.000Z</time>
      </trkpt>
      <trkpt lat="47.56261" lon="-3.11593">
        <time>2017-11-12T14:18:17.000Z</time>
      </trkpt>
      <trkpt lat="47.56257" lon="-3.11604">
        <time>2017-11-12T14:18:18.000Z</time>
      </trkpt>
      <trkpt lat="47.56252" lon="-3.11615">
        <time>2017-11-12T14:18:19.000Z</time>
      </trkpt>
      <trkpt lat="47.56248" lon="-3.11624">
        <time>2017-11-12T14:18:20.000Z</time>
      </trkpt>
      <trkpt lat="47.56244" lon="-3.11632">
        <time>2017-11-12T14:18:21.000Z</time>
      </trkpt>
      <trkpt lat="47.5624" lon="-3.1164">
        <time>2017-11-12T14:18:22.000Z</time>
      </trkpt>
      <trkpt lat="47.56235" lon="-3.11647">
        <time>2017-11-12T14:18:23.000Z</time>
      </trkpt>
      <trkpt lat="47.56228" lon="-3.11651">
        <time>2017-11-12T14:18:24.000Z</time>
      </trkpt>
      <trkpt lat="47.56222" lon="-3.11649">
        <time>2017-11-12T14:18:25.000Z</time>
      </trkpt>
      <trkpt lat="47.56218" lon="-3.11645">
        <time>2017-11-12T14:18:26.000Z</time>
      </trkpt>
      <trkpt lat="47.56215" lon="-3.11641">
        <time>2017-11-12T14:18:27.000Z</time>
      </trkpt>
      <trkpt lat="47.56214" lon="-3.11636">
        <time>2017-11-12T14:18:28.000Z</time>
      </trkpt>
      <trkpt lat="47.56213" lon="-3.11631">
        <time>2017-11-12T14:18:29.000Z</time>
      </trkpt>
      <trkpt lat="47.56214" lon="-3.11627">
        <time>2017-11-12T14:18:30.000Z</time>
      </trkpt>
      <trkpt lat="47.56215" lon="-3.11624">
        <time>2017-11-12T14:18:31.000Z</time>
      </trkpt>
      <trkpt lat="47.56217" lon="-3.11619">
        <time>2017-11-12T14:18:32.000Z</time>
      </trkpt>
      <trkpt lat="47.56218" lon="-3.11615">
        <time>2017-11-12T14:18:33.000Z</time>
      </trkpt>
      <trkpt lat="47.5622" lon="-3.1161">
        <time>2017-11-12T14:18:34.000Z</time>
      </trkpt>
      <trkpt lat="47.56223" lon="-3.11606">
        <time>2017-11-12T14:18:35.000Z</time>
      </trkpt>
      <trkpt lat="47.56225" lon="-3.11601">
        <time>2017-11-12T14:18:36.000Z</time>
      </trkpt>
      <trkpt lat="47.56228" lon="-3.11597">
        <time>2017-11-12T14:18:37.000Z</time>
      </trkpt>
      <trkpt lat="47.5623" lon="-3.11591">
        <time>2017-11-12T14:18:38.000Z</time>
      </trkpt>
      <trkpt lat="47.56232" lon="-3.11586">
        <time>2017-11-12T14:18:39.000Z</time>
      </trkpt>
      <trkpt lat="47.56235" lon="-3.11579">
        <time>2017-11-12T14:18:40.000Z</time>
      </trkpt>
      <trkpt lat="47.56239" lon="-3.11573">
        <time>2017-11-12T14:18:41.000Z</time>
      </trkpt>
      <trkpt lat="47.56243" lon="-3.11566">
        <time>2017-11-12T14:18:42.000Z</time>
      </trkpt>
      <trkpt lat="47.56247" lon="-3.1156">
        <time>2017-11-12T14:18:43.000Z</time>
      </trkpt>
      <trkpt lat="47.56251" lon="-3.11553">
        <time>2017-11-12T14:18:44.000Z</time>
      </trkpt>
      <trkpt lat="47.56256" lon="-3.11547">
        <time>2017-11-12T14:18:45.000Z</time>
      </trkpt>
      <trkpt lat="47.5626" lon="-3.1154">
        <time>2017-11-12T14:18:46.000Z</time>
      </trkpt>
      <trkpt lat="47.56265" lon="-3.11533">
        <time>2017-11-12T14:18:47.000Z</time>
      </trkpt>
      <trkpt lat="47.56269" lon="-3.11526">
        <time>2017-11-12T14:18:48.000Z</time>
      </trkpt>
      <trkpt lat="47.56274" lon="-3.11519">
        <time>2017-11-12T14:18:49.000Z</time>
      </trkpt>
      <trkpt lat="47.56277" lon="-3.1151">
        <time>2017-11-12T14:18:50.000Z</time>
      </trkpt>
      <trkpt lat="47.56281" lon="-3.11502">
        <time>2017-11-12T14:18:51.000Z</time>
      </trkpt>
      <trkpt lat="47.56285" lon="-3.11494">
        <time>2017-11-12T14:18:52.000Z</time>
      </trkpt>
      <trkpt lat="47.56289" lon="-3.11486">
        <time>2017-11-12T14:18:53.000Z</time>
      </trkpt>
      <trkpt lat="47.56293" lon="-3.11478">
        <time>2017-11-12T14:18:54.000Z</time>
      </trkpt>
      <trkpt lat="47.56297" lon="-3.11469">
        <time>2017-11-12T14:18:55.000Z</time>
      </trkpt>
      <trkpt lat="47.56301" lon="-3.11461">
        <time>2017-11-12T14:18:56.000Z</time>
      </trkpt>
      <trkpt lat="47.56305" lon="-3.11453">
        <time>2017-11-12T14:18:57.000Z</time>
      </trkpt>
      <trkpt lat="47.56308" lon="-3.11445">
        <time>2017-11-12T14:18:58.000Z</time>
      </trkpt>
      <trkpt lat="47.56312" lon="-3.11436">
        <time>2017-11-12T14:18:59.000Z</time>
      </trkpt>
      <trkpt lat="47.56316" lon="-3.11427">
        <time>2017-11-12T14:19:00.000Z</time>
      </trkpt>
      <trkpt lat="47.5632" lon="-3.11418">
        <time>2017-11-12T14:19:01.000Z</time>
      </trkpt>
      <trkpt lat="47.56324" lon="-3.11409">
        <time>2017-11-12T14:19:02.000Z</time>
      </trkpt>
      <trkpt lat="47.56329" lon="-3.114">
        <time>2017-11-12T14:19:03.000Z</time>
      </trkpt>
      <trkpt lat="47.56333" lon="-3.11391">
        <time>2017-11-12T14:19:04.000Z</time>
      </trkpt>
      <trkpt lat="47.56338" lon="-3.11382">
        <time>2017-11-12T14:19:05.000Z</time>
      </trkpt>
      <trkpt lat="47.56343" lon="-3.11373">
        <time>2017-11-12T14:19:06.000Z</time>
      </trkpt>
      <trkpt lat="47.56347" lon="-3.11364">
        <time>2017-11-12T14:19:07.000Z</time>
      </trkpt>
      <trkpt lat="47.56351" lon="-3.11356">
        <time>2017-11-12T14:19:08.000Z</time>
      </trkpt>
      <trkpt lat="47.56355" lon="-3.11347">
        <time>2017-11-12T14:19:09.000Z</time>
      </trkpt>
      <trkpt lat="47.56359" lon="-3.11338">
        <time>2017-11-12T14:19:10.000Z</time>
      </trkpt>
      <trkpt lat="47.56363" lon="-3.11329">
        <time>2017-11-12T14:19:11.000Z</time>
      </trkpt>
      <trkpt lat="47.56367" lon="-3.11319">
        <time>2017-11-12T14:19:12.000Z</time>
      </trkpt>
      <trkpt lat="47.56372" lon="-3.11309">
        <time>2017-11-12T14:19:13.000Z</time>
      </trkpt>
      <trkpt lat="47.56376" lon="-3.11299">
        <time>2017-11-12T14:19:14.000Z</time>
      </trkpt>
      <trkpt lat="47.56381" lon="-3.1129">
        <time>2017-11-12T14:19:15.000Z</time>
      </trkpt>
      <trkpt lat="47.56385" lon="-3.1128">
        <time>2017-11-12T14:19:16.000Z</time>
      </trkpt>
      <trkpt lat="47.5639" lon="-3.11269">
        <time>2017-11-12T14:19:17.000Z</time>
      </trkpt>
      <trkpt lat="47.56395" lon="-3.11259">
        <time>2017-11-12T14:19:18.000Z</time>
      </trkpt>
      <trkpt lat="47.56398" lon="-3.11249">
        <time>2017-11-12T14:19:19.000Z</time>
      </trkpt>
      <trkpt lat="47.56403" lon="-3.11238">
        <time>2017-11-12T14:19:20.000Z</time>
      </trkpt>
      <trkpt lat="47.5641" lon="-3.1123">
        <time>2017-11-12T14:19:21.000Z</time>
      </trkpt>
      <trkpt lat="47.56414" lon="-3.11218">
        <time>2017-11-12T14:19:22.000Z</time>
      </trkpt>
      <trkpt lat="47.56419" lon="-3.11207">
        <time>2017-11-12T14:19:23.000Z</time>
      </trkpt>
      <trkpt lat="47.56425" lon="-3.11196">
        <time>2017-11-12T14:19:24.000Z</time>
      </trkpt>
      <trkpt lat="47.56431" lon="-3.11186">
        <time>2017-11-12T14:19:25.000Z</time>
      </trkpt>
      <trkpt lat="47.56436" lon="-3.11176">
        <time>2017-11-12T14:19:26.000Z</time>
      </trkpt>
      <trkpt lat="47.56441" lon="-3.11166">
        <time>2017-11-12T14:19:27.000Z</time>
      </trkpt>
      <trkpt lat="47.56447" lon="-3.11156">
        <time>2017-11-12T14:19:28.000Z</time>
      </trkpt>
      <trkpt lat="47.56452" lon="-3.11145">
        <time>2017-11-12T14:19:29.000Z</time>
      </trkpt>
      <trkpt lat="47.56457" lon="-3.11135">
        <time>2017-11-12T14:19:30.000Z</time>
      </trkpt>
      <trkpt lat="47.56462" lon="-3.11124">
        <time>2017-11-12T14:19:31.000Z</time>
      </trkpt>
      <trkpt lat="47.56466" lon="-3.11114">
        <time>2017-11-12T14:19:32.000Z</time>
      </trkpt>
      <trkpt lat="47.56471" lon="-3.11103">
        <time>2017-11-12T14:19:33.000Z</time>
      </trkpt>
      <trkpt lat="47.56475" lon="-3.11092">
        <time>2017-11-12T14:19:34.000Z</time>
      </trkpt>
      <trkpt lat="47.5648" lon="-3.1108">
        <time>2017-11-12T14:19:35.000Z</time>
      </trkpt>
      <trkpt lat="47.56484" lon="-3.11068">
        <time>2017-11-12T14:19:36.000Z</time>
      </trkpt>
      <trkpt lat="47.56489" lon="-3.11058">
        <time>2017-11-12T14:19:37.000Z</time>
      </trkpt>
      <trkpt lat="47.56494" lon="-3.11049">
        <time>2017-11-12T14:19:38.000Z</time>
      </trkpt>
      <trkpt lat="47.56499" lon="-3.11038">
        <time>2017-11-12T14:19:39.000Z</time>
      </trkpt>
      <trkpt lat="47.56503" lon="-3.11027">
        <time>2017-11-12T14:19:40.000Z</time>
      </trkpt>
      <trkpt lat="47.56508" lon="-3.11017">
        <time>2017-11-12T14:19:41.000Z</time>
      </trkpt>
      <trkpt lat="47.56512" lon="-3.11007">
        <time>2017-11-12T14:19:42.000Z</time>
      </trkpt>
      <trkpt lat="47.56517" lon="-3.10998">
        <time>2017-11-12T14:19:43.000Z</time>
      </trkpt>
      <trkpt lat="47.56521" lon="-3.10988">
        <time>2017-11-12T14:19:44.000Z</time>
      </trkpt>
      <trkpt lat="47.56525" lon="-3.10979">
        <time>2017-11-12T14:19:45.000Z</time>
      </trkpt>
      <trkpt lat="47.56529" lon="-3.1097">
        <time>2017-11-12T14:19:46.000Z</time>
      </trkpt>
      <trkpt lat="47.56533" lon="-3.10962">
        <time>2017-11-12T14:19:47.000Z</time>
      </trkpt>
      <trkpt lat="47.56537" lon="-3.10954">
        <time>2017-11-12T14:19:48.000Z</time>
      </trkpt>
      <trkpt lat="47.56541" lon="-3.10946">
        <time>2017-11-12T14:19:49.000Z</time>
      </trkpt>
      <trkpt lat="47.56544" lon="-3.10937">
        <time>2017-11-12T14:19:50.000Z</time>
      </trkpt>
      <trkpt lat="47.56548" lon="-3.10928">
        <time>2017-11-12T14:19:51.000Z</time>
      </trkpt>
      <trkpt lat="47.56551" lon="-3.1092">
        <time>2017-11-12T14:19:52.000Z</time>
      </trkpt>
      <trkpt lat="47.56555" lon="-3.10911">
        <time>2017-11-12T14:19:53.000Z</time>
      </trkpt>
      <trkpt lat="47.56559" lon="-3.10903">
        <time>2017-11-12T14:19:54.000Z</time>
      </trkpt>
      <trkpt lat="47.56563" lon="-3.10895">
        <time>2017-11-12T14:19:55.000Z</time>
      </trkpt>
      <trkpt lat="47.56567" lon="-3.10887">
        <time>2017-11-12T14:19:56.000Z</time>
      </trkpt>
      <trkpt lat="47.56571" lon="-3.10879">
        <time>2017-11-12T14:19:57.000Z</time>
      </trkpt>
      <trkpt lat="47.56574" lon="-3.10871">
        <time>2017-11-12T14:19:58.000Z</time>
      </trkpt>
      <trkpt lat="47.56577" lon="-3.10863">
        <time>2017-11-12T14:19:59.000Z</time>
      </trkpt>
      <trkpt lat="47.5658" lon="-3.10854">
        <time>2017-11-12T14:20:00.000Z</time>
      </trkpt>
      <trkpt lat="47.56582" lon="-3.10846">
        <time>2017-11-12T14:20:01.000Z</time>
      </trkpt>
      <trkpt lat="47.56585" lon="-3.10838">
        <time>2017-11-12T14:20:02.000Z</time>
      </trkpt>
      <trkpt lat="47.56588" lon="-3.1083">
        <time>2017-11-12T14:20:03.000Z</time>
      </trkpt>
      <trkpt lat="47.56591" lon="-3.10823">
        <time>2017-11-12T14:20:04.000Z</time>
      </trkpt>
      <trkpt lat="47.56594" lon="-3.10815">
        <time>2017-11-12T14:20:05.000Z</time>
      </trkpt>
      <trkpt lat="47.56597" lon="-3.10807">
        <time>2017-11-12T14:20:06.000Z</time>
      </trkpt>
      <trkpt lat="47.566" lon="-3.10799">
        <time>2017-11-12T14:20:07.000Z</time>
      </trkpt>
      <trkpt lat="47.56602" lon="-3.10791">
        <time>2017-11-12T14:20:08.000Z</time>
      </trkpt>
      <trkpt lat="47.56605" lon="-3.10783">
        <time>2017-11-12T14:20:09.000Z</time>
      </trkpt>
      <trkpt lat="47.56608" lon="-3.10776">
        <time>2017-11-12T14:20:10.000Z</time>
      </trkpt>
      <trkpt lat="47.56611" lon="-3.10768">
        <time>2017-11-12T14:20:11.000Z</time>
      </trkpt>
      <trkpt lat="47.56614" lon="-3.1076">
        <time>2017-11-12T14:20:12.000Z</time>
      </trkpt>
      <trkpt lat="47.56618" lon="-3.10754">
        <time>2017-11-12T14:20:13.000Z</time>
      </trkpt>
      <trkpt lat="47.56622" lon="-3.10748">
        <time>2017-11-12T14:20:14.000Z</time>
      </trkpt>
      <trkpt lat="47.56627" lon="-3.10741">
        <time>2017-11-12T14:20:15.000Z</time>
      </trkpt>
      <trkpt lat="47.56631" lon="-3.10733">
        <time>2017-11-12T14:20:16.000Z</time>
      </trkpt>
      <trkpt lat="47.56635" lon="-3.10724">
        <time>2017-11-12T14:20:17.000Z</time>
      </trkpt>
      <trkpt lat="47.56639" lon="-3.10715">
        <time>2017-11-12T14:20:18.000Z</time>
      </trkpt>
      <trkpt lat="47.56643" lon="-3.10706">
        <time>2017-11-12T14:20:19.000Z</time>
      </trkpt>
      <trkpt lat="47.56647" lon="-3.10697">
        <time>2017-11-12T14:20:20.000Z</time>
      </trkpt>
      <trkpt lat="47.56651" lon="-3.10687">
        <time>2017-11-12T14:20:21.000Z</time>
      </trkpt>
      <trkpt lat="47.56655" lon="-3.10676">
        <time>2017-11-12T14:20:22.000Z</time>
      </trkpt>
      <trkpt lat="47.56659" lon="-3.10667">
        <time>2017-11-12T14:20:23.000Z</time>
      </trkpt>
      <trkpt lat="47.56662" lon="-3.10658">
        <time>2017-11-12T14:20:24.000Z</time>
      </trkpt>
      <trkpt lat="47.56663" lon="-3.10646">
        <time>2017-11-12T14:20:25.000Z</time>
      </trkpt>
      <trkpt lat="47.56664" lon="-3.10634">
        <time>2017-11-12T14:20:26.000Z</time>
      </trkpt>
      <trkpt lat="47.56666" lon="-3.10622">
        <time>2017-11-12T14:20:27.000Z</time>
      </trkpt>
      <trkpt lat="47.56668" lon="-3.1061">
        <time>2017-11-12T14:20:28.000Z</time>
      </trkpt>
      <trkpt lat="47.56671" lon="-3.10599">
        <time>2017-11-12T14:20:29.000Z</time>
      </trkpt>
      <trkpt lat="47.56674" lon="-3.10589">
        <time>2017-11-12T14:20:30.000Z</time>
      </trkpt>
      <trkpt lat="47.56677" lon="-3.10578">
        <time>2017-11-12T14:20:31.000Z</time>
      </trkpt>
      <trkpt lat="47.56681" lon="-3.10569">
        <time>2017-11-12T14:20:32.000Z</time>
      </trkpt>
      <trkpt lat="47.56682" lon="-3.10559">
        <time>2017-11-12T14:20:33.000Z</time>
      </trkpt>
      <trkpt lat="47.56683" lon="-3.10548">
        <time>2017-11-12T14:20:34.000Z</time>
      </trkpt>
      <trkpt lat="47.56681" lon="-3.10539">
        <time>2017-11-12T14:20:35.000Z</time>
      </trkpt>
      <trkpt lat="47.56678" lon="-3.10532">
        <time>2017-11-12T14:20:36.000Z</time>
      </trkpt>
      <trkpt lat="47.56675" lon="-3.10527">
        <time>2017-11-12T14:20:37.000Z</time>
      </trkpt>
      <trkpt lat="47.56673" lon="-3.10526">
        <time>2017-11-12T14:20:38.000Z</time>
      </trkpt>
      <trkpt lat="47.56671" lon="-3.10525">
        <time>2017-11-12T14:20:39.000Z</time>
      </trkpt>
      <trkpt lat="47.56669" lon="-3.10525">
        <time>2017-11-12T14:20:40.000Z</time>
      </trkpt>
      <trkpt lat="47.56667" lon="-3.10529">
        <time>2017-11-12T14:20:41.000Z</time>
      </trkpt>
      <trkpt lat="47.56666" lon="-3.10532">
        <time>2017-11-12T14:20:42.000Z</time>
      </trkpt>
      <trkpt lat="47.56665" lon="-3.10536">
        <time>2017-11-12T14:20:43.000Z</time>
      </trkpt>
      <trkpt lat="47.56664" lon="-3.1054">
        <time>2017-11-12T14:20:44.000Z</time>
      </trkpt>
      <trkpt lat="47.56663" lon="-3.10545">
        <time>2017-11-12T14:20:45.000Z</time>
      </trkpt>
      <trkpt lat="47.56661" lon="-3.1055">
        <time>2017-11-12T14:20:46.000Z</time>
      </trkpt>
      <trkpt lat="47.56658" lon="-3.10555">
        <time>2017-11-12T14:20:47.000Z</time>
      </trkpt>
      <trkpt lat="47.56656" lon="-3.10561">
        <time>2017-11-12T14:20:48.000Z</time>
      </trkpt>
      <trkpt lat="47.56654" lon="-3.10566">
        <time>2017-11-12T14:20:49.000Z</time>
      </trkpt>
      <trkpt lat="47.56652" lon="-3.10571">
        <time>2017-11-12T14:20:50.000Z</time>
      </trkpt>
      <trkpt lat="47.56651" lon="-3.10575">
        <time>2017-11-12T14:20:51.000Z</time>
      </trkpt>
      <trkpt lat="47.56648" lon="-3.10581">
        <time>2017-11-12T14:20:52.000Z</time>
      </trkpt>
      <trkpt lat="47.56646" lon="-3.10587">
        <time>2017-11-12T14:20:53.000Z</time>
      </trkpt>
      <trkpt lat="47.56645" lon="-3.10594">
        <time>2017-11-12T14:20:54.000Z</time>
      </trkpt>
      <trkpt lat="47.56643" lon="-3.10601">
        <time>2017-11-12T14:20:55.000Z</time>
      </trkpt>
      <trkpt lat="47.5664" lon="-3.10608">
        <time>2017-11-12T14:20:56.000Z</time>
      </trkpt>
      <trkpt lat="47.56637" lon="-3.10616">
        <time>2017-11-12T14:20:57.000Z</time>
      </trkpt>
      <trkpt lat="47.56633" lon="-3.10623">
        <time>2017-11-12T14:20:58.000Z</time>
      </trkpt>
      <trkpt lat="47.56629" lon="-3.10632">
        <time>2017-11-12T14:20:59.000Z</time>
      </trkpt>
      <trkpt lat="47.56626" lon="-3.10642">
        <time>2017-11-12T14:21:00.000Z</time>
      </trkpt>
      <trkpt lat="47.56623" lon="-3.10653">
        <time>2017-11-12T14:21:01.000Z</time>
      </trkpt>
      <trkpt lat="47.56619" lon="-3.10663">
        <time>2017-11-12T14:21:02.000Z</time>
      </trkpt>
      <trkpt lat="47.56614" lon="-3.10673">
        <time>2017-11-12T14:21:03.000Z</time>
      </trkpt>
      <trkpt lat="47.56607" lon="-3.10682">
        <time>2017-11-12T14:21:04.000Z</time>
      </trkpt>
      <trkpt lat="47.56601" lon="-3.10693">
        <time>2017-11-12T14:21:05.000Z</time>
      </trkpt>
      <trkpt lat="47.56592" lon="-3.10706">
        <time>2017-11-12T14:21:06.000Z</time>
      </trkpt>
      <trkpt lat="47.56585" lon="-3.10719">
        <time>2017-11-12T14:21:07.000Z</time>
      </trkpt>
      <trkpt lat="47.56578" lon="-3.10731">
        <time>2017-11-12T14:21:08.000Z</time>
      </trkpt>
      <trkpt lat="47.56572" lon="-3.10743">
        <time>2017-11-12T14:21:09.000Z</time>
      </trkpt>
      <trkpt lat="47.56563" lon="-3.10756">
        <time>2017-11-12T14:21:10.000Z</time>
      </trkpt>
      <trkpt lat="47.56555" lon="-3.10766">
        <time>2017-11-12T14:21:11.000Z</time>
      </trkpt>
      <trkpt lat="47.5655" lon="-3.10778">
        <time>2017-11-12T14:21:12.000Z</time>
      </trkpt>
      <trkpt lat="47.56544" lon="-3.1079">
        <time>2017-11-12T14:21:13.000Z</time>
      </trkpt>
      <trkpt lat="47.5654" lon="-3.10802">
        <time>2017-11-12T14:21:14.000Z</time>
      </trkpt>
      <trkpt lat="47.56534" lon="-3.10814">
        <time>2017-11-12T14:21:15.000Z</time>
      </trkpt>
      <trkpt lat="47.56529" lon="-3.10826">
        <time>2017-11-12T14:21:16.000Z</time>
      </trkpt>
      <trkpt lat="47.56526" lon="-3.10838">
        <time>2017-11-12T14:21:17.000Z</time>
      </trkpt>
      <trkpt lat="47.5652" lon="-3.1085">
        <time>2017-11-12T14:21:18.000Z</time>
      </trkpt>
      <trkpt lat="47.56515" lon="-3.10862">
        <time>2017-11-12T14:21:19.000Z</time>
      </trkpt>
      <trkpt lat="47.56509" lon="-3.10874">
        <time>2017-11-12T14:21:20.000Z</time>
      </trkpt>
      <trkpt lat="47.56503" lon="-3.10884">
        <time>2017-11-12T14:21:21.000Z</time>
      </trkpt>
      <trkpt lat="47.56497" lon="-3.10897">
        <time>2017-11-12T14:21:22.000Z</time>
      </trkpt>
      <trkpt lat="47.56491" lon="-3.10908">
        <time>2017-11-12T14:21:23.000Z</time>
      </trkpt>
      <trkpt lat="47.56486" lon="-3.10917">
        <time>2017-11-12T14:21:24.000Z</time>
      </trkpt>
      <trkpt lat="47.56477" lon="-3.10928">
        <time>2017-11-12T14:21:25.000Z</time>
      </trkpt>
      <trkpt lat="47.56471" lon="-3.10939">
        <time>2017-11-12T14:21:26.000Z</time>
      </trkpt>
      <trkpt lat="47.56464" lon="-3.1095">
        <time>2017-11-12T14:21:27.000Z</time>
      </trkpt>
      <trkpt lat="47.56459" lon="-3.10962">
        <time>2017-11-12T14:21:28.000Z</time>
      </trkpt>
      <trkpt lat="47.56453" lon="-3.10973">
        <time>2017-11-12T14:21:29.000Z</time>
      </trkpt>
      <trkpt lat="47.56447" lon="-3.10986">
        <time>2017-11-12T14:21:30.000Z</time>
      </trkpt>
      <trkpt lat="47.56443" lon="-3.10998">
        <time>2017-11-12T14:21:31.000Z</time>
      </trkpt>
      <trkpt lat="47.56439" lon="-3.11011">
        <time>2017-11-12T14:21:32.000Z</time>
      </trkpt>
      <trkpt lat="47.56436" lon="-3.11023">
        <time>2017-11-12T14:21:33.000Z</time>
      </trkpt>
      <trkpt lat="47.56434" lon="-3.11035">
        <time>2017-11-12T14:21:34.000Z</time>
      </trkpt>
      <trkpt lat="47.56431" lon="-3.11046">
        <time>2017-11-12T14:21:35.000Z</time>
      </trkpt>
      <trkpt lat="47.56429" lon="-3.11058">
        <time>2017-11-12T14:21:36.000Z</time>
      </trkpt>
      <trkpt lat="47.56427" lon="-3.11069">
        <time>2017-11-12T14:21:37.000Z</time>
      </trkpt>
      <trkpt lat="47.56425" lon="-3.11081">
        <time>2017-11-12T14:21:38.000Z</time>
      </trkpt>
      <trkpt lat="47.56423" lon="-3.11092">
        <time>2017-11-12T14:21:39.000Z</time>
      </trkpt>
      <trkpt lat="47.56422" lon="-3.11104">
        <time>2017-11-12T14:21:40.000Z</time>
      </trkpt>
      <trkpt lat="47.56419" lon="-3.11115">
        <time>2017-11-12T14:21:41.000Z</time>
      </trkpt>
      <trkpt lat="47.56416" lon="-3.11127">
        <time>2017-11-12T14:21:42.000Z</time>
      </trkpt>
      <trkpt lat="47.56413" lon="-3.11139">
        <time>2017-11-12T14:21:43.000Z</time>
      </trkpt>
      <trkpt lat="47.5641" lon="-3.11151">
        <time>2017-11-12T14:21:44.000Z</time>
      </trkpt>
      <trkpt lat="47.56407" lon="-3.11162">
        <time>2017-11-12T14:21:45.000Z</time>
      </trkpt>
      <trkpt lat="47.56403" lon="-3.11174">
        <time>2017-11-12T14:21:46.000Z</time>
      </trkpt>
      <trkpt lat="47.564" lon="-3.11186">
        <time>2017-11-12T14:21:47.000Z</time>
      </trkpt>
      <trkpt lat="47.56397" lon="-3.11199">
        <time>2017-11-12T14:21:48.000Z</time>
      </trkpt>
      <trkpt lat="47.56393" lon="-3.11211">
        <time>2017-11-12T14:21:49.000Z</time>
      </trkpt>
      <trkpt lat="47.56389" lon="-3.11222">
        <time>2017-11-12T14:21:50.000Z</time>
      </trkpt>
      <trkpt lat="47.56385" lon="-3.11233">
        <time>2017-11-12T14:21:51.000Z</time>
      </trkpt>
      <trkpt lat="47.56381" lon="-3.11244">
        <time>2017-11-12T14:21:52.000Z</time>
      </trkpt>
      <trkpt lat="47.56376" lon="-3.11255">
        <time>2017-11-12T14:21:53.000Z</time>
      </trkpt>
      <trkpt lat="47.56373" lon="-3.11266">
        <time>2017-11-12T14:21:54.000Z</time>
      </trkpt>
      <trkpt lat="47.56369" lon="-3.11277">
        <time>2017-11-12T14:21:55.000Z</time>
      </trkpt>
      <trkpt lat="47.56366" lon="-3.11288">
        <time>2017-11-12T14:21:56.000Z</time>
      </trkpt>
      <trkpt lat="47.56363" lon="-3.11298">
        <time>2017-11-12T14:21:57.000Z</time>
      </trkpt>
      <trkpt lat="47.56358" lon="-3.11308">
        <time>2017-11-12T14:21:58.000Z</time>
      </trkpt>
      <trkpt lat="47.56355" lon="-3.11318">
        <time>2017-11-12T14:21:59.000Z</time>
      </trkpt>
      <trkpt lat="47.56351" lon="-3.11328">
        <time>2017-11-12T14:22:00.000Z</time>
      </trkpt>
      <trkpt lat="47.56347" lon="-3.11338">
        <time>2017-11-12T14:22:01.000Z</time>
      </trkpt>
      <trkpt lat="47.56343" lon="-3.11347">
        <time>2017-11-12T14:22:02.000Z</time>
      </trkpt>
      <trkpt lat="47.56338" lon="-3.11355">
        <time>2017-11-12T14:22:03.000Z</time>
      </trkpt>
      <trkpt lat="47.56331" lon="-3.11359">
        <time>2017-11-12T14:22:04.000Z</time>
      </trkpt>
      <trkpt lat="47.56324" lon="-3.11362">
        <time>2017-11-12T14:22:05.000Z</time>
      </trkpt>
      <trkpt lat="47.56318" lon="-3.11363">
        <time>2017-11-12T14:22:06.000Z</time>
      </trkpt>
      <trkpt lat="47.56313" lon="-3.11362">
        <time>2017-11-12T14:22:07.000Z</time>
      </trkpt>
      <trkpt lat="47.5631" lon="-3.11361">
        <time>2017-11-12T14:22:08.000Z</time>
      </trkpt>
      <trkpt lat="47.5631" lon="-3.11359">
        <time>2017-11-12T14:22:09.000Z</time>
      </trkpt>
      <trkpt lat="47.56311" lon="-3.11358">
        <time>2017-11-12T14:22:10.000Z</time>
      </trkpt>
      <trkpt lat="47.56312" lon="-3.11356">
        <time>2017-11-12T14:22:11.000Z</time>
      </trkpt>
      <trkpt lat="47.56313" lon="-3.11354">
        <time>2017-11-12T14:22:12.000Z</time>
      </trkpt>
      <trkpt lat="47.56314" lon="-3.11351">
        <time>2017-11-12T14:22:13.000Z</time>
      </trkpt>
      <trkpt lat="47.56316" lon="-3.11349">
        <time>2017-11-12T14:22:14.000Z</time>
      </trkpt>
      <trkpt lat="47.56317" lon="-3.11346">
        <time>2017-11-12T14:22:15.000Z</time>
      </trkpt>
      <trkpt lat="47.56317" lon="-3.11341">
        <time>2017-11-12T14:22:16.000Z</time>
      </trkpt>
      <trkpt lat="47.56319" lon="-3.11337">
        <time>2017-11-12T14:22:17.000Z</time>
      </trkpt>
      <trkpt lat="47.5632" lon="-3.11333">
        <time>2017-11-12T14:22:18.000Z</time>
      </trkpt>
      <trkpt lat="47.5632" lon="-3.11329">
        <time>2017-11-12T14:22:19.000Z</time>
      </trkpt>
      <trkpt lat="47.56321" lon="-3.11324">
        <time>2017-11-12T14:22:20.000Z</time>
      </trkpt>
      <trkpt lat="47.56323" lon="-3.1132">
        <time>2017-11-12T14:22:21.000Z</time>
      </trkpt>
      <trkpt lat="47.56324" lon="-3.11317">
        <time>2017-11-12T14:22:22.000Z</time>
      </trkpt>
      <trkpt lat="47.56325" lon="-3.11313">
        <time>2017-11-12T14:22:23.000Z</time>
      </trkpt>
      <trkpt lat="47.56326" lon="-3.11308">
        <time>2017-11-12T14:22:24.000Z</time>
      </trkpt>
      <trkpt lat="47.56327" lon="-3.11305">
        <time>2017-11-12T14:22:25.000Z</time>
      </trkpt>
      <trkpt lat="47.56328" lon="-3.11302">
        <time>2017-11-12T14:22:26.000Z</time>
      </trkpt>
      <trkpt lat="47.56329" lon="-3.11298">
        <time>2017-11-12T14:22:27.000Z</time>
      </trkpt>
      <trkpt lat="47.56331" lon="-3.11295">
        <time>2017-11-12T14:22:28.000Z</time>
      </trkpt>
      <trkpt lat="47.56332" lon="-3.11292">
        <time>2017-11-12T14:22:29.000Z</time>
      </trkpt>
      <trkpt lat="47.56334" lon="-3.11288">
        <time>2017-11-12T14:22:30.000Z</time>
      </trkpt>
      <trkpt lat="47.56335" lon="-3.11284">
        <time>2017-11-12T14:22:31.000Z</time>
      </trkpt>
      <trkpt lat="47.56337" lon="-3.11278">
        <time>2017-11-12T14:22:32.000Z</time>
      </trkpt>
      <trkpt lat="47.56338" lon="-3.11273">
        <time>2017-11-12T14:22:33.000Z</time>
      </trkpt>
      <trkpt lat="47.5634" lon="-3.11268">
        <time>2017-11-12T14:22:34.000Z</time>
      </trkpt>
      <trkpt lat="47.56343" lon="-3.11263">
        <time>2017-11-12T14:22:35.000Z</time>
      </trkpt>
      <trkpt lat="47.56345" lon="-3.11258">
        <time>2017-11-12T14:22:36.000Z</time>
      </trkpt>
      <trkpt lat="47.56347" lon="-3.11254">
        <time>2017-11-12T14:22:37.000Z</time>
      </trkpt>
      <trkpt lat="47.56348" lon="-3.1125">
        <time>2017-11-12T14:22:38.000Z</time>
      </trkpt>
      <trkpt lat="47.5635" lon="-3.11245">
        <time>2017-11-12T14:22:39.000Z</time>
      </trkpt>
      <trkpt lat="47.56352" lon="-3.11241">
        <time>2017-11-12T14:22:40.000Z</time>
      </trkpt>
      <trkpt lat="47.56354" lon="-3.11237">
        <time>2017-11-12T14:22:41.000Z</time>
      </trkpt>
      <trkpt lat="47.56355" lon="-3.11233">
        <time>2017-11-12T14:22:42.000Z</time>
      </trkpt>
      <trkpt lat="47.56357" lon="-3.1123">
        <time>2017-11-12T14:22:43.000Z</time>
      </trkpt>
      <trkpt lat="47.56359" lon="-3.11226">
        <time>2017-11-12T14:22:44.000Z</time>
      </trkpt>
      <trkpt lat="47.56361" lon="-3.11222">
        <time>2017-11-12T14:22:45.000Z</time>
      </trkpt>
      <trkpt lat="47.56363" lon="-3.11218">
        <time>2017-11-12T14:22:46.000Z</time>
      </trkpt>
      <trkpt lat="47.56364" lon="-3.11214">
        <time>2017-11-12T14:22:47.000Z</time>
      </trkpt>
      <trkpt lat="47.56366" lon="-3.1121">
        <time>2017-11-12T14:22:48.000Z</time>
      </trkpt>
      <trkpt lat="47.56368" lon="-3.11205">
        <time>2017-11-12T14:22:49.000Z</time>
      </trkpt>
      <trkpt lat="47.5637" lon="-3.112">
        <time>2017-11-12T14:22:50.000Z</time>
      </trkpt>
      <trkpt lat="47.56372" lon="-3.11195">
        <time>2017-11-12T14:22:51.000Z</time>
      </trkpt>
      <trkpt lat="47.56373" lon="-3.1119">
        <time>2017-11-12T14:22:52.000Z</time>
      </trkpt>
      <trkpt lat="47.56375" lon="-3.11186">
        <time>2017-11-12T14:22:53.000Z</time>
      </trkpt>
      <trkpt lat="47.56377" lon="-3.11183">
        <time>2017-11-12T14:22:54.000Z</time>
      </trkpt>
      <trkpt lat="47.56378" lon="-3.1118">
        <time>2017-11-12T14:22:55.000Z</time>
      </trkpt>
      <trkpt lat="47.56379" lon="-3.11176">
        <time>2017-11-12T14:22:56.000Z</time>
      </trkpt>
      <trkpt lat="47.5638" lon="-3.11174">
        <time>2017-11-12T14:22:57.000Z</time>
      </trkpt>
      <trkpt lat="47.56382" lon="-3.11172">
        <time>2017-11-12T14:22:58.000Z</time>
      </trkpt>
      <trkpt lat="47.56383" lon="-3.11169">
        <time>2017-11-12T14:22:59.000Z</time>
      </trkpt>
      <trkpt lat="47.56385" lon="-3.11165">
        <time>2017-11-12T14:23:00.000Z</time>
      </trkpt>
      <trkpt lat="47.56387" lon="-3.11161">
        <time>2017-11-12T14:23:01.000Z</time>
      </trkpt>
      <trkpt lat="47.56389" lon="-3.11158">
        <time>2017-11-12T14:23:02.000Z</time>
      </trkpt>
      <trkpt lat="47.5639" lon="-3.11154">
        <time>2017-11-12T14:23:03.000Z</time>
      </trkpt>
      <trkpt lat="47.56391" lon="-3.11148">
        <time>2017-11-12T14:23:04.000Z</time>
      </trkpt>
      <trkpt lat="47.56393" lon="-3.11142">
        <time>2017-11-12T14:23:05.000Z</time>
      </trkpt>
      <trkpt lat="47.56395" lon="-3.11136">
        <time>2017-11-12T14:23:06.000Z</time>
      </trkpt>
      <trkpt lat="47.56396" lon="-3.1113">
        <time>2017-11-12T14:23:07.000Z</time>
      </trkpt>
      <trkpt lat="47.56398" lon="-3.11123">
        <time>2017-11-12T14:23:08.000Z</time>
      </trkpt>
      <trkpt lat="47.56399" lon="-3.11115">
        <time>2017-11-12T14:23:09.000Z</time>
      </trkpt>
      <trkpt lat="47.56401" lon="-3.11107">
        <time>2017-11-12T14:23:10.000Z</time>
      </trkpt>
      <trkpt lat="47.56403" lon="-3.11099">
        <time>2017-11-12T14:23:11.000Z</time>
      </trkpt>
      <trkpt lat="47.56404" lon="-3.11091">
        <time>2017-11-12T14:23:12.000Z</time>
      </trkpt>
      <trkpt lat="47.56406" lon="-3.11082">
        <time>2017-11-12T14:23:13.000Z</time>
      </trkpt>
      <trkpt lat="47.56408" lon="-3.11074">
        <time>2017-11-12T14:23:14.000Z</time>
      </trkpt>
      <trkpt lat="47.5641" lon="-3.11065">
        <time>2017-11-12T14:23:15.000Z</time>
      </trkpt>
      <trkpt lat="47.56413" lon="-3.11056">
        <time>2017-11-12T14:23:16.000Z</time>
      </trkpt>
      <trkpt lat="47.56416" lon="-3.11046">
        <time>2017-11-12T14:23:17.000Z</time>
      </trkpt>
      <trkpt lat="47.56419" lon="-3.11036">
        <time>2017-11-12T14:23:18.000Z</time>
      </trkpt>
      <trkpt lat="47.56422" lon="-3.11027">
        <time>2017-11-12T14:23:19.000Z</time>
      </trkpt>
      <trkpt lat="47.56425" lon="-3.11018">
        <time>2017-11-12T14:23:20.000Z</time>
      </trkpt>
      <trkpt lat="47.56429" lon="-3.11008">
        <time>2017-11-12T14:23:21.000Z</time>
      </trkpt>
      <trkpt lat="47.56432" lon="-3.10999">
        <time>2017-11-12T14:23:22.000Z</time>
      </trkpt>
      <trkpt lat="47.56436" lon="-3.1099">
        <time>2017-11-12T14:23:23.000Z</time>
      </trkpt>
      <trkpt lat="47.56439" lon="-3.10981">
        <time>2017-11-12T14:23:24.000Z</time>
      </trkpt>
      <trkpt lat="47.56442" lon="-3.10972">
        <time>2017-11-12T14:23:25.000Z</time>
      </trkpt>
      <trkpt lat="47.56444" lon="-3.10962">
        <time>2017-11-12T14:23:26.000Z</time>
      </trkpt>
      <trkpt lat="47.56447" lon="-3.10952">
        <time>2017-11-12T14:23:27.000Z</time>
      </trkpt>
      <trkpt lat="47.5645" lon="-3.10942">
        <time>2017-11-12T14:23:28.000Z</time>
      </trkpt>
      <trkpt lat="47.56453" lon="-3.10932">
        <time>2017-11-12T14:23:29.000Z</time>
      </trkpt>
      <trkpt lat="47.56456" lon="-3.10922">
        <time>2017-11-12T14:23:30.000Z</time>
      </trkpt>
      <trkpt lat="47.56459" lon="-3.10912">
        <time>2017-11-12T14:23:31.000Z</time>
      </trkpt>
      <trkpt lat="47.56462" lon="-3.10902">
        <time>2017-11-12T14:23:32.000Z</time>
      </trkpt>
      <trkpt lat="47.56466" lon="-3.10892">
        <time>2017-11-12T14:23:33.000Z</time>
      </trkpt>
      <trkpt lat="47.56469" lon="-3.10882">
        <time>2017-11-12T14:23:34.000Z</time>
      </trkpt>
      <trkpt lat="47.56473" lon="-3.10872">
        <time>2017-11-12T14:23:35.000Z</time>
      </trkpt>
      <trkpt lat="47.56476" lon="-3.10862">
        <time>2017-11-12T14:23:36.000Z</time>
      </trkpt>
      <trkpt lat="47.56479" lon="-3.10852">
        <time>2017-11-12T14:23:37.000Z</time>
      </trkpt>
      <trkpt lat="47.56483" lon="-3.10842">
        <time>2017-11-12T14:23:38.000Z</time>
      </trkpt>
      <trkpt lat="47.56485" lon="-3.10832">
        <time>2017-11-12T14:23:39.000Z</time>
      </trkpt>
      <trkpt lat="47.56488" lon="-3.10821">
        <time>2017-11-12T14:23:40.000Z</time>
      </trkpt>
      <trkpt lat="47.56491" lon="-3.1081">
        <time>2017-11-12T14:23:41.000Z</time>
      </trkpt>
      <trkpt lat="47.56494" lon="-3.10799">
        <time>2017-11-12T14:23:42.000Z</time>
      </trkpt>
      <trkpt lat="47.56497" lon="-3.10789">
        <time>2017-11-12T14:23:43.000Z</time>
      </trkpt>
      <trkpt lat="47.56501" lon="-3.10778">
        <time>2017-11-12T14:23:44.000Z</time>
      </trkpt>
      <trkpt lat="47.56504" lon="-3.10767">
        <time>2017-11-12T14:23:45.000Z</time>
      </trkpt>
      <trkpt lat="47.56507" lon="-3.10756">
        <time>2017-11-12T14:23:46.000Z</time>
      </trkpt>
      <trkpt lat="47.5651" lon="-3.10744">
        <time>2017-11-12T14:23:47.000Z</time>
      </trkpt>
      <trkpt lat="47.56513" lon="-3.10733">
        <time>2017-11-12T14:23:48.000Z</time>
      </trkpt>
      <trkpt lat="47.56516" lon="-3.10723">
        <time>2017-11-12T14:23:49.000Z</time>
      </trkpt>
      <trkpt lat="47.5652" lon="-3.10712">
        <time>2017-11-12T14:23:50.000Z</time>
      </trkpt>
      <trkpt lat="47.56524" lon="-3.10702">
        <time>2017-11-12T14:23:51.000Z</time>
      </trkpt>
      <trkpt lat="47.56528" lon="-3.10692">
        <time>2017-11-12T14:23:52.000Z</time>
      </trkpt>
      <trkpt lat="47.56531" lon="-3.10683">
        <time>2017-11-12T14:23:53.000Z</time>
      </trkpt>
      <trkpt lat="47.56535" lon="-3.10673">
        <time>2017-11-12T14:23:54.000Z</time>
      </trkpt>
      <trkpt lat="47.56539" lon="-3.10663">
        <time>2017-11-12T14:23:55.000Z</time>
      </trkpt>
      <trkpt lat="47.56543" lon="-3.10653">
        <time>2017-11-12T14:23:56.000Z</time>
      </trkpt>
      <trkpt lat="47.56546" lon="-3.10642">
        <time>2017-11-12T14:23:57.000Z</time>
      </trkpt>
      <trkpt lat="47.5655" lon="-3.10632">
        <time>2017-11-12T14:23:58.000Z</time>
      </trkpt>
      <trkpt lat="47.56554" lon="-3.10622">
        <time>2017-11-12T14:23:59.000Z</time>
      </trkpt>
      <trkpt lat="47.56558" lon="-3.10611">
        <time>2017-11-12T14:24:00.000Z</time>
      </trkpt>
      <trkpt lat="47.56562" lon="-3.10601">
        <time>2017-11-12T14:24:01.000Z</time>
      </trkpt>
      <trkpt lat="47.56567" lon="-3.10591">
        <time>2017-11-12T14:24:02.000Z</time>
      </trkpt>
      <trkpt lat="47.56572" lon="-3.10581">
        <time>2017-11-12T14:24:03.000Z</time>
      </trkpt>
      <trkpt lat="47.56576" lon="-3.10571">
        <time>2017-11-12T14:24:04.000Z</time>
      </trkpt>
      <trkpt lat="47.56583" lon="-3.10563">
        <time>2017-11-12T14:24:05.000Z</time>
      </trkpt>
      <trkpt lat="47.56587" lon="-3.10553">
        <time>2017-11-12T14:24:06.000Z</time>
      </trkpt>
      <trkpt lat="47.56592" lon="-3.10544">
        <time>2017-11-12T14:24:07.000Z</time>
      </trkpt>
      <trkpt lat="47.56597" lon="-3.10534">
        <time>2017-11-12T14:24:08.000Z</time>
      </trkpt>
      <trkpt lat="47.56601" lon="-3.10526">
        <time>2017-11-12T14:24:09.000Z</time>
      </trkpt>
      <trkpt lat="47.56606" lon="-3.10516">
        <time>2017-11-12T14:24:10.000Z</time>
      </trkpt>
      <trkpt lat="47.56611" lon="-3.10507">
        <time>2017-11-12T14:24:11.000Z</time>
      </trkpt>
      <trkpt lat="47.56617" lon="-3.10499">
        <time>2017-11-12T14:24:12.000Z</time>
      </trkpt>
      <trkpt lat="47.56622" lon="-3.10491">
        <time>2017-11-12T14:24:13.000Z</time>
      </trkpt>
      <trkpt lat="47.56627" lon="-3.10482">
        <time>2017-11-12T14:24:14.000Z</time>
      </trkpt>
      <trkpt lat="47.56632" lon="-3.10474">
        <time>2017-11-12T14:24:15.000Z</time>
      </trkpt>
      <trkpt lat="47.56637" lon="-3.10464">
        <time>2017-11-12T14:24:16.000Z</time>
      </trkpt>
      <trkpt lat="47.5664" lon="-3.10455">
        <time>2017-11-12T14:24:17.000Z</time>
      </trkpt>
      <trkpt lat="47.56644" lon="-3.10445">
        <time>2017-11-12T14:24:18.000Z</time>
      </trkpt>
      <trkpt lat="47.56647" lon="-3.10435">
        <time>2017-11-12T14:24:19.000Z</time>
      </trkpt>
      <trkpt lat="47.56649" lon="-3.10424">
        <time>2017-11-12T14:24:20.000Z</time>
      </trkpt>
      <trkpt lat="47.56652" lon="-3.10413">
        <time>2017-11-12T14:24:21.000Z</time>
      </trkpt>
      <trkpt lat="47.56655" lon="-3.10402">
        <time>2017-11-12T14:24:22.000Z</time>
      </trkpt>
      <trkpt lat="47.56657" lon="-3.10391">
        <time>2017-11-12T14:24:23.000Z</time>
      </trkpt>
      <trkpt lat="47.56656" lon="-3.10383">
        <time>2017-11-12T14:24:24.000Z</time>
      </trkpt>
      <trkpt lat="47.56654" lon="-3.10375">
        <time>2017-11-12T14:24:25.000Z</time>
      </trkpt>
      <trkpt lat="47.56648" lon="-3.10368">
        <time>2017-11-12T14:24:26.000Z</time>
      </trkpt>
      <trkpt lat="47.56643" lon="-3.10362">
        <time>2017-11-12T14:24:27.000Z</time>
      </trkpt>
      <trkpt lat="47.56637" lon="-3.10358">
        <time>2017-11-12T14:24:28.000Z</time>
      </trkpt>
      <trkpt lat="47.56632" lon="-3.10355">
        <time>2017-11-12T14:24:29.000Z</time>
      </trkpt>
      <trkpt lat="47.56629" lon="-3.10354">
        <time>2017-11-12T14:24:30.000Z</time>
      </trkpt>
      <trkpt lat="47.56627" lon="-3.10355">
        <time>2017-11-12T14:24:31.000Z</time>
      </trkpt>
      <trkpt lat="47.56626" lon="-3.10357">
        <time>2017-11-12T14:24:32.000Z</time>
      </trkpt>
      <trkpt lat="47.56625" lon="-3.1036">
        <time>2017-11-12T14:24:33.000Z</time>
      </trkpt>
      <trkpt lat="47.56624" lon="-3.10364">
        <time>2017-11-12T14:24:34.000Z</time>
      </trkpt>
      <trkpt lat="47.56622" lon="-3.10368">
        <time>2017-11-12T14:24:35.000Z</time>
      </trkpt>
      <trkpt lat="47.56621" lon="-3.10372">
        <time>2017-11-12T14:24:36.000Z</time>
      </trkpt>
      <trkpt lat="47.5662" lon="-3.10376">
        <time>2017-11-12T14:24:37.000Z</time>
      </trkpt>
      <trkpt lat="47.56618" lon="-3.10382">
        <time>2017-11-12T14:24:38.000Z</time>
      </trkpt>
      <trkpt lat="47.56616" lon="-3.10388">
        <time>2017-11-12T14:24:39.000Z</time>
      </trkpt>
      <trkpt lat="47.56614" lon="-3.10395">
        <time>2017-11-12T14:24:40.000Z</time>
      </trkpt>
      <trkpt lat="47.56612" lon="-3.10403">
        <time>2017-11-12T14:24:41.000Z</time>
      </trkpt>
      <trkpt lat="47.56609" lon="-3.10411">
        <time>2017-11-12T14:24:42.000Z</time>
      </trkpt>
      <trkpt lat="47.56607" lon="-3.1042">
        <time>2017-11-12T14:24:43.000Z</time>
      </trkpt>
      <trkpt lat="47.56604" lon="-3.10431">
        <time>2017-11-12T14:24:44.000Z</time>
      </trkpt>
      <trkpt lat="47.56601" lon="-3.10441">
        <time>2017-11-12T14:24:45.000Z</time>
      </trkpt>
      <trkpt lat="47.56598" lon="-3.10452">
        <time>2017-11-12T14:24:46.000Z</time>
      </trkpt>
      <trkpt lat="47.56595" lon="-3.10464">
        <time>2017-11-12T14:24:47.000Z</time>
      </trkpt>
      <trkpt lat="47.56592" lon="-3.10477">
        <time>2017-11-12T14:24:48.000Z</time>
      </trkpt>
      <trkpt lat="47.56589" lon="-3.10489">
        <time>2017-11-12T14:24:49.000Z</time>
      </trkpt>
      <trkpt lat="47.56587" lon="-3.10502">
        <time>2017-11-12T14:24:50.000Z</time>
      </trkpt>
      <trkpt lat="47.56584" lon="-3.10515">
        <time>2017-11-12T14:24:51.000Z</time>
      </trkpt>
      <trkpt lat="47.56581" lon="-3.10529">
        <time>2017-11-12T14:24:52.000Z</time>
      </trkpt>
      <trkpt lat="47.56577" lon="-3.10542">
        <time>2017-11-12T14:24:53.000Z</time>
      </trkpt>
      <trkpt lat="47.56573" lon="-3.10557">
        <time>2017-11-12T14:24:54.000Z</time>
      </trkpt>
      <trkpt lat="47.5657" lon="-3.10571">
        <time>2017-11-12T14:24:55.000Z</time>
      </trkpt>
      <trkpt lat="47.56566" lon="-3.10583">
        <time>2017-11-12T14:24:56.000Z</time>
      </trkpt>
      <trkpt lat="47.56562" lon="-3.10596">
        <time>2017-11-12T14:24:57.000Z</time>
      </trkpt>
      <trkpt lat="47.56559" lon="-3.10609">
        <time>2017-11-12T14:24:58.000Z</time>
      </trkpt>
      <trkpt lat="47.56556" lon="-3.10621">
        <time>2017-11-12T14:24:59.000Z</time>
      </trkpt>
      <trkpt lat="47.56553" lon="-3.10635">
        <time>2017-11-12T14:25:00.000Z</time>
      </trkpt>
      <trkpt lat="47.56549" lon="-3.10647">
        <time>2017-11-12T14:25:01.000Z</time>
      </trkpt>
      <trkpt lat="47.56546" lon="-3.10659">
        <time>2017-11-12T14:25:02.000Z</time>
      </trkpt>
      <trkpt lat="47.56542" lon="-3.10671">
        <time>2017-11-12T14:25:03.000Z</time>
      </trkpt>
      <trkpt lat="47.56538" lon="-3.10683">
        <time>2017-11-12T14:25:04.000Z</time>
      </trkpt>
      <trkpt lat="47.56535" lon="-3.10696">
        <time>2017-11-12T14:25:05.000Z</time>
      </trkpt>
      <trkpt lat="47.56531" lon="-3.10709">
        <time>2017-11-12T14:25:06.000Z</time>
      </trkpt>
      <trkpt lat="47.56528" lon="-3.1072">
        <time>2017-11-12T14:25:07.000Z</time>
      </trkpt>
      <trkpt lat="47.56524" lon="-3.10732">
        <time>2017-11-12T14:25:08.000Z</time>
      </trkpt>
      <trkpt lat="47.56521" lon="-3.10746">
        <time>2017-11-12T14:25:09.000Z</time>
      </trkpt>
      <trkpt lat="47.56517" lon="-3.10759">
        <time>2017-11-12T14:25:10.000Z</time>
      </trkpt>
      <trkpt lat="47.56512" lon="-3.10773">
        <time>2017-11-12T14:25:11.000Z</time>
      </trkpt>
      <trkpt lat="47.56508" lon="-3.10786">
        <time>2017-11-12T14:25:12.000Z</time>
      </trkpt>
      <trkpt lat="47.56504" lon="-3.10799">
        <time>2017-11-12T14:25:13.000Z</time>
      </trkpt>
      <trkpt lat="47.565" lon="-3.10812">
        <time>2017-11-12T14:25:14.000Z</time>
      </trkpt>
      <trkpt lat="47.56495" lon="-3.10825">
        <time>2017-11-12T14:25:15.000Z</time>
      </trkpt>
      <trkpt lat="47.56495" lon="-3.10839">
        <time>2017-11-12T14:25:16.000Z</time>
      </trkpt>
      <trkpt lat="47.56493" lon="-3.10851">
        <time>2017-11-12T14:25:17.000Z</time>
      </trkpt>
      <trkpt lat="47.56492" lon="-3.10863">
        <time>2017-11-12T14:25:18.000Z</time>
      </trkpt>
      <trkpt lat="47.56491" lon="-3.10879">
        <time>2017-11-12T14:25:19.000Z</time>
      </trkpt>
      <trkpt lat="47.5649" lon="-3.10892">
        <time>2017-11-12T14:25:20.000Z</time>
      </trkpt>
      <trkpt lat="47.56487" lon="-3.10905">
        <time>2017-11-12T14:25:21.000Z</time>
      </trkpt>
      <trkpt lat="47.56485" lon="-3.10918">
        <time>2017-11-12T14:25:22.000Z</time>
      </trkpt>
      <trkpt lat="47.56481" lon="-3.10931">
        <time>2017-11-12T14:25:23.000Z</time>
      </trkpt>
      <trkpt lat="47.56476" lon="-3.10944">
        <time>2017-11-12T14:25:24.000Z</time>
      </trkpt>
      <trkpt lat="47.56471" lon="-3.10958">
        <time>2017-11-12T14:25:25.000Z</time>
      </trkpt>
      <trkpt lat="47.56468" lon="-3.10971">
        <time>2017-11-12T14:25:26.000Z</time>
      </trkpt>
      <trkpt lat="47.56465" lon="-3.10985">
        <time>2017-11-12T14:25:27.000Z</time>
      </trkpt>
      <trkpt lat="47.56462" lon="-3.10996">
        <time>2017-11-12T14:25:28.000Z</time>
      </trkpt>
      <trkpt lat="47.5646" lon="-3.11008">
        <time>2017-11-12T14:25:29.000Z</time>
      </trkpt>
      <trkpt lat="47.56459" lon="-3.11022">
        <time>2017-11-12T14:25:30.000Z</time>
      </trkpt>
      <trkpt lat="47.56457" lon="-3.11037">
        <time>2017-11-12T14:25:31.000Z</time>
      </trkpt>
      <trkpt lat="47.56456" lon="-3.11051">
        <time>2017-11-12T14:25:32.000Z</time>
      </trkpt>
      <trkpt lat="47.56455" lon="-3.11065">
        <time>2017-11-12T14:25:33.000Z</time>
      </trkpt>
      <trkpt lat="47.56453" lon="-3.1108">
        <time>2017-11-12T14:25:34.000Z</time>
      </trkpt>
      <trkpt lat="47.56452" lon="-3.11094">
        <time>2017-11-12T14:25:35.000Z</time>
      </trkpt>
      <trkpt lat="47.56451" lon="-3.11108">
        <time>2017-11-12T14:25:36.000Z</time>
      </trkpt>
      <trkpt lat="47.5645" lon="-3.11122">
        <time>2017-11-12T14:25:37.000Z</time>
      </trkpt>
      <trkpt lat="47.56449" lon="-3.11135">
        <time>2017-11-12T14:25:38.000Z</time>
      </trkpt>
      <trkpt lat="47.56447" lon="-3.11149">
        <time>2017-11-12T14:25:39.000Z</time>
      </trkpt>
      <trkpt lat="47.56446" lon="-3.11162">
        <time>2017-11-12T14:25:40.000Z</time>
      </trkpt>
      <trkpt lat="47.56445" lon="-3.11175">
        <time>2017-11-12T14:25:41.000Z</time>
      </trkpt>
      <trkpt lat="47.56443" lon="-3.11188">
        <time>2017-11-12T14:25:42.000Z</time>
      </trkpt>
      <trkpt lat="47.56442" lon="-3.112">
        <time>2017-11-12T14:25:43.000Z</time>
      </trkpt>
      <trkpt lat="47.56442" lon="-3.11213">
        <time>2017-11-12T14:25:44.000Z</time>
      </trkpt>
      <trkpt lat="47.5644" lon="-3.11225">
        <time>2017-11-12T14:25:45.000Z</time>
      </trkpt>
      <trkpt lat="47.56439" lon="-3.11237">
        <time>2017-11-12T14:25:46.000Z</time>
      </trkpt>
      <trkpt lat="47.56437" lon="-3.11249">
        <time>2017-11-12T14:25:47.000Z</time>
      </trkpt>
      <trkpt lat="47.56434" lon="-3.11261">
        <time>2017-11-12T14:25:48.000Z</time>
      </trkpt>
      <trkpt lat="47.56432" lon="-3.11274">
        <time>2017-11-12T14:25:49.000Z</time>
      </trkpt>
      <trkpt lat="47.5643" lon="-3.11286">
        <time>2017-11-12T14:25:50.000Z</time>
      </trkpt>
      <trkpt lat="47.56428" lon="-3.11298">
        <time>2017-11-12T14:25:51.000Z</time>
      </trkpt>
      <trkpt lat="47.56426" lon="-3.1131">
        <time>2017-11-12T14:25:52.000Z</time>
      </trkpt>
      <trkpt lat="47.56425" lon="-3.11322">
        <time>2017-11-12T14:25:53.000Z</time>
      </trkpt>
      <trkpt lat="47.56422" lon="-3.11334">
        <time>2017-11-12T14:25:54.000Z</time>
      </trkpt>
      <trkpt lat="47.5642" lon="-3.11346">
        <time>2017-11-12T14:25:55.000Z</time>
      </trkpt>
      <trkpt lat="47.56417" lon="-3.11359">
        <time>2017-11-12T14:25:56.000Z</time>
      </trkpt>
      <trkpt lat="47.56413" lon="-3.1137">
        <time>2017-11-12T14:25:57.000Z</time>
      </trkpt>
      <trkpt lat="47.56409" lon="-3.11382">
        <time>2017-11-12T14:25:58.000Z</time>
      </trkpt>
      <trkpt lat="47.56403" lon="-3.11391">
        <time>2017-11-12T14:25:59.000Z</time>
      </trkpt>
      <trkpt lat="47.56396" lon="-3.11396">
        <time>2017-11-12T14:26:00.000Z</time>
      </trkpt>
      <trkpt lat="47.5639" lon="-3.11399">
        <time>2017-11-12T14:26:01.000Z</time>
      </trkpt>
      <trkpt lat="47.56384" lon="-3.114">
        <time>2017-11-12T14:26:02.000Z</time>
      </trkpt>
      <trkpt lat="47.56381" lon="-3.11398">
        <time>2017-11-12T14:26:03.000Z</time>
      </trkpt>
      <trkpt lat="47.5638" lon="-3.11396">
        <time>2017-11-12T14:26:04.000Z</time>
      </trkpt>
      <trkpt lat="47.5638" lon="-3.11394">
        <time>2017-11-12T14:26:05.000Z</time>
      </trkpt>
      <trkpt lat="47.56381" lon="-3.11393">
        <time>2017-11-12T14:26:06.000Z</time>
      </trkpt>
      <trkpt lat="47.5638" lon="-3.11392">
        <time>2017-11-12T14:26:07.000Z</time>
      </trkpt>
      <trkpt lat="47.56381" lon="-3.1139">
        <time>2017-11-12T14:26:08.000Z</time>
      </trkpt>
      <trkpt lat="47.56382" lon="-3.11388">
        <time>2017-11-12T14:26:09.000Z</time>
      </trkpt>
      <trkpt lat="47.56383" lon="-3.11385">
        <time>2017-11-12T14:26:10.000Z</time>
      </trkpt>
      <trkpt lat="47.56385" lon="-3.11381">
        <time>2017-11-12T14:26:11.000Z</time>
      </trkpt>
      <trkpt lat="47.56387" lon="-3.11377">
        <time>2017-11-12T14:26:12.000Z</time>
      </trkpt>
      <trkpt lat="47.56388" lon="-3.11373">
        <time>2017-11-12T14:26:13.000Z</time>
      </trkpt>
      <trkpt lat="47.5639" lon="-3.11369">
        <time>2017-11-12T14:26:14.000Z</time>
      </trkpt>
      <trkpt lat="47.56392" lon="-3.11364">
        <time>2017-11-12T14:26:15.000Z</time>
      </trkpt>
      <trkpt lat="47.56393" lon="-3.11356">
        <time>2017-11-12T14:26:16.000Z</time>
      </trkpt>
      <trkpt lat="47.56395" lon="-3.11349">
        <time>2017-11-12T14:26:17.000Z</time>
      </trkpt>
      <trkpt lat="47.56398" lon="-3.11343">
        <time>2017-11-12T14:26:18.000Z</time>
      </trkpt>
      <trkpt lat="47.564" lon="-3.11336">
        <time>2017-11-12T14:26:19.000Z</time>
      </trkpt>
      <trkpt lat="47.56402" lon="-3.11328">
        <time>2017-11-12T14:26:20.000Z</time>
      </trkpt>
      <trkpt lat="47.56404" lon="-3.11321">
        <time>2017-11-12T14:26:21.000Z</time>
      </trkpt>
      <trkpt lat="47.56406" lon="-3.11313">
        <time>2017-11-12T14:26:22.000Z</time>
      </trkpt>
      <trkpt lat="47.56408" lon="-3.11306">
        <time>2017-11-12T14:26:23.000Z</time>
      </trkpt>
      <trkpt lat="47.5641" lon="-3.11298">
        <time>2017-11-12T14:26:24.000Z</time>
      </trkpt>
      <trkpt lat="47.56412" lon="-3.1129">
        <time>2017-11-12T14:26:25.000Z</time>
      </trkpt>
      <trkpt lat="47.56415" lon="-3.11281">
        <time>2017-11-12T14:26:26.000Z</time>
      </trkpt>
      <trkpt lat="47.56418" lon="-3.11274">
        <time>2017-11-12T14:26:27.000Z</time>
      </trkpt>
      <trkpt lat="47.56421" lon="-3.11266">
        <time>2017-11-12T14:26:28.000Z</time>
      </trkpt>
      <trkpt lat="47.56424" lon="-3.11258">
        <time>2017-11-12T14:26:29.000Z</time>
      </trkpt>
      <trkpt lat="47.56427" lon="-3.1125">
        <time>2017-11-12T14:26:30.000Z</time>
      </trkpt>
      <trkpt lat="47.56431" lon="-3.11242">
        <time>2017-11-12T14:26:31.000Z</time>
      </trkpt>
      <trkpt lat="47.56434" lon="-3.11234">
        <time>2017-11-12T14:26:32.000Z</time>
      </trkpt>
      <trkpt lat="47.56438" lon="-3.11225">
        <time>2017-11-12T14:26:33.000Z</time>
      </trkpt>
      <trkpt lat="47.56442" lon="-3.11217">
        <time>2017-11-12T14:26:34.000Z</time>
      </trkpt>
      <trkpt lat="47.56445" lon="-3.11209">
        <time>2017-11-12T14:26:35.000Z</time>
      </trkpt>
      <trkpt lat="47.56449" lon="-3.11201">
        <time>2017-11-12T14:26:36.000Z</time>
      </trkpt>
      <trkpt lat="47.56453" lon="-3.11192">
        <time>2017-11-12T14:26:37.000Z</time>
      </trkpt>
      <trkpt lat="47.56457" lon="-3.11183">
        <time>2017-11-12T14:26:38.000Z</time>
      </trkpt>
      <trkpt lat="47.5646" lon="-3.11174">
        <time>2017-11-12T14:26:39.000Z</time>
      </trkpt>
      <trkpt lat="47.56462" lon="-3.11165">
        <time>2017-11-12T14:26:40.000Z</time>
      </trkpt>
      <trkpt lat="47.56465" lon="-3.11155">
        <time>2017-11-12T14:26:41.000Z</time>
      </trkpt>
      <trkpt lat="47.56468" lon="-3.11145">
        <time>2017-11-12T14:26:42.000Z</time>
      </trkpt>
      <trkpt lat="47.56471" lon="-3.11136">
        <time>2017-11-12T14:26:43.000Z</time>
      </trkpt>
      <trkpt lat="47.56474" lon="-3.11127">
        <time>2017-11-12T14:26:44.000Z</time>
      </trkpt>
      <trkpt lat="47.56477" lon="-3.11118">
        <time>2017-11-12T14:26:45.000Z</time>
      </trkpt>
      <trkpt lat="47.56481" lon="-3.1111">
        <time>2017-11-12T14:26:46.000Z</time>
      </trkpt>
      <trkpt lat="47.56485" lon="-3.11101">
        <time>2017-11-12T14:26:47.000Z</time>
      </trkpt>
      <trkpt lat="47.56489" lon="-3.11092">
        <time>2017-11-12T14:26:48.000Z</time>
      </trkpt>
      <trkpt lat="47.56493" lon="-3.11084">
        <time>2017-11-12T14:26:49.000Z</time>
      </trkpt>
      <trkpt lat="47.56498" lon="-3.11076">
        <time>2017-11-12T14:26:50.000Z</time>
      </trkpt>
      <trkpt lat="47.56502" lon="-3.11069">
        <time>2017-11-12T14:26:51.000Z</time>
      </trkpt>
      <trkpt lat="47.56505" lon="-3.11061">
        <time>2017-11-12T14:26:52.000Z</time>
      </trkpt>
      <trkpt lat="47.56508" lon="-3.11054">
        <time>2017-11-12T14:26:53.000Z</time>
      </trkpt>
      <trkpt lat="47.56511" lon="-3.11045">
        <time>2017-11-12T14:26:54.000Z</time>
      </trkpt>
      <trkpt lat="47.56516" lon="-3.11038">
        <time>2017-11-12T14:26:55.000Z</time>
      </trkpt>
      <trkpt lat="47.5652" lon="-3.1103">
        <time>2017-11-12T14:26:56.000Z</time>
      </trkpt>
      <trkpt lat="47.56523" lon="-3.11021">
        <time>2017-11-12T14:26:57.000Z</time>
      </trkpt>
      <trkpt lat="47.56527" lon="-3.11012">
        <time>2017-11-12T14:26:58.000Z</time>
      </trkpt>
      <trkpt lat="47.5653" lon="-3.11003">
        <time>2017-11-12T14:26:59.000Z</time>
      </trkpt>
      <trkpt lat="47.56534" lon="-3.10994">
        <time>2017-11-12T14:27:00.000Z</time>
      </trkpt>
      <trkpt lat="47.56538" lon="-3.10984">
        <time>2017-11-12T14:27:01.000Z</time>
      </trkpt>
      <trkpt lat="47.56543" lon="-3.10974">
        <time>2017-11-12T14:27:02.000Z</time>
      </trkpt>
      <trkpt lat="47.56547" lon="-3.10963">
        <time>2017-11-12T14:27:03.000Z</time>
      </trkpt>
      <trkpt lat="47.56552" lon="-3.10954">
        <time>2017-11-12T14:27:04.000Z</time>
      </trkpt>
      <trkpt lat="47.56556" lon="-3.10945">
        <time>2017-11-12T14:27:05.000Z</time>
      </trkpt>
      <trkpt lat="47.56561" lon="-3.10935">
        <time>2017-11-12T14:27:06.000Z</time>
      </trkpt>
      <trkpt lat="47.56565" lon="-3.10923">
        <time>2017-11-12T14:27:07.000Z</time>
      </trkpt>
      <trkpt lat="47.56569" lon="-3.10912">
        <time>2017-11-12T14:27:08.000Z</time>
      </trkpt>
      <trkpt lat="47.56573" lon="-3.10901">
        <time>2017-11-12T14:27:09.000Z</time>
      </trkpt>
      <trkpt lat="47.56577" lon="-3.1089">
        <time>2017-11-12T14:27:10.000Z</time>
      </trkpt>
      <trkpt lat="47.56581" lon="-3.1088">
        <time>2017-11-12T14:27:11.000Z</time>
      </trkpt>
      <trkpt lat="47.56584" lon="-3.10869">
        <time>2017-11-12T14:27:12.000Z</time>
      </trkpt>
      <trkpt lat="47.56588" lon="-3.10858">
        <time>2017-11-12T14:27:13.000Z</time>
      </trkpt>
      <trkpt lat="47.56592" lon="-3.10847">
        <time>2017-11-12T14:27:14.000Z</time>
      </trkpt>
      <trkpt lat="47.56596" lon="-3.10835">
        <time>2017-11-12T14:27:15.000Z</time>
      </trkpt>
      <trkpt lat="47.56599" lon="-3.10824">
        <time>2017-11-12T14:27:16.000Z</time>
      </trkpt>
      <trkpt lat="47.56602" lon="-3.10812">
        <time>2017-11-12T14:27:17.000Z</time>
      </trkpt>
      <trkpt lat="47.56605" lon="-3.108">
        <time>2017-11-12T14:27:18.000Z</time>
      </trkpt>
      <trkpt lat="47.56608" lon="-3.10789">
        <time>2017-11-12T14:27:19.000Z</time>
      </trkpt>
      <trkpt lat="47.56612" lon="-3.10779">
        <time>2017-11-12T14:27:20.000Z</time>
      </trkpt>
      <trkpt lat="47.56615" lon="-3.10769">
        <time>2017-11-12T14:27:21.000Z</time>
      </trkpt>
      <trkpt lat="47.56619" lon="-3.10758">
        <time>2017-11-12T14:27:22.000Z</time>
      </trkpt>
      <trkpt lat="47.56622" lon="-3.10748">
        <time>2017-11-12T14:27:23.000Z</time>
      </trkpt>
      <trkpt lat="47.56626" lon="-3.10737">
        <time>2017-11-12T14:27:24.000Z</time>
      </trkpt>
      <trkpt lat="47.56629" lon="-3.10725">
        <time>2017-11-12T14:27:25.000Z</time>
      </trkpt>
      <trkpt lat="47.56632" lon="-3.10714">
        <time>2017-11-12T14:27:26.000Z</time>
      </trkpt>
      <trkpt lat="47.56636" lon="-3.10703">
        <time>2017-11-12T14:27:27.000Z</time>
      </trkpt>
      <trkpt lat="47.5664" lon="-3.10691">
        <time>2017-11-12T14:27:28.000Z</time>
      </trkpt>
      <trkpt lat="47.56643" lon="-3.10678">
        <time>2017-11-12T14:27:29.000Z</time>
      </trkpt>
      <trkpt lat="47.56647" lon="-3.10668">
        <time>2017-11-12T14:27:30.000Z</time>
      </trkpt>
      <trkpt lat="47.56651" lon="-3.10658">
        <time>2017-11-12T14:27:31.000Z</time>
      </trkpt>
      <trkpt lat="47.56656" lon="-3.10647">
        <time>2017-11-12T14:27:32.000Z</time>
      </trkpt>
      <trkpt lat="47.5666" lon="-3.10636">
        <time>2017-11-12T14:27:33.000Z</time>
      </trkpt>
      <trkpt lat="47.56665" lon="-3.10625">
        <time>2017-11-12T14:27:34.000Z</time>
      </trkpt>
      <trkpt lat="47.5667" lon="-3.10615">
        <time>2017-11-12T14:27:35.000Z</time>
      </trkpt>
      <trkpt lat="47.56674" lon="-3.10606">
        <time>2017-11-12T14:27:36.000Z</time>
      </trkpt>
      <trkpt lat="47.56678" lon="-3.10596">
        <time>2017-11-12T14:27:37.000Z</time>
      </trkpt>
      <trkpt lat="47.56684" lon="-3.10587">
        <time>2017-11-12T14:27:38.000Z</time>
      </trkpt>
      <trkpt lat="47.56689" lon="-3.10575">
        <time>2017-11-12T14:27:39.000Z</time>
      </trkpt>
      <trkpt lat="47.56693" lon="-3.10565">
        <time>2017-11-12T14:27:40.000Z</time>
      </trkpt>
      <trkpt lat="47.56698" lon="-3.10554">
        <time>2017-11-12T14:27:41.000Z</time>
      </trkpt>
      <trkpt lat="47.56703" lon="-3.10543">
        <time>2017-11-12T14:27:42.000Z</time>
      </trkpt>
      <trkpt lat="47.56708" lon="-3.10532">
        <time>2017-11-12T14:27:43.000Z</time>
      </trkpt>
      <trkpt lat="47.56713" lon="-3.10522">
        <time>2017-11-12T14:27:44.000Z</time>
      </trkpt>
      <trkpt lat="47.56719" lon="-3.10512">
        <time>2017-11-12T14:27:45.000Z</time>
      </trkpt>
      <trkpt lat="47.56724" lon="-3.10502">
        <time>2017-11-12T14:27:46.000Z</time>
      </trkpt>
      <trkpt lat="47.56729" lon="-3.10491">
        <time>2017-11-12T14:27:47.000Z</time>
      </trkpt>
      <trkpt lat="47.56734" lon="-3.10481">
        <time>2017-11-12T14:27:48.000Z</time>
      </trkpt>
      <trkpt lat="47.5674" lon="-3.10471">
        <time>2017-11-12T14:27:49.000Z</time>
      </trkpt>
      <trkpt lat="47.56745" lon="-3.10461">
        <time>2017-11-12T14:27:50.000Z</time>
      </trkpt>
      <trkpt lat="47.56751" lon="-3.10452">
        <time>2017-11-12T14:27:51.000Z</time>
      </trkpt>
      <trkpt lat="47.56756" lon="-3.10443">
        <time>2017-11-12T14:27:52.000Z</time>
      </trkpt>
      <trkpt lat="47.56761" lon="-3.10433">
        <time>2017-11-12T14:27:53.000Z</time>
      </trkpt>
      <trkpt lat="47.56766" lon="-3.10423">
        <time>2017-11-12T14:27:54.000Z</time>
      </trkpt>
      <trkpt lat="47.56771" lon="-3.10411">
        <time>2017-11-12T14:27:55.000Z</time>
      </trkpt>
      <trkpt lat="47.56776" lon="-3.10402">
        <time>2017-11-12T14:27:56.000Z</time>
      </trkpt>
      <trkpt lat="47.56781" lon="-3.10392">
        <time>2017-11-12T14:27:57.000Z</time>
      </trkpt>
      <trkpt lat="47.56787" lon="-3.10382">
        <time>2017-11-12T14:27:58.000Z</time>
      </trkpt>
      <trkpt lat="47.56793" lon="-3.10372">
        <time>2017-11-12T14:27:59.000Z</time>
      </trkpt>
      <trkpt lat="47.56798" lon="-3.10363">
        <time>2017-11-12T14:28:00.000Z</time>
      </trkpt>
      <trkpt lat="47.56803" lon="-3.10353">
        <time>2017-11-12T14:28:01.000Z</time>
      </trkpt>
      <trkpt lat="47.56807" lon="-3.10344">
        <time>2017-11-12T14:28:02.000Z</time>
      </trkpt>
      <trkpt lat="47.56811" lon="-3.10334">
        <time>2017-11-12T14:28:03.000Z</time>
      </trkpt>
      <trkpt lat="47.56815" lon="-3.10325">
        <time>2017-11-12T14:28:04.000Z</time>
      </trkpt>
      <trkpt lat="47.56818" lon="-3.10314">
        <time>2017-11-12T14:28:05.000Z</time>
      </trkpt>
      <trkpt lat="47.56821" lon="-3.10305">
        <time>2017-11-12T14:28:06.000Z</time>
      </trkpt>
      <trkpt lat="47.56823" lon="-3.10295">
        <time>2017-11-12T14:28:07.000Z</time>
      </trkpt>
      <trkpt lat="47.56823" lon="-3.10284">
        <time>2017-11-12T14:28:08.000Z</time>
      </trkpt>
      <trkpt lat="47.56824" lon="-3.10275">
        <time>2017-11-12T14:28:09.000Z</time>
      </trkpt>
      <trkpt lat="47.56823" lon="-3.10266">
        <time>2017-11-12T14:28:10.000Z</time>
      </trkpt>
      <trkpt lat="47.5682" lon="-3.10258">
        <time>2017-11-12T14:28:11.000Z</time>
      </trkpt>
      <trkpt lat="47.56817" lon="-3.10252">
        <time>2017-11-12T14:28:12.000Z</time>
      </trkpt>
      <trkpt lat="47.56814" lon="-3.10249">
        <time>2017-11-12T14:28:13.000Z</time>
      </trkpt>
      <trkpt lat="47.56811" lon="-3.10246">
        <time>2017-11-12T14:28:14.000Z</time>
      </trkpt>
      <trkpt lat="47.56809" lon="-3.10246">
        <time>2017-11-12T14:28:15.000Z</time>
      </trkpt>
      <trkpt lat="47.56808" lon="-3.10247">
        <time>2017-11-12T14:28:16.000Z</time>
      </trkpt>
      <trkpt lat="47.56808" lon="-3.10249">
        <time>2017-11-12T14:28:17.000Z</time>
      </trkpt>
      <trkpt lat="47.56807" lon="-3.1025">
        <time>2017-11-12T14:28:18.000Z</time>
      </trkpt>
      <trkpt lat="47.56807" lon="-3.10252">
        <time>2017-11-12T14:28:19.000Z</time>
      </trkpt>
      <trkpt lat="47.56807" lon="-3.10252">
        <time>2017-11-12T14:28:20.000Z</time>
      </trkpt>
      <trkpt lat="47.56806" lon="-3.10256">
        <time>2017-11-12T14:28:21.000Z</time>
      </trkpt>
      <trkpt lat="47.56805" lon="-3.10259">
        <time>2017-11-12T14:28:22.000Z</time>
      </trkpt>
      <trkpt lat="47.56804" lon="-3.10262">
        <time>2017-11-12T14:28:23.000Z</time>
      </trkpt>
      <trkpt lat="47.56802" lon="-3.10267">
        <time>2017-11-12T14:28:24.000Z</time>
      </trkpt>
      <trkpt lat="47.568" lon="-3.10272">
        <time>2017-11-12T14:28:25.000Z</time>
      </trkpt>
      <trkpt lat="47.56798" lon="-3.10278">
        <time>2017-11-12T14:28:26.000Z</time>
      </trkpt>
      <trkpt lat="47.56797" lon="-3.10283">
        <time>2017-11-12T14:28:27.000Z</time>
      </trkpt>
      <trkpt lat="47.56796" lon="-3.10289">
        <time>2017-11-12T14:28:28.000Z</time>
      </trkpt>
      <trkpt lat="47.56794" lon="-3.10297">
        <time>2017-11-12T14:28:29.000Z</time>
      </trkpt>
      <trkpt lat="47.56792" lon="-3.10305">
        <time>2017-11-12T14:28:30.000Z</time>
      </trkpt>
      <trkpt lat="47.56789" lon="-3.10313">
        <time>2017-11-12T14:28:31.000Z</time>
      </trkpt>
      <trkpt lat="47.56787" lon="-3.10322">
        <time>2017-11-12T14:28:32.000Z</time>
      </trkpt>
      <trkpt lat="47.56784" lon="-3.10333">
        <time>2017-11-12T14:28:33.000Z</time>
      </trkpt>
      <trkpt lat="47.56782" lon="-3.10343">
        <time>2017-11-12T14:28:34.000Z</time>
      </trkpt>
      <trkpt lat="47.56779" lon="-3.10353">
        <time>2017-11-12T14:28:35.000Z</time>
      </trkpt>
      <trkpt lat="47.56777" lon="-3.10364">
        <time>2017-11-12T14:28:36.000Z</time>
      </trkpt>
      <trkpt lat="47.56773" lon="-3.10374">
        <time>2017-11-12T14:28:37.000Z</time>
      </trkpt>
      <trkpt lat="47.5677" lon="-3.10386">
        <time>2017-11-12T14:28:38.000Z</time>
      </trkpt>
      <trkpt lat="47.56767" lon="-3.10397">
        <time>2017-11-12T14:28:39.000Z</time>
      </trkpt>
      <trkpt lat="47.56763" lon="-3.10408">
        <time>2017-11-12T14:28:40.000Z</time>
      </trkpt>
      <trkpt lat="47.56759" lon="-3.10419">
        <time>2017-11-12T14:28:41.000Z</time>
      </trkpt>
      <trkpt lat="47.56754" lon="-3.1043">
        <time>2017-11-12T14:28:42.000Z</time>
      </trkpt>
      <trkpt lat="47.56749" lon="-3.10442">
        <time>2017-11-12T14:28:43.000Z</time>
      </trkpt>
      <trkpt lat="47.56745" lon="-3.10454">
        <time>2017-11-12T14:28:44.000Z</time>
      </trkpt>
      <trkpt lat="47.5674" lon="-3.10466">
        <time>2017-11-12T14:28:45.000Z</time>
      </trkpt>
      <trkpt lat="47.56734" lon="-3.10479">
        <time>2017-11-12T14:28:46.000Z</time>
      </trkpt>
      <trkpt lat="47.56728" lon="-3.10492">
        <time>2017-11-12T14:28:47.000Z</time>
      </trkpt>
      <trkpt lat="47.56724" lon="-3.10505">
        <time>2017-11-12T14:28:48.000Z</time>
      </trkpt>
      <trkpt lat="47.56719" lon="-3.10519">
        <time>2017-11-12T14:28:49.000Z</time>
      </trkpt>
      <trkpt lat="47.56715" lon="-3.10531">
        <time>2017-11-12T14:28:50.000Z</time>
      </trkpt>
      <trkpt lat="47.56712" lon="-3.10543">
        <time>2017-11-12T14:28:51.000Z</time>
      </trkpt>
      <trkpt lat="47.56709" lon="-3.10556">
        <time>2017-11-12T14:28:52.000Z</time>
      </trkpt>
      <trkpt lat="47.56705" lon="-3.10568">
        <time>2017-11-12T14:28:53.000Z</time>
      </trkpt>
      <trkpt lat="47.56701" lon="-3.10579">
        <time>2017-11-12T14:28:54.000Z</time>
      </trkpt>
      <trkpt lat="47.56697" lon="-3.10592">
        <time>2017-11-12T14:28:55.000Z</time>
      </trkpt>
      <trkpt lat="47.56693" lon="-3.10605">
        <time>2017-11-12T14:28:56.000Z</time>
      </trkpt>
      <trkpt lat="47.56689" lon="-3.10617">
        <time>2017-11-12T14:28:57.000Z</time>
      </trkpt>
      <trkpt lat="47.56685" lon="-3.10629">
        <time>2017-11-12T14:28:58.000Z</time>
      </trkpt>
      <trkpt lat="47.56681" lon="-3.10642">
        <time>2017-11-12T14:28:59.000Z</time>
      </trkpt>
      <trkpt lat="47.56677" lon="-3.10655">
        <time>2017-11-12T14:29:00.000Z</time>
      </trkpt>
      <trkpt lat="47.56672" lon="-3.10669">
        <time>2017-11-12T14:29:01.000Z</time>
      </trkpt>
      <trkpt lat="47.56668" lon="-3.10683">
        <time>2017-11-12T14:29:02.000Z</time>
      </trkpt>
      <trkpt lat="47.56666" lon="-3.10695">
        <time>2017-11-12T14:29:03.000Z</time>
      </trkpt>
      <trkpt lat="47.56659" lon="-3.10708">
        <time>2017-11-12T14:29:04.000Z</time>
      </trkpt>
      <trkpt lat="47.56654" lon="-3.10722">
        <time>2017-11-12T14:29:05.000Z</time>
      </trkpt>
      <trkpt lat="47.56649" lon="-3.10736">
        <time>2017-11-12T14:29:06.000Z</time>
      </trkpt>
      <trkpt lat="47.56644" lon="-3.10749">
        <time>2017-11-12T14:29:07.000Z</time>
      </trkpt>
      <trkpt lat="47.56639" lon="-3.10761">
        <time>2017-11-12T14:29:08.000Z</time>
      </trkpt>
      <trkpt lat="47.56633" lon="-3.10776">
        <time>2017-11-12T14:29:09.000Z</time>
      </trkpt>
      <trkpt lat="47.56629" lon="-3.1079">
        <time>2017-11-12T14:29:10.000Z</time>
      </trkpt>
      <trkpt lat="47.56625" lon="-3.10806">
        <time>2017-11-12T14:29:11.000Z</time>
      </trkpt>
      <trkpt lat="47.56623" lon="-3.10819">
        <time>2017-11-12T14:29:12.000Z</time>
      </trkpt>
      <trkpt lat="47.5662" lon="-3.10832">
        <time>2017-11-12T14:29:13.000Z</time>
      </trkpt>
      <trkpt lat="47.56617" lon="-3.10845">
        <time>2017-11-12T14:29:14.000Z</time>
      </trkpt>
      <trkpt lat="47.56613" lon="-3.10858">
        <time>2017-11-12T14:29:15.000Z</time>
      </trkpt>
      <trkpt lat="47.56608" lon="-3.10871">
        <time>2017-11-12T14:29:16.000Z</time>
      </trkpt>
      <trkpt lat="47.56605" lon="-3.10884">
        <time>2017-11-12T14:29:17.000Z</time>
      </trkpt>
      <trkpt lat="47.56602" lon="-3.10897">
        <time>2017-11-12T14:29:18.000Z</time>
      </trkpt>
      <trkpt lat="47.56599" lon="-3.10911">
        <time>2017-11-12T14:29:19.000Z</time>
      </trkpt>
      <trkpt lat="47.56597" lon="-3.10923">
        <time>2017-11-12T14:29:20.000Z</time>
      </trkpt>
      <trkpt lat="47.56594" lon="-3.10937">
        <time>2017-11-12T14:29:21.000Z</time>
      </trkpt>
      <trkpt lat="47.56592" lon="-3.1095">
        <time>2017-11-12T14:29:22.000Z</time>
      </trkpt>
      <trkpt lat="47.56589" lon="-3.10963">
        <time>2017-11-12T14:29:23.000Z</time>
      </trkpt>
      <trkpt lat="47.56586" lon="-3.10975">
        <time>2017-11-12T14:29:24.000Z</time>
      </trkpt>
      <trkpt lat="47.56584" lon="-3.10986">
        <time>2017-11-12T14:29:25.000Z</time>
      </trkpt>
      <trkpt lat="47.56581" lon="-3.10998">
        <time>2017-11-12T14:29:26.000Z</time>
      </trkpt>
      <trkpt lat="47.56579" lon="-3.1101">
        <time>2017-11-12T14:29:27.000Z</time>
      </trkpt>
      <trkpt lat="47.56576" lon="-3.11022">
        <time>2017-11-12T14:29:28.000Z</time>
      </trkpt>
      <trkpt lat="47.56574" lon="-3.11033">
        <time>2017-11-12T14:29:29.000Z</time>
      </trkpt>
      <trkpt lat="47.5657" lon="-3.11044">
        <time>2017-11-12T14:29:30.000Z</time>
      </trkpt>
      <trkpt lat="47.56567" lon="-3.11055">
        <time>2017-11-12T14:29:31.000Z</time>
      </trkpt>
      <trkpt lat="47.56564" lon="-3.11065">
        <time>2017-11-12T14:29:32.000Z</time>
      </trkpt>
      <trkpt lat="47.56561" lon="-3.11076">
        <time>2017-11-12T14:29:33.000Z</time>
      </trkpt>
      <trkpt lat="47.56557" lon="-3.11087">
        <time>2017-11-12T14:29:34.000Z</time>
      </trkpt>
      <trkpt lat="47.56554" lon="-3.11098">
        <time>2017-11-12T14:29:35.000Z</time>
      </trkpt>
      <trkpt lat="47.56551" lon="-3.11109">
        <time>2017-11-12T14:29:36.000Z</time>
      </trkpt>
      <trkpt lat="47.56549" lon="-3.11119">
        <time>2017-11-12T14:29:37.000Z</time>
      </trkpt>
      <trkpt lat="47.56547" lon="-3.11129">
        <time>2017-11-12T14:29:38.000Z</time>
      </trkpt>
      <trkpt lat="47.56544" lon="-3.1114">
        <time>2017-11-12T14:29:39.000Z</time>
      </trkpt>
      <trkpt lat="47.56542" lon="-3.11149">
        <time>2017-11-12T14:29:40.000Z</time>
      </trkpt>
      <trkpt lat="47.5654" lon="-3.11159">
        <time>2017-11-12T14:29:41.000Z</time>
      </trkpt>
      <trkpt lat="47.56537" lon="-3.11168">
        <time>2017-11-12T14:29:42.000Z</time>
      </trkpt>
      <trkpt lat="47.56533" lon="-3.11178">
        <time>2017-11-12T14:29:43.000Z</time>
      </trkpt>
      <trkpt lat="47.5653" lon="-3.11187">
        <time>2017-11-12T14:29:44.000Z</time>
      </trkpt>
      <trkpt lat="47.56527" lon="-3.11196">
        <time>2017-11-12T14:29:45.000Z</time>
      </trkpt>
      <trkpt lat="47.56523" lon="-3.11205">
        <time>2017-11-12T14:29:46.000Z</time>
      </trkpt>
      <trkpt lat="47.5652" lon="-3.11214">
        <time>2017-11-12T14:29:47.000Z</time>
      </trkpt>
      <trkpt lat="47.56516" lon="-3.11224">
        <time>2017-11-12T14:29:48.000Z</time>
      </trkpt>
      <trkpt lat="47.56514" lon="-3.11232">
        <time>2017-11-12T14:29:49.000Z</time>
      </trkpt>
      <trkpt lat="47.5651" lon="-3.11242">
        <time>2017-11-12T14:29:50.000Z</time>
      </trkpt>
      <trkpt lat="47.56506" lon="-3.11252">
        <time>2017-11-12T14:29:51.000Z</time>
      </trkpt>
      <trkpt lat="47.56502" lon="-3.11261">
        <time>2017-11-12T14:29:52.000Z</time>
      </trkpt>
      <trkpt lat="47.56497" lon="-3.11271">
        <time>2017-11-12T14:29:53.000Z</time>
      </trkpt>
      <trkpt lat="47.56492" lon="-3.1128">
        <time>2017-11-12T14:29:54.000Z</time>
      </trkpt>
      <trkpt lat="47.56488" lon="-3.1129">
        <time>2017-11-12T14:29:55.000Z</time>
      </trkpt>
      <trkpt lat="47.56484" lon="-3.113">
        <time>2017-11-12T14:29:56.000Z</time>
      </trkpt>
      <trkpt lat="47.56479" lon="-3.1131">
        <time>2017-11-12T14:29:57.000Z</time>
      </trkpt>
      <trkpt lat="47.56474" lon="-3.1132">
        <time>2017-11-12T14:29:58.000Z</time>
      </trkpt>
      <trkpt lat="47.56469" lon="-3.1133">
        <time>2017-11-12T14:29:59.000Z</time>
      </trkpt>
      <trkpt lat="47.56466" lon="-3.1134">
        <time>2017-11-12T14:30:00.000Z</time>
      </trkpt>
      <trkpt lat="47.56462" lon="-3.11351">
        <time>2017-11-12T14:30:01.000Z</time>
      </trkpt>
      <trkpt lat="47.56458" lon="-3.1136">
        <time>2017-11-12T14:30:02.000Z</time>
      </trkpt>
      <trkpt lat="47.56453" lon="-3.11369">
        <time>2017-11-12T14:30:03.000Z</time>
      </trkpt>
      <trkpt lat="47.56448" lon="-3.1138">
        <time>2017-11-12T14:30:04.000Z</time>
      </trkpt>
      <trkpt lat="47.56442" lon="-3.11387">
        <time>2017-11-12T14:30:05.000Z</time>
      </trkpt>
      <trkpt lat="47.56437" lon="-3.1139">
        <time>2017-11-12T14:30:06.000Z</time>
      </trkpt>
      <trkpt lat="47.5643" lon="-3.11391">
        <time>2017-11-12T14:30:07.000Z</time>
      </trkpt>
      <trkpt lat="47.56423" lon="-3.11391">
        <time>2017-11-12T14:30:08.000Z</time>
      </trkpt>
      <trkpt lat="47.56419" lon="-3.11389">
        <time>2017-11-12T14:30:09.000Z</time>
      </trkpt>
      <trkpt lat="47.56417" lon="-3.11386">
        <time>2017-11-12T14:30:10.000Z</time>
      </trkpt>
      <trkpt lat="47.56416" lon="-3.11383">
        <time>2017-11-12T14:30:11.000Z</time>
      </trkpt>
      <trkpt lat="47.56416" lon="-3.11382">
        <time>2017-11-12T14:30:12.000Z</time>
      </trkpt>
      <trkpt lat="47.56417" lon="-3.11379">
        <time>2017-11-12T14:30:13.000Z</time>
      </trkpt>
      <trkpt lat="47.56417" lon="-3.11377">
        <time>2017-11-12T14:30:14.000Z</time>
      </trkpt>
      <trkpt lat="47.56418" lon="-3.11375">
        <time>2017-11-12T14:30:15.000Z</time>
      </trkpt>
      <trkpt lat="47.56418" lon="-3.11373">
        <time>2017-11-12T14:30:16.000Z</time>
      </trkpt>
      <trkpt lat="47.56419" lon="-3.11371">
        <time>2017-11-12T14:30:17.000Z</time>
      </trkpt>
      <trkpt lat="47.56419" lon="-3.11369">
        <time>2017-11-12T14:30:18.000Z</time>
      </trkpt>
      <trkpt lat="47.5642" lon="-3.11367">
        <time>2017-11-12T14:30:19.000Z</time>
      </trkpt>
      <trkpt lat="47.5642" lon="-3.11364">
        <time>2017-11-12T14:30:20.000Z</time>
      </trkpt>
      <trkpt lat="47.5642" lon="-3.11361">
        <time>2017-11-12T14:30:21.000Z</time>
      </trkpt>
      <trkpt lat="47.5642" lon="-3.11358">
        <time>2017-11-12T14:30:22.000Z</time>
      </trkpt>
      <trkpt lat="47.5642" lon="-3.11355">
        <time>2017-11-12T14:30:23.000Z</time>
      </trkpt>
      <trkpt lat="47.5642" lon="-3.11352">
        <time>2017-11-12T14:30:24.000Z</time>
      </trkpt>
      <trkpt lat="47.5642" lon="-3.1135">
        <time>2017-11-12T14:30:25.000Z</time>
      </trkpt>
      <trkpt lat="47.5642" lon="-3.11347">
        <time>2017-11-12T14:30:26.000Z</time>
      </trkpt>
      <trkpt lat="47.56421" lon="-3.11344">
        <time>2017-11-12T14:30:27.000Z</time>
      </trkpt>
      <trkpt lat="47.56421" lon="-3.11342">
        <time>2017-11-12T14:30:28.000Z</time>
      </trkpt>
      <trkpt lat="47.56421" lon="-3.11339">
        <time>2017-11-12T14:30:29.000Z</time>
      </trkpt>
      <trkpt lat="47.56421" lon="-3.11336">
        <time>2017-11-12T14:30:30.000Z</time>
      </trkpt>
      <trkpt lat="47.56422" lon="-3.11334">
        <time>2017-11-12T14:30:31.000Z</time>
      </trkpt>
      <trkpt lat="47.56407" lon="-3.11306">
        <time>2017-11-12T14:31:22.000Z</time>
      </trkpt>
      <trkpt lat="47.56406" lon="-3.11304">
        <time>2017-11-12T14:31:23.000Z</time>
      </trkpt>
      <trkpt lat="47.56408" lon="-3.11306">
        <time>2017-11-12T14:31:24.000Z</time>
      </trkpt>
      <trkpt lat="47.56411" lon="-3.11307">
        <time>2017-11-12T14:31:25.000Z</time>
      </trkpt>
      <trkpt lat="47.56414" lon="-3.11304">
        <time>2017-11-12T14:31:26.000Z</time>
      </trkpt>
      <trkpt lat="47.56417" lon="-3.11302">
        <time>2017-11-12T14:31:27.000Z</time>
      </trkpt>
      <trkpt lat="47.56421" lon="-3.113">
        <time>2017-11-12T14:31:28.000Z</time>
      </trkpt>
      <trkpt lat="47.56424" lon="-3.11299">
        <time>2017-11-12T14:31:29.000Z</time>
      </trkpt>
      <trkpt lat="47.56428" lon="-3.11296">
        <time>2017-11-12T14:31:30.000Z</time>
      </trkpt>
      <trkpt lat="47.5643" lon="-3.11294">
        <time>2017-11-12T14:31:31.000Z</time>
      </trkpt>
      <trkpt lat="47.56433" lon="-3.11291">
        <time>2017-11-12T14:31:32.000Z</time>
      </trkpt>
      <trkpt lat="47.56437" lon="-3.11289">
        <time>2017-11-12T14:31:33.000Z</time>
      </trkpt>
      <trkpt lat="47.5644" lon="-3.11285">
        <time>2017-11-12T14:31:34.000Z</time>
      </trkpt>
      <trkpt lat="47.56444" lon="-3.1128">
        <time>2017-11-12T14:31:35.000Z</time>
      </trkpt>
      <trkpt lat="47.56447" lon="-3.11274">
        <time>2017-11-12T14:31:36.000Z</time>
      </trkpt>
      <trkpt lat="47.56451" lon="-3.11267">
        <time>2017-11-12T14:31:37.000Z</time>
      </trkpt>
      <trkpt lat="47.56454" lon="-3.1126">
        <time>2017-11-12T14:31:38.000Z</time>
      </trkpt>
      <trkpt lat="47.56458" lon="-3.11252">
        <time>2017-11-12T14:31:39.000Z</time>
      </trkpt>
      <trkpt lat="47.56461" lon="-3.11243">
        <time>2017-11-12T14:31:40.000Z</time>
      </trkpt>
      <trkpt lat="47.56465" lon="-3.11235">
        <time>2017-11-12T14:31:41.000Z</time>
      </trkpt>
      <trkpt lat="47.56469" lon="-3.11225">
        <time>2017-11-12T14:31:42.000Z</time>
      </trkpt>
      <trkpt lat="47.56472" lon="-3.11216">
        <time>2017-11-12T14:31:43.000Z</time>
      </trkpt>
      <trkpt lat="47.56475" lon="-3.11206">
        <time>2017-11-12T14:31:44.000Z</time>
      </trkpt>
      <trkpt lat="47.56479" lon="-3.11195">
        <time>2017-11-12T14:31:45.000Z</time>
      </trkpt>
      <trkpt lat="47.56482" lon="-3.11184">
        <time>2017-11-12T14:31:46.000Z</time>
      </trkpt>
      <trkpt lat="47.56486" lon="-3.11173">
        <time>2017-11-12T14:31:47.000Z</time>
      </trkpt>
      <trkpt lat="47.5649" lon="-3.11164">
        <time>2017-11-12T14:31:48.000Z</time>
      </trkpt>
      <trkpt lat="47.56495" lon="-3.11154">
        <time>2017-11-12T14:31:49.000Z</time>
      </trkpt>
      <trkpt lat="47.56499" lon="-3.11144">
        <time>2017-11-12T14:31:50.000Z</time>
      </trkpt>
      <trkpt lat="47.56503" lon="-3.11135">
        <time>2017-11-12T14:31:51.000Z</time>
      </trkpt>
      <trkpt lat="47.56508" lon="-3.11126">
        <time>2017-11-12T14:31:52.000Z</time>
      </trkpt>
      <trkpt lat="47.56512" lon="-3.11117">
        <time>2017-11-12T14:31:53.000Z</time>
      </trkpt>
      <trkpt lat="47.56516" lon="-3.11108">
        <time>2017-11-12T14:31:54.000Z</time>
      </trkpt>
      <trkpt lat="47.5652" lon="-3.111">
        <time>2017-11-12T14:31:55.000Z</time>
      </trkpt>
      <trkpt lat="47.56524" lon="-3.11091">
        <time>2017-11-12T14:31:56.000Z</time>
      </trkpt>
      <trkpt lat="47.56528" lon="-3.11083">
        <time>2017-11-12T14:31:57.000Z</time>
      </trkpt>
      <trkpt lat="47.56532" lon="-3.11074">
        <time>2017-11-12T14:31:58.000Z</time>
      </trkpt>
      <trkpt lat="47.56535" lon="-3.11066">
        <time>2017-11-12T14:31:59.000Z</time>
      </trkpt>
      <trkpt lat="47.56539" lon="-3.11058">
        <time>2017-11-12T14:32:00.000Z</time>
      </trkpt>
      <trkpt lat="47.56541" lon="-3.1105">
        <time>2017-11-12T14:32:01.000Z</time>
      </trkpt>
      <trkpt lat="47.56544" lon="-3.11042">
        <time>2017-11-12T14:32:02.000Z</time>
      </trkpt>
      <trkpt lat="47.56547" lon="-3.11034">
        <time>2017-11-12T14:32:03.000Z</time>
      </trkpt>
      <trkpt lat="47.56549" lon="-3.11026">
        <time>2017-11-12T14:32:04.000Z</time>
      </trkpt>
      <trkpt lat="47.56552" lon="-3.11018">
        <time>2017-11-12T14:32:05.000Z</time>
      </trkpt>
      <trkpt lat="47.56555" lon="-3.1101">
        <time>2017-11-12T14:32:06.000Z</time>
      </trkpt>
      <trkpt lat="47.56558" lon="-3.11001">
        <time>2017-11-12T14:32:07.000Z</time>
      </trkpt>
      <trkpt lat="47.56561" lon="-3.10992">
        <time>2017-11-12T14:32:08.000Z</time>
      </trkpt>
      <trkpt lat="47.56565" lon="-3.10984">
        <time>2017-11-12T14:32:09.000Z</time>
      </trkpt>
      <trkpt lat="47.56567" lon="-3.10973">
        <time>2017-11-12T14:32:10.000Z</time>
      </trkpt>
      <trkpt lat="47.56569" lon="-3.10963">
        <time>2017-11-12T14:32:11.000Z</time>
      </trkpt>
      <trkpt lat="47.56571" lon="-3.10954">
        <time>2017-11-12T14:32:12.000Z</time>
      </trkpt>
      <trkpt lat="47.56573" lon="-3.10946">
        <time>2017-11-12T14:32:13.000Z</time>
      </trkpt>
      <trkpt lat="47.56575" lon="-3.10938">
        <time>2017-11-12T14:32:14.000Z</time>
      </trkpt>
      <trkpt lat="47.56578" lon="-3.1093">
        <time>2017-11-12T14:32:15.000Z</time>
      </trkpt>
      <trkpt lat="47.5658" lon="-3.10923">
        <time>2017-11-12T14:32:16.000Z</time>
      </trkpt>
      <trkpt lat="47.56582" lon="-3.10915">
        <time>2017-11-12T14:32:17.000Z</time>
      </trkpt>
      <trkpt lat="47.56584" lon="-3.10906">
        <time>2017-11-12T14:32:18.000Z</time>
      </trkpt>
      <trkpt lat="47.56588" lon="-3.10897">
        <time>2017-11-12T14:32:19.000Z</time>
      </trkpt>
      <trkpt lat="47.56592" lon="-3.10892">
        <time>2017-11-12T14:32:20.000Z</time>
      </trkpt>
      <trkpt lat="47.56595" lon="-3.10885">
        <time>2017-11-12T14:32:21.000Z</time>
      </trkpt>
      <trkpt lat="47.56599" lon="-3.10879">
        <time>2017-11-12T14:32:22.000Z</time>
      </trkpt>
      <trkpt lat="47.56601" lon="-3.10874">
        <time>2017-11-12T14:32:23.000Z</time>
      </trkpt>
      <trkpt lat="47.56604" lon="-3.1087">
        <time>2017-11-12T14:32:24.000Z</time>
      </trkpt>
      <trkpt lat="47.56604" lon="-3.10864">
        <time>2017-11-12T14:32:25.000Z</time>
      </trkpt>
      <trkpt lat="47.56605" lon="-3.10859">
        <time>2017-11-12T14:32:26.000Z</time>
      </trkpt>
      <trkpt lat="47.56605" lon="-3.10855">
        <time>2017-11-12T14:32:27.000Z</time>
      </trkpt>
      <trkpt lat="47.56605" lon="-3.10851">
        <time>2017-11-12T14:32:28.000Z</time>
      </trkpt>
      <trkpt lat="47.56605" lon="-3.10847">
        <time>2017-11-12T14:32:29.000Z</time>
      </trkpt>
      <trkpt lat="47.56606" lon="-3.10843">
        <time>2017-11-12T14:32:30.000Z</time>
      </trkpt>
      <trkpt lat="47.56607" lon="-3.10838">
        <time>2017-11-12T14:32:31.000Z</time>
      </trkpt>
      <trkpt lat="47.56608" lon="-3.10833">
        <time>2017-11-12T14:32:32.000Z</time>
      </trkpt>
      <trkpt lat="47.56609" lon="-3.10828">
        <time>2017-11-12T14:32:33.000Z</time>
      </trkpt>
      <trkpt lat="47.56611" lon="-3.10826">
        <time>2017-11-12T14:32:34.000Z</time>
      </trkpt>
      <trkpt lat="47.56612" lon="-3.10822">
        <time>2017-11-12T14:32:35.000Z</time>
      </trkpt>
      <trkpt lat="47.56614" lon="-3.10819">
        <time>2017-11-12T14:32:36.000Z</time>
      </trkpt>
      <trkpt lat="47.56616" lon="-3.10815">
        <time>2017-11-12T14:32:37.000Z</time>
      </trkpt>
      <trkpt lat="47.56618" lon="-3.10812">
        <time>2017-11-12T14:32:38.000Z</time>
      </trkpt>
      <trkpt lat="47.5662" lon="-3.10808">
        <time>2017-11-12T14:32:39.000Z</time>
      </trkpt>
      <trkpt lat="47.56623" lon="-3.10806">
        <time>2017-11-12T14:32:40.000Z</time>
      </trkpt>
      <trkpt lat="47.56625" lon="-3.10802">
        <time>2017-11-12T14:32:41.000Z</time>
      </trkpt>
      <trkpt lat="47.56627" lon="-3.10798">
        <time>2017-11-12T14:32:42.000Z</time>
      </trkpt>
      <trkpt lat="47.5663" lon="-3.10795">
        <time>2017-11-12T14:32:43.000Z</time>
      </trkpt>
      <trkpt lat="47.56632" lon="-3.10792">
        <time>2017-11-12T14:32:44.000Z</time>
      </trkpt>
      <trkpt lat="47.56634" lon="-3.1079">
        <time>2017-11-12T14:32:45.000Z</time>
      </trkpt>
      <trkpt lat="47.56636" lon="-3.10787">
        <time>2017-11-12T14:32:46.000Z</time>
      </trkpt>
      <trkpt lat="47.56637" lon="-3.10784">
        <time>2017-11-12T14:32:47.000Z</time>
      </trkpt>
      <trkpt lat="47.56639" lon="-3.10781">
        <time>2017-11-12T14:32:48.000Z</time>
      </trkpt>
      <trkpt lat="47.56641" lon="-3.10778">
        <time>2017-11-12T14:32:49.000Z</time>
      </trkpt>
      <trkpt lat="47.56643" lon="-3.10776">
        <time>2017-11-12T14:32:50.000Z</time>
      </trkpt>
      <trkpt lat="47.56644" lon="-3.10772">
        <time>2017-11-12T14:32:51.000Z</time>
      </trkpt>
      <trkpt lat="47.56645" lon="-3.10768">
        <time>2017-11-12T14:32:52.000Z</time>
      </trkpt>
      <trkpt lat="47.56646" lon="-3.10764">
        <time>2017-11-12T14:32:53.000Z</time>
      </trkpt>
      <trkpt lat="47.56647" lon="-3.1076">
        <time>2017-11-12T14:32:54.000Z</time>
      </trkpt>
      <trkpt lat="47.56648" lon="-3.10756">
        <time>2017-11-12T14:32:55.000Z</time>
      </trkpt>
      <trkpt lat="47.56648" lon="-3.10752">
        <time>2017-11-12T14:32:56.000Z</time>
      </trkpt>
      <trkpt lat="47.56648" lon="-3.10748">
        <time>2017-11-12T14:32:57.000Z</time>
      </trkpt>
      <trkpt lat="47.56649" lon="-3.10745">
        <time>2017-11-12T14:32:58.000Z</time>
      </trkpt>
      <trkpt lat="47.5665" lon="-3.10742">
        <time>2017-11-12T14:32:59.000Z</time>
      </trkpt>
      <trkpt lat="47.56651" lon="-3.1074">
        <time>2017-11-12T14:33:00.000Z</time>
      </trkpt>
      <trkpt lat="47.56652" lon="-3.10736">
        <time>2017-11-12T14:33:01.000Z</time>
      </trkpt>
      <trkpt lat="47.56653" lon="-3.10732">
        <time>2017-11-12T14:33:02.000Z</time>
      </trkpt>
      <trkpt lat="47.56655" lon="-3.10726">
        <time>2017-11-12T14:33:03.000Z</time>
      </trkpt>
      <trkpt lat="47.56656" lon="-3.10721">
        <time>2017-11-12T14:33:04.000Z</time>
      </trkpt>
      <trkpt lat="47.56656" lon="-3.10715">
        <time>2017-11-12T14:33:05.000Z</time>
      </trkpt>
      <trkpt lat="47.56656" lon="-3.10708">
        <time>2017-11-12T14:33:06.000Z</time>
      </trkpt>
      <trkpt lat="47.56657" lon="-3.10701">
        <time>2017-11-12T14:33:07.000Z</time>
      </trkpt>
      <trkpt lat="47.56659" lon="-3.10694">
        <time>2017-11-12T14:33:08.000Z</time>
      </trkpt>
      <trkpt lat="47.56659" lon="-3.10686">
        <time>2017-11-12T14:33:09.000Z</time>
      </trkpt>
      <trkpt lat="47.56661" lon="-3.10677">
        <time>2017-11-12T14:33:10.000Z</time>
      </trkpt>
      <trkpt lat="47.56662" lon="-3.10669">
        <time>2017-11-12T14:33:11.000Z</time>
      </trkpt>
      <trkpt lat="47.56664" lon="-3.1066">
        <time>2017-11-12T14:33:12.000Z</time>
      </trkpt>
      <trkpt lat="47.56666" lon="-3.10653">
        <time>2017-11-12T14:33:13.000Z</time>
      </trkpt>
      <trkpt lat="47.56669" lon="-3.10643">
        <time>2017-11-12T14:33:14.000Z</time>
      </trkpt>
      <trkpt lat="47.56671" lon="-3.10633">
        <time>2017-11-12T14:33:15.000Z</time>
      </trkpt>
      <trkpt lat="47.56675" lon="-3.10625">
        <time>2017-11-12T14:33:16.000Z</time>
      </trkpt>
      <trkpt lat="47.56677" lon="-3.10616">
        <time>2017-11-12T14:33:17.000Z</time>
      </trkpt>
      <trkpt lat="47.5668" lon="-3.10607">
        <time>2017-11-12T14:33:18.000Z</time>
      </trkpt>
      <trkpt lat="47.56683" lon="-3.10598">
        <time>2017-11-12T14:33:19.000Z</time>
      </trkpt>
      <trkpt lat="47.56685" lon="-3.10589">
        <time>2017-11-12T14:33:20.000Z</time>
      </trkpt>
      <trkpt lat="47.56688" lon="-3.10579">
        <time>2017-11-12T14:33:21.000Z</time>
      </trkpt>
      <trkpt lat="47.56691" lon="-3.10568">
        <time>2017-11-12T14:33:22.000Z</time>
      </trkpt>
      <trkpt lat="47.56693" lon="-3.10559">
        <time>2017-11-12T14:33:23.000Z</time>
      </trkpt>
      <trkpt lat="47.56696" lon="-3.10549">
        <time>2017-11-12T14:33:24.000Z</time>
      </trkpt>
      <trkpt lat="47.56699" lon="-3.1054">
        <time>2017-11-12T14:33:25.000Z</time>
      </trkpt>
      <trkpt lat="47.56701" lon="-3.1053">
        <time>2017-11-12T14:33:26.000Z</time>
      </trkpt>
      <trkpt lat="47.56699" lon="-3.10522">
        <time>2017-11-12T14:33:27.000Z</time>
      </trkpt>
      <trkpt lat="47.56696" lon="-3.10517">
        <time>2017-11-12T14:33:28.000Z</time>
      </trkpt>
      <trkpt lat="47.56692" lon="-3.10514">
        <time>2017-11-12T14:33:29.000Z</time>
      </trkpt>
      <trkpt lat="47.5669" lon="-3.10513">
        <time>2017-11-12T14:33:30.000Z</time>
      </trkpt>
      <trkpt lat="47.56688" lon="-3.10513">
        <time>2017-11-12T14:33:31.000Z</time>
      </trkpt>
      <trkpt lat="47.56687" lon="-3.10514">
        <time>2017-11-12T14:33:32.000Z</time>
      </trkpt>
      <trkpt lat="47.56686" lon="-3.10516">
        <time>2017-11-12T14:33:33.000Z</time>
      </trkpt>
      <trkpt lat="47.56685" lon="-3.10519">
        <time>2017-11-12T14:33:34.000Z</time>
      </trkpt>
      <trkpt lat="47.56684" lon="-3.10523">
        <time>2017-11-12T14:33:35.000Z</time>
      </trkpt>
      <trkpt lat="47.56683" lon="-3.10527">
        <time>2017-11-12T14:33:36.000Z</time>
      </trkpt>
      <trkpt lat="47.56682" lon="-3.10531">
        <time>2017-11-12T14:33:37.000Z</time>
      </trkpt>
      <trkpt lat="47.56682" lon="-3.10535">
        <time>2017-11-12T14:33:38.000Z</time>
      </trkpt>
      <trkpt lat="47.56681" lon="-3.10539">
        <time>2017-11-12T14:33:39.000Z</time>
      </trkpt>
      <trkpt lat="47.5668" lon="-3.10543">
        <time>2017-11-12T14:33:40.000Z</time>
      </trkpt>
      <trkpt lat="47.56679" lon="-3.10547">
        <time>2017-11-12T14:33:41.000Z</time>
      </trkpt>
      <trkpt lat="47.56679" lon="-3.10552">
        <time>2017-11-12T14:33:42.000Z</time>
      </trkpt>
      <trkpt lat="47.56678" lon="-3.10556">
        <time>2017-11-12T14:33:43.000Z</time>
      </trkpt>
      <trkpt lat="47.56677" lon="-3.1056">
        <time>2017-11-12T14:33:44.000Z</time>
      </trkpt>
      <trkpt lat="47.56676" lon="-3.10563">
        <time>2017-11-12T14:33:45.000Z</time>
      </trkpt>
      <trkpt lat="47.56676" lon="-3.10565">
        <time>2017-11-12T14:33:46.000Z</time>
      </trkpt>
      <trkpt lat="47.56675" lon="-3.1057">
        <time>2017-11-12T14:33:47.000Z</time>
      </trkpt>
      <trkpt lat="47.56674" lon="-3.10575">
        <time>2017-11-12T14:33:48.000Z</time>
      </trkpt>
      <trkpt lat="47.56674" lon="-3.10579">
        <time>2017-11-12T14:33:49.000Z</time>
      </trkpt>
      <trkpt lat="47.56673" lon="-3.10584">
        <time>2017-11-12T14:33:50.000Z</time>
      </trkpt>
      <trkpt lat="47.56672" lon="-3.10589">
        <time>2017-11-12T14:33:51.000Z</time>
      </trkpt>
      <trkpt lat="47.56672" lon="-3.10594">
        <time>2017-11-12T14:33:52.000Z</time>
      </trkpt>
      <trkpt lat="47.56671" lon="-3.106">
        <time>2017-11-12T14:33:53.000Z</time>
      </trkpt>
      <trkpt lat="47.56671" lon="-3.10605">
        <time>2017-11-12T14:33:54.000Z</time>
      </trkpt>
      <trkpt lat="47.5667" lon="-3.1061">
        <time>2017-11-12T14:33:55.000Z</time>
      </trkpt>
      <trkpt lat="47.56668" lon="-3.10615">
        <time>2017-11-12T14:33:56.000Z</time>
      </trkpt>
      <trkpt lat="47.56667" lon="-3.1062">
        <time>2017-11-12T14:33:57.000Z</time>
      </trkpt>
      <trkpt lat="47.56666" lon="-3.10624">
        <time>2017-11-12T14:33:58.000Z</time>
      </trkpt>
      <trkpt lat="47.56666" lon="-3.10629">
        <time>2017-11-12T14:33:59.000Z</time>
      </trkpt>
      <trkpt lat="47.56665" lon="-3.10633">
        <time>2017-11-12T14:34:00.000Z</time>
      </trkpt>
      <trkpt lat="47.56664" lon="-3.10638">
        <time>2017-11-12T14:34:01.000Z</time>
      </trkpt>
      <trkpt lat="47.56664" lon="-3.10642">
        <time>2017-11-12T14:34:02.000Z</time>
      </trkpt>
      <trkpt lat="47.56663" lon="-3.10647">
        <time>2017-11-12T14:34:03.000Z</time>
      </trkpt>
      <trkpt lat="47.56662" lon="-3.10652">
        <time>2017-11-12T14:34:04.000Z</time>
      </trkpt>
      <trkpt lat="47.56661" lon="-3.10656">
        <time>2017-11-12T14:34:05.000Z</time>
      </trkpt>
      <trkpt lat="47.5666" lon="-3.10662">
        <time>2017-11-12T14:34:06.000Z</time>
      </trkpt>
      <trkpt lat="47.56658" lon="-3.10667">
        <time>2017-11-12T14:34:07.000Z</time>
      </trkpt>
      <trkpt lat="47.56657" lon="-3.10672">
        <time>2017-11-12T14:34:08.000Z</time>
      </trkpt>
      <trkpt lat="47.56656" lon="-3.10677">
        <time>2017-11-12T14:34:09.000Z</time>
      </trkpt>
      <trkpt lat="47.56654" lon="-3.10681">
        <time>2017-11-12T14:34:10.000Z</time>
      </trkpt>
      <trkpt lat="47.56653" lon="-3.10685">
        <time>2017-11-12T14:34:11.000Z</time>
      </trkpt>
      <trkpt lat="47.56652" lon="-3.10689">
        <time>2017-11-12T14:34:12.000Z</time>
      </trkpt>
      <trkpt lat="47.5665" lon="-3.10692">
        <time>2017-11-12T14:34:13.000Z</time>
      </trkpt>
      <trkpt lat="47.5665" lon="-3.10695">
        <time>2017-11-12T14:34:14.000Z</time>
      </trkpt>
      <trkpt lat="47.56649" lon="-3.10699">
        <time>2017-11-12T14:34:15.000Z</time>
      </trkpt>
      <trkpt lat="47.56648" lon="-3.10701">
        <time>2017-11-12T14:34:16.000Z</time>
      </trkpt>
      <trkpt lat="47.56648" lon="-3.10703">
        <time>2017-11-12T14:34:17.000Z</time>
      </trkpt>
      <trkpt lat="47.56646" lon="-3.10706">
        <time>2017-11-12T14:34:18.000Z</time>
      </trkpt>
      <trkpt lat="47.56645" lon="-3.10708">
        <time>2017-11-12T14:34:19.000Z</time>
      </trkpt>
      <trkpt lat="47.56644" lon="-3.10712">
        <time>2017-11-12T14:34:20.000Z</time>
      </trkpt>
      <trkpt lat="47.56643" lon="-3.10715">
        <time>2017-11-12T14:34:21.000Z</time>
      </trkpt>
      <trkpt lat="47.56642" lon="-3.10719">
        <time>2017-11-12T14:34:22.000Z</time>
      </trkpt>
      <trkpt lat="47.56641" lon="-3.10722">
        <time>2017-11-12T14:34:23.000Z</time>
      </trkpt>
      <trkpt lat="47.5664" lon="-3.10725">
        <time>2017-11-12T14:34:24.000Z</time>
      </trkpt>
      <trkpt lat="47.56639" lon="-3.10728">
        <time>2017-11-12T14:34:25.000Z</time>
      </trkpt>
      <trkpt lat="47.56638" lon="-3.10732">
        <time>2017-11-12T14:34:26.000Z</time>
      </trkpt>
      <trkpt lat="47.56636" lon="-3.10736">
        <time>2017-11-12T14:34:27.000Z</time>
      </trkpt>
      <trkpt lat="47.56634" lon="-3.10741">
        <time>2017-11-12T14:34:28.000Z</time>
      </trkpt>
      <trkpt lat="47.56631" lon="-3.10746">
        <time>2017-11-12T14:34:29.000Z</time>
      </trkpt>
      <trkpt lat="47.56628" lon="-3.10752">
        <time>2017-11-12T14:34:30.000Z</time>
      </trkpt>
      <trkpt lat="47.56626" lon="-3.10759">
        <time>2017-11-12T14:34:31.000Z</time>
      </trkpt>
      <trkpt lat="47.56625" lon="-3.10766">
        <time>2017-11-12T14:34:32.000Z</time>
      </trkpt>
      <trkpt lat="47.56622" lon="-3.10774">
        <time>2017-11-12T14:34:33.000Z</time>
      </trkpt>
      <trkpt lat="47.5662" lon="-3.10781">
        <time>2017-11-12T14:34:34.000Z</time>
      </trkpt>
      <trkpt lat="47.56618" lon="-3.10789">
        <time>2017-11-12T14:34:35.000Z</time>
      </trkpt>
      <trkpt lat="47.56616" lon="-3.10797">
        <time>2017-11-12T14:34:36.000Z</time>
      </trkpt>
      <trkpt lat="47.56615" lon="-3.10806">
        <time>2017-11-12T14:34:37.000Z</time>
      </trkpt>
      <trkpt lat="47.56613" lon="-3.10813">
        <time>2017-11-12T14:34:38.000Z</time>
      </trkpt>
      <trkpt lat="47.56611" lon="-3.10821">
        <time>2017-11-12T14:34:39.000Z</time>
      </trkpt>
      <trkpt lat="47.56609" lon="-3.1083">
        <time>2017-11-12T14:34:40.000Z</time>
      </trkpt>
      <trkpt lat="47.56607" lon="-3.10839">
        <time>2017-11-12T14:34:41.000Z</time>
      </trkpt>
      <trkpt lat="47.56605" lon="-3.10846">
        <time>2017-11-12T14:34:42.000Z</time>
      </trkpt>
      <trkpt lat="47.56602" lon="-3.10855">
        <time>2017-11-12T14:34:43.000Z</time>
      </trkpt>
      <trkpt lat="47.56599" lon="-3.10864">
        <time>2017-11-12T14:34:44.000Z</time>
      </trkpt>
      <trkpt lat="47.56595" lon="-3.10874">
        <time>2017-11-12T14:34:45.000Z</time>
      </trkpt>
      <trkpt lat="47.56592" lon="-3.10883">
        <time>2017-11-12T14:34:46.000Z</time>
      </trkpt>
      <trkpt lat="47.56589" lon="-3.10892">
        <time>2017-11-12T14:34:47.000Z</time>
      </trkpt>
      <trkpt lat="47.56584" lon="-3.10902">
        <time>2017-11-12T14:34:48.000Z</time>
      </trkpt>
      <trkpt lat="47.5658" lon="-3.1091">
        <time>2017-11-12T14:34:49.000Z</time>
      </trkpt>
      <trkpt lat="47.56576" lon="-3.1092">
        <time>2017-11-12T14:34:50.000Z</time>
      </trkpt>
      <trkpt lat="47.56572" lon="-3.1093">
        <time>2017-11-12T14:34:51.000Z</time>
      </trkpt>
      <trkpt lat="47.56568" lon="-3.1094">
        <time>2017-11-12T14:34:52.000Z</time>
      </trkpt>
      <trkpt lat="47.56563" lon="-3.10949">
        <time>2017-11-12T14:34:53.000Z</time>
      </trkpt>
      <trkpt lat="47.56557" lon="-3.10956">
        <time>2017-11-12T14:34:54.000Z</time>
      </trkpt>
      <trkpt lat="47.5655" lon="-3.1096">
        <time>2017-11-12T14:34:55.000Z</time>
      </trkpt>
      <trkpt lat="47.56544" lon="-3.10961">
        <time>2017-11-12T14:34:56.000Z</time>
      </trkpt>
      <trkpt lat="47.5654" lon="-3.10957">
        <time>2017-11-12T14:34:57.000Z</time>
      </trkpt>
      <trkpt lat="47.56537" lon="-3.10954">
        <time>2017-11-12T14:34:58.000Z</time>
      </trkpt>
      <trkpt lat="47.56536" lon="-3.10951">
        <time>2017-11-12T14:34:59.000Z</time>
      </trkpt>
      <trkpt lat="47.56535" lon="-3.10949">
        <time>2017-11-12T14:35:00.000Z</time>
      </trkpt>
      <trkpt lat="47.56535" lon="-3.10948">
        <time>2017-11-12T14:35:01.000Z</time>
      </trkpt>
      <trkpt lat="47.56536" lon="-3.10945">
        <time>2017-11-12T14:35:02.000Z</time>
      </trkpt>
      <trkpt lat="47.56537" lon="-3.10943">
        <time>2017-11-12T14:35:03.000Z</time>
      </trkpt>
      <trkpt lat="47.56539" lon="-3.10941">
        <time>2017-11-12T14:35:04.000Z</time>
      </trkpt>
      <trkpt lat="47.56541" lon="-3.10937">
        <time>2017-11-12T14:35:05.000Z</time>
      </trkpt>
      <trkpt lat="47.56542" lon="-3.10934">
        <time>2017-11-12T14:35:06.000Z</time>
      </trkpt>
      <trkpt lat="47.56544" lon="-3.10929">
        <time>2017-11-12T14:35:07.000Z</time>
      </trkpt>
      <trkpt lat="47.56546" lon="-3.10925">
        <time>2017-11-12T14:35:08.000Z</time>
      </trkpt>
      <trkpt lat="47.56548" lon="-3.10921">
        <time>2017-11-12T14:35:09.000Z</time>
      </trkpt>
      <trkpt lat="47.56549" lon="-3.10917">
        <time>2017-11-12T14:35:10.000Z</time>
      </trkpt>
      <trkpt lat="47.56551" lon="-3.10912">
        <time>2017-11-12T14:35:11.000Z</time>
      </trkpt>
      <trkpt lat="47.56552" lon="-3.10907">
        <time>2017-11-12T14:35:12.000Z</time>
      </trkpt>
      <trkpt lat="47.56553" lon="-3.10901">
        <time>2017-11-12T14:35:13.000Z</time>
      </trkpt>
      <trkpt lat="47.56554" lon="-3.10895">
        <time>2017-11-12T14:35:14.000Z</time>
      </trkpt>
      <trkpt lat="47.56556" lon="-3.10889">
        <time>2017-11-12T14:35:15.000Z</time>
      </trkpt>
      <trkpt lat="47.56558" lon="-3.10882">
        <time>2017-11-12T14:35:16.000Z</time>
      </trkpt>
      <trkpt lat="47.56559" lon="-3.10875">
        <time>2017-11-12T14:35:17.000Z</time>
      </trkpt>
      <trkpt lat="47.56561" lon="-3.10868">
        <time>2017-11-12T14:35:18.000Z</time>
      </trkpt>
      <trkpt lat="47.56563" lon="-3.1086">
        <time>2017-11-12T14:35:19.000Z</time>
      </trkpt>
      <trkpt lat="47.56566" lon="-3.10853">
        <time>2017-11-12T14:35:20.000Z</time>
      </trkpt>
      <trkpt lat="47.56568" lon="-3.10846">
        <time>2017-11-12T14:35:21.000Z</time>
      </trkpt>
      <trkpt lat="47.56571" lon="-3.10838">
        <time>2017-11-12T14:35:22.000Z</time>
      </trkpt>
      <trkpt lat="47.56573" lon="-3.10828">
        <time>2017-11-12T14:35:23.000Z</time>
      </trkpt>
      <trkpt lat="47.56577" lon="-3.10818">
        <time>2017-11-12T14:35:24.000Z</time>
      </trkpt>
      <trkpt lat="47.56581" lon="-3.10807">
        <time>2017-11-12T14:35:25.000Z</time>
      </trkpt>
      <trkpt lat="47.56585" lon="-3.10798">
        <time>2017-11-12T14:35:26.000Z</time>
      </trkpt>
      <trkpt lat="47.56589" lon="-3.10791">
        <time>2017-11-12T14:35:27.000Z</time>
      </trkpt>
      <trkpt lat="47.56594" lon="-3.10783">
        <time>2017-11-12T14:35:28.000Z</time>
      </trkpt>
      <trkpt lat="47.56598" lon="-3.10776">
        <time>2017-11-12T14:35:29.000Z</time>
      </trkpt>
      <trkpt lat="47.56602" lon="-3.10769">
        <time>2017-11-12T14:35:30.000Z</time>
      </trkpt>
      <trkpt lat="47.56605" lon="-3.10761">
        <time>2017-11-12T14:35:31.000Z</time>
      </trkpt>
      <trkpt lat="47.56609" lon="-3.10753">
        <time>2017-11-12T14:35:32.000Z</time>
      </trkpt>
      <trkpt lat="47.56613" lon="-3.10745">
        <time>2017-11-12T14:35:33.000Z</time>
      </trkpt>
      <trkpt lat="47.56617" lon="-3.10738">
        <time>2017-11-12T14:35:34.000Z</time>
      </trkpt>
      <trkpt lat="47.56621" lon="-3.1073">
        <time>2017-11-12T14:35:35.000Z</time>
      </trkpt>
      <trkpt lat="47.56625" lon="-3.10723">
        <time>2017-11-12T14:35:36.000Z</time>
      </trkpt>
      <trkpt lat="47.56629" lon="-3.10716">
        <time>2017-11-12T14:35:37.000Z</time>
      </trkpt>
      <trkpt lat="47.56633" lon="-3.1071">
        <time>2017-11-12T14:35:38.000Z</time>
      </trkpt>
      <trkpt lat="47.56636" lon="-3.10703">
        <time>2017-11-12T14:35:39.000Z</time>
      </trkpt>
      <trkpt lat="47.56638" lon="-3.10696">
        <time>2017-11-12T14:35:40.000Z</time>
      </trkpt>
      <trkpt lat="47.56641" lon="-3.10689">
        <time>2017-11-12T14:35:41.000Z</time>
      </trkpt>
      <trkpt lat="47.56643" lon="-3.10681">
        <time>2017-11-12T14:35:42.000Z</time>
      </trkpt>
      <trkpt lat="47.56647" lon="-3.10673">
        <time>2017-11-12T14:35:43.000Z</time>
      </trkpt>
      <trkpt lat="47.56649" lon="-3.10663">
        <time>2017-11-12T14:35:44.000Z</time>
      </trkpt>
      <trkpt lat="47.56653" lon="-3.10655">
        <time>2017-11-12T14:35:45.000Z</time>
      </trkpt>
      <trkpt lat="47.56657" lon="-3.10645">
        <time>2017-11-12T14:35:46.000Z</time>
      </trkpt>
      <trkpt lat="47.56661" lon="-3.10636">
        <time>2017-11-12T14:35:47.000Z</time>
      </trkpt>
      <trkpt lat="47.56665" lon="-3.10627">
        <time>2017-11-12T14:35:48.000Z</time>
      </trkpt>
      <trkpt lat="47.5667" lon="-3.10618">
        <time>2017-11-12T14:35:49.000Z</time>
      </trkpt>
      <trkpt lat="47.56673" lon="-3.10608">
        <time>2017-11-12T14:35:50.000Z</time>
      </trkpt>
      <trkpt lat="47.56677" lon="-3.10599">
        <time>2017-11-12T14:35:51.000Z</time>
      </trkpt>
      <trkpt lat="47.56681" lon="-3.1059">
        <time>2017-11-12T14:35:52.000Z</time>
      </trkpt>
      <trkpt lat="47.56685" lon="-3.10581">
        <time>2017-11-12T14:35:53.000Z</time>
      </trkpt>
      <trkpt lat="47.56689" lon="-3.10572">
        <time>2017-11-12T14:35:54.000Z</time>
      </trkpt>
      <trkpt lat="47.56692" lon="-3.10561">
        <time>2017-11-12T14:35:55.000Z</time>
      </trkpt>
      <trkpt lat="47.56695" lon="-3.1055">
        <time>2017-11-12T14:35:56.000Z</time>
      </trkpt>
      <trkpt lat="47.56698" lon="-3.1054">
        <time>2017-11-12T14:35:57.000Z</time>
      </trkpt>
      <trkpt lat="47.56703" lon="-3.10532">
        <time>2017-11-12T14:35:58.000Z</time>
      </trkpt>
      <trkpt lat="47.56706" lon="-3.10523">
        <time>2017-11-12T14:35:59.000Z</time>
      </trkpt>
      <trkpt lat="47.56709" lon="-3.10515">
        <time>2017-11-12T14:36:00.000Z</time>
      </trkpt>
      <trkpt lat="47.56713" lon="-3.10505">
        <time>2017-11-12T14:36:01.000Z</time>
      </trkpt>
      <trkpt lat="47.56717" lon="-3.10494">
        <time>2017-11-12T14:36:02.000Z</time>
      </trkpt>
      <trkpt lat="47.56722" lon="-3.10484">
        <time>2017-11-12T14:36:03.000Z</time>
      </trkpt>
      <trkpt lat="47.56724" lon="-3.10475">
        <time>2017-11-12T14:36:04.000Z</time>
      </trkpt>
      <trkpt lat="47.56727" lon="-3.10466">
        <time>2017-11-12T14:36:05.000Z</time>
      </trkpt>
      <trkpt lat="47.56732" lon="-3.10457">
        <time>2017-11-12T14:36:06.000Z</time>
      </trkpt>
      <trkpt lat="47.56737" lon="-3.10451">
        <time>2017-11-12T14:36:07.000Z</time>
      </trkpt>
      <trkpt lat="47.56741" lon="-3.10444">
        <time>2017-11-12T14:36:08.000Z</time>
      </trkpt>
      <trkpt lat="47.56744" lon="-3.10435">
        <time>2017-11-12T14:36:09.000Z</time>
      </trkpt>
      <trkpt lat="47.56747" lon="-3.10427">
        <time>2017-11-12T14:36:10.000Z</time>
      </trkpt>
      <trkpt lat="47.5675" lon="-3.10418">
        <time>2017-11-12T14:36:11.000Z</time>
      </trkpt>
      <trkpt lat="47.56753" lon="-3.10409">
        <time>2017-11-12T14:36:12.000Z</time>
      </trkpt>
      <trkpt lat="47.56757" lon="-3.104">
        <time>2017-11-12T14:36:13.000Z</time>
      </trkpt>
      <trkpt lat="47.56761" lon="-3.10391">
        <time>2017-11-12T14:36:14.000Z</time>
      </trkpt>
      <trkpt lat="47.56764" lon="-3.10381">
        <time>2017-11-12T14:36:15.000Z</time>
      </trkpt>
      <trkpt lat="47.56768" lon="-3.10371">
        <time>2017-11-12T14:36:16.000Z</time>
      </trkpt>
      <trkpt lat="47.56771" lon="-3.10361">
        <time>2017-11-12T14:36:17.000Z</time>
      </trkpt>
      <trkpt lat="47.56774" lon="-3.1035">
        <time>2017-11-12T14:36:18.000Z</time>
      </trkpt>
      <trkpt lat="47.56777" lon="-3.10339">
        <time>2017-11-12T14:36:19.000Z</time>
      </trkpt>
      <trkpt lat="47.56779" lon="-3.10328">
        <time>2017-11-12T14:36:20.000Z</time>
      </trkpt>
      <trkpt lat="47.56778" lon="-3.10318">
        <time>2017-11-12T14:36:21.000Z</time>
      </trkpt>
      <trkpt lat="47.56774" lon="-3.1031">
        <time>2017-11-12T14:36:22.000Z</time>
      </trkpt>
      <trkpt lat="47.5677" lon="-3.10304">
        <time>2017-11-12T14:36:23.000Z</time>
      </trkpt>
      <trkpt lat="47.56766" lon="-3.10302">
        <time>2017-11-12T14:36:24.000Z</time>
      </trkpt>
      <trkpt lat="47.56762" lon="-3.10303">
        <time>2017-11-12T14:36:25.000Z</time>
      </trkpt>
      <trkpt lat="47.5676" lon="-3.10305">
        <time>2017-11-12T14:36:26.000Z</time>
      </trkpt>
      <trkpt lat="47.5676" lon="-3.1031">
        <time>2017-11-12T14:36:27.000Z</time>
      </trkpt>
      <trkpt lat="47.5676" lon="-3.10315">
        <time>2017-11-12T14:36:28.000Z</time>
      </trkpt>
      <trkpt lat="47.56758" lon="-3.10319">
        <time>2017-11-12T14:36:29.000Z</time>
      </trkpt>
      <trkpt lat="47.56757" lon="-3.10324">
        <time>2017-11-12T14:36:30.000Z</time>
      </trkpt>
      <trkpt lat="47.56754" lon="-3.10329">
        <time>2017-11-12T14:36:31.000Z</time>
      </trkpt>
      <trkpt lat="47.56752" lon="-3.10333">
        <time>2017-11-12T14:36:32.000Z</time>
      </trkpt>
      <trkpt lat="47.5675" lon="-3.1034">
        <time>2017-11-12T14:36:33.000Z</time>
      </trkpt>
      <trkpt lat="47.56749" lon="-3.10347">
        <time>2017-11-12T14:36:34.000Z</time>
      </trkpt>
      <trkpt lat="47.56748" lon="-3.10353">
        <time>2017-11-12T14:36:35.000Z</time>
      </trkpt>
      <trkpt lat="47.56745" lon="-3.1036">
        <time>2017-11-12T14:36:36.000Z</time>
      </trkpt>
      <trkpt lat="47.56743" lon="-3.10368">
        <time>2017-11-12T14:36:37.000Z</time>
      </trkpt>
      <trkpt lat="47.5674" lon="-3.10376">
        <time>2017-11-12T14:36:38.000Z</time>
      </trkpt>
      <trkpt lat="47.56738" lon="-3.10385">
        <time>2017-11-12T14:36:39.000Z</time>
      </trkpt>
      <trkpt lat="47.56736" lon="-3.10394">
        <time>2017-11-12T14:36:40.000Z</time>
      </trkpt>
      <trkpt lat="47.56733" lon="-3.10403">
        <time>2017-11-12T14:36:41.000Z</time>
      </trkpt>
      <trkpt lat="47.56731" lon="-3.10412">
        <time>2017-11-12T14:36:42.000Z</time>
      </trkpt>
      <trkpt lat="47.56728" lon="-3.10423">
        <time>2017-11-12T14:36:43.000Z</time>
      </trkpt>
      <trkpt lat="47.56726" lon="-3.10433">
        <time>2017-11-12T14:36:44.000Z</time>
      </trkpt>
      <trkpt lat="47.56725" lon="-3.10444">
        <time>2017-11-12T14:36:45.000Z</time>
      </trkpt>
      <trkpt lat="47.56722" lon="-3.10454">
        <time>2017-11-12T14:36:46.000Z</time>
      </trkpt>
      <trkpt lat="47.56719" lon="-3.10464">
        <time>2017-11-12T14:36:47.000Z</time>
      </trkpt>
      <trkpt lat="47.56716" lon="-3.10476">
        <time>2017-11-12T14:36:48.000Z</time>
      </trkpt>
      <trkpt lat="47.56714" lon="-3.10487">
        <time>2017-11-12T14:36:49.000Z</time>
      </trkpt>
      <trkpt lat="47.56711" lon="-3.10499">
        <time>2017-11-12T14:36:50.000Z</time>
      </trkpt>
      <trkpt lat="47.56708" lon="-3.10512">
        <time>2017-11-12T14:36:51.000Z</time>
      </trkpt>
      <trkpt lat="47.56706" lon="-3.10525">
        <time>2017-11-12T14:36:52.000Z</time>
      </trkpt>
      <trkpt lat="47.56703" lon="-3.10538">
        <time>2017-11-12T14:36:53.000Z</time>
      </trkpt>
      <trkpt lat="47.56701" lon="-3.10552">
        <time>2017-11-12T14:36:54.000Z</time>
      </trkpt>
      <trkpt lat="47.567" lon="-3.10564">
        <time>2017-11-12T14:36:55.000Z</time>
      </trkpt>
      <trkpt lat="47.56697" lon="-3.10579">
        <time>2017-11-12T14:36:56.000Z</time>
      </trkpt>
      <trkpt lat="47.56695" lon="-3.10592">
        <time>2017-11-12T14:36:57.000Z</time>
      </trkpt>
      <trkpt lat="47.56692" lon="-3.10605">
        <time>2017-11-12T14:36:58.000Z</time>
      </trkpt>
      <trkpt lat="47.56689" lon="-3.10618">
        <time>2017-11-12T14:36:59.000Z</time>
      </trkpt>
      <trkpt lat="47.56686" lon="-3.1063">
        <time>2017-11-12T14:37:00.000Z</time>
      </trkpt>
      <trkpt lat="47.56684" lon="-3.10642">
        <time>2017-11-12T14:37:01.000Z</time>
      </trkpt>
      <trkpt lat="47.56681" lon="-3.10653">
        <time>2017-11-12T14:37:02.000Z</time>
      </trkpt>
      <trkpt lat="47.56677" lon="-3.10665">
        <time>2017-11-12T14:37:03.000Z</time>
      </trkpt>
      <trkpt lat="47.56674" lon="-3.10676">
        <time>2017-11-12T14:37:04.000Z</time>
      </trkpt>
      <trkpt lat="47.56672" lon="-3.10688">
        <time>2017-11-12T14:37:05.000Z</time>
      </trkpt>
      <trkpt lat="47.56669" lon="-3.107">
        <time>2017-11-12T14:37:06.000Z</time>
      </trkpt>
      <trkpt lat="47.56666" lon="-3.10711">
        <time>2017-11-12T14:37:07.000Z</time>
      </trkpt>
      <trkpt lat="47.56664" lon="-3.10723">
        <time>2017-11-12T14:37:08.000Z</time>
      </trkpt>
      <trkpt lat="47.56662" lon="-3.10734">
        <time>2017-11-12T14:37:09.000Z</time>
      </trkpt>
      <trkpt lat="47.56658" lon="-3.10745">
        <time>2017-11-12T14:37:10.000Z</time>
      </trkpt>
      <trkpt lat="47.56655" lon="-3.10757">
        <time>2017-11-12T14:37:11.000Z</time>
      </trkpt>
      <trkpt lat="47.56652" lon="-3.10769">
        <time>2017-11-12T14:37:12.000Z</time>
      </trkpt>
      <trkpt lat="47.56649" lon="-3.10781">
        <time>2017-11-12T14:37:13.000Z</time>
      </trkpt>
      <trkpt lat="47.56646" lon="-3.10792">
        <time>2017-11-12T14:37:14.000Z</time>
      </trkpt>
      <trkpt lat="47.56645" lon="-3.10803">
        <time>2017-11-12T14:37:15.000Z</time>
      </trkpt>
      <trkpt lat="47.56643" lon="-3.10816">
        <time>2017-11-12T14:37:16.000Z</time>
      </trkpt>
      <trkpt lat="47.56642" lon="-3.1083">
        <time>2017-11-12T14:37:17.000Z</time>
      </trkpt>
      <trkpt lat="47.5664" lon="-3.10842">
        <time>2017-11-12T14:37:18.000Z</time>
      </trkpt>
      <trkpt lat="47.56636" lon="-3.10856">
        <time>2017-11-12T14:37:19.000Z</time>
      </trkpt>
      <trkpt lat="47.56631" lon="-3.1087">
        <time>2017-11-12T14:37:20.000Z</time>
      </trkpt>
      <trkpt lat="47.56625" lon="-3.10883">
        <time>2017-11-12T14:37:21.000Z</time>
      </trkpt>
      <trkpt lat="47.56622" lon="-3.10899">
        <time>2017-11-12T14:37:22.000Z</time>
      </trkpt>
      <trkpt lat="47.56617" lon="-3.10914">
        <time>2017-11-12T14:37:23.000Z</time>
      </trkpt>
      <trkpt lat="47.56615" lon="-3.10929">
        <time>2017-11-12T14:37:24.000Z</time>
      </trkpt>
      <trkpt lat="47.56613" lon="-3.10943">
        <time>2017-11-12T14:37:25.000Z</time>
      </trkpt>
      <trkpt lat="47.5661" lon="-3.10956">
        <time>2017-11-12T14:37:26.000Z</time>
      </trkpt>
      <trkpt lat="47.56606" lon="-3.1097">
        <time>2017-11-12T14:37:27.000Z</time>
      </trkpt>
      <trkpt lat="47.56603" lon="-3.10983">
        <time>2017-11-12T14:37:28.000Z</time>
      </trkpt>
      <trkpt lat="47.56601" lon="-3.10998">
        <time>2017-11-12T14:37:29.000Z</time>
      </trkpt>
      <trkpt lat="47.56599" lon="-3.11012">
        <time>2017-11-12T14:37:30.000Z</time>
      </trkpt>
      <trkpt lat="47.56597" lon="-3.11024">
        <time>2017-11-12T14:37:31.000Z</time>
      </trkpt>
      <trkpt lat="47.56596" lon="-3.11038">
        <time>2017-11-12T14:37:32.000Z</time>
      </trkpt>
      <trkpt lat="47.56593" lon="-3.1105">
        <time>2017-11-12T14:37:33.000Z</time>
      </trkpt>
      <trkpt lat="47.56591" lon="-3.11063">
        <time>2017-11-12T14:37:34.000Z</time>
      </trkpt>
      <trkpt lat="47.56587" lon="-3.11075">
        <time>2017-11-12T14:37:35.000Z</time>
      </trkpt>
      <trkpt lat="47.56584" lon="-3.11088">
        <time>2017-11-12T14:37:36.000Z</time>
      </trkpt>
      <trkpt lat="47.56581" lon="-3.111">
        <time>2017-11-12T14:37:37.000Z</time>
      </trkpt>
      <trkpt lat="47.56578" lon="-3.11112">
        <time>2017-11-12T14:37:38.000Z</time>
      </trkpt>
      <trkpt lat="47.56574" lon="-3.11124">
        <time>2017-11-12T14:37:39.000Z</time>
      </trkpt>
      <trkpt lat="47.56571" lon="-3.11135">
        <time>2017-11-12T14:37:40.000Z</time>
      </trkpt>
      <trkpt lat="47.56567" lon="-3.11147">
        <time>2017-11-12T14:37:41.000Z</time>
      </trkpt>
      <trkpt lat="47.56564" lon="-3.11158">
        <time>2017-11-12T14:37:42.000Z</time>
      </trkpt>
      <trkpt lat="47.56561" lon="-3.1117">
        <time>2017-11-12T14:37:43.000Z</time>
      </trkpt>
      <trkpt lat="47.56556" lon="-3.11182">
        <time>2017-11-12T14:37:44.000Z</time>
      </trkpt>
      <trkpt lat="47.56552" lon="-3.11193">
        <time>2017-11-12T14:37:45.000Z</time>
      </trkpt>
      <trkpt lat="47.56549" lon="-3.11204">
        <time>2017-11-12T14:37:46.000Z</time>
      </trkpt>
      <trkpt lat="47.56544" lon="-3.11214">
        <time>2017-11-12T14:37:47.000Z</time>
      </trkpt>
      <trkpt lat="47.56541" lon="-3.11224">
        <time>2017-11-12T14:37:48.000Z</time>
      </trkpt>
      <trkpt lat="47.56537" lon="-3.11234">
        <time>2017-11-12T14:37:49.000Z</time>
      </trkpt>
      <trkpt lat="47.56533" lon="-3.11244">
        <time>2017-11-12T14:37:50.000Z</time>
      </trkpt>
      <trkpt lat="47.56529" lon="-3.11253">
        <time>2017-11-12T14:37:51.000Z</time>
      </trkpt>
      <trkpt lat="47.56526" lon="-3.11262">
        <time>2017-11-12T14:37:52.000Z</time>
      </trkpt>
      <trkpt lat="47.56522" lon="-3.11271">
        <time>2017-11-12T14:37:53.000Z</time>
      </trkpt>
      <trkpt lat="47.56518" lon="-3.11279">
        <time>2017-11-12T14:37:54.000Z</time>
      </trkpt>
      <trkpt lat="47.56514" lon="-3.11288">
        <time>2017-11-12T14:37:55.000Z</time>
      </trkpt>
      <trkpt lat="47.5651" lon="-3.11297">
        <time>2017-11-12T14:37:56.000Z</time>
      </trkpt>
      <trkpt lat="47.56506" lon="-3.11307">
        <time>2017-11-12T14:37:57.000Z</time>
      </trkpt>
      <trkpt lat="47.56502" lon="-3.11317">
        <time>2017-11-12T14:37:58.000Z</time>
      </trkpt>
      <trkpt lat="47.56498" lon="-3.11327">
        <time>2017-11-12T14:37:59.000Z</time>
      </trkpt>
      <trkpt lat="47.56494" lon="-3.11336">
        <time>2017-11-12T14:38:00.000Z</time>
      </trkpt>
      <trkpt lat="47.5649" lon="-3.11346">
        <time>2017-11-12T14:38:01.000Z</time>
      </trkpt>
      <trkpt lat="47.56486" lon="-3.11355">
        <time>2017-11-12T14:38:02.000Z</time>
      </trkpt>
      <trkpt lat="47.56482" lon="-3.11363">
        <time>2017-11-12T14:38:03.000Z</time>
      </trkpt>
      <trkpt lat="47.56477" lon="-3.1137">
        <time>2017-11-12T14:38:04.000Z</time>
      </trkpt>
      <trkpt lat="47.56471" lon="-3.11374">
        <time>2017-11-12T14:38:05.000Z</time>
      </trkpt>
      <trkpt lat="47.56465" lon="-3.11374">
        <time>2017-11-12T14:38:06.000Z</time>
      </trkpt>
      <trkpt lat="47.56459" lon="-3.11372">
        <time>2017-11-12T14:38:07.000Z</time>
      </trkpt>
      <trkpt lat="47.56455" lon="-3.11368">
        <time>2017-11-12T14:38:08.000Z</time>
      </trkpt>
      <trkpt lat="47.56453" lon="-3.11364">
        <time>2017-11-12T14:38:09.000Z</time>
      </trkpt>
      <trkpt lat="47.56453" lon="-3.1136">
        <time>2017-11-12T14:38:10.000Z</time>
      </trkpt>
      <trkpt lat="47.56453" lon="-3.11357">
        <time>2017-11-12T14:38:11.000Z</time>
      </trkpt>
      <trkpt lat="47.56453" lon="-3.11353">
        <time>2017-11-12T14:38:12.000Z</time>
      </trkpt>
      <trkpt lat="47.56454" lon="-3.11349">
        <time>2017-11-12T14:38:13.000Z</time>
      </trkpt>
      <trkpt lat="47.56456" lon="-3.11345">
        <time>2017-11-12T14:38:14.000Z</time>
      </trkpt>
      <trkpt lat="47.56457" lon="-3.11341">
        <time>2017-11-12T14:38:15.000Z</time>
      </trkpt>
      <trkpt lat="47.56458" lon="-3.11337">
        <time>2017-11-12T14:38:16.000Z</time>
      </trkpt>
      <trkpt lat="47.56459" lon="-3.11334">
        <time>2017-11-12T14:38:17.000Z</time>
      </trkpt>
      <trkpt lat="47.5646" lon="-3.11331">
        <time>2017-11-12T14:38:18.000Z</time>
      </trkpt>
      <trkpt lat="47.56461" lon="-3.11329">
        <time>2017-11-12T14:38:19.000Z</time>
      </trkpt>
      <trkpt lat="47.56463" lon="-3.11327">
        <time>2017-11-12T14:38:20.000Z</time>
      </trkpt>
      <trkpt lat="47.56464" lon="-3.11324">
        <time>2017-11-12T14:38:21.000Z</time>
      </trkpt>
      <trkpt lat="47.56466" lon="-3.11321">
        <time>2017-11-12T14:38:22.000Z</time>
      </trkpt>
      <trkpt lat="47.56467" lon="-3.11318">
        <time>2017-11-12T14:38:23.000Z</time>
      </trkpt>
      <trkpt lat="47.56469" lon="-3.11314">
        <time>2017-11-12T14:38:24.000Z</time>
      </trkpt>
      <trkpt lat="47.5647" lon="-3.11311">
        <time>2017-11-12T14:38:25.000Z</time>
      </trkpt>
      <trkpt lat="47.56472" lon="-3.11308">
        <time>2017-11-12T14:38:26.000Z</time>
      </trkpt>
      <trkpt lat="47.56474" lon="-3.11303">
        <time>2017-11-12T14:38:27.000Z</time>
      </trkpt>
      <trkpt lat="47.56476" lon="-3.11299">
        <time>2017-11-12T14:38:28.000Z</time>
      </trkpt>
      <trkpt lat="47.56478" lon="-3.11295">
        <time>2017-11-12T14:38:29.000Z</time>
      </trkpt>
      <trkpt lat="47.5648" lon="-3.11291">
        <time>2017-11-12T14:38:30.000Z</time>
      </trkpt>
      <trkpt lat="47.56483" lon="-3.11285">
        <time>2017-11-12T14:38:31.000Z</time>
      </trkpt>
      <trkpt lat="47.56486" lon="-3.1128">
        <time>2017-11-12T14:38:32.000Z</time>
      </trkpt>
      <trkpt lat="47.56488" lon="-3.11275">
        <time>2017-11-12T14:38:33.000Z</time>
      </trkpt>
      <trkpt lat="47.56491" lon="-3.11269">
        <time>2017-11-12T14:38:34.000Z</time>
      </trkpt>
      <trkpt lat="47.56493" lon="-3.11262">
        <time>2017-11-12T14:38:35.000Z</time>
      </trkpt>
      <trkpt lat="47.56496" lon="-3.11255">
        <time>2017-11-12T14:38:36.000Z</time>
      </trkpt>
      <trkpt lat="47.56499" lon="-3.11247">
        <time>2017-11-12T14:38:37.000Z</time>
      </trkpt>
      <trkpt lat="47.56501" lon="-3.11239">
        <time>2017-11-12T14:38:38.000Z</time>
      </trkpt>
      <trkpt lat="47.56504" lon="-3.11231">
        <time>2017-11-12T14:38:39.000Z</time>
      </trkpt>
      <trkpt lat="47.56506" lon="-3.11221">
        <time>2017-11-12T14:38:40.000Z</time>
      </trkpt>
      <trkpt lat="47.56509" lon="-3.11213">
        <time>2017-11-12T14:38:41.000Z</time>
      </trkpt>
      <trkpt lat="47.56512" lon="-3.11204">
        <time>2017-11-12T14:38:42.000Z</time>
      </trkpt>
      <trkpt lat="47.56514" lon="-3.11194">
        <time>2017-11-12T14:38:43.000Z</time>
      </trkpt>
      <trkpt lat="47.56517" lon="-3.11184">
        <time>2017-11-12T14:38:44.000Z</time>
      </trkpt>
      <trkpt lat="47.5652" lon="-3.11174">
        <time>2017-11-12T14:38:45.000Z</time>
      </trkpt>
      <trkpt lat="47.56524" lon="-3.11164">
        <time>2017-11-12T14:38:46.000Z</time>
      </trkpt>
      <trkpt lat="47.56527" lon="-3.11154">
        <time>2017-11-12T14:38:47.000Z</time>
      </trkpt>
      <trkpt lat="47.5653" lon="-3.11144">
        <time>2017-11-12T14:38:48.000Z</time>
      </trkpt>
      <trkpt lat="47.56532" lon="-3.11133">
        <time>2017-11-12T14:38:49.000Z</time>
      </trkpt>
      <trkpt lat="47.56535" lon="-3.11123">
        <time>2017-11-12T14:38:50.000Z</time>
      </trkpt>
      <trkpt lat="47.56538" lon="-3.11113">
        <time>2017-11-12T14:38:51.000Z</time>
      </trkpt>
      <trkpt lat="47.56542" lon="-3.11104">
        <time>2017-11-12T14:38:52.000Z</time>
      </trkpt>
      <trkpt lat="47.56545" lon="-3.11095">
        <time>2017-11-12T14:38:53.000Z</time>
      </trkpt>
      <trkpt lat="47.56549" lon="-3.11086">
        <time>2017-11-12T14:38:54.000Z</time>
      </trkpt>
      <trkpt lat="47.56551" lon="-3.11076">
        <time>2017-11-12T14:38:55.000Z</time>
      </trkpt>
      <trkpt lat="47.56553" lon="-3.11066">
        <time>2017-11-12T14:38:56.000Z</time>
      </trkpt>
      <trkpt lat="47.56555" lon="-3.11056">
        <time>2017-11-12T14:38:57.000Z</time>
      </trkpt>
      <trkpt lat="47.56559" lon="-3.11048">
        <time>2017-11-12T14:38:58.000Z</time>
      </trkpt>
      <trkpt lat="47.56561" lon="-3.11039">
        <time>2017-11-12T14:38:59.000Z</time>
      </trkpt>
      <trkpt lat="47.56564" lon="-3.11029">
        <time>2017-11-12T14:39:00.000Z</time>
      </trkpt>
      <trkpt lat="47.56568" lon="-3.1102">
        <time>2017-11-12T14:39:01.000Z</time>
      </trkpt>
      <trkpt lat="47.56572" lon="-3.11011">
        <time>2017-11-12T14:39:02.000Z</time>
      </trkpt>
      <trkpt lat="47.56575" lon="-3.11001">
        <time>2017-11-12T14:39:03.000Z</time>
      </trkpt>
      <trkpt lat="47.56579" lon="-3.10991">
        <time>2017-11-12T14:39:04.000Z</time>
      </trkpt>
      <trkpt lat="47.56582" lon="-3.10982">
        <time>2017-11-12T14:39:05.000Z</time>
      </trkpt>
      <trkpt lat="47.56586" lon="-3.10973">
        <time>2017-11-12T14:39:06.000Z</time>
      </trkpt>
      <trkpt lat="47.5659" lon="-3.10963">
        <time>2017-11-12T14:39:07.000Z</time>
      </trkpt>
      <trkpt lat="47.56594" lon="-3.10954">
        <time>2017-11-12T14:39:08.000Z</time>
      </trkpt>
      <trkpt lat="47.56598" lon="-3.10945">
        <time>2017-11-12T14:39:09.000Z</time>
      </trkpt>
      <trkpt lat="47.56601" lon="-3.10933">
        <time>2017-11-12T14:39:10.000Z</time>
      </trkpt>
      <trkpt lat="47.56605" lon="-3.10923">
        <time>2017-11-12T14:39:11.000Z</time>
      </trkpt>
      <trkpt lat="47.56608" lon="-3.10912">
        <time>2017-11-12T14:39:12.000Z</time>
      </trkpt>
      <trkpt lat="47.5661" lon="-3.10901">
        <time>2017-11-12T14:39:13.000Z</time>
      </trkpt>
      <trkpt lat="47.56612" lon="-3.10891">
        <time>2017-11-12T14:39:14.000Z</time>
      </trkpt>
      <trkpt lat="47.56616" lon="-3.10881">
        <time>2017-11-12T14:39:15.000Z</time>
      </trkpt>
      <trkpt lat="47.56619" lon="-3.10871">
        <time>2017-11-12T14:39:16.000Z</time>
      </trkpt>
      <trkpt lat="47.56623" lon="-3.10863">
        <time>2017-11-12T14:39:17.000Z</time>
      </trkpt>
      <trkpt lat="47.56626" lon="-3.10854">
        <time>2017-11-12T14:39:18.000Z</time>
      </trkpt>
      <trkpt lat="47.56628" lon="-3.10846">
        <time>2017-11-12T14:39:19.000Z</time>
      </trkpt>
      <trkpt lat="47.56631" lon="-3.10838">
        <time>2017-11-12T14:39:20.000Z</time>
      </trkpt>
      <trkpt lat="47.56635" lon="-3.1083">
        <time>2017-11-12T14:39:21.000Z</time>
      </trkpt>
      <trkpt lat="47.56638" lon="-3.10823">
        <time>2017-11-12T14:39:22.000Z</time>
      </trkpt>
      <trkpt lat="47.56641" lon="-3.10815">
        <time>2017-11-12T14:39:23.000Z</time>
      </trkpt>
      <trkpt lat="47.56643" lon="-3.10808">
        <time>2017-11-12T14:39:24.000Z</time>
      </trkpt>
      <trkpt lat="47.56645" lon="-3.108">
        <time>2017-11-12T14:39:25.000Z</time>
      </trkpt>
      <trkpt lat="47.56647" lon="-3.10792">
        <time>2017-11-12T14:39:26.000Z</time>
      </trkpt>
      <trkpt lat="47.5665" lon="-3.10782">
        <time>2017-11-12T14:39:27.000Z</time>
      </trkpt>
      <trkpt lat="47.56652" lon="-3.10771">
        <time>2017-11-12T14:39:28.000Z</time>
      </trkpt>
      <trkpt lat="47.56655" lon="-3.1076">
        <time>2017-11-12T14:39:29.000Z</time>
      </trkpt>
      <trkpt lat="47.56657" lon="-3.10749">
        <time>2017-11-12T14:39:30.000Z</time>
      </trkpt>
      <trkpt lat="47.5666" lon="-3.10739">
        <time>2017-11-12T14:39:31.000Z</time>
      </trkpt>
      <trkpt lat="47.56664" lon="-3.10729">
        <time>2017-11-12T14:39:32.000Z</time>
      </trkpt>
      <trkpt lat="47.56667" lon="-3.10718">
        <time>2017-11-12T14:39:33.000Z</time>
      </trkpt>
      <trkpt lat="47.56671" lon="-3.10709">
        <time>2017-11-12T14:39:34.000Z</time>
      </trkpt>
      <trkpt lat="47.56675" lon="-3.10701">
        <time>2017-11-12T14:39:35.000Z</time>
      </trkpt>
      <trkpt lat="47.56679" lon="-3.10692">
        <time>2017-11-12T14:39:36.000Z</time>
      </trkpt>
      <trkpt lat="47.56681" lon="-3.10683">
        <time>2017-11-12T14:39:37.000Z</time>
      </trkpt>
      <trkpt lat="47.56684" lon="-3.10676">
        <time>2017-11-12T14:39:38.000Z</time>
      </trkpt>
      <trkpt lat="47.56687" lon="-3.10671">
        <time>2017-11-12T14:39:39.000Z</time>
      </trkpt>
      <trkpt lat="47.5669" lon="-3.10666">
        <time>2017-11-12T14:39:40.000Z</time>
      </trkpt>
      <trkpt lat="47.56692" lon="-3.10662">
        <time>2017-11-12T14:39:41.000Z</time>
      </trkpt>
      <trkpt lat="47.56694" lon="-3.10658">
        <time>2017-11-12T14:39:42.000Z</time>
      </trkpt>
      <trkpt lat="47.56695" lon="-3.10654">
        <time>2017-11-12T14:39:43.000Z</time>
      </trkpt>
      <trkpt lat="47.56696" lon="-3.1065">
        <time>2017-11-12T14:39:44.000Z</time>
      </trkpt>
      <trkpt lat="47.56698" lon="-3.10646">
        <time>2017-11-12T14:39:45.000Z</time>
      </trkpt>
      <trkpt lat="47.56699" lon="-3.10641">
        <time>2017-11-12T14:39:46.000Z</time>
      </trkpt>
      <trkpt lat="47.56701" lon="-3.10637">
        <time>2017-11-12T14:39:47.000Z</time>
      </trkpt>
      <trkpt lat="47.56702" lon="-3.10633">
        <time>2017-11-12T14:39:48.000Z</time>
      </trkpt>
      <trkpt lat="47.56704" lon="-3.10629">
        <time>2017-11-12T14:39:49.000Z</time>
      </trkpt>
      <trkpt lat="47.56705" lon="-3.10625">
        <time>2017-11-12T14:39:50.000Z</time>
      </trkpt>
      <trkpt lat="47.56706" lon="-3.10621">
        <time>2017-11-12T14:39:51.000Z</time>
      </trkpt>
      <trkpt lat="47.56708" lon="-3.10617">
        <time>2017-11-12T14:39:52.000Z</time>
      </trkpt>
      <trkpt lat="47.56709" lon="-3.10612">
        <time>2017-11-12T14:39:53.000Z</time>
      </trkpt>
      <trkpt lat="47.56711" lon="-3.10606">
        <time>2017-11-12T14:39:54.000Z</time>
      </trkpt>
      <trkpt lat="47.56714" lon="-3.106">
        <time>2017-11-12T14:39:55.000Z</time>
      </trkpt>
      <trkpt lat="47.56716" lon="-3.10594">
        <time>2017-11-12T14:39:56.000Z</time>
      </trkpt>
      <trkpt lat="47.56719" lon="-3.10588">
        <time>2017-11-12T14:39:57.000Z</time>
      </trkpt>
      <trkpt lat="47.56723" lon="-3.10582">
        <time>2017-11-12T14:39:58.000Z</time>
      </trkpt>
      <trkpt lat="47.56725" lon="-3.10574">
        <time>2017-11-12T14:39:59.000Z</time>
      </trkpt>
      <trkpt lat="47.56727" lon="-3.10565">
        <time>2017-11-12T14:40:00.000Z</time>
      </trkpt>
      <trkpt lat="47.56729" lon="-3.10555">
        <time>2017-11-12T14:40:01.000Z</time>
      </trkpt>
      <trkpt lat="47.56731" lon="-3.10546">
        <time>2017-11-12T14:40:02.000Z</time>
      </trkpt>
      <trkpt lat="47.56735" lon="-3.10536">
        <time>2017-11-12T14:40:03.000Z</time>
      </trkpt>
      <trkpt lat="47.56737" lon="-3.10525">
        <time>2017-11-12T14:40:04.000Z</time>
      </trkpt>
      <trkpt lat="47.5674" lon="-3.10514">
        <time>2017-11-12T14:40:05.000Z</time>
      </trkpt>
      <trkpt lat="47.56743" lon="-3.10505">
        <time>2017-11-12T14:40:06.000Z</time>
      </trkpt>
      <trkpt lat="47.56746" lon="-3.10495">
        <time>2017-11-12T14:40:07.000Z</time>
      </trkpt>
      <trkpt lat="47.56748" lon="-3.10485">
        <time>2017-11-12T14:40:08.000Z</time>
      </trkpt>
      <trkpt lat="47.56751" lon="-3.10474">
        <time>2017-11-12T14:40:09.000Z</time>
      </trkpt>
      <trkpt lat="47.56751" lon="-3.10463">
        <time>2017-11-12T14:40:10.000Z</time>
      </trkpt>
      <trkpt lat="47.56752" lon="-3.10452">
        <time>2017-11-12T14:40:11.000Z</time>
      </trkpt>
      <trkpt lat="47.56751" lon="-3.10442">
        <time>2017-11-12T14:40:12.000Z</time>
      </trkpt>
      <trkpt lat="47.56749" lon="-3.10434">
        <time>2017-11-12T14:40:13.000Z</time>
      </trkpt>
      <trkpt lat="47.56745" lon="-3.10426">
        <time>2017-11-12T14:40:14.000Z</time>
      </trkpt>
      <trkpt lat="47.5674" lon="-3.10421">
        <time>2017-11-12T14:40:15.000Z</time>
      </trkpt>
      <trkpt lat="47.56735" lon="-3.10419">
        <time>2017-11-12T14:40:16.000Z</time>
      </trkpt>
      <trkpt lat="47.5673" lon="-3.10419">
        <time>2017-11-12T14:40:17.000Z</time>
      </trkpt>
      <trkpt lat="47.56728" lon="-3.10421">
        <time>2017-11-12T14:40:18.000Z</time>
      </trkpt>
      <trkpt lat="47.56727" lon="-3.10425">
        <time>2017-11-12T14:40:19.000Z</time>
      </trkpt>
      <trkpt lat="47.56727" lon="-3.10429">
        <time>2017-11-12T14:40:20.000Z</time>
      </trkpt>
      <trkpt lat="47.56726" lon="-3.10432">
        <time>2017-11-12T14:40:21.000Z</time>
      </trkpt>
      <trkpt lat="47.56726" lon="-3.10435">
        <time>2017-11-12T14:40:22.000Z</time>
      </trkpt>
      <trkpt lat="47.56725" lon="-3.10439">
        <time>2017-11-12T14:40:23.000Z</time>
      </trkpt>
      <trkpt lat="47.56724" lon="-3.10444">
        <time>2017-11-12T14:40:24.000Z</time>
      </trkpt>
      <trkpt lat="47.56722" lon="-3.1045">
        <time>2017-11-12T14:40:25.000Z</time>
      </trkpt>
      <trkpt lat="47.5672" lon="-3.10455">
        <time>2017-11-12T14:40:26.000Z</time>
      </trkpt>
      <trkpt lat="47.56719" lon="-3.10461">
        <time>2017-11-12T14:40:27.000Z</time>
      </trkpt>
      <trkpt lat="47.56717" lon="-3.10468">
        <time>2017-11-12T14:40:28.000Z</time>
      </trkpt>
      <trkpt lat="47.56716" lon="-3.10475">
        <time>2017-11-12T14:40:29.000Z</time>
      </trkpt>
      <trkpt lat="47.56714" lon="-3.10483">
        <time>2017-11-12T14:40:30.000Z</time>
      </trkpt>
      <trkpt lat="47.56712" lon="-3.10491">
        <time>2017-11-12T14:40:31.000Z</time>
      </trkpt>
      <trkpt lat="47.56708" lon="-3.105">
        <time>2017-11-12T14:40:32.000Z</time>
      </trkpt>
      <trkpt lat="47.56704" lon="-3.10509">
        <time>2017-11-12T14:40:33.000Z</time>
      </trkpt>
      <trkpt lat="47.56701" lon="-3.10519">
        <time>2017-11-12T14:40:34.000Z</time>
      </trkpt>
      <trkpt lat="47.56698" lon="-3.10529">
        <time>2017-11-12T14:40:35.000Z</time>
      </trkpt>
      <trkpt lat="47.56694" lon="-3.1054">
        <time>2017-11-12T14:40:36.000Z</time>
      </trkpt>
      <trkpt lat="47.56691" lon="-3.10552">
        <time>2017-11-12T14:40:37.000Z</time>
      </trkpt>
      <trkpt lat="47.56687" lon="-3.10563">
        <time>2017-11-12T14:40:38.000Z</time>
      </trkpt>
      <trkpt lat="47.56683" lon="-3.10575">
        <time>2017-11-12T14:40:39.000Z</time>
      </trkpt>
      <trkpt lat="47.56677" lon="-3.10587">
        <time>2017-11-12T14:40:40.000Z</time>
      </trkpt>
      <trkpt lat="47.56672" lon="-3.10599">
        <time>2017-11-12T14:40:41.000Z</time>
      </trkpt>
      <trkpt lat="47.56666" lon="-3.10611">
        <time>2017-11-12T14:40:42.000Z</time>
      </trkpt>
      <trkpt lat="47.56661" lon="-3.10625">
        <time>2017-11-12T14:40:43.000Z</time>
      </trkpt>
      <trkpt lat="47.56655" lon="-3.10637">
        <time>2017-11-12T14:40:44.000Z</time>
      </trkpt>
      <trkpt lat="47.56652" lon="-3.1065">
        <time>2017-11-12T14:40:45.000Z</time>
      </trkpt>
      <trkpt lat="47.56648" lon="-3.10663">
        <time>2017-11-12T14:40:46.000Z</time>
      </trkpt>
      <trkpt lat="47.56645" lon="-3.10676">
        <time>2017-11-12T14:40:47.000Z</time>
      </trkpt>
      <trkpt lat="47.56641" lon="-3.10689">
        <time>2017-11-12T14:40:48.000Z</time>
      </trkpt>
      <trkpt lat="47.56638" lon="-3.10701">
        <time>2017-11-12T14:40:49.000Z</time>
      </trkpt>
      <trkpt lat="47.56635" lon="-3.10713">
        <time>2017-11-12T14:40:50.000Z</time>
      </trkpt>
      <trkpt lat="47.56632" lon="-3.10726">
        <time>2017-11-12T14:40:51.000Z</time>
      </trkpt>
      <trkpt lat="47.5663" lon="-3.10738">
        <time>2017-11-12T14:40:52.000Z</time>
      </trkpt>
      <trkpt lat="47.56627" lon="-3.1075">
        <time>2017-11-12T14:40:53.000Z</time>
      </trkpt>
      <trkpt lat="47.56625" lon="-3.10761">
        <time>2017-11-12T14:40:54.000Z</time>
      </trkpt>
      <trkpt lat="47.56622" lon="-3.10772">
        <time>2017-11-12T14:40:55.000Z</time>
      </trkpt>
      <trkpt lat="47.56619" lon="-3.10784">
        <time>2017-11-12T14:40:56.000Z</time>
      </trkpt>
      <trkpt lat="47.56617" lon="-3.10795">
        <time>2017-11-12T14:40:57.000Z</time>
      </trkpt>
      <trkpt lat="47.56614" lon="-3.10807">
        <time>2017-11-12T14:40:58.000Z</time>
      </trkpt>
      <trkpt lat="47.56611" lon="-3.1082">
        <time>2017-11-12T14:40:59.000Z</time>
      </trkpt>
      <trkpt lat="47.56608" lon="-3.10832">
        <time>2017-11-12T14:41:00.000Z</time>
      </trkpt>
      <trkpt lat="47.56605" lon="-3.10845">
        <time>2017-11-12T14:41:01.000Z</time>
      </trkpt>
      <trkpt lat="47.56602" lon="-3.10858">
        <time>2017-11-12T14:41:02.000Z</time>
      </trkpt>
      <trkpt lat="47.56599" lon="-3.1087">
        <time>2017-11-12T14:41:03.000Z</time>
      </trkpt>
      <trkpt lat="47.56596" lon="-3.10883">
        <time>2017-11-12T14:41:04.000Z</time>
      </trkpt>
      <trkpt lat="47.56592" lon="-3.10897">
        <time>2017-11-12T14:41:05.000Z</time>
      </trkpt>
      <trkpt lat="47.56588" lon="-3.10909">
        <time>2017-11-12T14:41:06.000Z</time>
      </trkpt>
      <trkpt lat="47.56585" lon="-3.10923">
        <time>2017-11-12T14:41:07.000Z</time>
      </trkpt>
      <trkpt lat="47.56582" lon="-3.10934">
        <time>2017-11-12T14:41:08.000Z</time>
      </trkpt>
      <trkpt lat="47.56579" lon="-3.1095">
        <time>2017-11-12T14:41:09.000Z</time>
      </trkpt>
      <trkpt lat="47.56575" lon="-3.10958">
        <time>2017-11-12T14:41:10.000Z</time>
      </trkpt>
      <trkpt lat="47.56571" lon="-3.10973">
        <time>2017-11-12T14:41:11.000Z</time>
      </trkpt>
      <trkpt lat="47.56565" lon="-3.10987">
        <time>2017-11-12T14:41:12.000Z</time>
      </trkpt>
      <trkpt lat="47.56562" lon="-3.11">
        <time>2017-11-12T14:41:13.000Z</time>
      </trkpt>
      <trkpt lat="47.5656" lon="-3.11012">
        <time>2017-11-12T14:41:14.000Z</time>
      </trkpt>
      <trkpt lat="47.56555" lon="-3.11023">
        <time>2017-11-12T14:41:15.000Z</time>
      </trkpt>
      <trkpt lat="47.56549" lon="-3.11033">
        <time>2017-11-12T14:41:16.000Z</time>
      </trkpt>
      <trkpt lat="47.56543" lon="-3.11044">
        <time>2017-11-12T14:41:17.000Z</time>
      </trkpt>
      <trkpt lat="47.56537" lon="-3.11049">
        <time>2017-11-12T14:41:18.000Z</time>
      </trkpt>
      <trkpt lat="47.5653" lon="-3.11051">
        <time>2017-11-12T14:41:19.000Z</time>
      </trkpt>
      <trkpt lat="47.56523" lon="-3.11052">
        <time>2017-11-12T14:41:20.000Z</time>
      </trkpt>
      <trkpt lat="47.56518" lon="-3.11051">
        <time>2017-11-12T14:41:21.000Z</time>
      </trkpt>
      <trkpt lat="47.56515" lon="-3.11048">
        <time>2017-11-12T14:41:22.000Z</time>
      </trkpt>
      <trkpt lat="47.56514" lon="-3.11047">
        <time>2017-11-12T14:41:23.000Z</time>
      </trkpt>
      <trkpt lat="47.56514" lon="-3.11044">
        <time>2017-11-12T14:41:24.000Z</time>
      </trkpt>
      <trkpt lat="47.56515" lon="-3.11042">
        <time>2017-11-12T14:41:25.000Z</time>
      </trkpt>
      <trkpt lat="47.56515" lon="-3.1104">
        <time>2017-11-12T14:41:26.000Z</time>
      </trkpt>
      <trkpt lat="47.56516" lon="-3.11037">
        <time>2017-11-12T14:41:27.000Z</time>
      </trkpt>
      <trkpt lat="47.56517" lon="-3.11035">
        <time>2017-11-12T14:41:28.000Z</time>
      </trkpt>
      <trkpt lat="47.56517" lon="-3.11032">
        <time>2017-11-12T14:41:29.000Z</time>
      </trkpt>
      <trkpt lat="47.56518" lon="-3.11029">
        <time>2017-11-12T14:41:30.000Z</time>
      </trkpt>
      <trkpt lat="47.56519" lon="-3.11025">
        <time>2017-11-12T14:41:31.000Z</time>
      </trkpt>
      <trkpt lat="47.5652" lon="-3.11021">
        <time>2017-11-12T14:41:32.000Z</time>
      </trkpt>
      <trkpt lat="47.56521" lon="-3.11017">
        <time>2017-11-12T14:41:33.000Z</time>
      </trkpt>
      <trkpt lat="47.56523" lon="-3.11013">
        <time>2017-11-12T14:41:34.000Z</time>
      </trkpt>
      <trkpt lat="47.56524" lon="-3.11008">
        <time>2017-11-12T14:41:35.000Z</time>
      </trkpt>
      <trkpt lat="47.56526" lon="-3.11003">
        <time>2017-11-12T14:41:36.000Z</time>
      </trkpt>
      <trkpt lat="47.56529" lon="-3.10997">
        <time>2017-11-12T14:41:37.000Z</time>
      </trkpt>
      <trkpt lat="47.56532" lon="-3.1099">
        <time>2017-11-12T14:41:38.000Z</time>
      </trkpt>
      <trkpt lat="47.56535" lon="-3.10983">
        <time>2017-11-12T14:41:39.000Z</time>
      </trkpt>
      <trkpt lat="47.56538" lon="-3.10976">
        <time>2017-11-12T14:41:40.000Z</time>
      </trkpt>
      <trkpt lat="47.56541" lon="-3.10969">
        <time>2017-11-12T14:41:41.000Z</time>
      </trkpt>
      <trkpt lat="47.56544" lon="-3.1096">
        <time>2017-11-12T14:41:42.000Z</time>
      </trkpt>
      <trkpt lat="47.56547" lon="-3.10951">
        <time>2017-11-12T14:41:43.000Z</time>
      </trkpt>
      <trkpt lat="47.56551" lon="-3.1094">
        <time>2017-11-12T14:41:44.000Z</time>
      </trkpt>
      <trkpt lat="47.56554" lon="-3.1093">
        <time>2017-11-12T14:41:45.000Z</time>
      </trkpt>
      <trkpt lat="47.56558" lon="-3.10919">
        <time>2017-11-12T14:41:46.000Z</time>
      </trkpt>
      <trkpt lat="47.56561" lon="-3.10909">
        <time>2017-11-12T14:41:47.000Z</time>
      </trkpt>
      <trkpt lat="47.56565" lon="-3.10898">
        <time>2017-11-12T14:41:48.000Z</time>
      </trkpt>
      <trkpt lat="47.56569" lon="-3.10888">
        <time>2017-11-12T14:41:49.000Z</time>
      </trkpt>
      <trkpt lat="47.56573" lon="-3.10878">
        <time>2017-11-12T14:41:50.000Z</time>
      </trkpt>
      <trkpt lat="47.56577" lon="-3.10868">
        <time>2017-11-12T14:41:51.000Z</time>
      </trkpt>
      <trkpt lat="47.5658" lon="-3.10858">
        <time>2017-11-12T14:41:52.000Z</time>
      </trkpt>
      <trkpt lat="47.56582" lon="-3.10847">
        <time>2017-11-12T14:41:53.000Z</time>
      </trkpt>
      <trkpt lat="47.56584" lon="-3.10836">
        <time>2017-11-12T14:41:54.000Z</time>
      </trkpt>
      <trkpt lat="47.56587" lon="-3.10826">
        <time>2017-11-12T14:41:55.000Z</time>
      </trkpt>
      <trkpt lat="47.5659" lon="-3.10816">
        <time>2017-11-12T14:41:56.000Z</time>
      </trkpt>
      <trkpt lat="47.56593" lon="-3.10806">
        <time>2017-11-12T14:41:57.000Z</time>
      </trkpt>
      <trkpt lat="47.56596" lon="-3.10795">
        <time>2017-11-12T14:41:58.000Z</time>
      </trkpt>
      <trkpt lat="47.56599" lon="-3.10785">
        <time>2017-11-12T14:41:59.000Z</time>
      </trkpt>
      <trkpt lat="47.56602" lon="-3.10774">
        <time>2017-11-12T14:42:00.000Z</time>
      </trkpt>
      <trkpt lat="47.56605" lon="-3.10763">
        <time>2017-11-12T14:42:01.000Z</time>
      </trkpt>
      <trkpt lat="47.56607" lon="-3.10752">
        <time>2017-11-12T14:42:02.000Z</time>
      </trkpt>
      <trkpt lat="47.5661" lon="-3.10741">
        <time>2017-11-12T14:42:03.000Z</time>
      </trkpt>
      <trkpt lat="47.56613" lon="-3.10731">
        <time>2017-11-12T14:42:04.000Z</time>
      </trkpt>
      <trkpt lat="47.56616" lon="-3.10721">
        <time>2017-11-12T14:42:05.000Z</time>
      </trkpt>
      <trkpt lat="47.5662" lon="-3.10711">
        <time>2017-11-12T14:42:06.000Z</time>
      </trkpt>
      <trkpt lat="47.56625" lon="-3.10703">
        <time>2017-11-12T14:42:07.000Z</time>
      </trkpt>
      <trkpt lat="47.56628" lon="-3.10693">
        <time>2017-11-12T14:42:08.000Z</time>
      </trkpt>
      <trkpt lat="47.56631" lon="-3.10684">
        <time>2017-11-12T14:42:09.000Z</time>
      </trkpt>
      <trkpt lat="47.56634" lon="-3.10673">
        <time>2017-11-12T14:42:10.000Z</time>
      </trkpt>
      <trkpt lat="47.56636" lon="-3.10662">
        <time>2017-11-12T14:42:11.000Z</time>
      </trkpt>
      <trkpt lat="47.56639" lon="-3.10653">
        <time>2017-11-12T14:42:12.000Z</time>
      </trkpt>
      <trkpt lat="47.56642" lon="-3.10644">
        <time>2017-11-12T14:42:13.000Z</time>
      </trkpt>
      <trkpt lat="47.56646" lon="-3.10634">
        <time>2017-11-12T14:42:14.000Z</time>
      </trkpt>
      <trkpt lat="47.56648" lon="-3.10625">
        <time>2017-11-12T14:42:15.000Z</time>
      </trkpt>
      <trkpt lat="47.56651" lon="-3.10614">
        <time>2017-11-12T14:42:16.000Z</time>
      </trkpt>
      <trkpt lat="47.56653" lon="-3.10603">
        <time>2017-11-12T14:42:17.000Z</time>
      </trkpt>
      <trkpt lat="47.56657" lon="-3.10591">
        <time>2017-11-12T14:42:18.000Z</time>
      </trkpt>
      <trkpt lat="47.5666" lon="-3.10581">
        <time>2017-11-12T14:42:19.000Z</time>
      </trkpt>
      <trkpt lat="47.56663" lon="-3.10573">
        <time>2017-11-12T14:42:20.000Z</time>
      </trkpt>
      <trkpt lat="47.56667" lon="-3.10566">
        <time>2017-11-12T14:42:21.000Z</time>
      </trkpt>
      <trkpt lat="47.5667" lon="-3.1056">
        <time>2017-11-12T14:42:22.000Z</time>
      </trkpt>
      <trkpt lat="47.56672" lon="-3.10555">
        <time>2017-11-12T14:42:23.000Z</time>
      </trkpt>
      <trkpt lat="47.56675" lon="-3.1055">
        <time>2017-11-12T14:42:24.000Z</time>
      </trkpt>
      <trkpt lat="47.56677" lon="-3.10545">
        <time>2017-11-12T14:42:25.000Z</time>
      </trkpt>
      <trkpt lat="47.56679" lon="-3.1054">
        <time>2017-11-12T14:42:26.000Z</time>
      </trkpt>
      <trkpt lat="47.56682" lon="-3.10536">
        <time>2017-11-12T14:42:27.000Z</time>
      </trkpt>
      <trkpt lat="47.56684" lon="-3.10531">
        <time>2017-11-12T14:42:28.000Z</time>
      </trkpt>
      <trkpt lat="47.56638" lon="-3.10486">
        <time>2017-11-12T14:43:32.000Z</time>
      </trkpt>
      <trkpt lat="47.56638" lon="-3.10486">
        <time>2017-11-12T14:43:33.000Z</time>
      </trkpt>
      <trkpt lat="47.56638" lon="-3.10486">
        <time>2017-11-12T14:43:34.000Z</time>
      </trkpt>
      <trkpt lat="47.56638" lon="-3.10487">
        <time>2017-11-12T14:43:35.000Z</time>
      </trkpt>
      <trkpt lat="47.5664" lon="-3.10487">
        <time>2017-11-12T14:43:36.000Z</time>
      </trkpt>
      <trkpt lat="47.56641" lon="-3.10487">
        <time>2017-11-12T14:43:37.000Z</time>
      </trkpt>
      <trkpt lat="47.56643" lon="-3.10487">
        <time>2017-11-12T14:43:38.000Z</time>
      </trkpt>
      <trkpt lat="47.56642" lon="-3.10486">
        <time>2017-11-12T14:43:39.000Z</time>
      </trkpt>
      <trkpt lat="47.56641" lon="-3.10485">
        <time>2017-11-12T14:43:40.000Z</time>
      </trkpt>
      <trkpt lat="47.5664" lon="-3.10482">
        <time>2017-11-12T14:43:41.000Z</time>
      </trkpt>
      <trkpt lat="47.56638" lon="-3.1048">
        <time>2017-11-12T14:43:42.000Z</time>
      </trkpt>
      <trkpt lat="47.56637" lon="-3.10476">
        <time>2017-11-12T14:43:43.000Z</time>
      </trkpt>
      <trkpt lat="47.56635" lon="-3.10477">
        <time>2017-11-12T14:43:44.000Z</time>
      </trkpt>
      <trkpt lat="47.56633" lon="-3.10478">
        <time>2017-11-12T14:43:45.000Z</time>
      </trkpt>
      <trkpt lat="47.56633" lon="-3.10477">
        <time>2017-11-12T14:43:46.000Z</time>
      </trkpt>
      <trkpt lat="47.56633" lon="-3.10472">
        <time>2017-11-12T14:43:47.000Z</time>
      </trkpt>
      <trkpt lat="47.56633" lon="-3.10468">
        <time>2017-11-12T14:43:48.000Z</time>
      </trkpt>
      <trkpt lat="47.56634" lon="-3.10465">
        <time>2017-11-12T14:43:49.000Z</time>
      </trkpt>
      <trkpt lat="47.56636" lon="-3.1046">
        <time>2017-11-12T14:43:50.000Z</time>
      </trkpt>
      <trkpt lat="47.56637" lon="-3.10454">
        <time>2017-11-12T14:43:51.000Z</time>
      </trkpt>
      <trkpt lat="47.56637" lon="-3.10449">
        <time>2017-11-12T14:43:52.000Z</time>
      </trkpt>
      <trkpt lat="47.56639" lon="-3.10443">
        <time>2017-11-12T14:43:53.000Z</time>
      </trkpt>
      <trkpt lat="47.5664" lon="-3.10438">
        <time>2017-11-12T14:43:54.000Z</time>
      </trkpt>
      <trkpt lat="47.5664" lon="-3.10433">
        <time>2017-11-12T14:43:55.000Z</time>
      </trkpt>
      <trkpt lat="47.56642" lon="-3.10427">
        <time>2017-11-12T14:43:56.000Z</time>
      </trkpt>
      <trkpt lat="47.56643" lon="-3.10423">
        <time>2017-11-12T14:43:57.000Z</time>
      </trkpt>
      <trkpt lat="47.56645" lon="-3.10417">
        <time>2017-11-12T14:43:58.000Z</time>
      </trkpt>
      <trkpt lat="47.56647" lon="-3.10412">
        <time>2017-11-12T14:43:59.000Z</time>
      </trkpt>
      <trkpt lat="47.5665" lon="-3.1041">
        <time>2017-11-12T14:44:00.000Z</time>
      </trkpt>
      <trkpt lat="47.56654" lon="-3.10405">
        <time>2017-11-12T14:44:01.000Z</time>
      </trkpt>
      <trkpt lat="47.56658" lon="-3.10398">
        <time>2017-11-12T14:44:02.000Z</time>
      </trkpt>
      <trkpt lat="47.56661" lon="-3.10391">
        <time>2017-11-12T14:44:03.000Z</time>
      </trkpt>
      <trkpt lat="47.56664" lon="-3.10382">
        <time>2017-11-12T14:44:04.000Z</time>
      </trkpt>
      <trkpt lat="47.56667" lon="-3.10374">
        <time>2017-11-12T14:44:05.000Z</time>
      </trkpt>
      <trkpt lat="47.5667" lon="-3.10366">
        <time>2017-11-12T14:44:06.000Z</time>
      </trkpt>
      <trkpt lat="47.56672" lon="-3.10357">
        <time>2017-11-12T14:44:07.000Z</time>
      </trkpt>
      <trkpt lat="47.56674" lon="-3.10348">
        <time>2017-11-12T14:44:08.000Z</time>
      </trkpt>
      <trkpt lat="47.56675" lon="-3.10339">
        <time>2017-11-12T14:44:09.000Z</time>
      </trkpt>
      <trkpt lat="47.56677" lon="-3.10328">
        <time>2017-11-12T14:44:10.000Z</time>
      </trkpt>
      <trkpt lat="47.56679" lon="-3.10317">
        <time>2017-11-12T14:44:11.000Z</time>
      </trkpt>
      <trkpt lat="47.56682" lon="-3.10306">
        <time>2017-11-12T14:44:12.000Z</time>
      </trkpt>
      <trkpt lat="47.56684" lon="-3.10296">
        <time>2017-11-12T14:44:13.000Z</time>
      </trkpt>
      <trkpt lat="47.56686" lon="-3.10286">
        <time>2017-11-12T14:44:14.000Z</time>
      </trkpt>
      <trkpt lat="47.56687" lon="-3.10275">
        <time>2017-11-12T14:44:15.000Z</time>
      </trkpt>
      <trkpt lat="47.56689" lon="-3.10265">
        <time>2017-11-12T14:44:16.000Z</time>
      </trkpt>
      <trkpt lat="47.56693" lon="-3.10253">
        <time>2017-11-12T14:44:17.000Z</time>
      </trkpt>
      <trkpt lat="47.56696" lon="-3.10243">
        <time>2017-11-12T14:44:18.000Z</time>
      </trkpt>
      <trkpt lat="47.56699" lon="-3.10232">
        <time>2017-11-12T14:44:19.000Z</time>
      </trkpt>
      <trkpt lat="47.56702" lon="-3.10222">
        <time>2017-11-12T14:44:20.000Z</time>
      </trkpt>
      <trkpt lat="47.56705" lon="-3.10212">
        <time>2017-11-12T14:44:21.000Z</time>
      </trkpt>
      <trkpt lat="47.56709" lon="-3.10203">
        <time>2017-11-12T14:44:22.000Z</time>
      </trkpt>
      <trkpt lat="47.56709" lon="-3.10193">
        <time>2017-11-12T14:44:23.000Z</time>
      </trkpt>
      <trkpt lat="47.56708" lon="-3.10184">
        <time>2017-11-12T14:44:24.000Z</time>
      </trkpt>
      <trkpt lat="47.56706" lon="-3.10176">
        <time>2017-11-12T14:44:25.000Z</time>
      </trkpt>
      <trkpt lat="47.56704" lon="-3.10172">
        <time>2017-11-12T14:44:26.000Z</time>
      </trkpt>
      <trkpt lat="47.567" lon="-3.10167">
        <time>2017-11-12T14:44:27.000Z</time>
      </trkpt>
      <trkpt lat="47.56697" lon="-3.10165">
        <time>2017-11-12T14:44:28.000Z</time>
      </trkpt>
      <trkpt lat="47.56694" lon="-3.10165">
        <time>2017-11-12T14:44:29.000Z</time>
      </trkpt>
      <trkpt lat="47.56692" lon="-3.10164">
        <time>2017-11-12T14:44:30.000Z</time>
      </trkpt>
      <trkpt lat="47.56691" lon="-3.10164">
        <time>2017-11-12T14:44:31.000Z</time>
      </trkpt>
      <trkpt lat="47.56692" lon="-3.10167">
        <time>2017-11-12T14:44:32.000Z</time>
      </trkpt>
      <trkpt lat="47.56692" lon="-3.10169">
        <time>2017-11-12T14:44:33.000Z</time>
      </trkpt>
      <trkpt lat="47.56691" lon="-3.10171">
        <time>2017-11-12T14:44:34.000Z</time>
      </trkpt>
      <trkpt lat="47.56691" lon="-3.10173">
        <time>2017-11-12T14:44:35.000Z</time>
      </trkpt>
      <trkpt lat="47.56692" lon="-3.10176">
        <time>2017-11-12T14:44:36.000Z</time>
      </trkpt>
      <trkpt lat="47.56691" lon="-3.10181">
        <time>2017-11-12T14:44:37.000Z</time>
      </trkpt>
      <trkpt lat="47.5669" lon="-3.10187">
        <time>2017-11-12T14:44:38.000Z</time>
      </trkpt>
      <trkpt lat="47.56688" lon="-3.10193">
        <time>2017-11-12T14:44:39.000Z</time>
      </trkpt>
      <trkpt lat="47.56688" lon="-3.10198">
        <time>2017-11-12T14:44:40.000Z</time>
      </trkpt>
      <trkpt lat="47.56686" lon="-3.10204">
        <time>2017-11-12T14:44:41.000Z</time>
      </trkpt>
      <trkpt lat="47.56685" lon="-3.10209">
        <time>2017-11-12T14:44:42.000Z</time>
      </trkpt>
      <trkpt lat="47.56685" lon="-3.10214">
        <time>2017-11-12T14:44:43.000Z</time>
      </trkpt>
      <trkpt lat="47.56685" lon="-3.10219">
        <time>2017-11-12T14:44:44.000Z</time>
      </trkpt>
      <trkpt lat="47.56684" lon="-3.10224">
        <time>2017-11-12T14:44:45.000Z</time>
      </trkpt>
      <trkpt lat="47.56684" lon="-3.1023">
        <time>2017-11-12T14:44:46.000Z</time>
      </trkpt>
      <trkpt lat="47.56683" lon="-3.10236">
        <time>2017-11-12T14:44:47.000Z</time>
      </trkpt>
      <trkpt lat="47.56681" lon="-3.10244">
        <time>2017-11-12T14:44:48.000Z</time>
      </trkpt>
      <trkpt lat="47.5668" lon="-3.10253">
        <time>2017-11-12T14:44:49.000Z</time>
      </trkpt>
      <trkpt lat="47.56679" lon="-3.10262">
        <time>2017-11-12T14:44:50.000Z</time>
      </trkpt>
      <trkpt lat="47.56677" lon="-3.10273">
        <time>2017-11-12T14:44:51.000Z</time>
      </trkpt>
      <trkpt lat="47.56676" lon="-3.10283">
        <time>2017-11-12T14:44:52.000Z</time>
      </trkpt>
      <trkpt lat="47.56674" lon="-3.10295">
        <time>2017-11-12T14:44:53.000Z</time>
      </trkpt>
      <trkpt lat="47.56672" lon="-3.10306">
        <time>2017-11-12T14:44:54.000Z</time>
      </trkpt>
      <trkpt lat="47.5667" lon="-3.10318">
        <time>2017-11-12T14:44:55.000Z</time>
      </trkpt>
      <trkpt lat="47.56668" lon="-3.10331">
        <time>2017-11-12T14:44:56.000Z</time>
      </trkpt>
      <trkpt lat="47.56666" lon="-3.10344">
        <time>2017-11-12T14:44:57.000Z</time>
      </trkpt>
      <trkpt lat="47.56664" lon="-3.10356">
        <time>2017-11-12T14:44:58.000Z</time>
      </trkpt>
      <trkpt lat="47.56662" lon="-3.10367">
        <time>2017-11-12T14:44:59.000Z</time>
      </trkpt>
      <trkpt lat="47.5666" lon="-3.10377">
        <time>2017-11-12T14:45:00.000Z</time>
      </trkpt>
      <trkpt lat="47.56657" lon="-3.1039">
        <time>2017-11-12T14:45:01.000Z</time>
      </trkpt>
      <trkpt lat="47.56655" lon="-3.10403">
        <time>2017-11-12T14:45:02.000Z</time>
      </trkpt>
      <trkpt lat="47.56653" lon="-3.10417">
        <time>2017-11-12T14:45:03.000Z</time>
      </trkpt>
      <trkpt lat="47.56651" lon="-3.1043">
        <time>2017-11-12T14:45:04.000Z</time>
      </trkpt>
      <trkpt lat="47.56649" lon="-3.10444">
        <time>2017-11-12T14:45:05.000Z</time>
      </trkpt>
      <trkpt lat="47.56649" lon="-3.10457">
        <time>2017-11-12T14:45:06.000Z</time>
      </trkpt>
      <trkpt lat="47.56647" lon="-3.10469">
        <time>2017-11-12T14:45:07.000Z</time>
      </trkpt>
      <trkpt lat="47.56646" lon="-3.10481">
        <time>2017-11-12T14:45:08.000Z</time>
      </trkpt>
      <trkpt lat="47.56644" lon="-3.10492">
        <time>2017-11-12T14:45:09.000Z</time>
      </trkpt>
      <trkpt lat="47.56642" lon="-3.10503">
        <time>2017-11-12T14:45:10.000Z</time>
      </trkpt>
      <trkpt lat="47.56641" lon="-3.10514">
        <time>2017-11-12T14:45:11.000Z</time>
      </trkpt>
      <trkpt lat="47.56639" lon="-3.10524">
        <time>2017-11-12T14:45:12.000Z</time>
      </trkpt>
      <trkpt lat="47.56637" lon="-3.10534">
        <time>2017-11-12T14:45:13.000Z</time>
      </trkpt>
      <trkpt lat="47.56635" lon="-3.10545">
        <time>2017-11-12T14:45:14.000Z</time>
      </trkpt>
      <trkpt lat="47.56634" lon="-3.10556">
        <time>2017-11-12T14:45:15.000Z</time>
      </trkpt>
      <trkpt lat="47.56631" lon="-3.10568">
        <time>2017-11-12T14:45:16.000Z</time>
      </trkpt>
      <trkpt lat="47.5663" lon="-3.10579">
        <time>2017-11-12T14:45:17.000Z</time>
      </trkpt>
      <trkpt lat="47.56627" lon="-3.10591">
        <time>2017-11-12T14:45:18.000Z</time>
      </trkpt>
      <trkpt lat="47.56626" lon="-3.10602">
        <time>2017-11-12T14:45:19.000Z</time>
      </trkpt>
      <trkpt lat="47.56623" lon="-3.10613">
        <time>2017-11-12T14:45:20.000Z</time>
      </trkpt>
      <trkpt lat="47.56621" lon="-3.10624">
        <time>2017-11-12T14:45:21.000Z</time>
      </trkpt>
      <trkpt lat="47.5662" lon="-3.10635">
        <time>2017-11-12T14:45:22.000Z</time>
      </trkpt>
      <trkpt lat="47.56618" lon="-3.10645">
        <time>2017-11-12T14:45:23.000Z</time>
      </trkpt>
      <trkpt lat="47.56616" lon="-3.10656">
        <time>2017-11-12T14:45:24.000Z</time>
      </trkpt>
      <trkpt lat="47.56613" lon="-3.10668">
        <time>2017-11-12T14:45:25.000Z</time>
      </trkpt>
      <trkpt lat="47.56611" lon="-3.1068">
        <time>2017-11-12T14:45:26.000Z</time>
      </trkpt>
      <trkpt lat="47.56609" lon="-3.10691">
        <time>2017-11-12T14:45:27.000Z</time>
      </trkpt>
      <trkpt lat="47.56607" lon="-3.10703">
        <time>2017-11-12T14:45:28.000Z</time>
      </trkpt>
      <trkpt lat="47.56604" lon="-3.10716">
        <time>2017-11-12T14:45:29.000Z</time>
      </trkpt>
      <trkpt lat="47.566" lon="-3.10728">
        <time>2017-11-12T14:45:30.000Z</time>
      </trkpt>
      <trkpt lat="47.56596" lon="-3.1074">
        <time>2017-11-12T14:45:31.000Z</time>
      </trkpt>
      <trkpt lat="47.56594" lon="-3.10753">
        <time>2017-11-12T14:45:32.000Z</time>
      </trkpt>
      <trkpt lat="47.56592" lon="-3.10765">
        <time>2017-11-12T14:45:33.000Z</time>
      </trkpt>
      <trkpt lat="47.5659" lon="-3.10776">
        <time>2017-11-12T14:45:34.000Z</time>
      </trkpt>
      <trkpt lat="47.56585" lon="-3.10788">
        <time>2017-11-12T14:45:35.000Z</time>
      </trkpt>
      <trkpt lat="47.56582" lon="-3.10801">
        <time>2017-11-12T14:45:36.000Z</time>
      </trkpt>
      <trkpt lat="47.56579" lon="-3.10813">
        <time>2017-11-12T14:45:37.000Z</time>
      </trkpt>
      <trkpt lat="47.56575" lon="-3.10825">
        <time>2017-11-12T14:45:38.000Z</time>
      </trkpt>
      <trkpt lat="47.56573" lon="-3.10837">
        <time>2017-11-12T14:45:39.000Z</time>
      </trkpt>
      <trkpt lat="47.56572" lon="-3.10848">
        <time>2017-11-12T14:45:40.000Z</time>
      </trkpt>
      <trkpt lat="47.5657" lon="-3.1086">
        <time>2017-11-12T14:45:41.000Z</time>
      </trkpt>
      <trkpt lat="47.56567" lon="-3.10871">
        <time>2017-11-12T14:45:42.000Z</time>
      </trkpt>
      <trkpt lat="47.56565" lon="-3.10883">
        <time>2017-11-12T14:45:43.000Z</time>
      </trkpt>
      <trkpt lat="47.56563" lon="-3.10894">
        <time>2017-11-12T14:45:44.000Z</time>
      </trkpt>
      <trkpt lat="47.5656" lon="-3.10905">
        <time>2017-11-12T14:45:45.000Z</time>
      </trkpt>
      <trkpt lat="47.56558" lon="-3.10917">
        <time>2017-11-12T14:45:46.000Z</time>
      </trkpt>
      <trkpt lat="47.56556" lon="-3.10928">
        <time>2017-11-12T14:45:47.000Z</time>
      </trkpt>
      <trkpt lat="47.56554" lon="-3.10939">
        <time>2017-11-12T14:45:48.000Z</time>
      </trkpt>
      <trkpt lat="47.56552" lon="-3.1095">
        <time>2017-11-12T14:45:49.000Z</time>
      </trkpt>
      <trkpt lat="47.5655" lon="-3.10961">
        <time>2017-11-12T14:45:50.000Z</time>
      </trkpt>
      <trkpt lat="47.56548" lon="-3.10972">
        <time>2017-11-12T14:45:51.000Z</time>
      </trkpt>
      <trkpt lat="47.56545" lon="-3.10983">
        <time>2017-11-12T14:45:52.000Z</time>
      </trkpt>
      <trkpt lat="47.56542" lon="-3.10994">
        <time>2017-11-12T14:45:53.000Z</time>
      </trkpt>
      <trkpt lat="47.5654" lon="-3.11005">
        <time>2017-11-12T14:45:54.000Z</time>
      </trkpt>
      <trkpt lat="47.56537" lon="-3.11016">
        <time>2017-11-12T14:45:55.000Z</time>
      </trkpt>
      <trkpt lat="47.56535" lon="-3.11026">
        <time>2017-11-12T14:45:56.000Z</time>
      </trkpt>
      <trkpt lat="47.56531" lon="-3.11036">
        <time>2017-11-12T14:45:57.000Z</time>
      </trkpt>
      <trkpt lat="47.56527" lon="-3.11043">
        <time>2017-11-12T14:45:58.000Z</time>
      </trkpt>
      <trkpt lat="47.56521" lon="-3.11043">
        <time>2017-11-12T14:45:59.000Z</time>
      </trkpt>
      <trkpt lat="47.56516" lon="-3.11043">
        <time>2017-11-12T14:46:00.000Z</time>
      </trkpt>
      <trkpt lat="47.56513" lon="-3.1104">
        <time>2017-11-12T14:46:01.000Z</time>
      </trkpt>
      <trkpt lat="47.56511" lon="-3.11038">
        <time>2017-11-12T14:46:02.000Z</time>
      </trkpt>
      <trkpt lat="47.5651" lon="-3.11036">
        <time>2017-11-12T14:46:03.000Z</time>
      </trkpt>
      <trkpt lat="47.5651" lon="-3.11035">
        <time>2017-11-12T14:46:04.000Z</time>
      </trkpt>
      <trkpt lat="47.56511" lon="-3.11032">
        <time>2017-11-12T14:46:05.000Z</time>
      </trkpt>
      <trkpt lat="47.56512" lon="-3.11029">
        <time>2017-11-12T14:46:06.000Z</time>
      </trkpt>
      <trkpt lat="47.56513" lon="-3.11026">
        <time>2017-11-12T14:46:07.000Z</time>
      </trkpt>
      <trkpt lat="47.56515" lon="-3.11021">
        <time>2017-11-12T14:46:08.000Z</time>
      </trkpt>
      <trkpt lat="47.56516" lon="-3.11016">
        <time>2017-11-12T14:46:09.000Z</time>
      </trkpt>
      <trkpt lat="47.56517" lon="-3.11011">
        <time>2017-11-12T14:46:10.000Z</time>
      </trkpt>
      <trkpt lat="47.56519" lon="-3.11005">
        <time>2017-11-12T14:46:11.000Z</time>
      </trkpt>
      <trkpt lat="47.56521" lon="-3.10998">
        <time>2017-11-12T14:46:12.000Z</time>
      </trkpt>
      <trkpt lat="47.56523" lon="-3.10992">
        <time>2017-11-12T14:46:13.000Z</time>
      </trkpt>
      <trkpt lat="47.56526" lon="-3.10985">
        <time>2017-11-12T14:46:14.000Z</time>
      </trkpt>
      <trkpt lat="47.56528" lon="-3.10977">
        <time>2017-11-12T14:46:15.000Z</time>
      </trkpt>
      <trkpt lat="47.56531" lon="-3.10969">
        <time>2017-11-12T14:46:16.000Z</time>
      </trkpt>
      <trkpt lat="47.56534" lon="-3.10961">
        <time>2017-11-12T14:46:17.000Z</time>
      </trkpt>
      <trkpt lat="47.56536" lon="-3.10953">
        <time>2017-11-12T14:46:18.000Z</time>
      </trkpt>
      <trkpt lat="47.56539" lon="-3.10945">
        <time>2017-11-12T14:46:19.000Z</time>
      </trkpt>
      <trkpt lat="47.56542" lon="-3.10936">
        <time>2017-11-12T14:46:20.000Z</time>
      </trkpt>
      <trkpt lat="47.56545" lon="-3.10928">
        <time>2017-11-12T14:46:21.000Z</time>
      </trkpt>
      <trkpt lat="47.56548" lon="-3.1092">
        <time>2017-11-12T14:46:22.000Z</time>
      </trkpt>
      <trkpt lat="47.56551" lon="-3.10911">
        <time>2017-11-12T14:46:23.000Z</time>
      </trkpt>
      <trkpt lat="47.56554" lon="-3.10903">
        <time>2017-11-12T14:46:24.000Z</time>
      </trkpt>
      <trkpt lat="47.56558" lon="-3.10894">
        <time>2017-11-12T14:46:25.000Z</time>
      </trkpt>
      <trkpt lat="47.56561" lon="-3.10886">
        <time>2017-11-12T14:46:26.000Z</time>
      </trkpt>
      <trkpt lat="47.56564" lon="-3.10877">
        <time>2017-11-12T14:46:27.000Z</time>
      </trkpt>
      <trkpt lat="47.56567" lon="-3.10868">
        <time>2017-11-12T14:46:28.000Z</time>
      </trkpt>
      <trkpt lat="47.56569" lon="-3.10859">
        <time>2017-11-12T14:46:29.000Z</time>
      </trkpt>
      <trkpt lat="47.56573" lon="-3.10849">
        <time>2017-11-12T14:46:30.000Z</time>
      </trkpt>
      <trkpt lat="47.56576" lon="-3.10841">
        <time>2017-11-12T14:46:31.000Z</time>
      </trkpt>
      <trkpt lat="47.56579" lon="-3.10833">
        <time>2017-11-12T14:46:32.000Z</time>
      </trkpt>
      <trkpt lat="47.56582" lon="-3.10825">
        <time>2017-11-12T14:46:33.000Z</time>
      </trkpt>
      <trkpt lat="47.56584" lon="-3.10817">
        <time>2017-11-12T14:46:34.000Z</time>
      </trkpt>
      <trkpt lat="47.56586" lon="-3.10809">
        <time>2017-11-12T14:46:35.000Z</time>
      </trkpt>
      <trkpt lat="47.56588" lon="-3.10802">
        <time>2017-11-12T14:46:36.000Z</time>
      </trkpt>
      <trkpt lat="47.5659" lon="-3.10794">
        <time>2017-11-12T14:46:37.000Z</time>
      </trkpt>
      <trkpt lat="47.56593" lon="-3.10787">
        <time>2017-11-12T14:46:38.000Z</time>
      </trkpt>
      <trkpt lat="47.56595" lon="-3.10779">
        <time>2017-11-12T14:46:39.000Z</time>
      </trkpt>
      <trkpt lat="47.56597" lon="-3.10772">
        <time>2017-11-12T14:46:40.000Z</time>
      </trkpt>
      <trkpt lat="47.566" lon="-3.10765">
        <time>2017-11-12T14:46:41.000Z</time>
      </trkpt>
      <trkpt lat="47.56603" lon="-3.10758">
        <time>2017-11-12T14:46:42.000Z</time>
      </trkpt>
      <trkpt lat="47.56606" lon="-3.10751">
        <time>2017-11-12T14:46:43.000Z</time>
      </trkpt>
      <trkpt lat="47.56609" lon="-3.10744">
        <time>2017-11-12T14:46:44.000Z</time>
      </trkpt>
      <trkpt lat="47.56611" lon="-3.10737">
        <time>2017-11-12T14:46:45.000Z</time>
      </trkpt>
      <trkpt lat="47.56615" lon="-3.10731">
        <time>2017-11-12T14:46:46.000Z</time>
      </trkpt>
      <trkpt lat="47.56617" lon="-3.10724">
        <time>2017-11-12T14:46:47.000Z</time>
      </trkpt>
      <trkpt lat="47.56621" lon="-3.10718">
        <time>2017-11-12T14:46:48.000Z</time>
      </trkpt>
      <trkpt lat="47.56623" lon="-3.10712">
        <time>2017-11-12T14:46:49.000Z</time>
      </trkpt>
      <trkpt lat="47.56625" lon="-3.10705">
        <time>2017-11-12T14:46:50.000Z</time>
      </trkpt>
      <trkpt lat="47.56627" lon="-3.10699">
        <time>2017-11-12T14:46:51.000Z</time>
      </trkpt>
      <trkpt lat="47.56629" lon="-3.10692">
        <time>2017-11-12T14:46:52.000Z</time>
      </trkpt>
      <trkpt lat="47.56632" lon="-3.10684">
        <time>2017-11-12T14:46:53.000Z</time>
      </trkpt>
      <trkpt lat="47.56634" lon="-3.10675">
        <time>2017-11-12T14:46:54.000Z</time>
      </trkpt>
      <trkpt lat="47.56637" lon="-3.10666">
        <time>2017-11-12T14:46:55.000Z</time>
      </trkpt>
      <trkpt lat="47.5664" lon="-3.10657">
        <time>2017-11-12T14:46:56.000Z</time>
      </trkpt>
      <trkpt lat="47.56643" lon="-3.10648">
        <time>2017-11-12T14:46:57.000Z</time>
      </trkpt>
      <trkpt lat="47.56646" lon="-3.10639">
        <time>2017-11-12T14:46:58.000Z</time>
      </trkpt>
      <trkpt lat="47.5665" lon="-3.1063">
        <time>2017-11-12T14:46:59.000Z</time>
      </trkpt>
      <trkpt lat="47.56653" lon="-3.10622">
        <time>2017-11-12T14:47:00.000Z</time>
      </trkpt>
      <trkpt lat="47.56657" lon="-3.10613">
        <time>2017-11-12T14:47:01.000Z</time>
      </trkpt>
      <trkpt lat="47.5666" lon="-3.10604">
        <time>2017-11-12T14:47:02.000Z</time>
      </trkpt>
      <trkpt lat="47.56664" lon="-3.10594">
        <time>2017-11-12T14:47:03.000Z</time>
      </trkpt>
      <trkpt lat="47.56667" lon="-3.10583">
        <time>2017-11-12T14:47:04.000Z</time>
      </trkpt>
      <trkpt lat="47.56671" lon="-3.10573">
        <time>2017-11-12T14:47:05.000Z</time>
      </trkpt>
      <trkpt lat="47.56675" lon="-3.10563">
        <time>2017-11-12T14:47:06.000Z</time>
      </trkpt>
      <trkpt lat="47.56679" lon="-3.10554">
        <time>2017-11-12T14:47:07.000Z</time>
      </trkpt>
      <trkpt lat="47.56683" lon="-3.10545">
        <time>2017-11-12T14:47:08.000Z</time>
      </trkpt>
      <trkpt lat="47.56686" lon="-3.10536">
        <time>2017-11-12T14:47:09.000Z</time>
      </trkpt>
      <trkpt lat="47.5669" lon="-3.10526">
        <time>2017-11-12T14:47:10.000Z</time>
      </trkpt>
      <trkpt lat="47.56694" lon="-3.10517">
        <time>2017-11-12T14:47:11.000Z</time>
      </trkpt>
      <trkpt lat="47.56698" lon="-3.10508">
        <time>2017-11-12T14:47:12.000Z</time>
      </trkpt>
      <trkpt lat="47.56703" lon="-3.10499">
        <time>2017-11-12T14:47:13.000Z</time>
      </trkpt>
      <trkpt lat="47.56707" lon="-3.10489">
        <time>2017-11-12T14:47:14.000Z</time>
      </trkpt>
      <trkpt lat="47.56711" lon="-3.10481">
        <time>2017-11-12T14:47:15.000Z</time>
      </trkpt>
      <trkpt lat="47.56714" lon="-3.10472">
        <time>2017-11-12T14:47:16.000Z</time>
      </trkpt>
      <trkpt lat="47.56718" lon="-3.10463">
        <time>2017-11-12T14:47:17.000Z</time>
      </trkpt>
      <trkpt lat="47.56721" lon="-3.10453">
        <time>2017-11-12T14:47:18.000Z</time>
      </trkpt>
      <trkpt lat="47.56725" lon="-3.10444">
        <time>2017-11-12T14:47:19.000Z</time>
      </trkpt>
      <trkpt lat="47.56728" lon="-3.10435">
        <time>2017-11-12T14:47:20.000Z</time>
      </trkpt>
      <trkpt lat="47.56732" lon="-3.10425">
        <time>2017-11-12T14:47:21.000Z</time>
      </trkpt>
      <trkpt lat="47.56735" lon="-3.10417">
        <time>2017-11-12T14:47:22.000Z</time>
      </trkpt>
      <trkpt lat="47.56739" lon="-3.10408">
        <time>2017-11-12T14:47:23.000Z</time>
      </trkpt>
      <trkpt lat="47.56742" lon="-3.104">
        <time>2017-11-12T14:47:24.000Z</time>
      </trkpt>
      <trkpt lat="47.56745" lon="-3.10391">
        <time>2017-11-12T14:47:25.000Z</time>
      </trkpt>
      <trkpt lat="47.56748" lon="-3.10383">
        <time>2017-11-12T14:47:26.000Z</time>
      </trkpt>
      <trkpt lat="47.5675" lon="-3.10373">
        <time>2017-11-12T14:47:27.000Z</time>
      </trkpt>
      <trkpt lat="47.56753" lon="-3.10364">
        <time>2017-11-12T14:47:28.000Z</time>
      </trkpt>
      <trkpt lat="47.56757" lon="-3.10353">
        <time>2017-11-12T14:47:29.000Z</time>
      </trkpt>
      <trkpt lat="47.5676" lon="-3.10343">
        <time>2017-11-12T14:47:30.000Z</time>
      </trkpt>
      <trkpt lat="47.56764" lon="-3.10334">
        <time>2017-11-12T14:47:31.000Z</time>
      </trkpt>
      <trkpt lat="47.56769" lon="-3.10326">
        <time>2017-11-12T14:47:32.000Z</time>
      </trkpt>
      <trkpt lat="47.56773" lon="-3.10318">
        <time>2017-11-12T14:47:33.000Z</time>
      </trkpt>
      <trkpt lat="47.56777" lon="-3.10311">
        <time>2017-11-12T14:47:34.000Z</time>
      </trkpt>
      <trkpt lat="47.56782" lon="-3.10305">
        <time>2017-11-12T14:47:35.000Z</time>
      </trkpt>
      <trkpt lat="47.56786" lon="-3.10298">
        <time>2017-11-12T14:47:36.000Z</time>
      </trkpt>
      <trkpt lat="47.5679" lon="-3.10292">
        <time>2017-11-12T14:47:37.000Z</time>
      </trkpt>
      <trkpt lat="47.56793" lon="-3.10286">
        <time>2017-11-12T14:47:38.000Z</time>
      </trkpt>
      <trkpt lat="47.56797" lon="-3.1028">
        <time>2017-11-12T14:47:39.000Z</time>
      </trkpt>
      <trkpt lat="47.56801" lon="-3.10273">
        <time>2017-11-12T14:47:40.000Z</time>
      </trkpt>
      <trkpt lat="47.56804" lon="-3.10265">
        <time>2017-11-12T14:47:41.000Z</time>
      </trkpt>
      <trkpt lat="47.56808" lon="-3.10257">
        <time>2017-11-12T14:47:42.000Z</time>
      </trkpt>
      <trkpt lat="47.56813" lon="-3.10248">
        <time>2017-11-12T14:47:43.000Z</time>
      </trkpt>
      <trkpt lat="47.56817" lon="-3.10238">
        <time>2017-11-12T14:47:44.000Z</time>
      </trkpt>
      <trkpt lat="47.56822" lon="-3.10228">
        <time>2017-11-12T14:47:45.000Z</time>
      </trkpt>
      <trkpt lat="47.56826" lon="-3.10218">
        <time>2017-11-12T14:47:46.000Z</time>
      </trkpt>
      <trkpt lat="47.56831" lon="-3.10208">
        <time>2017-11-12T14:47:47.000Z</time>
      </trkpt>
      <trkpt lat="47.56835" lon="-3.10197">
        <time>2017-11-12T14:47:48.000Z</time>
      </trkpt>
      <trkpt lat="47.56839" lon="-3.10185">
        <time>2017-11-12T14:47:49.000Z</time>
      </trkpt>
      <trkpt lat="47.56844" lon="-3.10173">
        <time>2017-11-12T14:47:50.000Z</time>
      </trkpt>
      <trkpt lat="47.56849" lon="-3.10162">
        <time>2017-11-12T14:47:51.000Z</time>
      </trkpt>
      <trkpt lat="47.56854" lon="-3.10151">
        <time>2017-11-12T14:47:52.000Z</time>
      </trkpt>
      <trkpt lat="47.56859" lon="-3.1014">
        <time>2017-11-12T14:47:53.000Z</time>
      </trkpt>
      <trkpt lat="47.56864" lon="-3.10129">
        <time>2017-11-12T14:47:54.000Z</time>
      </trkpt>
      <trkpt lat="47.5687" lon="-3.10118">
        <time>2017-11-12T14:47:55.000Z</time>
      </trkpt>
      <trkpt lat="47.56876" lon="-3.10108">
        <time>2017-11-12T14:47:56.000Z</time>
      </trkpt>
      <trkpt lat="47.56882" lon="-3.10099">
        <time>2017-11-12T14:47:57.000Z</time>
      </trkpt>
      <trkpt lat="47.56889" lon="-3.1009">
        <time>2017-11-12T14:47:58.000Z</time>
      </trkpt>
      <trkpt lat="47.56895" lon="-3.10082">
        <time>2017-11-12T14:47:59.000Z</time>
      </trkpt>
      <trkpt lat="47.56901" lon="-3.10075">
        <time>2017-11-12T14:48:00.000Z</time>
      </trkpt>
      <trkpt lat="47.56907" lon="-3.1007">
        <time>2017-11-12T14:48:01.000Z</time>
      </trkpt>
      <trkpt lat="47.56913" lon="-3.10064">
        <time>2017-11-12T14:48:02.000Z</time>
      </trkpt>
      <trkpt lat="47.56917" lon="-3.10058">
        <time>2017-11-12T14:48:03.000Z</time>
      </trkpt>
      <trkpt lat="47.56922" lon="-3.10052">
        <time>2017-11-12T14:48:04.000Z</time>
      </trkpt>
      <trkpt lat="47.56926" lon="-3.10046">
        <time>2017-11-12T14:48:05.000Z</time>
      </trkpt>
      <trkpt lat="47.56929" lon="-3.1004">
        <time>2017-11-12T14:48:06.000Z</time>
      </trkpt>
      <trkpt lat="47.56933" lon="-3.10035">
        <time>2017-11-12T14:48:07.000Z</time>
      </trkpt>
      <trkpt lat="47.56936" lon="-3.10031">
        <time>2017-11-12T14:48:08.000Z</time>
      </trkpt>
      <trkpt lat="47.56939" lon="-3.10028">
        <time>2017-11-12T14:48:09.000Z</time>
      </trkpt>
      <trkpt lat="47.56942" lon="-3.10026">
        <time>2017-11-12T14:48:10.000Z</time>
      </trkpt>
      <trkpt lat="47.56944" lon="-3.10024">
        <time>2017-11-12T14:48:11.000Z</time>
      </trkpt>
      <trkpt lat="47.56946" lon="-3.10022">
        <ele>1</ele>
        <time>2017-11-12T14:48:12.000Z</time>
      </trkpt>
      <trkpt lat="47.56948" lon="-3.10021">
        <ele>1</ele>
        <time>2017-11-12T14:48:13.000Z</time>
      </trkpt>
      <trkpt lat="47.56949" lon="-3.10021">
        <ele>1</ele>
        <time>2017-11-12T14:48:14.000Z</time>
      </trkpt>
      <trkpt lat="47.56951" lon="-3.10021">
        <ele>1</ele>
        <time>2017-11-12T14:48:15.000Z</time>
      </trkpt>
      <trkpt lat="47.56952" lon="-3.10023">
        <ele>1</ele>
        <time>2017-11-12T14:48:16.000Z</time>
      </trkpt>
      <trkpt lat="47.56953" lon="-3.10024">
        <ele>1</ele>
        <time>2017-11-12T14:48:17.000Z</time>
      </trkpt>
      <trkpt lat="47.56953" lon="-3.10024">
        <ele>1</ele>
        <time>2017-11-12T14:48:18.000Z</time>
      </trkpt>
      <trkpt lat="47.56953" lon="-3.10025">
        <ele>1</ele>
        <time>2017-11-12T14:48:19.000Z</time>
      </trkpt>
      <trkpt lat="47.56953" lon="-3.10025">
        <ele>1</ele>
        <time>2017-11-12T14:48:20.000Z</time>
      </trkpt>
      <trkpt lat="47.56953" lon="-3.10025">
        <ele>1</ele>
        <time>2017-11-12T14:48:21.000Z</time>
      </trkpt>
      <trkpt lat="47.56953" lon="-3.10025">
        <ele>1</ele>
        <time>2017-11-12T14:48:22.000Z</time>
      </trkpt>
      <trkpt lat="47.56953" lon="-3.10025">
        <ele>1</ele>
        <time>2017-11-12T14:48:23.000Z</time>
      </trkpt>
      <trkpt lat="47.56953" lon="-3.10025">
        <ele>1</ele>
        <time>2017-11-12T14:48:24.000Z</time>
      </trkpt>
      <trkpt lat="47.56953" lon="-3.10025">
        <ele>1</ele>
        <time>2017-11-12T14:48:25.000Z</time>
      </trkpt>
      <trkpt lat="47.56953" lon="-3.10025">
        <ele>1</ele>
        <time>2017-11-12T14:48:26.000Z</time>
      </trkpt>
      <trkpt lat="47.56953" lon="-3.10025">
        <ele>1</ele>
        <time>2017-11-12T14:48:27.000Z</time>
      </trkpt>
      <trkpt lat="47.56953" lon="-3.10025">
        <ele>1</ele>
        <time>2017-11-12T14:48:28.000Z</time>
      </trkpt>
      <trkpt lat="47.56953" lon="-3.10025">
        <ele>1</ele>
        <time>2017-11-12T14:48:29.000Z</time>
      </trkpt>
      <trkpt lat="47.56953" lon="-3.10025">
        <ele>1</ele>
        <time>2017-11-12T14:48:30.000Z</time>
      </trkpt>
      <trkpt lat="47.56953" lon="-3.10025">
        <ele>1</ele>
        <time>2017-11-12T14:48:31.000Z</time>
      </trkpt>
      <trkpt lat="47.56953" lon="-3.10025">
        <ele>1</ele>
        <time>2017-11-12T14:48:32.000Z</time>
      </trkpt>
      <trkpt lat="47.56953" lon="-3.10025">
        <ele>1</ele>
        <time>2017-11-12T14:48:33.000Z</time>
      </trkpt>
      <trkpt lat="47.56953" lon="-3.10025">
        <ele>1</ele>
        <time>2017-11-12T14:48:34.000Z</time>
      </trkpt>
      <trkpt lat="47.56955" lon="-3.10022">
        <ele>1</ele>
        <time>2017-11-12T14:48:35.000Z</time>
      </trkpt>
      <trkpt lat="47.56955" lon="-3.10021">
        <ele>1</ele>
        <time>2017-11-12T14:48:36.000Z</time>
      </trkpt>
      <trkpt lat="47.56955" lon="-3.1002">
        <ele>1</ele>
        <time>2017-11-12T14:48:37.000Z</time>
      </trkpt>
      <trkpt lat="47.56956" lon="-3.10019">
        <ele>1</ele>
        <time>2017-11-12T14:48:38.000Z</time>
      </trkpt>
      <trkpt lat="47.56956" lon="-3.10019">
        <ele>1</ele>
        <time>2017-11-12T14:48:39.000Z</time>
      </trkpt>
      <trkpt lat="47.56956" lon="-3.10019">
        <ele>1</ele>
        <time>2017-11-12T14:48:40.000Z</time>
      </trkpt>
      <trkpt lat="47.56956" lon="-3.10019">
        <ele>1</ele>
        <time>2017-11-12T14:48:41.000Z</time>
      </trkpt>
      <trkpt lat="47.56956" lon="-3.10019">
        <ele>1</ele>
        <time>2017-11-12T14:48:42.000Z</time>
      </trkpt>
      <trkpt lat="47.56956" lon="-3.10019">
        <ele>1</ele>
        <time>2017-11-12T14:48:43.000Z</time>
      </trkpt>
      <trkpt lat="47.56957" lon="-3.10025">
        <ele>1</ele>
        <time>2017-11-12T14:48:44.000Z</time>
      </trkpt>
      <trkpt lat="47.56958" lon="-3.10026">
        <ele>1</ele>
        <time>2017-11-12T14:48:45.000Z</time>
      </trkpt>
      <trkpt lat="47.56958" lon="-3.10025">
        <ele>1</ele>
        <time>2017-11-12T14:48:46.000Z</time>
      </trkpt>
      <trkpt lat="47.56958" lon="-3.10026">
        <ele>1</ele>
        <time>2017-11-12T14:48:47.000Z</time>
      </trkpt>
      <trkpt lat="47.56959" lon="-3.10026">
        <ele>1</ele>
        <time>2017-11-12T14:48:48.000Z</time>
      </trkpt>
      <trkpt lat="47.56959" lon="-3.10026">
        <ele>1</ele>
        <time>2017-11-12T14:48:49.000Z</time>
      </trkpt>
      <trkpt lat="47.56959" lon="-3.10026">
        <ele>1</ele>
        <time>2017-11-12T14:48:50.000Z</time>
      </trkpt>
      <trkpt lat="47.56959" lon="-3.10026">
        <ele>1</ele>
        <time>2017-11-12T14:48:51.000Z</time>
      </trkpt>
      <trkpt lat="47.56959" lon="-3.10026">
        <ele>1</ele>
        <time>2017-11-12T14:48:52.000Z</time>
      </trkpt>
      <trkpt lat="47.56959" lon="-3.10026">
        <ele>1</ele>
        <time>2017-11-12T14:48:53.000Z</time>
      </trkpt>
      <trkpt lat="47.56959" lon="-3.10026">
        <ele>1</ele>
        <time>2017-11-12T14:48:54.000Z</time>
      </trkpt>
      <trkpt lat="47.56959" lon="-3.10026">
        <ele>1</ele>
        <time>2017-11-12T14:48:55.000Z</time>
      </trkpt>
      <trkpt lat="47.56959" lon="-3.10026">
        <ele>1</ele>
        <time>2017-11-12T14:48:56.000Z</time>
      </trkpt>
      <trkpt lat="47.56959" lon="-3.10026">
        <ele>1</ele>
        <time>2017-11-12T14:48:57.000Z</time>
      </trkpt>
      <trkpt lat="47.56959" lon="-3.10026">
        <ele>1</ele>
        <time>2017-11-12T14:48:58.000Z</time>
      </trkpt>
      <trkpt lat="47.56959" lon="-3.10026">
        <ele>1</ele>
        <time>2017-11-12T14:48:59.000Z</time>
      </trkpt>
      <trkpt lat="47.56959" lon="-3.10026">
        <ele>1</ele>
        <time>2017-11-12T14:49:00.000Z</time>
      </trkpt>
      <trkpt lat="47.56959" lon="-3.10026">
        <ele>1</ele>
        <time>2017-11-12T14:49:01.000Z</time>
      </trkpt>
      <trkpt lat="47.56959" lon="-3.10026">
        <ele>1</ele>
        <time>2017-11-12T14:49:02.000Z</time>
      </trkpt>
      <trkpt lat="47.56959" lon="-3.10026">
        <ele>1</ele>
        <time>2017-11-12T14:49:03.000Z</time>
      </trkpt>
      <trkpt lat="47.56961" lon="-3.10025">
        <ele>1</ele>
        <time>2017-11-12T14:49:04.000Z</time>
      </trkpt>
      <trkpt lat="47.56962" lon="-3.10025">
        <ele>1</ele>
        <time>2017-11-12T14:49:05.000Z</time>
      </trkpt>
      <trkpt lat="47.56963" lon="-3.10025">
        <ele>1</ele>
        <time>2017-11-12T14:49:06.000Z</time>
      </trkpt>
      <trkpt lat="47.56965" lon="-3.10025">
        <ele>1</ele>
        <time>2017-11-12T14:49:07.000Z</time>
      </trkpt>
      <trkpt lat="47.56966" lon="-3.10024">
        <ele>1</ele>
        <time>2017-11-12T14:49:08.000Z</time>
      </trkpt>
      <trkpt lat="47.56966" lon="-3.10023">
        <ele>1</ele>
        <time>2017-11-12T14:49:09.000Z</time>
      </trkpt>
      <trkpt lat="47.56967" lon="-3.10023">
        <ele>1</ele>
        <time>2017-11-12T14:49:10.000Z</time>
      </trkpt>
      <trkpt lat="47.56968" lon="-3.10022">
        <ele>1</ele>
        <time>2017-11-12T14:49:11.000Z</time>
      </trkpt>
      <trkpt lat="47.56968" lon="-3.10022">
        <ele>1</ele>
        <time>2017-11-12T14:49:12.000Z</time>
      </trkpt>
      <trkpt lat="47.56969" lon="-3.10023">
        <ele>1</ele>
        <time>2017-11-12T14:49:13.000Z</time>
      </trkpt>
      <trkpt lat="47.56969" lon="-3.10023">
        <ele>1</ele>
        <time>2017-11-12T14:49:14.000Z</time>
      </trkpt>
      <trkpt lat="47.56969" lon="-3.10023">
        <ele>1</ele>
        <time>2017-11-12T14:49:15.000Z</time>
      </trkpt>
      <trkpt lat="47.56969" lon="-3.10023">
        <ele>1</ele>
        <time>2017-11-12T14:49:16.000Z</time>
      </trkpt>
      <trkpt lat="47.56969" lon="-3.10023">
        <ele>1</ele>
        <time>2017-11-12T14:49:17.000Z</time>
      </trkpt>
      <trkpt lat="47.56969" lon="-3.10023">
        <ele>1</ele>
        <time>2017-11-12T14:49:18.000Z</time>
      </trkpt>
      <trkpt lat="47.56969" lon="-3.10023">
        <ele>1</ele>
        <time>2017-11-12T14:49:19.000Z</time>
      </trkpt>
      <trkpt lat="47.56969" lon="-3.10023">
        <ele>1</ele>
        <time>2017-11-12T14:49:20.000Z</time>
      </trkpt>
      <trkpt lat="47.56969" lon="-3.10023">
        <ele>1</ele>
        <time>2017-11-12T14:49:21.000Z</time>
      </trkpt>
      <trkpt lat="47.56969" lon="-3.10023">
        <ele>1</ele>
        <time>2017-11-12T14:49:22.000Z</time>
      </trkpt>
      <trkpt lat="47.56969" lon="-3.10023">
        <ele>1</ele>
        <time>2017-11-12T14:49:23.000Z</time>
      </trkpt>
      <trkpt lat="47.56969" lon="-3.10023">
        <ele>1</ele>
        <time>2017-11-12T14:49:24.000Z</time>
      </trkpt>
      <trkpt lat="47.56969" lon="-3.10023">
        <ele>1</ele>
        <time>2017-11-12T14:49:25.000Z</time>
      </trkpt>
      <trkpt lat="47.56969" lon="-3.10023">
        <ele>1</ele>
        <time>2017-11-12T14:49:26.000Z</time>
      </trkpt>
      <trkpt lat="47.56969" lon="-3.10023">
        <ele>1</ele>
        <time>2017-11-12T14:49:27.000Z</time>
      </trkpt>
      <trkpt lat="47.56969" lon="-3.10023">
        <ele>1</ele>
        <time>2017-11-12T14:49:28.000Z</time>
      </trkpt>
      <trkpt lat="47.56969" lon="-3.10023">
        <ele>1</ele>
        <time>2017-11-12T14:49:29.000Z</time>
      </trkpt>
      <trkpt lat="47.56969" lon="-3.10023">
        <ele>1</ele>
        <time>2017-11-12T14:49:30.000Z</time>
      </trkpt>
      <trkpt lat="47.56969" lon="-3.10023">
        <ele>1</ele>
        <time>2017-11-12T14:49:31.000Z</time>
      </trkpt>
      <trkpt lat="47.56969" lon="-3.10023">
        <ele>1</ele>
        <time>2017-11-12T14:49:32.000Z</time>
      </trkpt>
      <trkpt lat="47.56969" lon="-3.10023">
        <ele>1</ele>
        <time>2017-11-12T14:49:33.000Z</time>
      </trkpt>
      <trkpt lat="47.56969" lon="-3.10023">
        <ele>1</ele>
        <time>2017-11-12T14:49:34.000Z</time>
      </trkpt>
      <trkpt lat="47.56969" lon="-3.10023">
        <ele>1</ele>
        <time>2017-11-12T14:49:35.000Z</time>
      </trkpt>
      <trkpt lat="47.56969" lon="-3.10023">
        <ele>1</ele>
        <time>2017-11-12T14:49:36.000Z</time>
      </trkpt>
      <trkpt lat="47.56969" lon="-3.10023">
        <ele>1</ele>
        <time>2017-11-12T14:49:37.000Z</time>
      </trkpt>
      <trkpt lat="47.56969" lon="-3.10023">
        <ele>1</ele>
        <time>2017-11-12T14:49:38.000Z</time>
      </trkpt>
      <trkpt lat="47.56969" lon="-3.10023">
        <ele>1</ele>
        <time>2017-11-12T14:49:39.000Z</time>
      </trkpt>
      <trkpt lat="47.56969" lon="-3.10023">
        <ele>1</ele>
        <time>2017-11-12T14:49:40.000Z</time>
      </trkpt>
      <trkpt lat="47.56969" lon="-3.10023">
        <ele>1</ele>
        <time>2017-11-12T14:49:41.000Z</time>
      </trkpt>
      <trkpt lat="47.56969" lon="-3.10023">
        <ele>1</ele>
        <time>2017-11-12T14:49:42.000Z</time>
      </trkpt>
      <trkpt lat="47.56977" lon="-3.10026">
        <ele>1.4</ele>
        <time>2017-11-12T14:49:43.000Z</time>
      </trkpt>
      <trkpt lat="47.56978" lon="-3.10026">
        <ele>1.4</ele>
        <time>2017-11-12T14:49:44.000Z</time>
      </trkpt>
      <trkpt lat="47.56978" lon="-3.10026">
        <ele>1.4</ele>
        <time>2017-11-12T14:49:45.000Z</time>
      </trkpt>
      <trkpt lat="47.56978" lon="-3.10026">
        <ele>1.4</ele>
        <time>2017-11-12T14:49:46.000Z</time>
      </trkpt>
      <trkpt lat="47.56978" lon="-3.10026">
        <ele>1.4</ele>
        <time>2017-11-12T14:49:47.000Z</time>
      </trkpt>
      <trkpt lat="47.56978" lon="-3.10026">
        <ele>1.4</ele>
        <time>2017-11-12T14:49:48.000Z</time>
      </trkpt>
      <trkpt lat="47.56978" lon="-3.10026">
        <ele>1.4</ele>
        <time>2017-11-12T14:49:49.000Z</time>
      </trkpt>
      <trkpt lat="47.56978" lon="-3.10026">
        <ele>1.4</ele>
        <time>2017-11-12T14:49:50.000Z</time>
      </trkpt>
      <trkpt lat="47.56978" lon="-3.10026">
        <ele>1.4</ele>
        <time>2017-11-12T14:49:51.000Z</time>
      </trkpt>
      <trkpt lat="47.56978" lon="-3.10026">
        <ele>1.4</ele>
        <time>2017-11-12T14:49:52.000Z</time>
      </trkpt>
      <trkpt lat="47.56978" lon="-3.10026">
        <ele>1.4</ele>
        <time>2017-11-12T14:49:53.000Z</time>
      </trkpt>
      <trkpt lat="47.56978" lon="-3.10026">
        <ele>1.4</ele>
        <time>2017-11-12T14:49:54.000Z</time>
      </trkpt>
      <trkpt lat="47.56978" lon="-3.10026">
        <ele>1.4</ele>
        <time>2017-11-12T14:49:55.000Z</time>
      </trkpt>
      <trkpt lat="47.56978" lon="-3.10026">
        <ele>1.4</ele>
        <time>2017-11-12T14:49:56.000Z</time>
      </trkpt>
      <trkpt lat="47.56978" lon="-3.10026">
        <ele>1.4</ele>
        <time>2017-11-12T14:49:57.000Z</time>
      </trkpt>
      <trkpt lat="47.56978" lon="-3.10026">
        <ele>1.4</ele>
        <time>2017-11-12T14:49:58.000Z</time>
      </trkpt>
      <trkpt lat="47.56978" lon="-3.10026">
        <ele>1.4</ele>
        <time>2017-11-12T14:49:59.000Z</time>
      </trkpt>
      <trkpt lat="47.56978" lon="-3.10026">
        <ele>1.4</ele>
        <time>2017-11-12T14:50:00.000Z</time>
      </trkpt>
      <trkpt lat="47.56978" lon="-3.10026">
        <ele>1.4</ele>
        <time>2017-11-12T14:50:01.000Z</time>
      </trkpt>
      <trkpt lat="47.56978" lon="-3.10026">
        <ele>1.4</ele>
        <time>2017-11-12T14:50:02.000Z</time>
      </trkpt>
      <trkpt lat="47.56978" lon="-3.10026">
        <ele>1.4</ele>
        <time>2017-11-12T14:50:03.000Z</time>
      </trkpt>
      <trkpt lat="47.56978" lon="-3.10026">
        <ele>1.4</ele>
        <time>2017-11-12T14:50:04.000Z</time>
      </trkpt>
      <trkpt lat="47.56978" lon="-3.10026">
        <ele>1.4</ele>
        <time>2017-11-12T14:50:05.000Z</time>
      </trkpt>
      <trkpt lat="47.56978" lon="-3.10026">
        <ele>1.4</ele>
        <time>2017-11-12T14:50:06.000Z</time>
      </trkpt>
      <trkpt lat="47.56978" lon="-3.10026">
        <ele>1.4</ele>
        <time>2017-11-12T14:50:07.000Z</time>
      </trkpt>
      <trkpt lat="47.56978" lon="-3.10026">
        <ele>1.4</ele>
        <time>2017-11-12T14:50:08.000Z</time>
      </trkpt>
      <trkpt lat="47.56978" lon="-3.10026">
        <ele>1.4</ele>
        <time>2017-11-12T14:50:09.000Z</time>
      </trkpt>
      <trkpt lat="47.56978" lon="-3.10026">
        <ele>1.4</ele>
        <time>2017-11-12T14:50:10.000Z</time>
      </trkpt>
      <trkpt lat="47.56978" lon="-3.10026">
        <ele>1.4</ele>
        <time>2017-11-12T14:50:11.000Z</time>
      </trkpt>
      <trkpt lat="47.56978" lon="-3.10026">
        <ele>1.4</ele>
        <time>2017-11-12T14:50:12.000Z</time>
      </trkpt>
      <trkpt lat="47.56974" lon="-3.10016">
        <ele>1.1</ele>
        <time>2017-11-12T14:50:13.000Z</time>
      </trkpt>
      <trkpt lat="47.56972" lon="-3.10016">
        <ele>1</ele>
        <time>2017-11-12T14:50:14.000Z</time>
      </trkpt>
      <trkpt lat="47.56971" lon="-3.10016">
        <ele>1</ele>
        <time>2017-11-12T14:50:15.000Z</time>
      </trkpt>
      <trkpt lat="47.5697" lon="-3.10015">
        <ele>1</ele>
        <time>2017-11-12T14:50:16.000Z</time>
      </trkpt>
      <trkpt lat="47.56971" lon="-3.10017">
        <ele>1</ele>
        <time>2017-11-12T14:50:17.000Z</time>
      </trkpt>
      <trkpt lat="47.56971" lon="-3.10017">
        <ele>1</ele>
        <time>2017-11-12T14:50:18.000Z</time>
      </trkpt>
      <trkpt lat="47.56971" lon="-3.10017">
        <ele>1</ele>
        <time>2017-11-12T14:50:19.000Z</time>
      </trkpt>
      <trkpt lat="47.56971" lon="-3.10017">
        <ele>1</ele>
        <time>2017-11-12T14:50:20.000Z</time>
      </trkpt>
      <trkpt lat="47.56971" lon="-3.10017">
        <ele>1</ele>
        <time>2017-11-12T14:50:21.000Z</time>
      </trkpt>
      <trkpt lat="47.56971" lon="-3.10017">
        <ele>1</ele>
        <time>2017-11-12T14:50:22.000Z</time>
      </trkpt>
      <trkpt lat="47.56971" lon="-3.10017">
        <ele>1</ele>
        <time>2017-11-12T14:50:23.000Z</time>
      </trkpt>
      <trkpt lat="47.56971" lon="-3.10017">
        <ele>1</ele>
        <time>2017-11-12T14:50:24.000Z</time>
      </trkpt>
      <trkpt lat="47.56971" lon="-3.10017">
        <ele>1</ele>
        <time>2017-11-12T14:50:25.000Z</time>
      </trkpt>
      <trkpt lat="47.56971" lon="-3.10017">
        <ele>1</ele>
        <time>2017-11-12T14:50:26.000Z</time>
      </trkpt>
      <trkpt lat="47.56971" lon="-3.10017">
        <ele>1</ele>
        <time>2017-11-12T14:50:27.000Z</time>
      </trkpt>
      <trkpt lat="47.56971" lon="-3.10017">
        <ele>1</ele>
        <time>2017-11-12T14:50:28.000Z</time>
      </trkpt>
      <trkpt lat="47.56971" lon="-3.10017">
        <ele>1</ele>
        <time>2017-11-12T14:50:29.000Z</time>
      </trkpt>
      <trkpt lat="47.56971" lon="-3.10017">
        <ele>1</ele>
        <time>2017-11-12T14:50:30.000Z</time>
      </trkpt>
      <trkpt lat="47.56971" lon="-3.10017">
        <ele>1</ele>
        <time>2017-11-12T14:50:31.000Z</time>
      </trkpt>
      <trkpt lat="47.56971" lon="-3.10017">
        <ele>1</ele>
        <time>2017-11-12T14:50:32.000Z</time>
      </trkpt>
      <trkpt lat="47.56971" lon="-3.10017">
        <ele>1</ele>
        <time>2017-11-12T14:50:33.000Z</time>
      </trkpt>
      <trkpt lat="47.56971" lon="-3.10017">
        <ele>1</ele>
        <time>2017-11-12T14:50:34.000Z</time>
      </trkpt>
      <trkpt lat="47.56971" lon="-3.10017">
        <ele>1</ele>
        <time>2017-11-12T14:50:35.000Z</time>
      </trkpt>
      <trkpt lat="47.56971" lon="-3.10017">
        <ele>1</ele>
        <time>2017-11-12T14:50:36.000Z</time>
      </trkpt>
      <trkpt lat="47.56966" lon="-3.10012">
        <ele>1</ele>
        <time>2017-11-12T14:50:37.000Z</time>
      </trkpt>
      <trkpt lat="47.56965" lon="-3.10013">
        <ele>1</ele>
        <time>2017-11-12T14:50:38.000Z</time>
      </trkpt>
      <trkpt lat="47.56964" lon="-3.10014">
        <ele>1</ele>
        <time>2017-11-12T14:50:39.000Z</time>
      </trkpt>
      <trkpt lat="47.56964" lon="-3.10014">
        <ele>1</ele>
        <time>2017-11-12T14:50:40.000Z</time>
      </trkpt>
      <trkpt lat="47.56964" lon="-3.10014">
        <ele>1</ele>
        <time>2017-11-12T14:50:41.000Z</time>
      </trkpt>
      <trkpt lat="47.56964" lon="-3.10014">
        <ele>1</ele>
        <time>2017-11-12T14:50:42.000Z</time>
      </trkpt>
      <trkpt lat="47.56964" lon="-3.10014">
        <ele>1</ele>
        <time>2017-11-12T14:50:43.000Z</time>
      </trkpt>
      <trkpt lat="47.56964" lon="-3.10014">
        <ele>1</ele>
        <time>2017-11-12T14:50:44.000Z</time>
      </trkpt>
      <trkpt lat="47.56964" lon="-3.10014">
        <ele>1</ele>
        <time>2017-11-12T14:50:45.000Z</time>
      </trkpt>
      <trkpt lat="47.56964" lon="-3.10014">
        <ele>1</ele>
        <time>2017-11-12T14:50:46.000Z</time>
      </trkpt>
      <trkpt lat="47.56964" lon="-3.10014">
        <ele>1</ele>
        <time>2017-11-12T14:50:47.000Z</time>
      </trkpt>
      <trkpt lat="47.56964" lon="-3.10014">
        <ele>1</ele>
        <time>2017-11-12T14:50:48.000Z</time>
      </trkpt>
      <trkpt lat="47.56964" lon="-3.10014">
        <ele>1</ele>
        <time>2017-11-12T14:50:49.000Z</time>
      </trkpt>
      <trkpt lat="47.56964" lon="-3.10014">
        <ele>1</ele>
        <time>2017-11-12T14:50:50.000Z</time>
      </trkpt>
      <trkpt lat="47.56964" lon="-3.10014">
        <ele>1</ele>
        <time>2017-11-12T14:50:51.000Z</time>
      </trkpt>
      <trkpt lat="47.56964" lon="-3.10014">
        <ele>1</ele>
        <time>2017-11-12T14:50:52.000Z</time>
      </trkpt>
      <trkpt lat="47.56964" lon="-3.10014">
        <ele>1</ele>
        <time>2017-11-12T14:50:53.000Z</time>
      </trkpt>
      <trkpt lat="47.56964" lon="-3.10014">
        <ele>1</ele>
        <time>2017-11-12T14:50:54.000Z</time>
      </trkpt>
      <trkpt lat="47.56964" lon="-3.10014">
        <ele>1</ele>
        <time>2017-11-12T14:50:55.000Z</time>
      </trkpt>
      <trkpt lat="47.56964" lon="-3.10014">
        <ele>1</ele>
        <time>2017-11-12T14:50:56.000Z</time>
      </trkpt>
      <trkpt lat="47.56964" lon="-3.10018">
        <ele>1</ele>
        <time>2017-11-12T14:50:57.000Z</time>
      </trkpt>
      <trkpt lat="47.56965" lon="-3.10017">
        <ele>1</ele>
        <time>2017-11-12T14:50:58.000Z</time>
      </trkpt>
      <trkpt lat="47.56966" lon="-3.10017">
        <ele>1</ele>
        <time>2017-11-12T14:50:59.000Z</time>
      </trkpt>
      <trkpt lat="47.56967" lon="-3.10017">
        <ele>1</ele>
        <time>2017-11-12T14:51:00.000Z</time>
      </trkpt>
      <trkpt lat="47.56968" lon="-3.10017">
        <ele>1</ele>
        <time>2017-11-12T14:51:01.000Z</time>
      </trkpt>
      <trkpt lat="47.5697" lon="-3.10018">
        <ele>1</ele>
        <time>2017-11-12T14:51:02.000Z</time>
      </trkpt>
      <trkpt lat="47.56971" lon="-3.10019">
        <ele>1</ele>
        <time>2017-11-12T14:51:03.000Z</time>
      </trkpt>
      <trkpt lat="47.56972" lon="-3.10019">
        <ele>1</ele>
        <time>2017-11-12T14:51:04.000Z</time>
      </trkpt>
      <trkpt lat="47.56973" lon="-3.10019">
        <ele>1.1</ele>
        <time>2017-11-12T14:51:05.000Z</time>
      </trkpt>
      <trkpt lat="47.56974" lon="-3.10018">
        <ele>1.1</ele>
        <time>2017-11-12T14:51:06.000Z</time>
      </trkpt>
      <trkpt lat="47.56975" lon="-3.10018">
        <ele>1.2</ele>
        <time>2017-11-12T14:51:07.000Z</time>
      </trkpt>
      <trkpt lat="47.56976" lon="-3.10019">
        <ele>1.3</ele>
        <time>2017-11-12T14:51:08.000Z</time>
      </trkpt>
      <trkpt lat="47.56977" lon="-3.10019">
        <ele>1.4</ele>
        <time>2017-11-12T14:51:09.000Z</time>
      </trkpt>
      <trkpt lat="47.56978" lon="-3.10019">
        <ele>1.5</ele>
        <time>2017-11-12T14:51:10.000Z</time>
      </trkpt>
      <trkpt lat="47.56978" lon="-3.10019">
        <ele>1.5</ele>
        <time>2017-11-12T14:51:11.000Z</time>
      </trkpt>
      <trkpt lat="47.56978" lon="-3.10019">
        <ele>1.5</ele>
        <time>2017-11-12T14:51:12.000Z</time>
      </trkpt>
      <trkpt lat="47.56978" lon="-3.10019">
        <ele>1.5</ele>
        <time>2017-11-12T14:51:13.000Z</time>
      </trkpt>
      <trkpt lat="47.56984" lon="-3.10022">
        <ele>1.9</ele>
        <time>2017-11-12T14:51:14.000Z</time>
      </trkpt>
      <trkpt lat="47.56985" lon="-3.10022">
        <ele>2</ele>
        <time>2017-11-12T14:51:15.000Z</time>
      </trkpt>
      <trkpt lat="47.56987" lon="-3.10023">
        <ele>2.1</ele>
        <time>2017-11-12T14:51:16.000Z</time>
      </trkpt>
      <trkpt lat="47.56988" lon="-3.10023">
        <ele>2.2</ele>
        <time>2017-11-12T14:51:17.000Z</time>
      </trkpt>
      <trkpt lat="47.5699" lon="-3.10023">
        <ele>2.4</ele>
        <time>2017-11-12T14:51:18.000Z</time>
      </trkpt>
      <trkpt lat="47.56992" lon="-3.10024">
        <ele>2.5</ele>
        <time>2017-11-12T14:51:19.000Z</time>
      </trkpt>
      <trkpt lat="47.56993" lon="-3.10026">
        <ele>2.6</ele>
        <time>2017-11-12T14:51:20.000Z</time>
      </trkpt>
      <trkpt lat="47.56994" lon="-3.10026">
        <ele>2.6</ele>
        <time>2017-11-12T14:51:21.000Z</time>
      </trkpt>
      <trkpt lat="47.56996" lon="-3.10026">
        <ele>2.7</ele>
        <time>2017-11-12T14:51:22.000Z</time>
      </trkpt>
      <trkpt lat="47.56997" lon="-3.10026">
        <ele>2.8</ele>
        <time>2017-11-12T14:51:23.000Z</time>
      </trkpt>
      <trkpt lat="47.56999" lon="-3.10027">
        <ele>2.9</ele>
        <time>2017-11-12T14:51:24.000Z</time>
      </trkpt>
      <trkpt lat="47.57" lon="-3.10027">
        <ele>3</ele>
        <time>2017-11-12T14:51:25.000Z</time>
      </trkpt>
      <trkpt lat="47.57001" lon="-3.10028">
        <ele>3.1</ele>
        <time>2017-11-12T14:51:26.000Z</time>
      </trkpt>
      <trkpt lat="47.57002" lon="-3.10029">
        <ele>3.2</ele>
        <time>2017-11-12T14:51:27.000Z</time>
      </trkpt>
      <trkpt lat="47.57003" lon="-3.10029">
        <ele>3.3</ele>
        <time>2017-11-12T14:51:28.000Z</time>
      </trkpt>
      <trkpt lat="47.57003" lon="-3.10029">
        <ele>3.4</ele>
        <time>2017-11-12T14:51:29.000Z</time>
      </trkpt>
      <trkpt lat="47.57003" lon="-3.10029">
        <ele>3.4</ele>
        <time>2017-11-12T14:51:30.000Z</time>
      </trkpt>
      <trkpt lat="47.57003" lon="-3.10029">
        <ele>3.4</ele>
        <time>2017-11-12T14:51:31.000Z</time>
      </trkpt>
      <trkpt lat="47.57003" lon="-3.10029">
        <ele>3.4</ele>
        <time>2017-11-12T14:51:32.000Z</time>
      </trkpt>
      <trkpt lat="47.57003" lon="-3.10029">
        <ele>3.4</ele>
        <time>2017-11-12T14:51:33.000Z</time>
      </trkpt>
      <trkpt lat="47.57003" lon="-3.10029">
        <ele>3.4</ele>
        <time>2017-11-12T14:51:34.000Z</time>
      </trkpt>
      <trkpt lat="47.57003" lon="-3.10029">
        <ele>3.4</ele>
        <time>2017-11-12T14:51:35.000Z</time>
      </trkpt>
      <trkpt lat="47.57003" lon="-3.10029">
        <ele>3.4</ele>
        <time>2017-11-12T14:51:36.000Z</time>
      </trkpt>
      <trkpt lat="47.57003" lon="-3.10029">
        <ele>3.4</ele>
        <time>2017-11-12T14:51:37.000Z</time>
      </trkpt>
      <trkpt lat="47.57003" lon="-3.10029">
        <ele>3.4</ele>
        <time>2017-11-12T14:51:38.000Z</time>
      </trkpt>
      <trkpt lat="47.57003" lon="-3.10029">
        <ele>3.4</ele>
        <time>2017-11-12T14:51:39.000Z</time>
      </trkpt>
      <trkpt lat="47.57003" lon="-3.10029">
        <ele>3.4</ele>
        <time>2017-11-12T14:51:40.000Z</time>
      </trkpt>
      <trkpt lat="47.57003" lon="-3.10029">
        <ele>3.4</ele>
        <time>2017-11-12T14:51:41.000Z</time>
      </trkpt>
      <trkpt lat="47.57003" lon="-3.10029">
        <ele>3.4</ele>
        <time>2017-11-12T14:51:42.000Z</time>
      </trkpt>
      <trkpt lat="47.57003" lon="-3.10029">
        <ele>3.4</ele>
        <time>2017-11-12T14:51:43.000Z</time>
      </trkpt>
      <trkpt lat="47.57003" lon="-3.10029">
        <ele>3.4</ele>
        <time>2017-11-12T14:51:44.000Z</time>
      </trkpt>
      <trkpt lat="47.57003" lon="-3.10029">
        <ele>3.4</ele>
        <time>2017-11-12T14:51:45.000Z</time>
      </trkpt>
      <trkpt lat="47.57003" lon="-3.10029">
        <ele>3.4</ele>
        <time>2017-11-12T14:51:46.000Z</time>
      </trkpt>
      <trkpt lat="47.57003" lon="-3.10029">
        <ele>3.4</ele>
        <time>2017-11-12T14:51:47.000Z</time>
      </trkpt>
      <trkpt lat="47.57015" lon="-3.10037">
        <ele>5</ele>
        <time>2017-11-12T14:51:48.000Z</time>
      </trkpt>
      <trkpt lat="47.57016" lon="-3.10038">
        <ele>5.2</ele>
        <time>2017-11-12T14:51:49.000Z</time>
      </trkpt>
      <trkpt lat="47.57017" lon="-3.10039">
        <ele>5.3</ele>
        <time>2017-11-12T14:51:50.000Z</time>
      </trkpt>
      <trkpt lat="47.57017" lon="-3.10039">
        <ele>5.4</ele>
        <time>2017-11-12T14:51:51.000Z</time>
      </trkpt>
      <trkpt lat="47.57017" lon="-3.10039">
        <ele>5.4</ele>
        <time>2017-11-12T14:51:52.000Z</time>
      </trkpt>
      <trkpt lat="47.57017" lon="-3.10039">
        <ele>5.4</ele>
        <time>2017-11-12T14:51:53.000Z</time>
      </trkpt>
      <trkpt lat="47.57017" lon="-3.10039">
        <ele>5.4</ele>
        <time>2017-11-12T14:51:54.000Z</time>
      </trkpt>
      <trkpt lat="47.57017" lon="-3.10039">
        <ele>5.4</ele>
        <time>2017-11-12T14:51:55.000Z</time>
      </trkpt>
      <trkpt lat="47.57017" lon="-3.10039">
        <ele>5.4</ele>
        <time>2017-11-12T14:51:56.000Z</time>
      </trkpt>
      <trkpt lat="47.5702" lon="-3.10041">
        <ele>5.8</ele>
        <time>2017-11-12T14:51:57.000Z</time>
      </trkpt>
      <trkpt lat="47.57021" lon="-3.10041">
        <ele>5.9</ele>
        <time>2017-11-12T14:51:58.000Z</time>
      </trkpt>
      <trkpt lat="47.57022" lon="-3.1004">
        <ele>6</ele>
        <time>2017-11-12T14:51:59.000Z</time>
      </trkpt>
      <trkpt lat="47.57022" lon="-3.10038">
        <ele>6</ele>
        <time>2017-11-12T14:52:00.000Z</time>
      </trkpt>
      <trkpt lat="47.57023" lon="-3.10037">
        <ele>6</ele>
        <time>2017-11-12T14:52:01.000Z</time>
      </trkpt>
      <trkpt lat="47.57022" lon="-3.10035">
        <ele>5.8</ele>
        <time>2017-11-12T14:52:02.000Z</time>
      </trkpt>
      <trkpt lat="47.57022" lon="-3.10035">
        <ele>5.8</ele>
        <time>2017-11-12T14:52:03.000Z</time>
      </trkpt>
      <trkpt lat="47.57022" lon="-3.10035">
        <ele>5.8</ele>
        <time>2017-11-12T14:52:04.000Z</time>
      </trkpt>
      <trkpt lat="47.57022" lon="-3.10035">
        <ele>5.8</ele>
        <time>2017-11-12T14:52:05.000Z</time>
      </trkpt>
      <trkpt lat="47.57022" lon="-3.10035">
        <ele>5.8</ele>
        <time>2017-11-12T14:52:06.000Z</time>
      </trkpt>
      <trkpt lat="47.57022" lon="-3.10035">
        <ele>5.8</ele>
        <time>2017-11-12T14:52:07.000Z</time>
      </trkpt>
      <trkpt lat="47.57022" lon="-3.10035">
        <ele>5.8</ele>
        <time>2017-11-12T14:52:08.000Z</time>
      </trkpt>
      <trkpt lat="47.57022" lon="-3.10035">
        <ele>5.8</ele>
        <time>2017-11-12T14:52:09.000Z</time>
      </trkpt>
      <trkpt lat="47.57022" lon="-3.10035">
        <ele>5.8</ele>
        <time>2017-11-12T14:52:10.000Z</time>
      </trkpt>
      <trkpt lat="47.57022" lon="-3.10035">
        <ele>5.8</ele>
        <time>2017-11-12T14:52:11.000Z</time>
      </trkpt>
      <trkpt lat="47.57022" lon="-3.10035">
        <ele>5.8</ele>
        <time>2017-11-12T14:52:12.000Z</time>
      </trkpt>
      <trkpt lat="47.57022" lon="-3.10035">
        <ele>5.8</ele>
        <time>2017-11-12T14:52:13.000Z</time>
      </trkpt>
      <trkpt lat="47.57022" lon="-3.10035">
        <ele>5.8</ele>
        <time>2017-11-12T14:52:14.000Z</time>
      </trkpt>
      <trkpt lat="47.57022" lon="-3.10035">
        <ele>5.8</ele>
        <time>2017-11-12T14:52:15.000Z</time>
      </trkpt>
      <trkpt lat="47.57022" lon="-3.10035">
        <ele>5.8</ele>
        <time>2017-11-12T14:52:16.000Z</time>
      </trkpt>
      <trkpt lat="47.57022" lon="-3.10035">
        <ele>5.8</ele>
        <time>2017-11-12T14:52:17.000Z</time>
      </trkpt>
      <trkpt lat="47.57022" lon="-3.10035">
        <ele>5.8</ele>
        <time>2017-11-12T14:52:18.000Z</time>
      </trkpt>
      <trkpt lat="47.57022" lon="-3.10035">
        <ele>5.8</ele>
        <time>2017-11-12T14:52:19.000Z</time>
      </trkpt>
      <trkpt lat="47.57022" lon="-3.10035">
        <ele>5.8</ele>
        <time>2017-11-12T14:52:20.000Z</time>
      </trkpt>
      <trkpt lat="47.57022" lon="-3.10035">
        <ele>5.8</ele>
        <time>2017-11-12T14:52:21.000Z</time>
      </trkpt>
      <trkpt lat="47.57022" lon="-3.10035">
        <ele>5.8</ele>
        <time>2017-11-12T14:52:22.000Z</time>
      </trkpt>
      <trkpt lat="47.57022" lon="-3.10035">
        <ele>5.8</ele>
        <time>2017-11-12T14:52:23.000Z</time>
      </trkpt>
      <trkpt lat="47.57022" lon="-3.10035">
        <ele>5.8</ele>
        <time>2017-11-12T14:52:24.000Z</time>
      </trkpt>
      <trkpt lat="47.57022" lon="-3.10035">
        <ele>5.8</ele>
        <time>2017-11-12T14:52:25.000Z</time>
      </trkpt>
      <trkpt lat="47.57022" lon="-3.10035">
        <ele>5.8</ele>
        <time>2017-11-12T14:52:26.000Z</time>
      </trkpt>
      <trkpt lat="47.57022" lon="-3.10035">
        <ele>5.8</ele>
        <time>2017-11-12T14:52:27.000Z</time>
      </trkpt>
      <trkpt lat="47.57022" lon="-3.10035">
        <ele>5.8</ele>
        <time>2017-11-12T14:52:28.000Z</time>
      </trkpt>
      <trkpt lat="47.57022" lon="-3.10035">
        <ele>5.8</ele>
        <time>2017-11-12T14:52:29.000Z</time>
      </trkpt>
      <trkpt lat="47.57022" lon="-3.10035">
        <ele>5.8</ele>
        <time>2017-11-12T14:52:30.000Z</time>
      </trkpt>
      <trkpt lat="47.57022" lon="-3.10035">
        <ele>5.8</ele>
        <time>2017-11-12T14:52:31.000Z</time>
      </trkpt>
      <trkpt lat="47.57022" lon="-3.10035">
        <ele>5.8</ele>
        <time>2017-11-12T14:52:32.000Z</time>
      </trkpt>
      <trkpt lat="47.57022" lon="-3.10035">
        <ele>5.8</ele>
        <time>2017-11-12T14:52:33.000Z</time>
      </trkpt>
      <trkpt lat="47.57022" lon="-3.10035">
        <ele>5.8</ele>
        <time>2017-11-12T14:52:34.000Z</time>
      </trkpt>
      <trkpt lat="47.57022" lon="-3.10035">
        <ele>5.8</ele>
        <time>2017-11-12T14:52:35.000Z</time>
      </trkpt>
      <trkpt lat="47.57022" lon="-3.10035">
        <ele>5.8</ele>
        <time>2017-11-12T14:52:36.000Z</time>
      </trkpt>
      <trkpt lat="47.57022" lon="-3.10035">
        <ele>5.8</ele>
        <time>2017-11-12T14:52:37.000Z</time>
      </trkpt>
      <trkpt lat="47.57022" lon="-3.10035">
        <ele>5.8</ele>
        <time>2017-11-12T14:52:38.000Z</time>
      </trkpt>
      <trkpt lat="47.57022" lon="-3.10035">
        <ele>5.8</ele>
        <time>2017-11-12T14:52:39.000Z</time>
      </trkpt>
      <trkpt lat="47.57022" lon="-3.10035">
        <ele>5.8</ele>
        <time>2017-11-12T14:52:40.000Z</time>
      </trkpt>
      <trkpt lat="47.57022" lon="-3.10035">
        <ele>5.8</ele>
        <time>2017-11-12T14:52:41.000Z</time>
      </trkpt>
      <trkpt lat="47.57022" lon="-3.10035">
        <ele>5.8</ele>
        <time>2017-11-12T14:52:42.000Z</time>
      </trkpt>
      <trkpt lat="47.57022" lon="-3.10035">
        <ele>5.8</ele>
        <time>2017-11-12T14:52:43.000Z</time>
      </trkpt>
      <trkpt lat="47.57022" lon="-3.10035">
        <ele>5.8</ele>
        <time>2017-11-12T14:52:44.000Z</time>
      </trkpt>
      <trkpt lat="47.57022" lon="-3.10035">
        <ele>5.8</ele>
        <time>2017-11-12T14:52:45.000Z</time>
      </trkpt>
      <trkpt lat="47.57022" lon="-3.10035">
        <ele>5.8</ele>
        <time>2017-11-12T14:52:46.000Z</time>
      </trkpt>
      <trkpt lat="47.57022" lon="-3.10035">
        <ele>5.8</ele>
        <time>2017-11-12T14:52:47.000Z</time>
      </trkpt>
      <trkpt lat="47.57022" lon="-3.10035">
        <ele>5.8</ele>
        <time>2017-11-12T14:52:48.000Z</time>
      </trkpt>
      <trkpt lat="47.57022" lon="-3.10035">
        <ele>5.8</ele>
        <time>2017-11-12T14:52:49.000Z</time>
      </trkpt>
      <trkpt lat="47.57022" lon="-3.10035">
        <ele>5.8</ele>
        <time>2017-11-12T14:52:50.000Z</time>
      </trkpt>
      <trkpt lat="47.57022" lon="-3.10035">
        <ele>5.8</ele>
        <time>2017-11-12T14:52:51.000Z</time>
      </trkpt>
      <trkpt lat="47.57022" lon="-3.10035">
        <ele>5.8</ele>
        <time>2017-11-12T14:52:52.000Z</time>
      </trkpt>
      <trkpt lat="47.57022" lon="-3.10035">
        <ele>5.8</ele>
        <time>2017-11-12T14:52:53.000Z</time>
      </trkpt>
      <trkpt lat="47.57022" lon="-3.10035">
        <ele>5.8</ele>
        <time>2017-11-12T14:52:54.000Z</time>
      </trkpt>
      <trkpt lat="47.57022" lon="-3.10035">
        <ele>5.8</ele>
        <time>2017-11-12T14:52:55.000Z</time>
      </trkpt>
      <trkpt lat="47.57022" lon="-3.10035">
        <ele>5.8</ele>
        <time>2017-11-12T14:52:56.000Z</time>
      </trkpt>
      <trkpt lat="47.57022" lon="-3.10035">
        <ele>5.8</ele>
        <time>2017-11-12T14:52:57.000Z</time>
      </trkpt>
      <trkpt lat="47.57022" lon="-3.10035">
        <ele>5.8</ele>
        <time>2017-11-12T14:52:58.000Z</time>
      </trkpt>
      <trkpt lat="47.57022" lon="-3.10035">
        <ele>5.8</ele>
        <time>2017-11-12T14:52:59.000Z</time>
      </trkpt>
      <trkpt lat="47.57019" lon="-3.10023">
        <ele>5.1</ele>
        <time>2017-11-12T14:53:00.000Z</time>
      </trkpt>
      <trkpt lat="47.57019" lon="-3.10023">
        <ele>5.1</ele>
        <time>2017-11-12T14:53:01.000Z</time>
      </trkpt>
      <trkpt lat="47.57019" lon="-3.10023">
        <ele>5.1</ele>
        <time>2017-11-12T14:53:02.000Z</time>
      </trkpt>
      <trkpt lat="47.57019" lon="-3.10023">
        <ele>5.1</ele>
        <time>2017-11-12T14:53:03.000Z</time>
      </trkpt>
      <trkpt lat="47.57019" lon="-3.10023">
        <ele>5.1</ele>
        <time>2017-11-12T14:53:04.000Z</time>
      </trkpt>
      <trkpt lat="47.57019" lon="-3.10023">
        <ele>5.1</ele>
        <time>2017-11-12T14:53:05.000Z</time>
      </trkpt>
      <trkpt lat="47.57019" lon="-3.10023">
        <ele>5.1</ele>
        <time>2017-11-12T14:53:06.000Z</time>
      </trkpt>
      <trkpt lat="47.57019" lon="-3.10023">
        <ele>5.1</ele>
        <time>2017-11-12T14:53:07.000Z</time>
      </trkpt>
      <trkpt lat="47.57019" lon="-3.10023">
        <ele>5.1</ele>
        <time>2017-11-12T14:53:08.000Z</time>
      </trkpt>
      <trkpt lat="47.57019" lon="-3.10023">
        <ele>5.1</ele>
        <time>2017-11-12T14:53:09.000Z</time>
      </trkpt>
      <trkpt lat="47.57019" lon="-3.10023">
        <ele>5.1</ele>
        <time>2017-11-12T14:53:10.000Z</time>
      </trkpt>
      <trkpt lat="47.57019" lon="-3.10023">
        <ele>5.1</ele>
        <time>2017-11-12T14:53:11.000Z</time>
      </trkpt>
      <trkpt lat="47.57019" lon="-3.10023">
        <ele>5.1</ele>
        <time>2017-11-12T14:53:12.000Z</time>
      </trkpt>
      <trkpt lat="47.57019" lon="-3.10023">
        <ele>5.1</ele>
        <time>2017-11-12T14:53:13.000Z</time>
      </trkpt>
      <trkpt lat="47.57019" lon="-3.10023">
        <ele>5.1</ele>
        <time>2017-11-12T14:53:14.000Z</time>
      </trkpt>
      <trkpt lat="47.57019" lon="-3.10023">
        <ele>5.1</ele>
        <time>2017-11-12T14:53:15.000Z</time>
      </trkpt>
      <trkpt lat="47.57019" lon="-3.10023">
        <ele>5.1</ele>
        <time>2017-11-12T14:53:16.000Z</time>
      </trkpt>
      <trkpt lat="47.57019" lon="-3.10023">
        <ele>5.1</ele>
        <time>2017-11-12T14:53:17.000Z</time>
      </trkpt>
      <trkpt lat="47.57019" lon="-3.10023">
        <ele>5.1</ele>
        <time>2017-11-12T14:53:18.000Z</time>
      </trkpt>
      <trkpt lat="47.57019" lon="-3.10023">
        <ele>5.1</ele>
        <time>2017-11-12T14:53:19.000Z</time>
      </trkpt>
      <trkpt lat="47.57019" lon="-3.10023">
        <ele>5.1</ele>
        <time>2017-11-12T14:53:20.000Z</time>
      </trkpt>
      <trkpt lat="47.57019" lon="-3.10023">
        <ele>5.1</ele>
        <time>2017-11-12T14:53:21.000Z</time>
      </trkpt>
      <trkpt lat="47.57019" lon="-3.10023">
        <ele>5.1</ele>
        <time>2017-11-12T14:53:22.000Z</time>
      </trkpt>
      <trkpt lat="47.57019" lon="-3.10023">
        <ele>5.1</ele>
        <time>2017-11-12T14:53:23.000Z</time>
      </trkpt>
      <trkpt lat="47.57019" lon="-3.10023">
        <ele>5.1</ele>
        <time>2017-11-12T14:53:24.000Z</time>
      </trkpt>
      <trkpt lat="47.57019" lon="-3.10023">
        <ele>5.1</ele>
        <time>2017-11-12T14:53:25.000Z</time>
      </trkpt>
      <trkpt lat="47.57019" lon="-3.10023">
        <ele>5.1</ele>
        <time>2017-11-12T14:53:26.000Z</time>
      </trkpt>
      <trkpt lat="47.57019" lon="-3.10023">
        <ele>5.1</ele>
        <time>2017-11-12T14:53:27.000Z</time>
      </trkpt>
      <trkpt lat="47.57019" lon="-3.10023">
        <ele>5.1</ele>
        <time>2017-11-12T14:53:28.000Z</time>
      </trkpt>
      <trkpt lat="47.57019" lon="-3.10023">
        <ele>5.1</ele>
        <time>2017-11-12T14:53:29.000Z</time>
      </trkpt>
      <trkpt lat="47.57019" lon="-3.10023">
        <ele>5.1</ele>
        <time>2017-11-12T14:53:30.000Z</time>
      </trkpt>
      <trkpt lat="47.57019" lon="-3.10023">
        <ele>5.1</ele>
        <time>2017-11-12T14:53:31.000Z</time>
      </trkpt>
      <trkpt lat="47.57019" lon="-3.10023">
        <ele>5.1</ele>
        <time>2017-11-12T14:53:32.000Z</time>
      </trkpt>
      <trkpt lat="47.57019" lon="-3.10023">
        <ele>5.1</ele>
        <time>2017-11-12T14:53:33.000Z</time>
      </trkpt>
      <trkpt lat="47.57019" lon="-3.10023">
        <ele>5.1</ele>
        <time>2017-11-12T14:53:34.000Z</time>
      </trkpt>
      <trkpt lat="47.57019" lon="-3.10023">
        <ele>5.1</ele>
        <time>2017-11-12T14:53:35.000Z</time>
      </trkpt>
      <trkpt lat="47.57019" lon="-3.10023">
        <ele>5.1</ele>
        <time>2017-11-12T14:53:36.000Z</time>
      </trkpt>
      <trkpt lat="47.57019" lon="-3.10023">
        <ele>5.1</ele>
        <time>2017-11-12T14:53:37.000Z</time>
      </trkpt>
      <trkpt lat="47.57019" lon="-3.10023">
        <ele>5.1</ele>
        <time>2017-11-12T14:53:38.000Z</time>
      </trkpt>
      <trkpt lat="47.57019" lon="-3.10023">
        <ele>5.1</ele>
        <time>2017-11-12T14:53:39.000Z</time>
      </trkpt>
      <trkpt lat="47.57019" lon="-3.10023">
        <ele>5.1</ele>
        <time>2017-11-12T14:53:40.000Z</time>
      </trkpt>
      <trkpt lat="47.57019" lon="-3.10023">
        <ele>5.1</ele>
        <time>2017-11-12T14:53:41.000Z</time>
      </trkpt>
      <trkpt lat="47.57019" lon="-3.10023">
        <ele>5.1</ele>
        <time>2017-11-12T14:53:42.000Z</time>
      </trkpt>
      <trkpt lat="47.57019" lon="-3.10023">
        <ele>5.1</ele>
        <time>2017-11-12T14:53:43.000Z</time>
      </trkpt>
      <trkpt lat="47.57019" lon="-3.10023">
        <ele>5.1</ele>
        <time>2017-11-12T14:53:44.000Z</time>
      </trkpt>
      <trkpt lat="47.57019" lon="-3.10023">
        <ele>5.1</ele>
        <time>2017-11-12T14:53:45.000Z</time>
      </trkpt>
      <trkpt lat="47.57019" lon="-3.10023">
        <ele>5.1</ele>
        <time>2017-11-12T14:53:46.000Z</time>
      </trkpt>
      <trkpt lat="47.57019" lon="-3.10023">
        <ele>5.1</ele>
        <time>2017-11-12T14:53:47.000Z</time>
      </trkpt>
      <trkpt lat="47.57019" lon="-3.10023">
        <ele>5.1</ele>
        <time>2017-11-12T14:53:48.000Z</time>
      </trkpt>
      <trkpt lat="47.57019" lon="-3.10023">
        <ele>5.1</ele>
        <time>2017-11-12T14:53:49.000Z</time>
      </trkpt>
      <trkpt lat="47.57019" lon="-3.10023">
        <ele>5.1</ele>
        <time>2017-11-12T14:53:50.000Z</time>
      </trkpt>
      <trkpt lat="47.57019" lon="-3.10023">
        <ele>5.1</ele>
        <time>2017-11-12T14:53:51.000Z</time>
      </trkpt>
      <trkpt lat="47.57019" lon="-3.10023">
        <ele>5.1</ele>
        <time>2017-11-12T14:53:52.000Z</time>
      </trkpt>
      <trkpt lat="47.57023" lon="-3.10026">
        <ele>5.4</ele>
        <time>2017-11-12T14:53:53.000Z</time>
      </trkpt>
      <trkpt lat="47.57024" lon="-3.10027">
        <ele>5.5</ele>
        <time>2017-11-12T14:53:54.000Z</time>
      </trkpt>
      <trkpt lat="47.57024" lon="-3.10028">
        <ele>5.6</ele>
        <time>2017-11-12T14:53:55.000Z</time>
      </trkpt>
      <trkpt lat="47.57025" lon="-3.10028">
        <ele>5.6</ele>
        <time>2017-11-12T14:53:56.000Z</time>
      </trkpt>
      <trkpt lat="47.57025" lon="-3.10028">
        <ele>5.6</ele>
        <time>2017-11-12T14:53:57.000Z</time>
      </trkpt>
      <trkpt lat="47.57025" lon="-3.10028">
        <ele>5.6</ele>
        <time>2017-11-12T14:53:58.000Z</time>
      </trkpt>
      <trkpt lat="47.57025" lon="-3.10028">
        <ele>5.6</ele>
        <time>2017-11-12T14:53:59.000Z</time>
      </trkpt>
      <trkpt lat="47.57025" lon="-3.10028">
        <ele>5.6</ele>
        <time>2017-11-12T14:54:00.000Z</time>
      </trkpt>
      <trkpt lat="47.57025" lon="-3.10028">
        <ele>5.6</ele>
        <time>2017-11-12T14:54:01.000Z</time>
      </trkpt>
      <trkpt lat="47.57025" lon="-3.10028">
        <ele>5.6</ele>
        <time>2017-11-12T14:54:02.000Z</time>
      </trkpt>
      <trkpt lat="47.57025" lon="-3.10028">
        <ele>5.6</ele>
        <time>2017-11-12T14:54:03.000Z</time>
      </trkpt>
      <trkpt lat="47.57025" lon="-3.10028">
        <ele>5.6</ele>
        <time>2017-11-12T14:54:04.000Z</time>
      </trkpt>
      <trkpt lat="47.57025" lon="-3.10028">
        <ele>5.6</ele>
        <time>2017-11-12T14:54:05.000Z</time>
      </trkpt>
      <trkpt lat="47.57025" lon="-3.10028">
        <ele>5.6</ele>
        <time>2017-11-12T14:54:06.000Z</time>
      </trkpt>
      <trkpt lat="47.57025" lon="-3.10028">
        <ele>5.6</ele>
        <time>2017-11-12T14:54:07.000Z</time>
      </trkpt>
      <trkpt lat="47.57025" lon="-3.10028">
        <ele>5.6</ele>
        <time>2017-11-12T14:54:08.000Z</time>
      </trkpt>
      <trkpt lat="47.57025" lon="-3.10028">
        <ele>5.6</ele>
        <time>2017-11-12T14:54:09.000Z</time>
      </trkpt>
      <trkpt lat="47.57025" lon="-3.10028">
        <ele>5.6</ele>
        <time>2017-11-12T14:54:10.000Z</time>
      </trkpt>
      <trkpt lat="47.57025" lon="-3.10028">
        <ele>5.6</ele>
        <time>2017-11-12T14:54:11.000Z</time>
      </trkpt>
      <trkpt lat="47.57025" lon="-3.10028">
        <ele>5.6</ele>
        <time>2017-11-12T14:54:12.000Z</time>
      </trkpt>
      <trkpt lat="47.57025" lon="-3.10028">
        <ele>5.6</ele>
        <time>2017-11-12T14:54:13.000Z</time>
      </trkpt>
      <trkpt lat="47.57025" lon="-3.10028">
        <ele>5.6</ele>
        <time>2017-11-12T14:54:14.000Z</time>
      </trkpt>
      <trkpt lat="47.57025" lon="-3.10028">
        <ele>5.6</ele>
        <time>2017-11-12T14:54:15.000Z</time>
      </trkpt>
      <trkpt lat="47.57025" lon="-3.10028">
        <ele>5.6</ele>
        <time>2017-11-12T14:54:16.000Z</time>
      </trkpt>
      <trkpt lat="47.57025" lon="-3.10028">
        <ele>5.6</ele>
        <time>2017-11-12T14:54:17.000Z</time>
      </trkpt>
      <trkpt lat="47.57025" lon="-3.10028">
        <ele>5.6</ele>
        <time>2017-11-12T14:54:18.000Z</time>
      </trkpt>
      <trkpt lat="47.57025" lon="-3.10028">
        <ele>5.6</ele>
        <time>2017-11-12T14:54:19.000Z</time>
      </trkpt>
      <trkpt lat="47.57025" lon="-3.10028">
        <ele>5.6</ele>
        <time>2017-11-12T14:54:20.000Z</time>
      </trkpt>
      <trkpt lat="47.57025" lon="-3.10028">
        <ele>5.6</ele>
        <time>2017-11-12T14:54:21.000Z</time>
      </trkpt>
      <trkpt lat="47.57025" lon="-3.10028">
        <ele>5.6</ele>
        <time>2017-11-12T14:54:22.000Z</time>
      </trkpt>
      <trkpt lat="47.57032" lon="-3.10016">
        <ele>6.1</ele>
        <time>2017-11-12T14:54:23.000Z</time>
      </trkpt>
      <trkpt lat="47.57032" lon="-3.10013">
        <ele>6.1</ele>
        <time>2017-11-12T14:54:24.000Z</time>
      </trkpt>
      <trkpt lat="47.57032" lon="-3.10011">
        <ele>6.1</ele>
        <time>2017-11-12T14:54:25.000Z</time>
      </trkpt>
      <trkpt lat="47.57032" lon="-3.1001">
        <ele>6.1</ele>
        <time>2017-11-12T14:54:26.000Z</time>
      </trkpt>
      <trkpt lat="47.57032" lon="-3.1001">
        <ele>6.1</ele>
        <time>2017-11-12T14:54:27.000Z</time>
      </trkpt>
      <trkpt lat="47.57032" lon="-3.1001">
        <ele>6.1</ele>
        <time>2017-11-12T14:54:28.000Z</time>
      </trkpt>
      <trkpt lat="47.57032" lon="-3.1001">
        <ele>6.1</ele>
        <time>2017-11-12T14:54:29.000Z</time>
      </trkpt>
      <trkpt lat="47.57032" lon="-3.1001">
        <ele>6.1</ele>
        <time>2017-11-12T14:54:30.000Z</time>
      </trkpt>
      <trkpt lat="47.57032" lon="-3.1001">
        <ele>6.1</ele>
        <time>2017-11-12T14:54:31.000Z</time>
      </trkpt>
      <trkpt lat="47.57032" lon="-3.1001">
        <ele>6.1</ele>
        <time>2017-11-12T14:54:32.000Z</time>
      </trkpt>
      <trkpt lat="47.57032" lon="-3.1001">
        <ele>6.1</ele>
        <time>2017-11-12T14:54:33.000Z</time>
      </trkpt>
      <trkpt lat="47.57032" lon="-3.1001">
        <ele>6.1</ele>
        <time>2017-11-12T14:54:34.000Z</time>
      </trkpt>
      <trkpt lat="47.57032" lon="-3.1001">
        <ele>6.1</ele>
        <time>2017-11-12T14:54:35.000Z</time>
      </trkpt>
      <trkpt lat="47.57032" lon="-3.1001">
        <ele>6.1</ele>
        <time>2017-11-12T14:54:36.000Z</time>
      </trkpt>
      <trkpt lat="47.57032" lon="-3.1001">
        <ele>6.1</ele>
        <time>2017-11-12T14:54:37.000Z</time>
      </trkpt>
      <trkpt lat="47.57032" lon="-3.1001">
        <ele>6.1</ele>
        <time>2017-11-12T14:54:38.000Z</time>
      </trkpt>
      <trkpt lat="47.57032" lon="-3.1001">
        <ele>6.1</ele>
        <time>2017-11-12T14:54:39.000Z</time>
      </trkpt>
      <trkpt lat="47.57032" lon="-3.1001">
        <ele>6.1</ele>
        <time>2017-11-12T14:54:40.000Z</time>
      </trkpt>
      <trkpt lat="47.57032" lon="-3.1001">
        <ele>6.1</ele>
        <time>2017-11-12T14:54:41.000Z</time>
      </trkpt>
      <trkpt lat="47.57032" lon="-3.1001">
        <ele>6.1</ele>
        <time>2017-11-12T14:54:42.000Z</time>
      </trkpt>
      <trkpt lat="47.57032" lon="-3.1001">
        <ele>6.1</ele>
        <time>2017-11-12T14:54:43.000Z</time>
      </trkpt>
      <trkpt lat="47.57032" lon="-3.1001">
        <ele>6.1</ele>
        <time>2017-11-12T14:54:44.000Z</time>
      </trkpt>
      <trkpt lat="47.57032" lon="-3.1001">
        <ele>6.1</ele>
        <time>2017-11-12T14:54:45.000Z</time>
      </trkpt>
      <trkpt lat="47.57032" lon="-3.1001">
        <ele>6.1</ele>
        <time>2017-11-12T14:54:46.000Z</time>
      </trkpt>
      <trkpt lat="47.57032" lon="-3.1001">
        <ele>6.1</ele>
        <time>2017-11-12T14:54:47.000Z</time>
      </trkpt>
      <trkpt lat="47.57032" lon="-3.1001">
        <ele>6.1</ele>
        <time>2017-11-12T14:54:48.000Z</time>
      </trkpt>
      <trkpt lat="47.57032" lon="-3.1001">
        <ele>6.1</ele>
        <time>2017-11-12T14:54:49.000Z</time>
      </trkpt>
      <trkpt lat="47.57032" lon="-3.1001">
        <ele>6.1</ele>
        <time>2017-11-12T14:54:50.000Z</time>
      </trkpt>
      <trkpt lat="47.57032" lon="-3.1001">
        <ele>6.1</ele>
        <time>2017-11-12T14:54:51.000Z</time>
      </trkpt>
      <trkpt lat="47.57032" lon="-3.1001">
        <ele>6.1</ele>
        <time>2017-11-12T14:54:52.000Z</time>
      </trkpt>
      <trkpt lat="47.57032" lon="-3.1001">
        <ele>6.1</ele>
        <time>2017-11-12T14:54:53.000Z</time>
      </trkpt>
      <trkpt lat="47.57032" lon="-3.1001">
        <ele>6.1</ele>
        <time>2017-11-12T14:54:54.000Z</time>
      </trkpt>
      <trkpt lat="47.57032" lon="-3.1001">
        <ele>6.1</ele>
        <time>2017-11-12T14:54:55.000Z</time>
      </trkpt>
      <trkpt lat="47.57032" lon="-3.1001">
        <ele>6.1</ele>
        <time>2017-11-12T14:54:56.000Z</time>
      </trkpt>
      <trkpt lat="47.57032" lon="-3.1001">
        <ele>6.1</ele>
        <time>2017-11-12T14:54:57.000Z</time>
      </trkpt>
      <trkpt lat="47.57032" lon="-3.1001">
        <ele>6.1</ele>
        <time>2017-11-12T14:54:58.000Z</time>
      </trkpt>
      <trkpt lat="47.57032" lon="-3.1001">
        <ele>6.1</ele>
        <time>2017-11-12T14:54:59.000Z</time>
      </trkpt>
      <trkpt lat="47.57032" lon="-3.1001">
        <ele>6.1</ele>
        <time>2017-11-12T14:55:00.000Z</time>
      </trkpt>
      <trkpt lat="47.57032" lon="-3.1001">
        <ele>6.1</ele>
        <time>2017-11-12T14:55:01.000Z</time>
      </trkpt>
      <trkpt lat="47.57032" lon="-3.1001">
        <ele>6.1</ele>
        <time>2017-11-12T14:55:02.000Z</time>
      </trkpt>
      <trkpt lat="47.57032" lon="-3.1001">
        <ele>6.1</ele>
        <time>2017-11-12T14:55:03.000Z</time>
      </trkpt>
      <trkpt lat="47.57032" lon="-3.1001">
        <ele>6.1</ele>
        <time>2017-11-12T14:55:04.000Z</time>
      </trkpt>
      <trkpt lat="47.57032" lon="-3.1001">
        <ele>6.1</ele>
        <time>2017-11-12T14:55:05.000Z</time>
      </trkpt>
      <trkpt lat="47.57032" lon="-3.1001">
        <ele>6.1</ele>
        <time>2017-11-12T14:55:06.000Z</time>
      </trkpt>
      <trkpt lat="47.57032" lon="-3.1001">
        <ele>6.1</ele>
        <time>2017-11-12T14:55:07.000Z</time>
      </trkpt>
      <trkpt lat="47.57032" lon="-3.1001">
        <ele>6.1</ele>
        <time>2017-11-12T14:55:08.000Z</time>
      </trkpt>
      <trkpt lat="47.57032" lon="-3.1001">
        <ele>6.1</ele>
        <time>2017-11-12T14:55:09.000Z</time>
      </trkpt>
      <trkpt lat="47.57032" lon="-3.1001">
        <ele>6.1</ele>
        <time>2017-11-12T14:55:10.000Z</time>
      </trkpt>
      <trkpt lat="47.57032" lon="-3.1001">
        <ele>6.1</ele>
        <time>2017-11-12T14:55:11.000Z</time>
      </trkpt>
      <trkpt lat="47.57032" lon="-3.1001">
        <ele>6.1</ele>
        <time>2017-11-12T14:55:12.000Z</time>
      </trkpt>
      <trkpt lat="47.57032" lon="-3.1001">
        <ele>6.1</ele>
        <time>2017-11-12T14:55:13.000Z</time>
      </trkpt>
      <trkpt lat="47.57032" lon="-3.1001">
        <ele>6.1</ele>
        <time>2017-11-12T14:55:14.000Z</time>
      </trkpt>
      <trkpt lat="47.57032" lon="-3.1001">
        <ele>6.1</ele>
        <time>2017-11-12T14:55:15.000Z</time>
      </trkpt>
      <trkpt lat="47.57032" lon="-3.1001">
        <ele>6.1</ele>
        <time>2017-11-12T14:55:16.000Z</time>
      </trkpt>
      <trkpt lat="47.57032" lon="-3.1001">
        <ele>6.1</ele>
        <time>2017-11-12T14:55:17.000Z</time>
      </trkpt>
      <trkpt lat="47.57032" lon="-3.1001">
        <ele>6.1</ele>
        <time>2017-11-12T14:55:18.000Z</time>
      </trkpt>
      <trkpt lat="47.57032" lon="-3.1001">
        <ele>6.1</ele>
        <time>2017-11-12T14:55:19.000Z</time>
      </trkpt>
      <trkpt lat="47.57032" lon="-3.1001">
        <ele>6.1</ele>
        <time>2017-11-12T14:55:20.000Z</time>
      </trkpt>
      <trkpt lat="47.57032" lon="-3.1001">
        <ele>6.1</ele>
        <time>2017-11-12T14:55:21.000Z</time>
      </trkpt>
    </trkseg>
  </trk>
</gpx>